Sasaki, Shun (2024): Radiosonde measurements from station Abashiri (2024-10) [dataset]. Japan Meteorological Agency, Tokyo, PANGAEA, https://doi.org/10.1594/PANGAEA.973937
Always quote citation above when using data! You can download the citation in several formats below.
Published: 2024-12-03 • DOI registered: 2025-01-01
Other version:
Sasaki, Shun (2024): BSRN Station-to-archive file for station Abashiri (2024-10) [dataset]. ftp://ftp.bsrn.awi.de/abs/abs1024.dat.gz
Project(s):
Coverage:
Latitude: 44.017800 * Longitude: 144.279700
Date/Time Start: 2024-10-01T00:00:00 * Date/Time End: 2024-10-31T23:59:00
Minimum ALTITUDE: 18 m * Maximum ALTITUDE: 28797 m
Event(s):
ABS (Abashiri) * Latitude: 44.017800 * Longitude: 144.279700 * Date/Time: 2021-03-01T00:00:00 * Elevation: 38.0 m * Station info: Abashiri.pdf * Location: Japan * Method/Device: Monitoring station (MONS) * Comment: BSRN station no: 86; Surface type: asphalt; Topography type: flat, rural; Horizon: doi:10.1594/PANGAEA.947000; Station scientist: SASAKI Shun (rrc-jma@met.kishou.go.jp)
Parameter(s):
| # | Name | Short Name | Unit | Principal Investigator | Method/Device | Comment |
|---|---|---|---|---|---|---|
| 1 | DATE/TIME | Date/Time | Sasaki, Shun | Geocode | ||
| 2 | ALTITUDE | Altitude | m | Sasaki, Shun | Geocode | |
| 3 | Pressure, at given altitude | PPPP | hPa | Sasaki, Shun | Radiosonde, Meisei, iMS | |
| 4 | Temperature, air | TTT | °C | Sasaki, Shun | Radiosonde, Meisei, iMS | |
| 5 | Dew/frost point | TdTdTd | °C | Sasaki, Shun | Radiosonde, Meisei, iMS | |
| 6 | Wind direction | dd | deg | Sasaki, Shun | Radiosonde, Meisei, iMS | |
| 7 | Wind speed | ff | m/s | Sasaki, Shun | Radiosonde, Meisei, iMS |
License:
Status:
Curation Level: Enhanced curation (CurationLevelC)
Size:
28787 data points
Data
| 1 Date/Time | 2 Altitude [m] | 3 PPPP [hPa] | 4 TTT [°C] | 5 TdTdTd [°C] | 6 dd [deg] | 7 ff [m/s] |
|---|---|---|---|---|---|---|
| 2024-10-01T00:00 | 9871 | 289 | 239 | 27 | ||
| 2024-10-01T00:00 | 10010 | 283 | -33.9 | -42.6 | ||
| 2024-10-01T00:01 | 10232 | 275 | 241 | 26 | ||
| 2024-10-01T00:01 | 10256 | 274 | -36.2 | -42.7 | ||
| 2024-10-01T00:02 | 10589 | 261 | 240 | 24 | ||
| 2024-10-01T00:02 | 10683 | 257 | -40.0 | -44.6 | ||
| 2024-10-01T00:03 | 10947 | 247 | 247 | 23 | ||
| 2024-10-01T00:03 | 11200 | 238 | -44.1 | |||
| 2024-10-01T00:03 | 11242 | 237 | 243 | 22 | ||
| 2024-10-01T00:04 | 11324 | 234 | -43.8 | |||
| 2024-10-01T00:04 | 11587 | 225 | 240 | 20 | ||
| 2024-10-01T00:05 | 11964 | 212 | 244 | 19 | ||
| 2024-10-01T00:06 | 12003 | 211 | -49.5 | |||
| 2024-10-01T00:06 | 12138 | 207 | -50.0 | |||
| 2024-10-01T00:06 | 12245 | 203 | 258 | 21 | ||
| 2024-10-01T00:07 | 12532 | 195 | -53.1 | |||
| 2024-10-01T00:07 | 12593 | 193 | 273 | 25 | ||
| 2024-10-01T00:08 | 12787 | 187 | -53.8 | |||
| 2024-10-01T00:08 | 12944 | 182 | 261 | 21 | ||
| 2024-10-01T00:09 | 13296 | 173 | 246 | 21 | ||
| 2024-10-01T00:10 | 13618 | 164 | -60.2 | |||
| 2024-10-01T00:10 | 13629 | 164 | 236 | 23 | ||
| 2024-10-01T00:11 | 13946 | 155 | 240 | 22 | ||
| 2024-10-01T00:12 | 14263 | 148 | 251 | 21 | ||
| 2024-10-01T00:13 | 14569 | 140 | 260 | 23 | ||
| 2024-10-01T00:13 | 14619 | 139 | -67.9 | |||
| 2024-10-01T00:14 | 14839 | 134 | 272 | 26 | ||
| 2024-10-01T00:14 | 14904 | 133 | -67.9 | |||
| 2024-10-01T00:15 | 15195 | 126 | 287 | 30 | ||
| 2024-10-01T00:15 | 15248 | 125 | -68.1 | |||
| 2024-10-01T00:16 | 15423 | 122 | 281 | 16 | ||
| 2024-10-01T00:16 | 15497 | 120 | -67.4 | |||
| 2024-10-01T00:16 | 15603 | 118 | -67.6 | |||
| 2024-10-01T00:16 | 15713 | 116 | 230 | 18 | ||
| 2024-10-01T00:17 | 15868 | 113 | 235 | 20 | ||
| 2024-10-01T00:17 | 15902 | 112 | -68.5 | |||
| 2024-10-01T00:17 | 16052 | 110 | -68.9 | |||
| 2024-10-01T00:18 | 16203 | 107 | 247 | 19 | ||
| 2024-10-01T00:18 | 16395 | 104 | -67.8 | |||
| 2024-10-01T00:18 | 16496 | 102 | 233 | 23 | ||
| 2024-10-01T00:19 | 16667 | 99 | -68.3 | |||
| 2024-10-01T00:19 | 16772 | 97 | 240 | 22 | ||
| 2024-10-01T00:20 | 16958 | 94 | -67.3 | |||
| 2024-10-01T00:20 | 17006 | 94 | 240 | 19 | ||
| 2024-10-01T00:21 | 17169 | 91 | -68.1 | |||
| 2024-10-01T00:21 | 17288 | 89 | 246 | 17 | ||
| 2024-10-01T00:21 | 17316 | 89 | -68.1 | |||
| 2024-10-01T00:21 | 17419 | 87 | -68.0 | |||
| 2024-10-01T00:21 | 17487 | 86 | -67.0 | |||
| 2024-10-01T00:22 | 17628 | 84 | 258 | 17 | ||
| 2024-10-01T00:22 | 17692 | 83 | -68.0 | |||
| 2024-10-01T00:22 | 17800 | 82 | 258 | 14 | ||
| 2024-10-01T00:23 | 17951 | 80 | -66.8 | |||
| 2024-10-01T00:23 | 18097 | 78 | 245 | 16 | ||
| 2024-10-01T00:23 | 18145 | 77 | -65.5 | |||
| 2024-10-01T00:24 | 18347 | 75 | 259 | 10 | ||
| 2024-10-01T00:24 | 18470 | 73 | -65.5 | |||
| 2024-10-01T00:25 | 18571 | 72 | -64.3 | |||
| 2024-10-01T00:25 | 18606 | 72 | 214 | 11 | ||
| 2024-10-01T00:26 | 18935 | 68 | 232 | 8 | ||
| 2024-10-01T00:26 | 18944 | 68 | -65.4 | |||
| 2024-10-01T00:27 | 19199 | 65 | -64.9 | |||
| 2024-10-01T00:27 | 19285 | 64 | 207 | 13 | ||
| 2024-10-01T00:28 | 19629 | 61 | 262 | 10 | ||
| 2024-10-01T00:28 | 19719 | 60 | -64.2 | |||
| 2024-10-01T00:28 | 19869 | 58 | 256 | 12 | ||
| 2024-10-01T00:29 | 20082 | 56 | 284 | 12 | ||
| 2024-10-01T00:29 | 20137 | 56 | -61.5 | |||
| 2024-10-01T00:30 | 20395 | 54 | 304 | 4 | ||
| 2024-10-01T00:30 | 20408 | 54 | -62.8 | |||
| 2024-10-01T00:30 | 20524 | 53 | -62.4 | |||
| 2024-10-01T00:30 | 20534 | 52 | 276 | 9 | ||
| 2024-10-01T00:31 | 20848 | 50 | -63.5 | |||
| 2024-10-01T00:31 | 20883 | 50 | 315 | 9 | ||
| 2024-10-01T00:32 | 21168 | 47 | 24 | 4 | ||
| 2024-10-01T00:33 | 21377 | 46 | 157 | 2 | ||
| 2024-10-01T00:33 | 21418 | 45 | -64.3 | |||
| 2024-10-01T00:33 | 21608 | 44 | 177 | 7 | ||
| 2024-10-01T00:34 | 21790 | 43 | 223 | 3 | ||
| 2024-10-01T00:34 | 21805 | 43 | -64.6 | |||
| 2024-10-01T00:34 | 21891 | 42 | 286 | 3 | ||
| 2024-10-01T00:34 | 22068 | 41 | 205 | 6 | ||
| 2024-10-01T00:35 | 22175 | 40 | 209 | 8 | ||
| 2024-10-01T00:35 | 22315 | 39 | 258 | 8 | ||
| 2024-10-01T00:35 | 22408 | 39 | -63.2 | |||
| 2024-10-01T00:35 | 22489 | 38 | 288 | 5 | ||
| 2024-10-01T00:36 | 22621 | 37 | 330 | 5 | ||
| 2024-10-01T00:36 | 22719 | 37 | -62.7 | |||
| 2024-10-01T00:36 | 22772 | 36 | 309 | 3 | ||
| 2024-10-01T00:36 | 22874 | 36 | 310 | 4 | ||
| 2024-10-01T00:37 | 22960 | 35 | 356 | 4 | ||
| 2024-10-01T00:37 | 22980 | 35 | 6 | 4 | ||
| 2024-10-01T00:37 | 23177 | 34 | 65 | 6 | ||
| 2024-10-01T00:37 | 23251 | 34 | -61.3 | |||
| 2024-10-01T00:38 | 23307 | 33 | 90 | 2 | ||
| 2024-10-01T00:38 | 23455 | 33 | 113 | 3 | ||
| 2024-10-01T00:38 | 23575 | 32 | 113 | 3 | ||
| 2024-10-01T00:39 | 23827 | 31 | -61.9 | |||
| 2024-10-01T00:39 | 23928 | 30 | 301 | 3 | ||
| 2024-10-01T00:39 | 24033 | 30 | 293 | 3 | ||
| 2024-10-01T00:40 | 24158 | 29 | 312 | 5 | ||
| 2024-10-01T00:40 | 24356 | 28 | -59.5 | |||
| 2024-10-01T00:40 | 24400 | 28 | 325 | 1 | ||
| 2024-10-01T00:41 | 24699 | 27 | -60.0 | |||
| 2024-10-01T00:41 | 24816 | 26 | 333 | 1 | ||
| 2024-10-01T00:42 | 25033 | 25 | 58 | 3 | ||
| 2024-10-01T00:42 | 25158 | 25 | 156 | 4 | ||
| 2024-10-01T00:42 | 25185 | 25 | -57.5 | |||
| 2024-10-01T00:43 | 25341 | 24 | 149 | 3 | ||
| 2024-10-01T00:43 | 25473 | 24 | 153 | 3 | ||
| 2024-10-01T00:43 | 25584 | 23 | -56.6 | 191 | 4 | |
| 2024-10-01T00:44 | 25803 | 22 | 192 | 9 | ||
| 2024-10-01T00:44 | 25945 | 22 | -56.6 | 202 | 10 | |
| 2024-10-01T00:45 | 26183 | 21 | -55.2 | |||
| 2024-10-01T00:45 | 26336 | 21 | 283 | 15 | ||
| 2024-10-01T00:46 | 26720 | 19 | 307 | 15 | ||
| 2024-10-01T00:47 | 27126 | 18 | 355 | 7 | ||
| 2024-10-01T00:47 | 27160 | 18 | 4 | 7 | ||
| 2024-10-01T00:47 | 27268 | 18 | 35 | 6 | ||
| 2024-10-01T00:47 | 27339 | 18 | -55.1 | |||
| 2024-10-01T00:48 | 27559 | 17 | 11 | 4 | ||
| 2024-10-01T00:48 | 27754 | 17 | -52.8 | |||
| 2024-10-01T00:49 | 27832 | 16 | 277 | 2 | ||
| 2024-10-01T00:49 | 27992 | 16 | 333 | 3 | ||
| 2024-10-01T00:49 | 28117 | 16 | 296 | 3 | ||
| 2024-10-01T00:50 | 28244 | 15 | 333 | 3 | ||
| 2024-10-01T00:50 | 28546 | 15 | 291 | 3 | ||
| 2024-10-01T00:50 | 28587 | 15 | -50.7 | 302 | 5 | |
| 2024-10-01T11:30 | 18 | 1006 | 19.9 | 16.4 | 150 | 4 |
| 2024-10-01T11:30 | 22 | 1005 | 20.2 | 16.6 | 150 | 1 |
| 2024-10-01T11:31 | 202 | 984 | 151 | 9 | ||
| 2024-10-01T11:31 | 366 | 966 | 17.2 | 15.0 | ||
| 2024-10-01T11:31 | 400 | 962 | 167 | 10 | ||
| 2024-10-01T11:31 | 557 | 945 | 16.0 | 13.8 | ||
| 2024-10-01T11:32 | 620 | 938 | 182 | 9 | ||
| 2024-10-01T11:32 | 669 | 932 | 15.8 | 12.7 | ||
| 2024-10-01T11:32 | 770 | 921 | 15.4 | 12.0 | ||
| 2024-10-01T11:32 | 867 | 911 | 215 | 7 | ||
| 2024-10-01T11:33 | 1270 | 868 | 10.9 | 10.1 | ||
| 2024-10-01T11:33 | 1322 | 863 | 216 | 13 | ||
| 2024-10-01T11:34 | 1633 | 831 | 8.9 | 7.7 | ||
| 2024-10-01T11:34 | 1707 | 824 | 226 | 16 | ||
| 2024-10-01T11:34 | 1734 | 821 | 10.0 | 2.8 | ||
| 2024-10-01T11:34 | 1831 | 811 | 10.1 | -0.4 | ||
| 2024-10-01T11:35 | 1914 | 803 | 9.7 | -2.6 | ||
| 2024-10-01T11:35 | 1970 | 798 | 10.6 | -5.8 | ||
| 2024-10-01T11:35 | 2067 | 789 | 11.6 | -9.4 | ||
| 2024-10-01T11:35 | 2079 | 788 | 244 | 14 | ||
| 2024-10-01T11:35 | 2177 | 778 | 11.4 | -16.1 | ||
| 2024-10-01T11:35 | 2232 | 773 | 11.7 | -21.5 | ||
| 2024-10-01T11:36 | 2269 | 770 | 13.3 | -25.6 | ||
| 2024-10-01T11:36 | 2287 | 768 | 233 | 18 | ||
| 2024-10-01T11:36 | 2367 | 761 | 13.2 | -23.7 | ||
| 2024-10-01T11:36 | 2486 | 750 | 224 | 14 | ||
| 2024-10-01T11:36 | 2511 | 748 | 12.4 | -28.7 | ||
| 2024-10-01T11:37 | 2867 | 717 | 220 | 14 | ||
| 2024-10-01T11:37 | 3007 | 704 | 8.3 | -27.3 | ||
| 2024-10-01T11:38 | 3285 | 681 | 209 | 14 | ||
| 2024-10-01T11:39 | 3493 | 664 | 4.9 | -31.7 | ||
| 2024-10-01T11:39 | 3584 | 656 | 213 | 19 | ||
| 2024-10-01T11:39 | 3667 | 650 | 5.3 | -40.6 | ||
| 2024-10-01T11:40 | 3913 | 630 | 3.6 | -41.7 | ||
| 2024-10-01T11:40 | 3993 | 624 | 213 | 18 | ||
| 2024-10-01T11:40 | 4120 | 614 | 3.5 | -37.9 | ||
| 2024-10-01T11:40 | 4174 | 610 | 225 | 18 | ||
| 2024-10-01T11:41 | 4362 | 596 | 221 | 22 | ||
| 2024-10-01T11:41 | 4421 | 592 | 2.0 | -38.9 | ||
| 2024-10-01T11:41 | 4613 | 578 | 226 | 23 | ||
| 2024-10-01T11:42 | 4810 | 564 | -0.2 | -44.3 | ||
| 2024-10-01T11:42 | 4899 | 558 | 225 | 24 | ||
| 2024-10-01T11:43 | 5152 | 540 | -2.4 | -51.8 | ||
| 2024-10-01T11:43 | 5228 | 535 | 226 | 26 | ||
| 2024-10-01T11:43 | 5341 | 528 | -3.7 | -46.6 | ||
| 2024-10-01T11:44 | 5383 | 525 | 224 | 26 | ||
| 2024-10-01T11:44 | 5625 | 509 | -6.0 | -44.5 | ||
| 2024-10-01T11:44 | 5731 | 502 | 215 | 26 | ||
| 2024-10-01T11:45 | 5959 | 487 | 220 | 24 | ||
| 2024-10-01T11:46 | 6339 | 464 | 221 | 26 | ||
| 2024-10-01T11:46 | 6376 | 462 | -12.1 | -39.8 | ||
| 2024-10-01T11:46 | 6474 | 456 | -11.8 | -38.4 | ||
| 2024-10-01T11:47 | 6542 | 452 | 230 | 24 | ||
| 2024-10-01T11:47 | 6591 | 449 | -10.8 | -38.8 | ||
| 2024-10-01T11:47 | 6771 | 439 | 226 | 29 | ||
| 2024-10-01T11:48 | 7006 | 425 | -13.3 | -35.2 | ||
| 2024-10-01T11:48 | 7029 | 424 | 222 | 29 | ||
| 2024-10-01T11:48 | 7141 | 418 | 227 | 26 | ||
| 2024-10-01T11:49 | 7241 | 412 | 222 | 28 | ||
| 2024-10-01T11:49 | 7271 | 411 | -15.4 | -36.2 | ||
| 2024-10-01T11:49 | 7337 | 407 | 216 | 26 | ||
| 2024-10-01T11:49 | 7361 | 406 | -15.4 | -35.6 | ||
| 2024-10-01T11:49 | 7423 | 402 | -15.9 | -28.2 | ||
| 2024-10-01T11:49 | 7442 | 401 | 221 | 29 | ||
| 2024-10-01T11:49 | 7543 | 396 | -16.5 | -25.0 | ||
| 2024-10-01T11:50 | 7588 | 394 | -16.3 | -17.8 | ||
| 2024-10-01T11:50 | 7685 | 389 | 227 | 30 | ||
| 2024-10-01T11:50 | 7828 | 381 | 227 | 30 | ||
| 2024-10-01T11:51 | 7963 | 375 | -18.7 | -20.1 | ||
| 2024-10-01T11:51 | 8028 | 371 | 227 | 26 | ||
| 2024-10-01T11:51 | 8166 | 365 | 226 | 29 | ||
| 2024-10-01T11:52 | 8388 | 354 | -21.7 | -23.5 | ||
| 2024-10-01T11:52 | 8577 | 345 | 224 | 31 | ||
| 2024-10-01T11:53 | 8901 | 330 | -25.9 | -26.8 | ||
| 2024-10-01T11:53 | 8971 | 327 | -26.5 | -28.3 | ||
| 2024-10-01T11:53 | 8999 | 325 | 229 | 30 | ||
| 2024-10-01T11:53 | 9063 | 322 | -26.1 | -36.0 | ||
| 2024-10-01T11:54 | 9239 | 315 | -26.6 | -39.3 | ||
| 2024-10-01T11:54 | 9294 | 312 | -26.7 | -46.2 | ||
| 2024-10-01T11:54 | 9355 | 310 | 227 | 34 | ||
| 2024-10-01T11:54 | 9557 | 301 | -28.9 | -46.9 | 224 | 37 |
| 2024-10-01T11:55 | 9743 | 293 | 225 | 34 | ||
| 2024-10-01T11:55 | 9937 | 285 | 226 | 37 | ||
| 2024-10-01T11:55 | 9971 | 284 | -32.8 | -42.1 | ||
| 2024-10-01T11:55 | 10026 | 282 | -33.4 | -36.6 | ||
| 2024-10-01T11:56 | 10074 | 280 | 231 | 33 | ||
| 2024-10-01T11:56 | 10100 | 279 | -33.5 | -37.7 | ||
| 2024-10-01T11:57 | 10453 | 265 | -36.4 | -42.4 | ||
| 2024-10-01T11:57 | 10466 | 265 | 226 | 35 | ||
| 2024-10-01T11:57 | 10597 | 260 | -37.6 | -42.2 | ||
| 2024-10-01T11:58 | 10870 | 250 | -39.9 | -44.1 | ||
| 2024-10-01T11:58 | 10877 | 249 | 223 | 33 | ||
| 2024-10-01T11:58 | 10890 | 249 | -40.0 | -44.5 | ||
| 2024-10-01T11:58 | 11036 | 244 | 223 | 37 | ||
| 2024-10-01T11:58 | 11235 | 236 | -42.3 | |||
| 2024-10-01T11:59 | 11439 | 229 | 218 | 37 | ||
| 2024-10-01T11:59 | 11446 | 229 | -43.2 | |||
| 2024-10-01T12:00 | 11659 | 222 | 224 | 37 | ||
| 2024-10-01T12:00 | 12060 | 209 | 225 | 36 | ||
| 2024-10-01T12:01 | 12325 | 201 | -50.3 | |||
| 2024-10-01T12:01 | 12475 | 196 | 230 | 38 | ||
| 2024-10-01T12:02 | 12688 | 190 | 231 | 34 | ||
| 2024-10-01T12:03 | 13076 | 179 | 230 | 35 | ||
| 2024-10-01T12:04 | 13478 | 168 | 229 | 36 | ||
| 2024-10-01T12:05 | 13710 | 162 | -60.4 | |||
| 2024-10-01T12:05 | 13927 | 156 | 232 | 38 | ||
| 2024-10-01T12:05 | 13983 | 155 | -62.1 | |||
| 2024-10-01T12:06 | 14378 | 145 | -64.8 | |||
| 2024-10-01T12:06 | 14393 | 145 | 239 | 36 | ||
| 2024-10-01T12:07 | 14652 | 139 | -65.2 | |||
| 2024-10-01T12:07 | 14801 | 135 | -65.3 | 226 | 33 | |
| 2024-10-01T12:08 | 15240 | 126 | 224 | 35 | ||
| 2024-10-01T12:08 | 15267 | 125 | -69.2 | |||
| 2024-10-01T12:08 | 15442 | 121 | -67.7 | |||
| 2024-10-01T12:09 | 15537 | 120 | 229 | 34 | ||
| 2024-10-01T12:09 | 15715 | 116 | -68.8 | |||
| 2024-10-01T12:10 | 15909 | 112 | 225 | 31 | ||
| 2024-10-01T12:10 | 15923 | 112 | -69.8 | |||
| 2024-10-01T12:10 | 16079 | 109 | 219 | 31 | ||
| 2024-10-01T12:10 | 16267 | 106 | -68.1 | |||
| 2024-10-01T12:11 | 16323 | 105 | 231 | 30 | ||
| 2024-10-01T12:11 | 16611 | 100 | -65.5 | |||
| 2024-10-01T12:11 | 16652 | 99 | 236 | 20 | ||
| 2024-10-01T12:12 | 16953 | 95 | 238 | 17 | ||
| 2024-10-01T12:13 | 17155 | 91 | -64.8 | |||
| 2024-10-01T12:13 | 17309 | 89 | 212 | 17 | ||
| 2024-10-01T12:13 | 17372 | 88 | -64.2 | |||
| 2024-10-01T12:14 | 17688 | 84 | 220 | 16 | ||
| 2024-10-01T12:15 | 18072 | 79 | 216 | 17 | ||
| 2024-10-01T12:15 | 18111 | 78 | -65.4 | |||
| 2024-10-01T12:15 | 18237 | 77 | 216 | 21 | ||
| 2024-10-01T12:16 | 18517 | 73 | 212 | 16 | ||
| 2024-10-01T12:16 | 18677 | 71 | -63.4 | |||
| 2024-10-01T12:17 | 18802 | 70 | 224 | 15 | ||
| 2024-10-01T12:18 | 19126 | 66 | -61.8 | |||
| 2024-10-01T12:18 | 19185 | 66 | 234 | 11 | ||
| 2024-10-01T12:19 | 19475 | 63 | 261 | 7 | ||
| 2024-10-01T12:19 | 19585 | 62 | -61.7 | |||
| 2024-10-01T12:19 | 19664 | 61 | 223 | 5 | ||
| 2024-10-01T12:19 | 19809 | 59 | 174 | 4 | ||
| 2024-10-01T12:20 | 19881 | 59 | -63.0 | |||
| 2024-10-01T12:20 | 19988 | 58 | 208 | 2 | ||
| 2024-10-01T12:20 | 20172 | 56 | 158 | 4 | ||
| 2024-10-01T12:21 | 20416 | 54 | 186 | 5 | ||
| 2024-10-01T12:21 | 20588 | 52 | -66.2 | |||
| 2024-10-01T12:22 | 20703 | 51 | 222 | 11 | ||
| 2024-10-01T12:22 | 20946 | 49 | 230 | 8 | ||
| 2024-10-01T12:23 | 21123 | 48 | -64.0 | |||
| 2024-10-01T12:23 | 21136 | 48 | 246 | 8 | ||
| 2024-10-01T12:24 | 21525 | 45 | 10 | 6 | ||
| 2024-10-01T12:24 | 21538 | 45 | -62.0 | |||
| 2024-10-01T12:24 | 21722 | 43 | -61.7 | |||
| 2024-10-01T12:25 | 21852 | 43 | 56 | 8 | ||
| 2024-10-01T12:26 | 22270 | 40 | 123 | 8 | ||
| 2024-10-01T12:26 | 22556 | 38 | -62.3 | |||
| 2024-10-01T12:27 | 22672 | 37 | 233 | 7 | ||
| 2024-10-01T12:27 | 22774 | 37 | 243 | 5 | ||
| 2024-10-01T12:27 | 22878 | 36 | 226 | 7 | ||
| 2024-10-01T12:27 | 22946 | 36 | -59.5 | |||
| 2024-10-01T12:27 | 23035 | 35 | 275 | 6 | ||
| 2024-10-01T12:28 | 23123 | 35 | 289 | 4 | ||
| 2024-10-01T12:28 | 23234 | 34 | -59.1 | 246 | 2 | |
| 2024-10-01T12:28 | 23345 | 33 | 13 | 3 | ||
| 2024-10-01T12:29 | 23554 | 32 | 74 | 3 | ||
| 2024-10-01T12:29 | 23635 | 32 | 138 | 3 | ||
| 2024-10-01T12:29 | 23713 | 32 | 128 | 3 | ||
| 2024-10-01T12:29 | 23790 | 31 | 115 | 3 | ||
| 2024-10-01T12:30 | 23933 | 30 | 176 | 4 | ||
| 2024-10-01T12:30 | 24253 | 29 | 240 | 4 | ||
| 2024-10-01T12:31 | 24274 | 29 | -59.2 | |||
| 2024-10-01T12:31 | 24475 | 28 | 337 | 5 | ||
| 2024-10-01T12:31 | 24655 | 27 | 358 | 8 | ||
| 2024-10-01T12:32 | 24772 | 27 | -58.2 | |||
| 2024-10-01T12:32 | 24943 | 26 | 358 | 8 | ||
| 2024-10-01T12:32 | 24966 | 26 | 2 | 7 | ||
| 2024-10-01T12:32 | 25024 | 26 | -57.4 | 21 | 6 | |
| 2024-10-01T23:30 | 18 | 1003 | 21.7 | 16.7 | 240 | 2 |
| 2024-10-01T23:30 | 22 | 1003 | 21.7 | 16.9 | 240 | 1 |
| 2024-10-01T23:30 | 143 | 989 | 294 | 3 | ||
| 2024-10-01T23:31 | 279 | 973 | 251 | 2 | ||
| 2024-10-01T23:31 | 297 | 971 | 19.7 | 15.1 | ||
| 2024-10-01T23:32 | 662 | 931 | 17.2 | 13.5 | 245 | 4 |
| 2024-10-01T23:33 | 997 | 895 | 252 | 9 | ||
| 2024-10-01T23:33 | 1267 | 867 | 11.8 | 11.8 | ||
| 2024-10-01T23:34 | 1377 | 856 | 259 | 9 | ||
| 2024-10-01T23:34 | 1513 | 842 | 249 | 8 | ||
| 2024-10-01T23:35 | 1915 | 802 | 254 | 14 | ||
| 2024-10-01T23:35 | 2012 | 793 | 8.7 | 8.7 | ||
| 2024-10-01T23:36 | 2143 | 780 | 250 | 12 | ||
| 2024-10-01T23:36 | 2434 | 753 | 240 | 16 | ||
| 2024-10-01T23:37 | 2600 | 738 | 6.6 | 6.6 | ||
| 2024-10-01T23:37 | 2734 | 726 | 228 | 15 | ||
| 2024-10-01T23:38 | 3032 | 700 | 233 | 16 | ||
| 2024-10-01T23:39 | 3216 | 685 | 4.0 | 4.0 | ||
| 2024-10-01T23:39 | 3348 | 674 | 241 | 19 | ||
| 2024-10-01T23:40 | 3689 | 646 | 239 | 24 | ||
| 2024-10-01T23:41 | 4095 | 614 | 233 | 26 | ||
| 2024-10-01T23:42 | 4361 | 594 | 236 | 28 | ||
| 2024-10-01T23:42 | 4515 | 583 | -2.3 | -2.4 | ||
| 2024-10-01T23:43 | 4747 | 566 | 225 | 28 | ||
| 2024-10-01T23:44 | 5011 | 547 | -5.1 | -5.1 | ||
| 2024-10-01T23:44 | 5136 | 538 | 220 | 30 | ||
| 2024-10-01T23:44 | 5209 | 533 | -6.7 | -7.2 | ||
| 2024-10-01T23:44 | 5296 | 528 | -6.5 | -6.8 | ||
| 2024-10-01T23:45 | 5536 | 512 | 223 | 28 | ||
| 2024-10-01T23:46 | 5828 | 493 | -10.5 | -11.5 | ||
| 2024-10-01T23:46 | 5900 | 488 | 230 | 29 | ||
| 2024-10-01T23:46 | 6052 | 479 | -11.9 | -13.1 | ||
| 2024-10-01T23:47 | 6243 | 467 | -12.2 | -12.2 | ||
| 2024-10-01T23:47 | 6269 | 465 | 233 | 34 | ||
| 2024-10-01T23:47 | 6389 | 458 | -12.1 | -12.1 | ||
| 2024-10-01T23:48 | 6551 | 448 | -13.2 | -13.2 | ||
| 2024-10-01T23:48 | 6642 | 443 | 228 | 39 | ||
| 2024-10-01T23:48 | 6822 | 433 | -14.9 | -16.6 | ||
| 2024-10-01T23:49 | 6986 | 423 | 227 | 38 | ||
| 2024-10-01T23:50 | 7178 | 413 | -16.6 | -17.7 | ||
| 2024-10-01T23:50 | 7296 | 406 | 225 | 39 | ||
| 2024-10-01T23:51 | 7524 | 394 | 227 | 37 | ||
| 2024-10-01T23:51 | 7635 | 388 | -19.7 | -21.0 | ||
| 2024-10-01T23:52 | 7775 | 381 | -19.9 | -21.8 | ||
| 2024-10-01T23:52 | 7827 | 378 | 233 | 46 | ||
| 2024-10-01T23:52 | 7861 | 377 | -19.6 | -23.4 | ||
| 2024-10-01T23:53 | 8089 | 365 | -20.8 | -25.8 | ||
| 2024-10-01T23:53 | 8139 | 363 | 228 | 45 | ||
| 2024-10-01T23:54 | 8513 | 345 | 224 | 45 | ||
| 2024-10-01T23:54 | 8783 | 332 | -26.2 | -29.5 | ||
| 2024-10-01T23:55 | 8918 | 326 | 223 | 44 | ||
| 2024-10-01T23:55 | 8970 | 324 | -27.8 | -33.0 | ||
| 2024-10-01T23:55 | 9218 | 313 | -30.0 | -34.9 | ||
| 2024-10-01T23:56 | 9299 | 309 | 224 | 45 | ||
| 2024-10-01T23:56 | 9476 | 301 | -31.1 | -39.4 | ||
| 2024-10-01T23:57 | 9675 | 293 | 223 | 49 | ||
| 2024-10-01T23:57 | 9952 | 282 | -34.6 | -39.5 | ||
| 2024-10-01T23:58 | 10021 | 279 | 222 | 50 | ||
| 2024-10-01T23:58 | 10198 | 272 | -36.3 | -40.8 | ||
| 2024-10-01T23:59 | 10339 | 267 | 225 | 51 | ||
| 2024-10-01T23:59 | 10420 | 263 | -37.6 | -42.7 | ||
| 2024-10-01T23:59 | 10537 | 259 | -37.9 | -48.2 | ||
| 2024-10-02T00:00 | 10604 | 256 | 226 | 51 | ||
| 2024-10-02T00:00 | 10823 | 248 | -38.7 | -51.4 | ||
| 2024-10-02T00:01 | 10890 | 246 | 223 | 49 | ||
| 2024-10-02T00:01 | 11004 | 242 | -40.0 | -51.9 | ||
| 2024-10-02T00:02 | 11261 | 233 | 221 | 47 | ||
| 2024-10-02T00:02 | 11514 | 224 | 221 | 48 | ||
| 2024-10-02T00:03 | 11928 | 211 | 221 | 50 | ||
| 2024-10-02T00:04 | 12242 | 201 | -50.3 | |||
| 2024-10-02T00:04 | 12377 | 197 | 221 | 49 | ||
| 2024-10-02T00:05 | 12808 | 184 | 221 | 48 | ||
| 2024-10-02T00:06 | 12935 | 181 | -55.5 | |||
| 2024-10-02T00:06 | 13204 | 173 | 220 | 49 | ||
| 2024-10-02T00:07 | 13555 | 164 | 224 | 48 | ||
| 2024-10-02T00:07 | 13576 | 163 | -60.3 | |||
| 2024-10-02T00:08 | 13894 | 155 | 226 | 48 | ||
| 2024-10-02T00:09 | 14204 | 147 | -62.9 | |||
| 2024-10-02T00:09 | 14289 | 145 | 223 | 47 | ||
| 2024-10-02T00:10 | 14656 | 137 | 209 | 46 | ||
| 2024-10-02T00:11 | 15031 | 129 | 213 | 47 | ||
| 2024-10-02T00:11 | 15095 | 127 | -69.2 | |||
| 2024-10-02T00:12 | 15445 | 120 | 218 | 44 | ||
| 2024-10-02T00:13 | 15829 | 113 | 220 | 43 | ||
| 2024-10-02T00:14 | 15911 | 111 | -67.5 | |||
| 2024-10-02T00:14 | 15977 | 110 | 223 | 41 | ||
| 2024-10-02T00:14 | 15995 | 110 | -66.9 | |||
| 2024-10-02T00:14 | 16097 | 108 | 230 | 34 | ||
| 2024-10-02T00:15 | 16266 | 105 | -65.4 | |||
| 2024-10-02T00:15 | 16385 | 103 | 225 | 31 | ||
| 2024-10-02T00:15 | 16498 | 101 | -59.2 | |||
| 2024-10-02T00:15 | 16584 | 99 | 219 | 23 | ||
| 2024-10-02T00:16 | 17007 | 93 | 219 | 20 | ||
| 2024-10-02T00:17 | 17195 | 90 | 211 | 21 | ||
| 2024-10-02T00:17 | 17331 | 88 | -65.5 | |||
| 2024-10-02T00:17 | 17385 | 87 | 203 | 24 | ||
| 2024-10-02T00:18 | 17598 | 84 | 205 | 23 | ||
| 2024-10-02T00:18 | 17682 | 83 | -67.0 | |||
| 2024-10-02T00:19 | 17779 | 82 | -65.7 | |||
| 2024-10-02T00:19 | 17935 | 80 | 208 | 23 | ||
| 2024-10-02T00:19 | 17944 | 80 | -63.5 | |||
| 2024-10-02T00:19 | 18048 | 78 | -61.2 | |||
| 2024-10-02T00:20 | 18304 | 75 | 212 | 20 | ||
| 2024-10-02T00:20 | 18385 | 74 | -61.5 | |||
| 2024-10-02T00:21 | 18661 | 71 | 212 | 18 | ||
| 2024-10-02T00:22 | 18856 | 69 | -61.5 | |||
| 2024-10-02T00:22 | 19004 | 67 | 222 | 15 | ||
| 2024-10-02T00:22 | 19048 | 67 | -60.4 | |||
| 2024-10-02T00:23 | 19405 | 63 | 201 | 18 | ||
| 2024-10-02T00:24 | 19634 | 61 | -62.6 | |||
| 2024-10-02T00:24 | 19798 | 59 | 222 | 18 | ||
| 2024-10-02T00:24 | 19872 | 58 | -62.0 | |||
| 2024-10-02T00:25 | 20134 | 56 | -61.1 | |||
| 2024-10-02T00:25 | 20167 | 56 | 204 | 8 | ||
| 2024-10-02T00:26 | 20472 | 53 | 168 | 8 | ||
| 2024-10-02T00:26 | 20701 | 51 | 175 | 10 | ||
| 2024-10-02T00:26 | 20773 | 50 | -62.3 | |||
| 2024-10-02T00:27 | 21101 | 48 | 194 | 14 | ||
| 2024-10-02T00:28 | 21231 | 47 | -62.3 | |||
| 2024-10-02T00:28 | 21499 | 45 | 195 | 13 | ||
| 2024-10-02T00:29 | 21653 | 44 | -63.8 | |||
| 2024-10-02T00:29 | 21825 | 43 | 198 | 9 | ||
| 2024-10-02T00:30 | 21973 | 42 | 200 | 1 | ||
| 2024-10-02T00:30 | 22064 | 41 | 109 | 3 | ||
| 2024-10-02T00:30 | 22125 | 41 | -59.4 | |||
| 2024-10-02T00:31 | 22442 | 39 | 140 | 8 | ||
| 2024-10-02T00:32 | 22858 | 36 | 197 | 8 | ||
| 2024-10-02T00:32 | 23014 | 35 | 208 | 6 | ||
| 2024-10-02T00:32 | 23139 | 34 | 178 | 6 | ||
| 2024-10-02T00:33 | 23157 | 34 | -62.7 | |||
| 2024-10-02T00:33 | 23302 | 34 | 207 | 6 | ||
| 2024-10-02T00:33 | 23415 | 33 | 231 | 4 | ||
| 2024-10-02T00:34 | 23609 | 32 | 179 | 4 | ||
| 2024-10-02T00:34 | 23706 | 31 | 141 | 4 | ||
| 2024-10-02T00:34 | 23803 | 31 | 105 | 6 | ||
| 2024-10-02T00:34 | 23848 | 31 | -58.5 | |||
| 2024-10-02T00:35 | 24227 | 29 | 105 | 5 | ||
| 2024-10-02T00:36 | 24676 | 27 | 103 | 5 | ||
| 2024-10-02T00:37 | 25117 | 25 | 103 | 5 | ||
| 2024-10-02T00:38 | 25249 | 25 | 84 | 3 | ||
| 2024-10-02T00:38 | 25351 | 24 | 20 | 3 | ||
| 2024-10-02T00:38 | 25645 | 23 | 49 | 4 | ||
| 2024-10-02T00:39 | 25984 | 22 | -55.1 | |||
| 2024-10-02T00:39 | 26073 | 22 | 104 | 9 | ||
| 2024-10-02T00:40 | 26315 | 21 | 126 | 13 | ||
| 2024-10-02T00:41 | 26762 | 19 | 190 | 9 | ||
| 2024-10-02T00:41 | 26893 | 19 | -54.3 | |||
| 2024-10-02T00:42 | 27027 | 19 | 230 | 7 | ||
| 2024-10-02T00:42 | 27203 | 18 | 225 | 3 | ||
| 2024-10-02T00:43 | 27460 | 17 | 193 | 4 | ||
| 2024-10-02T00:43 | 27682 | 17 | 185 | 4 | ||
| 2024-10-02T00:44 | 28038 | 16 | -52.6 | 226 | 4 | |
| 2024-10-02T00:44 | 28120 | 16 | 171 | 3 | ||
| 2024-10-02T00:44 | 28205 | 16 | 167 | 5 | ||
| 2024-10-02T00:45 | 28268 | 15 | -50.8 | 178 | 5 | |
| 2024-10-02T11:30 | 18 | 1014 | 16.6 | 12.9 | 340 | 4 |
| 2024-10-02T11:30 | 22 | 1014 | 16.6 | 13.1 | 0 | 0 |
| 2024-10-02T11:30 | 66 | 1008 | 16.5 | 12.5 | ||
| 2024-10-02T11:30 | 157 | 998 | 334 | 7 | ||
| 2024-10-02T11:31 | 290 | 982 | 14.6 | 10.4 | ||
| 2024-10-02T11:31 | 374 | 972 | 14.2 | 9.0 | ||
| 2024-10-02T11:31 | 390 | 970 | 311 | 4 | ||
| 2024-10-02T11:32 | 695 | 936 | 291 | 7 | ||
| 2024-10-02T11:33 | 896 | 913 | 290 | 8 | ||
| 2024-10-02T11:33 | 942 | 908 | 9.3 | 5.5 | ||
| 2024-10-02T11:34 | 1169 | 884 | 7.6 | 3.1 | ||
| 2024-10-02T11:34 | 1178 | 883 | 291 | 12 | ||
| 2024-10-02T11:34 | 1355 | 864 | 6.3 | 4.0 | ||
| 2024-10-02T11:35 | 1467 | 852 | 5.8 | 4.0 | ||
| 2024-10-02T11:35 | 1472 | 852 | 260 | 12 | ||
| 2024-10-02T11:35 | 1602 | 838 | 4.9 | 3.7 | ||
| 2024-10-02T11:36 | 1707 | 828 | 255 | 8 | ||
| 2024-10-02T11:36 | 1836 | 815 | 3.0 | 2.6 | ||
| 2024-10-02T11:37 | 1995 | 799 | 240 | 10 | ||
| 2024-10-02T11:37 | 2137 | 785 | 1.6 | -0.2 | ||
| 2024-10-02T11:37 | 2280 | 771 | 242 | 11 | ||
| 2024-10-02T11:38 | 2469 | 753 | -0.9 | -2.2 | ||
| 2024-10-02T11:38 | 2589 | 742 | -2.0 | -3.0 | ||
| 2024-10-02T11:38 | 2600 | 741 | 243 | 13 | ||
| 2024-10-02T11:39 | 2718 | 730 | -2.3 | -6.1 | ||
| 2024-10-02T11:39 | 2745 | 727 | -1.9 | -8.9 | ||
| 2024-10-02T11:39 | 2872 | 716 | 248 | 16 | ||
| 2024-10-02T11:39 | 2882 | 715 | -1.6 | -24.2 | ||
| 2024-10-02T11:40 | 2934 | 710 | -0.5 | -37.9 | ||
| 2024-10-02T11:40 | 2995 | 705 | 2.6 | -38.5 | ||
| 2024-10-02T11:40 | 3056 | 700 | 240 | 28 | ||
| 2024-10-02T11:41 | 3237 | 684 | 2.1 | -42.7 | ||
| 2024-10-02T11:41 | 3275 | 681 | 240 | 28 | ||
| 2024-10-02T11:41 | 3323 | 677 | 1.9 | -42.9 | ||
| 2024-10-02T11:41 | 3436 | 667 | 1.7 | -49.3 | ||
| 2024-10-02T11:41 | 3511 | 661 | 2.0 | -49.1 | ||
| 2024-10-02T11:42 | 3616 | 652 | 235 | 32 | ||
| 2024-10-02T11:42 | 3772 | 640 | 0.1 | -44.1 | ||
| 2024-10-02T11:42 | 3912 | 629 | -0.5 | -23.3 | ||
| 2024-10-02T11:43 | 3962 | 625 | 242 | 36 | ||
| 2024-10-02T11:43 | 4042 | 619 | -0.5 | -27.4 | ||
| 2024-10-02T11:43 | 4237 | 604 | 237 | 40 | ||
| 2024-10-02T11:44 | 4308 | 598 | -1.6 | -27.4 | ||
| 2024-10-02T11:44 | 4534 | 581 | -3.2 | -28.6 | ||
| 2024-10-02T11:44 | 4626 | 575 | 238 | 41 | ||
| 2024-10-02T11:45 | 4732 | 567 | -4.5 | -28.0 | ||
| 2024-10-02T11:45 | 4870 | 557 | -5.4 | -31.3 | ||
| 2024-10-02T11:45 | 5020 | 547 | 233 | 43 | ||
| 2024-10-02T11:46 | 5215 | 533 | -8.0 | -26.0 | ||
| 2024-10-02T11:46 | 5339 | 525 | -8.9 | -20.7 | ||
| 2024-10-02T11:46 | 5394 | 521 | 235 | 44 | ||
| 2024-10-02T11:47 | 5526 | 512 | -10.1 | -19.8 | ||
| 2024-10-02T11:47 | 5585 | 508 | -9.9 | -23.9 | ||
| 2024-10-02T11:47 | 5667 | 503 | -10.4 | -20.3 | ||
| 2024-10-02T11:47 | 5728 | 499 | 234 | 44 | ||
| 2024-10-02T11:47 | 5740 | 498 | -10.9 | -18.4 | ||
| 2024-10-02T11:47 | 5796 | 495 | -10.5 | -25.9 | ||
| 2024-10-02T11:48 | 5929 | 486 | -11.6 | -27.3 | ||
| 2024-10-02T11:48 | 5987 | 482 | -11.9 | -30.4 | ||
| 2024-10-02T11:48 | 6109 | 475 | 232 | 46 | ||
| 2024-10-02T11:48 | 6167 | 471 | -13.9 | -23.3 | ||
| 2024-10-02T11:49 | 6229 | 467 | -14.5 | -20.2 | ||
| 2024-10-02T11:49 | 6266 | 465 | -13.7 | -14.6 | ||
| 2024-10-02T11:49 | 6347 | 460 | -12.9 | -13.8 | ||
| 2024-10-02T11:49 | 6484 | 452 | 224 | 48 | ||
| 2024-10-02T11:50 | 6723 | 438 | 228 | 50 | ||
| 2024-10-02T11:50 | 6935 | 426 | 228 | 53 | ||
| 2024-10-02T11:51 | 6977 | 423 | -17.1 | -18.6 | ||
| 2024-10-02T11:51 | 7248 | 408 | 232 | 58 | ||
| 2024-10-02T11:52 | 7299 | 405 | -18.9 | -21.2 | ||
| 2024-10-02T11:52 | 7559 | 391 | 226 | 55 | ||
| 2024-10-02T11:53 | 7612 | 389 | -19.9 | -22.0 | ||
| 2024-10-02T11:53 | 7916 | 373 | 225 | 56 | ||
| 2024-10-02T11:54 | 8333 | 352 | 224 | 56 | ||
| 2024-10-02T11:55 | 8771 | 332 | 226 | 58 | ||
| 2024-10-02T11:56 | 8817 | 329 | -29.5 | -31.7 | ||
| 2024-10-02T11:56 | 8893 | 326 | -29.7 | -34.3 | ||
| 2024-10-02T11:56 | 9084 | 317 | -30.6 | -38.1 | ||
| 2024-10-02T11:56 | 9217 | 311 | 229 | 67 | ||
| 2024-10-02T11:57 | 9270 | 309 | -31.5 | -39.7 | ||
| 2024-10-02T11:57 | 9501 | 299 | -31.6 | -39.6 | ||
| 2024-10-02T11:57 | 9594 | 295 | 226 | 70 | ||
| 2024-10-02T11:58 | 9969 | 280 | 227 | 69 | ||
| 2024-10-02T11:59 | 10288 | 267 | -37.6 | -44.2 | ||
| 2024-10-02T11:59 | 10344 | 265 | 228 | 70 | ||
| 2024-10-02T12:00 | 10590 | 256 | -40.0 | -44.8 | ||
| 2024-10-02T12:00 | 10715 | 251 | 228 | 72 | ||
| 2024-10-02T12:01 | 11080 | 238 | 232 | 70 | ||
| 2024-10-02T12:02 | 11196 | 234 | -44.8 | |||
| 2024-10-02T12:02 | 11386 | 227 | 234 | 72 | ||
| 2024-10-02T12:03 | 11715 | 216 | 234 | 70 | ||
| 2024-10-02T12:04 | 12021 | 206 | -50.1 | |||
| 2024-10-02T12:04 | 12031 | 206 | 235 | 69 | ||
| 2024-10-02T12:05 | 12334 | 197 | 237 | 70 | ||
| 2024-10-02T12:06 | 12623 | 188 | -54.1 | |||
| 2024-10-02T12:06 | 12670 | 187 | 237 | 68 | ||
| 2024-10-02T12:07 | 12922 | 179 | 235 | 62 | ||
| 2024-10-02T12:07 | 12998 | 177 | -53.9 | |||
| 2024-10-02T12:08 | 13278 | 170 | 228 | 59 | ||
| 2024-10-02T12:09 | 13502 | 164 | -56.6 | |||
| 2024-10-02T12:09 | 13694 | 159 | 223 | 59 | ||
| 2024-10-02T12:10 | 14092 | 149 | 222 | 61 | ||
| 2024-10-02T12:11 | 14362 | 143 | -63.3 | |||
| 2024-10-02T12:11 | 14391 | 142 | 226 | 60 | ||
| 2024-10-02T12:12 | 14665 | 136 | 230 | 55 | ||
| 2024-10-02T12:12 | 14829 | 132 | 234 | 53 | ||
| 2024-10-02T12:12 | 14954 | 130 | -66.1 | |||
| 2024-10-02T12:13 | 15119 | 126 | 231 | 49 | ||
| 2024-10-02T12:13 | 15171 | 125 | -66.6 | |||
| 2024-10-02T12:13 | 15273 | 123 | -64.8 | |||
| 2024-10-02T12:13 | 15297 | 122 | 238 | 52 | ||
| 2024-10-02T12:13 | 15362 | 121 | -61.5 | |||
| 2024-10-02T12:13 | 15532 | 118 | 232 | 34 | ||
| 2024-10-02T12:14 | 15573 | 117 | -61.1 | |||
| 2024-10-02T12:14 | 15924 | 111 | 223 | 41 | ||
| 2024-10-02T12:15 | 16028 | 109 | -62.8 | |||
| 2024-10-02T12:15 | 16222 | 105 | -62.1 | 218 | 36 | |
| 2024-10-02T12:16 | 16607 | 99 | -64.2 | |||
| 2024-10-02T12:16 | 16666 | 98 | 221 | 36 | ||
| 2024-10-02T12:17 | 16909 | 94 | -63.7 | |||
| 2024-10-02T12:17 | 17106 | 91 | 232 | 32 | ||
| 2024-10-02T12:17 | 17193 | 90 | -61.6 | |||
| 2024-10-02T12:18 | 17336 | 88 | 241 | 30 | ||
| 2024-10-02T12:18 | 17486 | 86 | 243 | 23 | ||
| 2024-10-02T12:18 | 17575 | 85 | -61.4 | |||
| 2024-10-02T12:19 | 17835 | 81 | 224 | 24 | ||
| 2024-10-02T12:19 | 17867 | 81 | -62.0 | |||
| 2024-10-02T12:19 | 18009 | 79 | -59.1 | |||
| 2024-10-02T12:20 | 18193 | 77 | 217 | 24 | ||
| 2024-10-02T12:21 | 18481 | 73 | -58.1 | |||
| 2024-10-02T12:21 | 18603 | 72 | 197 | 22 | ||
| 2024-10-02T12:21 | 18855 | 69 | 190 | 18 | ||
| 2024-10-02T12:22 | 19331 | 64 | 201 | 15 | ||
| 2024-10-02T12:23 | 19449 | 63 | -64.4 | |||
| 2024-10-02T12:23 | 19516 | 62 | 202 | 16 | ||
| 2024-10-02T12:24 | 19908 | 58 | 214 | 20 | ||
| 2024-10-02T12:24 | 20137 | 56 | -60.9 | |||
| 2024-10-02T12:25 | 20282 | 55 | 231 | 21 | ||
| 2024-10-02T12:25 | 20362 | 54 | -57.6 | |||
| 2024-10-02T12:25 | 20435 | 53 | 218 | 7 | ||
| 2024-10-02T12:25 | 20554 | 52 | -57.6 | |||
| 2024-10-02T12:26 | 20809 | 50 | 210 | 8 | ||
| 2024-10-02T12:27 | 21097 | 48 | -60.2 | |||
| 2024-10-02T12:27 | 21126 | 48 | 224 | 11 | ||
| 2024-10-02T12:28 | 21422 | 46 | 206 | 8 | ||
| 2024-10-02T12:28 | 21641 | 44 | -61.2 | |||
| 2024-10-02T12:28 | 21727 | 43 | -57.2 | |||
| 2024-10-02T12:29 | 21772 | 43 | 220 | 5 | ||
| 2024-10-02T12:29 | 21875 | 42 | 239 | 3 | ||
| 2024-10-02T12:29 | 21938 | 42 | 197 | 2 | ||
| 2024-10-02T12:29 | 22009 | 42 | 133 | 3 | ||
| 2024-10-02T12:30 | 22181 | 40 | 122 | 2 | ||
| 2024-10-02T12:30 | 22386 | 39 | -61.0 | |||
| 2024-10-02T12:30 | 22496 | 38 | 140 | 6 | ||
| 2024-10-02T12:30 | 22526 | 38 | -60.4 | |||
| 2024-10-02T12:31 | 22727 | 37 | 197 | 9 | ||
| 2024-10-02T12:31 | 22862 | 36 | 205 | 10 | ||
| 2024-10-02T12:32 | 23022 | 35 | 215 | 10 | ||
| 2024-10-02T12:32 | 23145 | 35 | -60.0 | |||
| 2024-10-02T12:32 | 23183 | 34 | 208 | 6 | ||
| 2024-10-02T12:32 | 23332 | 34 | 182 | 6 | ||
| 2024-10-02T12:33 | 23383 | 33 | -58.5 | 179 | 5 | |
| 2024-10-02T23:30 | 18 | 1024 | 15.0 | 7.5 | 310 | 0 |
| 2024-10-02T23:30 | 22 | 1024 | 15.0 | 7.1 | 0 | 0 |
| 2024-10-02T23:31 | 376 | 982 | 0 | 0 | ||
| 2024-10-02T23:31 | 491 | 968 | 90 | 3 | ||
| 2024-10-02T23:32 | 597 | 956 | 9.4 | 3.6 | ||
| 2024-10-02T23:32 | 640 | 951 | 71 | 3 | ||
| 2024-10-02T23:32 | 704 | 944 | 8.8 | 1.5 | ||
| 2024-10-02T23:32 | 769 | 936 | 28 | 3 | ||
| 2024-10-02T23:32 | 862 | 926 | 7.9 | 1.5 | ||
| 2024-10-02T23:33 | 1051 | 905 | 356 | 6 | ||
| 2024-10-02T23:33 | 1147 | 894 | 5.4 | 2.2 | ||
| 2024-10-02T23:34 | 1242 | 884 | 359 | 7 | ||
| 2024-10-02T23:34 | 1401 | 867 | 350 | 7 | ||
| 2024-10-02T23:34 | 1511 | 855 | 2.3 | 0.2 | ||
| 2024-10-02T23:35 | 1537 | 853 | 3.0 | -3.8 | ||
| 2024-10-02T23:35 | 1579 | 848 | 4.3 | -16.1 | ||
| 2024-10-02T23:35 | 1625 | 843 | 5.9 | -25.9 | ||
| 2024-10-02T23:35 | 1681 | 838 | 346 | 6 | ||
| 2024-10-02T23:35 | 1686 | 837 | 6.6 | -30.5 | ||
| 2024-10-02T23:35 | 1774 | 828 | 352 | 5 | ||
| 2024-10-02T23:36 | 1898 | 816 | 6.5 | -35.8 | 23 | 5 |
| 2024-10-02T23:36 | 1957 | 810 | 33 | 3 | ||
| 2024-10-02T23:36 | 2071 | 799 | 317 | 2 | ||
| 2024-10-02T23:37 | 2281 | 778 | 248 | 3 | ||
| 2024-10-02T23:37 | 2308 | 776 | 5.7 | -40.3 | ||
| 2024-10-02T23:37 | 2417 | 766 | 6.2 | -40.0 | ||
| 2024-10-02T23:38 | 2539 | 754 | 7.2 | -39.3 | ||
| 2024-10-02T23:38 | 2612 | 748 | 256 | 14 | ||
| 2024-10-02T23:39 | 2838 | 727 | 254 | 13 | ||
| 2024-10-02T23:39 | 2844 | 727 | 5.4 | -40.5 | ||
| 2024-10-02T23:39 | 3022 | 711 | 4.2 | -37.4 | ||
| 2024-10-02T23:40 | 3184 | 697 | 255 | 10 | ||
| 2024-10-02T23:40 | 3385 | 680 | 1.5 | -39.3 | ||
| 2024-10-02T23:40 | 3450 | 674 | 246 | 13 | ||
| 2024-10-02T23:41 | 3754 | 649 | -1.3 | -45.0 | ||
| 2024-10-02T23:41 | 3798 | 646 | 240 | 16 | ||
| 2024-10-02T23:42 | 4065 | 624 | -2.7 | -45.9 | ||
| 2024-10-02T23:42 | 4125 | 620 | 238 | 16 | ||
| 2024-10-02T23:43 | 4248 | 610 | -3.3 | -37.7 | ||
| 2024-10-02T23:43 | 4348 | 602 | 256 | 23 | ||
| 2024-10-02T23:44 | 4603 | 583 | -5.1 | -34.4 | ||
| 2024-10-02T23:44 | 4702 | 576 | 262 | 27 | ||
| 2024-10-02T23:44 | 4852 | 565 | -6.6 | -29.0 | ||
| 2024-10-02T23:45 | 5003 | 554 | -5.4 | -33.4 | ||
| 2024-10-02T23:45 | 5039 | 552 | 253 | 34 | ||
| 2024-10-02T23:45 | 5132 | 545 | 250 | 33 | ||
| 2024-10-02T23:46 | 5276 | 535 | -5.6 | -39.4 | ||
| 2024-10-02T23:46 | 5483 | 521 | 246 | 33 | ||
| 2024-10-02T23:47 | 5853 | 497 | 240 | 34 | ||
| 2024-10-02T23:48 | 6001 | 488 | -11.7 | -43.9 | ||
| 2024-10-02T23:48 | 6057 | 484 | 243 | 32 | ||
| 2024-10-02T23:48 | 6232 | 473 | -13.3 | -45.1 | ||
| 2024-10-02T23:49 | 6433 | 461 | 250 | 34 | ||
| 2024-10-02T23:50 | 6712 | 444 | -16.5 | -45.8 | ||
| 2024-10-02T23:50 | 6795 | 439 | 250 | 35 | ||
| 2024-10-02T23:50 | 6926 | 431 | -17.5 | -39.4 | ||
| 2024-10-02T23:50 | 6961 | 429 | 258 | 38 | ||
| 2024-10-02T23:50 | 7039 | 425 | -18.1 | -36.1 | ||
| 2024-10-02T23:51 | 7154 | 418 | 263 | 43 | ||
| 2024-10-02T23:51 | 7190 | 416 | -19.4 | -31.0 | ||
| 2024-10-02T23:51 | 7280 | 411 | -20.1 | -27.2 | ||
| 2024-10-02T23:51 | 7388 | 405 | -20.9 | -24.6 | ||
| 2024-10-02T23:52 | 7520 | 398 | 257 | 45 | ||
| 2024-10-02T23:52 | 7651 | 391 | -21.9 | -24.8 | ||
| 2024-10-02T23:52 | 7713 | 388 | -21.3 | -23.8 | ||
| 2024-10-02T23:52 | 7769 | 385 | -20.9 | -23.3 | ||
| 2024-10-02T23:53 | 7892 | 379 | 241 | 49 | ||
| 2024-10-02T23:53 | 8084 | 369 | -22.1 | -24.1 | ||
| 2024-10-02T23:54 | 8284 | 359 | 234 | 49 | ||
| 2024-10-02T23:54 | 8497 | 349 | -24.9 | -26.4 | ||
| 2024-10-02T23:54 | 8551 | 346 | 228 | 51 | ||
| 2024-10-02T23:55 | 8921 | 329 | 228 | 48 | ||
| 2024-10-02T23:56 | 9097 | 321 | 229 | 50 | ||
| 2024-10-02T23:56 | 9375 | 308 | -31.7 | -32.9 | ||
| 2024-10-02T23:57 | 9420 | 306 | 231 | 51 | ||
| 2024-10-02T23:58 | 9800 | 290 | 236 | 53 | ||
| 2024-10-02T23:58 | 9853 | 288 | -35.5 | -36.1 | ||
| 2024-10-02T23:58 | 9930 | 285 | -36.2 | -36.9 | ||
| 2024-10-02T23:58 | 10085 | 279 | -37.5 | -38.3 | ||
| 2024-10-02T23:59 | 10172 | 275 | 238 | 53 | ||
| 2024-10-02T23:59 | 10393 | 266 | -40.0 | -42.4 | ||
| 2024-10-02T23:59 | 10441 | 264 | 243 | 60 | ||
| 2024-10-03T00:00 | 10821 | 250 | 243 | 59 | ||
| 2024-10-03T00:01 | 11174 | 237 | 243 | 59 | ||
| 2024-10-03T00:02 | 11521 | 225 | 244 | 59 | ||
| 2024-10-03T00:03 | 11830 | 215 | -52.7 | |||
| 2024-10-03T00:03 | 11846 | 214 | 248 | 61 | ||
| 2024-10-03T00:04 | 12159 | 204 | 252 | 66 | ||
| 2024-10-03T00:05 | 12281 | 200 | -53.2 | |||
| 2024-10-03T00:05 | 12411 | 196 | -53.3 | |||
| 2024-10-03T00:05 | 12439 | 195 | 253 | 63 | ||
| 2024-10-03T00:06 | 12697 | 187 | -53.8 | |||
| 2024-10-03T00:06 | 12735 | 186 | 254 | 60 | ||
| 2024-10-03T00:07 | 13058 | 177 | 247 | 54 | ||
| 2024-10-03T00:08 | 13401 | 168 | 243 | 50 | ||
| 2024-10-03T00:08 | 13429 | 167 | -57.4 | |||
| 2024-10-03T00:09 | 13850 | 156 | 230 | 48 | ||
| 2024-10-03T00:10 | 13977 | 153 | -61.4 | |||
| 2024-10-03T00:10 | 14089 | 150 | 230 | 47 | ||
| 2024-10-03T00:11 | 14447 | 142 | 232 | 49 | ||
| 2024-10-03T00:12 | 14774 | 134 | 236 | 48 | ||
| 2024-10-03T00:13 | 15010 | 129 | -68.4 | |||
| 2024-10-03T00:13 | 15097 | 127 | 232 | 50 | ||
| 2024-10-03T00:13 | 15135 | 127 | -67.6 | |||
| 2024-10-03T00:14 | 15429 | 121 | 235 | 51 | ||
| 2024-10-03T00:14 | 15486 | 119 | -69.6 | |||
| 2024-10-03T00:14 | 15651 | 116 | -69.4 | |||
| 2024-10-03T00:15 | 15681 | 116 | 239 | 49 | ||
| 2024-10-03T00:15 | 15771 | 114 | -65.6 | |||
| 2024-10-03T00:15 | 15853 | 112 | 248 | 41 | ||
| 2024-10-03T00:15 | 15933 | 111 | -65.1 | |||
| 2024-10-03T00:16 | 16165 | 107 | 256 | 35 | ||
| 2024-10-03T00:16 | 16170 | 107 | -65.5 | |||
| 2024-10-03T00:16 | 16325 | 104 | 246 | 27 | ||
| 2024-10-03T00:16 | 16331 | 104 | -64.2 | |||
| 2024-10-03T00:17 | 16652 | 99 | 229 | 27 | ||
| 2024-10-03T00:18 | 16971 | 94 | 216 | 28 | ||
| 2024-10-03T00:19 | 17106 | 91 | -67.1 | |||
| 2024-10-03T00:19 | 17202 | 90 | 226 | 31 | ||
| 2024-10-03T00:19 | 17207 | 90 | -65.2 | |||
| 2024-10-03T00:19 | 17272 | 89 | -62.9 | |||
| 2024-10-03T00:20 | 17396 | 87 | -62.8 | |||
| 2024-10-03T00:20 | 17532 | 85 | 231 | 27 | ||
| 2024-10-03T00:21 | 17776 | 82 | 239 | 23 | ||
| 2024-10-03T00:21 | 17793 | 82 | -61.8 | |||
| 2024-10-03T00:22 | 18006 | 79 | -62.3 | |||
| 2024-10-03T00:22 | 18110 | 78 | 236 | 25 | ||
| 2024-10-03T00:22 | 18222 | 76 | -61.5 | |||
| 2024-10-03T00:23 | 18453 | 74 | 238 | 19 | ||
| 2024-10-03T00:23 | 18583 | 72 | -61.2 | |||
| 2024-10-03T00:24 | 18740 | 70 | 222 | 15 | ||
| 2024-10-03T00:24 | 18926 | 68 | -61.4 | |||
| 2024-10-03T00:24 | 18999 | 67 | 199 | 18 | ||
| 2024-10-03T00:25 | 19253 | 65 | -62.2 | |||
| 2024-10-03T00:25 | 19270 | 64 | 210 | 21 | ||
| 2024-10-03T00:26 | 19587 | 61 | -61.2 | |||
| 2024-10-03T00:26 | 19650 | 61 | 252 | 17 | ||
| 2024-10-03T00:27 | 19887 | 58 | 265 | 11 | ||
| 2024-10-03T00:28 | 20236 | 55 | -61.3 | 218 | 8 | |
| 2024-10-03T00:28 | 20352 | 54 | 205 | 7 | ||
| 2024-10-03T00:28 | 20401 | 54 | -60.3 | |||
| 2024-10-03T00:29 | 20587 | 52 | 227 | 10 | ||
| 2024-10-03T00:29 | 20818 | 50 | -61.8 | |||
| 2024-10-03T00:29 | 20853 | 50 | 209 | 10 | ||
| 2024-10-03T00:30 | 21109 | 48 | 237 | 8 | ||
| 2024-10-03T00:30 | 21161 | 48 | -60.9 | |||
| 2024-10-03T00:31 | 21317 | 46 | 223 | 7 | ||
| 2024-10-03T00:31 | 21414 | 46 | -61.5 | |||
| 2024-10-03T00:31 | 21552 | 45 | 241 | 9 | ||
| 2024-10-03T00:32 | 21775 | 43 | 245 | 8 | ||
| 2024-10-03T00:33 | 21982 | 42 | -60.5 | |||
| 2024-10-03T00:33 | 22117 | 41 | 226 | 8 | ||
| 2024-10-03T00:33 | 22243 | 40 | 244 | 5 | ||
| 2024-10-03T00:34 | 22369 | 39 | 166 | 5 | ||
| 2024-10-03T00:34 | 22436 | 39 | -56.1 | |||
| 2024-10-03T00:34 | 22684 | 37 | 210 | 8 | ||
| 2024-10-03T00:35 | 23068 | 35 | 244 | 12 | ||
| 2024-10-03T00:36 | 23251 | 34 | 259 | 11 | ||
| 2024-10-03T00:37 | 23553 | 32 | 285 | 5 | ||
| 2024-10-03T00:37 | 23631 | 32 | -58.7 | |||
| 2024-10-03T00:37 | 23670 | 32 | 275 | 5 | ||
| 2024-10-03T00:37 | 23813 | 31 | 210 | 6 | ||
| 2024-10-03T00:37 | 23836 | 31 | -56.9 | |||
| 2024-10-03T00:38 | 23918 | 31 | 239 | 7 | ||
| 2024-10-03T00:38 | 23937 | 31 | -53.8 | |||
| 2024-10-03T00:38 | 24087 | 30 | 330 | 7 | ||
| 2024-10-03T00:39 | 24284 | 29 | 10 | 8 | ||
| 2024-10-03T00:39 | 24397 | 28 | -54.5 | 30 | 6 | |
| 2024-10-03T11:30 | 18 | 1023 | 14.5 | 10.1 | 160 | 2 |
| 2024-10-03T11:30 | 22 | 1023 | 14.7 | 10.3 | 0 | 0 |
| 2024-10-03T11:30 | 83 | 1015 | 14.5 | 8.9 | ||
| 2024-10-03T11:30 | 93 | 1014 | 174 | 3 | ||
| 2024-10-03T11:31 | 198 | 1001 | 159 | 4 | ||
| 2024-10-03T11:31 | 209 | 1000 | 13.9 | 6.5 | ||
| 2024-10-03T11:31 | 290 | 991 | 151 | 4 | ||
| 2024-10-03T11:31 | 405 | 977 | 13.0 | 8.9 | ||
| 2024-10-03T11:32 | 491 | 967 | 161 | 5 | ||
| 2024-10-03T11:32 | 640 | 950 | 11.8 | 9.5 | ||
| 2024-10-03T11:32 | 690 | 945 | 180 | 7 | ||
| 2024-10-03T11:33 | 797 | 933 | 10.8 | 8.9 | ||
| 2024-10-03T11:33 | 974 | 913 | 180 | 8 | ||
| 2024-10-03T11:34 | 1049 | 905 | 9.6 | 8.0 | ||
| 2024-10-03T11:34 | 1120 | 897 | 10.1 | 7.3 | ||
| 2024-10-03T11:34 | 1140 | 895 | 202 | 7 | ||
| 2024-10-03T11:34 | 1156 | 893 | 10.7 | 5.9 | ||
| 2024-10-03T11:35 | 1384 | 869 | 228 | 6 | ||
| 2024-10-03T11:35 | 1450 | 862 | 8.6 | 0.6 | ||
| 2024-10-03T11:35 | 1628 | 844 | 7.0 | 1.1 | ||
| 2024-10-03T11:36 | 1688 | 838 | 213 | 6 | ||
| 2024-10-03T11:36 | 1761 | 830 | 6.4 | -3.3 | ||
| 2024-10-03T11:36 | 1809 | 826 | 6.8 | -4.3 | ||
| 2024-10-03T11:36 | 1848 | 822 | 185 | 6 | ||
| 2024-10-03T11:36 | 1881 | 818 | 7.2 | -3.1 | ||
| 2024-10-03T11:37 | 1938 | 813 | 7.5 | -1.7 | ||
| 2024-10-03T11:37 | 2008 | 806 | 7.9 | 3.4 | ||
| 2024-10-03T11:37 | 2128 | 794 | 162 | 5 | ||
| 2024-10-03T11:38 | 2209 | 787 | 6.7 | 3.1 | ||
| 2024-10-03T11:38 | 2271 | 781 | 6.5 | 2.6 | ||
| 2024-10-03T11:38 | 2293 | 779 | 142 | 2 | ||
| 2024-10-03T11:38 | 2366 | 772 | 7.0 | 2.1 | ||
| 2024-10-03T11:39 | 2482 | 761 | 6.9 | 2.2 | ||
| 2024-10-03T11:39 | 2511 | 758 | 7.3 | 2.6 | ||
| 2024-10-03T11:39 | 2545 | 755 | 227 | 2 | ||
| 2024-10-03T11:39 | 2558 | 754 | 7.8 | 3.3 | ||
| 2024-10-03T11:40 | 2764 | 735 | 197 | 6 | ||
| 2024-10-03T11:40 | 2883 | 725 | 196 | 9 | ||
| 2024-10-03T11:40 | 2900 | 723 | 5.0 | 3.0 | ||
| 2024-10-03T11:41 | 3032 | 712 | 196 | 10 | ||
| 2024-10-03T11:41 | 3060 | 709 | 4.2 | 2.4 | ||
| 2024-10-03T11:42 | 3284 | 690 | 203 | 10 | ||
| 2024-10-03T11:42 | 3462 | 675 | 211 | 10 | ||
| 2024-10-03T11:43 | 3649 | 659 | 0.3 | -0.1 | ||
| 2024-10-03T11:43 | 3717 | 654 | 210 | 9 | ||
| 2024-10-03T11:44 | 3971 | 634 | 198 | 14 | ||
| 2024-10-03T11:45 | 4138 | 621 | 196 | 15 | ||
| 2024-10-03T11:46 | 4375 | 603 | 200 | 13 | ||
| 2024-10-03T11:47 | 4583 | 587 | 191 | 18 | ||
| 2024-10-03T11:48 | 4764 | 574 | -3.6 | -4.1 | ||
| 2024-10-03T11:48 | 4805 | 571 | 206 | 22 | ||
| 2024-10-03T11:49 | 5037 | 554 | 212 | 22 | ||
| 2024-10-03T11:49 | 5189 | 544 | 217 | 26 | ||
| 2024-10-03T11:50 | 5256 | 539 | -5.3 | -6.3 | ||
| 2024-10-03T11:50 | 5354 | 532 | -4.9 | -5.7 | ||
| 2024-10-03T11:50 | 5454 | 525 | 222 | 22 | ||
| 2024-10-03T11:51 | 5639 | 513 | 225 | 23 | ||
| 2024-10-03T11:51 | 5771 | 505 | 227 | 28 | ||
| 2024-10-03T11:52 | 5895 | 497 | 229 | 24 | ||
| 2024-10-03T11:52 | 6015 | 489 | -7.9 | -8.8 | ||
| 2024-10-03T11:53 | 6186 | 479 | 230 | 26 | ||
| 2024-10-03T11:54 | 6388 | 466 | 219 | 30 | ||
| 2024-10-03T11:54 | 6616 | 452 | 215 | 30 | ||
| 2024-10-03T11:55 | 6779 | 443 | 223 | 31 | ||
| 2024-10-03T11:55 | 6878 | 437 | 217 | 33 | ||
| 2024-10-03T11:56 | 7047 | 428 | -12.8 | -14.2 | ||
| 2024-10-03T11:56 | 7198 | 419 | 220 | 33 | ||
| 2024-10-03T11:57 | 7512 | 402 | 221 | 33 | ||
| 2024-10-03T11:58 | 7855 | 384 | 221 | 34 | ||
| 2024-10-03T11:59 | 8208 | 367 | 225 | 32 | ||
| 2024-10-03T11:59 | 8238 | 365 | -20.4 | -22.1 | ||
| 2024-10-03T12:00 | 8575 | 349 | 227 | 33 | ||
| 2024-10-03T12:01 | 8762 | 340 | 226 | 36 | ||
| 2024-10-03T12:02 | 9148 | 322 | 224 | 33 | ||
| 2024-10-03T12:02 | 9430 | 310 | -29.3 | -31.7 | ||
| 2024-10-03T12:02 | 9436 | 310 | 223 | 35 | ||
| 2024-10-03T12:03 | 9805 | 294 | 226 | 36 | ||
| 2024-10-03T12:04 | 10060 | 284 | 223 | 38 | ||
| 2024-10-03T12:04 | 10143 | 280 | -35.6 | -38.2 | ||
| 2024-10-03T12:05 | 10408 | 270 | 222 | 39 | ||
| 2024-10-03T12:06 | 10658 | 260 | 227 | 41 | ||
| 2024-10-03T12:06 | 10662 | 260 | -40.0 | -43.0 | ||
| 2024-10-03T12:06 | 10794 | 255 | 226 | 41 | ||
| 2024-10-03T12:07 | 10883 | 251 | 225 | 40 | ||
| 2024-10-03T12:08 | 11155 | 242 | 230 | 43 | ||
| 2024-10-03T12:08 | 11355 | 234 | 232 | 43 | ||
| 2024-10-03T12:09 | 11652 | 224 | 233 | 45 | ||
| 2024-10-03T12:10 | 11940 | 214 | 232 | 44 | ||
| 2024-10-03T12:11 | 11950 | 214 | -50.5 | |||
| 2024-10-03T12:11 | 12252 | 204 | 234 | 45 | ||
| 2024-10-03T12:12 | 12572 | 194 | 234 | 45 | ||
| 2024-10-03T12:13 | 12883 | 185 | 239 | 46 | ||
| 2024-10-03T12:14 | 13131 | 178 | 245 | 48 | ||
| 2024-10-03T12:15 | 13338 | 172 | -62.2 | |||
| 2024-10-03T12:15 | 13419 | 170 | 252 | 47 | ||
| 2024-10-03T12:16 | 13703 | 162 | -62.3 | |||
| 2024-10-03T12:16 | 13735 | 161 | 247 | 42 | ||
| 2024-10-03T12:17 | 13987 | 155 | -63.4 | |||
| 2024-10-03T12:17 | 14004 | 154 | 238 | 40 | ||
| 2024-10-03T12:18 | 14346 | 146 | 236 | 42 | ||
| 2024-10-03T12:19 | 14645 | 139 | -67.3 | |||
| 2024-10-03T12:19 | 14698 | 138 | 237 | 41 | ||
| 2024-10-03T12:20 | 15042 | 130 | 235 | 44 | ||
| 2024-10-03T12:20 | 15079 | 129 | -67.7 | |||
| 2024-10-03T12:21 | 15291 | 125 | -67.0 | |||
| 2024-10-03T12:21 | 15302 | 125 | 234 | 41 | ||
| 2024-10-03T12:22 | 15602 | 119 | 237 | 37 | ||
| 2024-10-03T12:22 | 15787 | 115 | -69.3 | |||
| 2024-10-03T12:23 | 15899 | 113 | 237 | 36 | ||
| 2024-10-03T12:24 | 16103 | 109 | 243 | 31 | ||
| 2024-10-03T12:24 | 16304 | 105 | 235 | 27 | ||
| 2024-10-03T12:24 | 16355 | 105 | -69.3 | |||
| 2024-10-03T12:25 | 16579 | 101 | -70.5 | |||
| 2024-10-03T12:25 | 16588 | 101 | 235 | 30 | ||
| 2024-10-03T12:25 | 16614 | 100 | -70.4 | 235 | 30 | |
| 2024-10-03T23:30 | 18 | 1020 | 12.9 | 11.3 | 350 | 2 |
| 2024-10-03T23:30 | 22 | 1020 | 13.0 | 11.4 | 0 | 0 |
| 2024-10-03T23:30 | 108 | 1009 | 12.1 | 10.7 | ||
| 2024-10-03T23:31 | 363 | 979 | 356 | 2 | ||
| 2024-10-03T23:31 | 388 | 976 | 9.3 | 9.3 | ||
| 2024-10-03T23:31 | 454 | 968 | 50 | 3 | ||
| 2024-10-03T23:32 | 673 | 943 | 8.6 | 8.6 | ||
| 2024-10-03T23:32 | 707 | 939 | 333 | 2 | ||
| 2024-10-03T23:32 | 723 | 937 | 9.4 | 9.3 | ||
| 2024-10-03T23:33 | 894 | 918 | 146 | 2 | ||
| 2024-10-03T23:33 | 948 | 912 | 9.4 | 9.4 | ||
| 2024-10-03T23:33 | 1084 | 898 | 9.7 | 9.7 | ||
| 2024-10-03T23:33 | 1147 | 891 | 11.0 | 10.5 | ||
| 2024-10-03T23:33 | 1152 | 890 | 141 | 7 | ||
| 2024-10-03T23:34 | 1355 | 869 | 10.6 | 9.5 | ||
| 2024-10-03T23:34 | 1416 | 862 | 176 | 3 | ||
| 2024-10-03T23:34 | 1518 | 852 | 190 | 6 | ||
| 2024-10-03T23:35 | 1748 | 828 | 192 | 8 | ||
| 2024-10-03T23:35 | 1759 | 827 | 8.0 | 8.0 | ||
| 2024-10-03T23:36 | 1929 | 811 | 198 | 4 | ||
| 2024-10-03T23:36 | 2077 | 796 | 184 | 3 | ||
| 2024-10-03T23:36 | 2186 | 786 | 7.4 | 7.0 | ||
| 2024-10-03T23:37 | 2394 | 766 | 7.3 | 5.8 | ||
| 2024-10-03T23:37 | 2422 | 763 | 25 | 3 | ||
| 2024-10-03T23:38 | 2571 | 749 | 7.4 | 3.6 | ||
| 2024-10-03T23:38 | 2653 | 742 | 14 | 3 | ||
| 2024-10-03T23:38 | 2724 | 736 | 6.7 | 2.8 | ||
| 2024-10-03T23:38 | 2795 | 730 | 7.0 | 2.9 | ||
| 2024-10-03T23:38 | 2884 | 722 | 216 | 1 | ||
| 2024-10-03T23:39 | 2980 | 713 | 192 | 3 | ||
| 2024-10-03T23:39 | 2998 | 712 | 5.8 | 3.3 | ||
| 2024-10-03T23:39 | 3150 | 699 | 210 | 8 | ||
| 2024-10-03T23:40 | 3284 | 687 | 4.9 | 3.7 | ||
| 2024-10-03T23:40 | 3476 | 671 | 222 | 13 | ||
| 2024-10-03T23:40 | 3558 | 665 | 3.6 | 2.4 | ||
| 2024-10-03T23:41 | 3831 | 642 | 2.1 | 1.2 | 221 | 18 |
| 2024-10-03T23:42 | 4058 | 625 | 1.0 | 0.0 | ||
| 2024-10-03T23:42 | 4177 | 615 | 227 | 17 | ||
| 2024-10-03T23:43 | 4508 | 590 | 239 | 20 | ||
| 2024-10-03T23:44 | 4682 | 578 | -2.6 | -3.6 | ||
| 2024-10-03T23:44 | 4709 | 576 | 238 | 22 | ||
| 2024-10-03T23:44 | 4891 | 563 | -3.9 | -4.9 | ||
| 2024-10-03T23:44 | 4943 | 559 | 239 | 27 | ||
| 2024-10-03T23:45 | 5259 | 537 | 233 | 28 | ||
| 2024-10-03T23:46 | 5292 | 535 | -5.3 | -6.1 | ||
| 2024-10-03T23:46 | 5600 | 514 | 225 | 32 | ||
| 2024-10-03T23:47 | 5801 | 501 | -8.0 | -8.5 | ||
| 2024-10-03T23:47 | 5948 | 492 | 229 | 33 | ||
| 2024-10-03T23:48 | 6192 | 476 | -10.2 | -11.9 | ||
| 2024-10-03T23:48 | 6273 | 471 | 231 | 36 | ||
| 2024-10-03T23:49 | 6581 | 453 | 223 | 34 | ||
| 2024-10-03T23:50 | 6683 | 447 | -12.8 | -13.8 | ||
| 2024-10-03T23:50 | 6943 | 432 | 222 | 34 | ||
| 2024-10-03T23:51 | 7142 | 421 | -15.2 | -16.3 | ||
| 2024-10-03T23:51 | 7298 | 412 | 219 | 36 | ||
| 2024-10-03T23:52 | 7669 | 392 | 215 | 36 | ||
| 2024-10-03T23:53 | 7885 | 381 | -19.7 | -20.5 | ||
| 2024-10-03T23:53 | 7909 | 380 | 206 | 33 | ||
| 2024-10-03T23:54 | 8181 | 366 | 209 | 37 | ||
| 2024-10-03T23:54 | 8205 | 365 | -21.3 | -22.0 | ||
| 2024-10-03T23:54 | 8291 | 361 | 210 | 38 | ||
| 2024-10-03T23:54 | 8384 | 356 | 213 | 41 | ||
| 2024-10-03T23:55 | 8765 | 338 | 213 | 39 | ||
| 2024-10-03T23:56 | 9147 | 321 | 213 | 41 | ||
| 2024-10-03T23:57 | 9227 | 317 | -29.0 | -30.6 | ||
| 2024-10-03T23:57 | 9520 | 304 | 214 | 46 | ||
| 2024-10-03T23:58 | 9715 | 296 | -32.7 | -34.5 | ||
| 2024-10-03T23:58 | 9903 | 288 | 213 | 48 | ||
| 2024-10-03T23:59 | 10287 | 273 | 218 | 50 | ||
| 2024-10-03T23:59 | 10326 | 271 | -37.2 | -39.5 | ||
| 2024-10-04T00:00 | 10408 | 268 | -37.5 | -40.8 | ||
| 2024-10-04T00:00 | 10426 | 267 | 220 | 46 | ||
| 2024-10-04T00:00 | 10623 | 260 | 220 | 50 | ||
| 2024-10-04T00:00 | 10691 | 257 | -40.0 | -42.9 | ||
| 2024-10-04T00:01 | 11004 | 246 | 219 | 49 | ||
| 2024-10-04T00:02 | 11403 | 231 | 219 | 50 | ||
| 2024-10-04T00:03 | 11820 | 217 | 218 | 50 | ||
| 2024-10-04T00:04 | 12101 | 208 | 219 | 52 | ||
| 2024-10-04T00:04 | 12130 | 207 | -53.3 | |||
| 2024-10-04T00:05 | 12516 | 195 | 226 | 51 | ||
| 2024-10-04T00:06 | 12833 | 185 | -59.1 | |||
| 2024-10-04T00:06 | 12922 | 183 | 233 | 51 | ||
| 2024-10-04T00:07 | 13357 | 170 | 227 | 44 | ||
| 2024-10-04T00:07 | 13498 | 167 | -61.4 | |||
| 2024-10-04T00:08 | 13794 | 159 | 216 | 43 | ||
| 2024-10-04T00:08 | 14140 | 150 | 213 | 46 | ||
| 2024-10-04T00:09 | 14318 | 146 | 212 | 49 | ||
| 2024-10-04T00:09 | 14379 | 144 | -67.5 | |||
| 2024-10-04T00:09 | 14544 | 140 | 216 | 49 | ||
| 2024-10-04T00:10 | 14836 | 134 | -69.8 | |||
| 2024-10-04T00:10 | 14937 | 131 | 228 | 49 | ||
| 2024-10-04T00:10 | 14959 | 131 | -66.3 | |||
| 2024-10-04T00:11 | 15110 | 128 | -65.3 | 236 | 42 | |
| 2024-10-04T00:11 | 15366 | 122 | -65.7 | |||
| 2024-10-04T00:11 | 15500 | 120 | -64.8 | |||
| 2024-10-04T00:12 | 15599 | 118 | 221 | 32 | ||
| 2024-10-04T00:12 | 15789 | 114 | -66.3 | |||
| 2024-10-04T00:13 | 16018 | 110 | -67.0 | |||
| 2024-10-04T00:13 | 16025 | 110 | 216 | 33 | ||
| 2024-10-04T00:13 | 16189 | 107 | -63.6 | |||
| 2024-10-04T00:13 | 16326 | 105 | -62.9 | |||
| 2024-10-04T00:14 | 16423 | 103 | 222 | 30 | ||
| 2024-10-04T00:14 | 16760 | 97 | -65.6 | |||
| 2024-10-04T00:15 | 16828 | 96 | 229 | 31 | ||
| 2024-10-04T00:15 | 17084 | 92 | -65.2 | |||
| 2024-10-04T00:16 | 17219 | 90 | 245 | 25 | ||
| 2024-10-04T00:16 | 17404 | 88 | 245 | 24 | ||
| 2024-10-04T00:16 | 17433 | 87 | -63.8 | |||
| 2024-10-04T00:16 | 17552 | 86 | 247 | 17 | ||
| 2024-10-04T00:16 | 17566 | 85 | -61.5 | |||
| 2024-10-04T00:17 | 17771 | 83 | 253 | 17 | ||
| 2024-10-04T00:17 | 17920 | 81 | -62.1 | |||
| 2024-10-04T00:18 | 18171 | 77 | 215 | 15 | ||
| 2024-10-04T00:18 | 18354 | 75 | 223 | 18 | ||
| 2024-10-04T00:18 | 18360 | 75 | -65.1 | |||
| 2024-10-04T00:18 | 18500 | 73 | 235 | 21 | ||
| 2024-10-04T00:19 | 18765 | 70 | -64.1 | |||
| 2024-10-04T00:19 | 18817 | 70 | 245 | 13 | ||
| 2024-10-04T00:20 | 18987 | 68 | 254 | 11 | ||
| 2024-10-04T00:20 | 19051 | 67 | -63.3 | |||
| 2024-10-04T00:20 | 19115 | 66 | 244 | 6 | ||
| 2024-10-04T00:20 | 19229 | 65 | 220 | 7 | ||
| 2024-10-04T00:20 | 19257 | 65 | -63.0 | |||
| 2024-10-04T00:21 | 19421 | 63 | 224 | 10 | ||
| 2024-10-04T00:21 | 19430 | 63 | -62.9 | |||
| 2024-10-04T00:21 | 19586 | 61 | 242 | 10 | ||
| 2024-10-04T00:22 | 19752 | 60 | -62.9 | |||
| 2024-10-04T00:22 | 19832 | 59 | 255 | 4 | ||
| 2024-10-04T00:22 | 19949 | 58 | -62.2 | |||
| 2024-10-04T00:23 | 20068 | 57 | 211 | 8 | ||
| 2024-10-04T00:23 | 20219 | 55 | -61.5 | |||
| 2024-10-04T00:23 | 20257 | 55 | 218 | 11 | ||
| 2024-10-04T00:24 | 20545 | 53 | -60.2 | |||
| 2024-10-04T00:24 | 20614 | 52 | 261 | 6 | ||
| 2024-10-04T00:24 | 20723 | 51 | 239 | 2 | ||
| 2024-10-04T00:25 | 20774 | 51 | -58.5 | |||
| 2024-10-04T00:25 | 21051 | 49 | -59.0 | 235 | 9 | |
| 2024-10-04T00:26 | 21306 | 47 | 284 | 5 | ||
| 2024-10-04T00:26 | 21370 | 46 | 253 | 2 | ||
| 2024-10-04T00:26 | 21467 | 45 | 161 | 3 | ||
| 2024-10-04T00:27 | 21736 | 44 | 179 | 4 | ||
| 2024-10-04T00:27 | 21822 | 43 | -59.3 | |||
| 2024-10-04T00:27 | 21865 | 43 | 224 | 4 | ||
| 2024-10-04T00:28 | 21997 | 42 | 218 | 5 | ||
| 2024-10-04T00:28 | 22104 | 41 | 252 | 6 | ||
| 2024-10-04T00:29 | 22296 | 40 | -60.2 | 243 | 5 | |
| 2024-10-04T11:30 | 18 | 1014 | 14.0 | 13.7 | 260 | 2 |
| 2024-10-04T11:30 | 22 | 1013 | 14.0 | 13.8 | 0 | 0 |
| 2024-10-04T11:30 | 126 | 1001 | 274 | 3 | ||
| 2024-10-04T11:31 | 269 | 984 | 302 | 2 | ||
| 2024-10-04T11:32 | 413 | 967 | 324 | 4 | ||
| 2024-10-04T11:32 | 638 | 941 | 334 | 4 | ||
| 2024-10-04T11:33 | 685 | 936 | 11.5 | 11.3 | ||
| 2024-10-04T11:33 | 742 | 930 | 32 | 3 | ||
| 2024-10-04T11:34 | 1001 | 901 | 171 | 3 | ||
| 2024-10-04T11:35 | 1271 | 873 | 170 | 13 | ||
| 2024-10-04T11:36 | 1574 | 841 | 10.5 | 10.0 | 166 | 20 |
| 2024-10-04T11:36 | 1719 | 827 | 10.8 | 10.6 | ||
| 2024-10-04T11:37 | 1891 | 810 | 189 | 22 | ||
| 2024-10-04T11:37 | 2044 | 795 | 10.1 | 10.1 | ||
| 2024-10-04T11:38 | 2247 | 776 | 197 | 23 | ||
| 2024-10-04T11:39 | 2578 | 746 | 208 | 19 | ||
| 2024-10-04T11:39 | 2717 | 734 | 6.6 | 6.5 | ||
| 2024-10-04T11:40 | 2895 | 718 | 210 | 18 | ||
| 2024-10-04T11:40 | 3071 | 703 | 3.7 | 2.4 | ||
| 2024-10-04T11:41 | 3198 | 692 | 209 | 21 | ||
| 2024-10-04T11:41 | 3392 | 675 | 205 | 21 | ||
| 2024-10-04T11:41 | 3429 | 672 | 0.8 | -2.3 | ||
| 2024-10-04T11:42 | 3545 | 662 | 0.9 | -0.9 | ||
| 2024-10-04T11:42 | 3577 | 660 | 1.6 | 0.4 | ||
| 2024-10-04T11:42 | 3710 | 649 | 202 | 20 | ||
| 2024-10-04T11:43 | 3808 | 641 | 1.3 | 1.0 | ||
| 2024-10-04T11:43 | 4046 | 622 | 206 | 17 | ||
| 2024-10-04T11:44 | 4387 | 596 | 210 | 17 | ||
| 2024-10-04T11:44 | 4393 | 596 | -1.6 | -1.9 | ||
| 2024-10-04T11:45 | 4718 | 572 | 210 | 15 | ||
| 2024-10-04T11:46 | 4958 | 555 | -6.8 | -7.5 | ||
| 2024-10-04T11:46 | 5000 | 552 | 219 | 17 | ||
| 2024-10-04T11:47 | 5146 | 542 | -8.5 | -12.0 | ||
| 2024-10-04T11:47 | 5258 | 534 | -9.4 | -13.3 | ||
| 2024-10-04T11:47 | 5320 | 530 | 216 | 18 | ||
| 2024-10-04T11:47 | 5326 | 529 | -10.0 | -17.8 | ||
| 2024-10-04T11:47 | 5452 | 521 | -11.2 | -18.5 | ||
| 2024-10-04T11:48 | 5509 | 517 | -10.7 | -15.5 | ||
| 2024-10-04T11:48 | 5553 | 514 | -10.0 | -14.3 | ||
| 2024-10-04T11:48 | 5646 | 508 | -11.0 | -21.1 | ||
| 2024-10-04T11:48 | 5696 | 504 | 214 | 26 | ||
| 2024-10-04T11:48 | 5702 | 504 | -11.5 | -24.6 | ||
| 2024-10-04T11:49 | 6031 | 483 | -14.3 | -28.9 | ||
| 2024-10-04T11:49 | 6075 | 480 | 211 | 25 | ||
| 2024-10-04T11:49 | 6181 | 473 | -15.2 | -30.8 | ||
| 2024-10-04T11:50 | 6447 | 457 | 213 | 31 | ||
| 2024-10-04T11:51 | 6773 | 437 | -18.2 | -36.2 | ||
| 2024-10-04T11:51 | 6830 | 434 | 214 | 32 | ||
| 2024-10-04T11:51 | 6918 | 429 | -19.1 | -34.6 | ||
| 2024-10-04T11:52 | 6993 | 424 | -19.3 | -29.5 | ||
| 2024-10-04T11:52 | 7043 | 422 | -19.5 | -30.2 | ||
| 2024-10-04T11:52 | 7101 | 418 | -19.8 | -34.4 | ||
| 2024-10-04T11:52 | 7209 | 412 | 215 | 32 | ||
| 2024-10-04T11:52 | 7367 | 404 | 214 | 34 | ||
| 2024-10-04T11:53 | 7474 | 398 | -21.5 | -38.5 | ||
| 2024-10-04T11:53 | 7661 | 388 | -22.7 | -37.4 | ||
| 2024-10-04T11:53 | 7706 | 385 | 215 | 34 | ||
| 2024-10-04T11:53 | 7712 | 385 | -23.0 | -39.8 | ||
| 2024-10-04T11:54 | 7932 | 374 | -24.4 | -41.0 | ||
| 2024-10-04T11:54 | 7975 | 371 | -24.6 | -38.6 | ||
| 2024-10-04T11:54 | 8079 | 366 | 213 | 35 | ||
| 2024-10-04T11:55 | 8147 | 363 | -25.7 | -42.6 | ||
| 2024-10-04T11:55 | 8449 | 348 | 214 | 38 | ||
| 2024-10-04T11:56 | 8737 | 334 | 217 | 40 | ||
| 2024-10-04T11:56 | 8812 | 331 | -29.4 | -47.3 | ||
| 2024-10-04T11:57 | 8858 | 328 | 216 | 42 | ||
| 2024-10-04T11:57 | 8952 | 324 | -29.2 | -47.1 | ||
| 2024-10-04T11:58 | 9213 | 313 | 218 | 43 | ||
| 2024-10-04T11:58 | 9341 | 307 | -31.6 | -48.1 | ||
| 2024-10-04T11:58 | 9535 | 299 | -32.4 | -40.6 | ||
| 2024-10-04T11:59 | 9596 | 296 | 212 | 53 | ||
| 2024-10-04T11:59 | 9831 | 286 | 215 | 53 | ||
| 2024-10-04T11:59 | 9844 | 286 | -35.4 | -42.0 | ||
| 2024-10-04T11:59 | 9968 | 281 | -36.4 | -43.9 | ||
| 2024-10-04T12:00 | 10052 | 277 | -36.6 | -40.7 | ||
| 2024-10-04T12:00 | 10177 | 272 | 210 | 57 | ||
| 2024-10-04T12:00 | 10269 | 269 | -37.7 | -41.0 | ||
| 2024-10-04T12:01 | 10512 | 259 | 209 | 55 | ||
| 2024-10-04T12:01 | 10518 | 259 | -40.0 | -43.0 | ||
| 2024-10-04T12:02 | 10866 | 246 | 207 | 56 | ||
| 2024-10-04T12:03 | 11229 | 233 | 209 | 57 | ||
| 2024-10-04T12:04 | 11597 | 220 | 210 | 56 | ||
| 2024-10-04T12:04 | 11688 | 217 | -50.7 | |||
| 2024-10-04T12:05 | 11909 | 210 | 211 | 52 | ||
| 2024-10-04T12:05 | 12046 | 206 | -52.5 | |||
| 2024-10-04T12:06 | 12233 | 200 | 212 | 54 | ||
| 2024-10-04T12:07 | 12549 | 190 | 214 | 51 | ||
| 2024-10-04T12:08 | 12683 | 186 | -56.3 | |||
| 2024-10-04T12:08 | 12802 | 183 | 218 | 47 | ||
| 2024-10-04T12:09 | 13115 | 174 | 219 | 46 | ||
| 2024-10-04T12:09 | 13271 | 170 | -57.9 | |||
| 2024-10-04T12:10 | 13432 | 165 | -58.2 | |||
| 2024-10-04T12:10 | 13449 | 165 | 225 | 40 | ||
| 2024-10-04T12:10 | 13595 | 161 | -58.3 | |||
| 2024-10-04T12:11 | 13776 | 157 | 229 | 35 | ||
| 2024-10-04T12:12 | 13968 | 152 | -58.9 | |||
| 2024-10-04T12:12 | 14084 | 149 | 226 | 35 | ||
| 2024-10-04T12:13 | 14405 | 142 | 231 | 31 | ||
| 2024-10-04T12:13 | 14499 | 140 | -59.0 | |||
| 2024-10-04T12:14 | 14729 | 135 | 236 | 31 | ||
| 2024-10-04T12:15 | 15090 | 127 | 233 | 25 | ||
| 2024-10-04T12:16 | 15414 | 121 | 238 | 25 | ||
| 2024-10-04T12:17 | 15594 | 117 | -63.9 | |||
| 2024-10-04T12:17 | 15717 | 115 | 241 | 24 | ||
| 2024-10-04T12:18 | 15971 | 110 | -64.8 | |||
| 2024-10-04T12:18 | 16045 | 109 | 249 | 24 | ||
| 2024-10-04T12:18 | 16180 | 106 | -64.6 | |||
| 2024-10-04T12:19 | 16300 | 104 | 243 | 19 | ||
| 2024-10-04T12:19 | 16475 | 101 | 237 | 19 | ||
| 2024-10-04T12:20 | 16682 | 98 | 233 | 19 | ||
| 2024-10-04T12:20 | 16702 | 98 | -64.1 | |||
| 2024-10-04T12:20 | 16924 | 94 | 235 | 21 | ||
| 2024-10-04T12:21 | 17114 | 91 | 234 | 17 | ||
| 2024-10-04T12:22 | 17330 | 88 | 219 | 18 | ||
| 2024-10-04T12:22 | 17492 | 86 | -65.0 | |||
| 2024-10-04T12:23 | 17649 | 84 | 241 | 19 | ||
| 2024-10-04T12:23 | 17732 | 82 | -64.9 | |||
| 2024-10-04T12:23 | 17830 | 81 | 255 | 19 | ||
| 2024-10-04T12:24 | 17983 | 79 | -61.8 | |||
| 2024-10-04T12:24 | 18008 | 79 | 256 | 15 | ||
| 2024-10-04T12:25 | 18281 | 75 | 246 | 15 | ||
| 2024-10-04T12:25 | 18362 | 74 | -63.3 | |||
| 2024-10-04T12:26 | 18566 | 72 | 248 | 12 | ||
| 2024-10-04T12:26 | 18674 | 71 | -62.3 | |||
| 2024-10-04T12:27 | 18772 | 70 | 237 | 13 | ||
| 2024-10-04T12:28 | 19010 | 67 | 251 | 15 | ||
| 2024-10-04T12:29 | 19245 | 65 | 239 | 10 | ||
| 2024-10-04T12:29 | 19264 | 64 | -61.6 | |||
| 2024-10-04T12:30 | 19449 | 62 | 214 | 11 | ||
| 2024-10-04T12:31 | 19663 | 60 | 242 | 12 | ||
| 2024-10-04T12:31 | 19850 | 59 | 267 | 9 | ||
| 2024-10-04T12:32 | 19872 | 58 | -62.0 | |||
| 2024-10-04T12:32 | 20033 | 57 | 280 | 5 | ||
| 2024-10-04T12:33 | 20075 | 56 | -61.3 | |||
| 2024-10-04T12:33 | 20087 | 56 | 253 | 3 | ||
| 2024-10-04T12:33 | 20131 | 56 | 195 | 3 | ||
| 2024-10-04T12:34 | 20208 | 55 | 193 | 6 | ||
| 2024-10-04T12:35 | 20369 | 54 | 218 | 8 | ||
| 2024-10-04T12:35 | 20380 | 54 | -60.5 | |||
| 2024-10-04T12:36 | 20521 | 53 | 192 | 7 | ||
| 2024-10-04T12:37 | 20665 | 51 | 235 | 6 | ||
| 2024-10-04T12:37 | 20750 | 51 | -60.7 | |||
| 2024-10-04T12:38 | 20775 | 50 | 270 | 11 | ||
| 2024-10-04T12:39 | 20862 | 50 | 285 | 10 | ||
| 2024-10-04T12:40 | 20939 | 49 | 291 | 9 | ||
| 2024-10-04T12:40 | 20968 | 49 | -60.5 | 296 | 9 | |
| 2024-10-04T23:30 | 18 | 1020 | 18.8 | 11.9 | 330 | 5 |
| 2024-10-04T23:30 | 23 | 1020 | 19.1 | 12.4 | 325 | 1 |
| 2024-10-04T23:30 | 43 | 1017 | 324 | 3 | ||
| 2024-10-04T23:30 | 46 | 1017 | 18.2 | 11.0 | ||
| 2024-10-04T23:30 | 71 | 1014 | 344 | 8 | ||
| 2024-10-04T23:30 | 114 | 1009 | 17.0 | 10.6 | ||
| 2024-10-04T23:31 | 227 | 996 | 332 | 12 | ||
| 2024-10-04T23:31 | 333 | 983 | 14.8 | 9.0 | ||
| 2024-10-04T23:32 | 535 | 960 | 334 | 12 | ||
| 2024-10-04T23:32 | 540 | 959 | 12.8 | 8.3 | ||
| 2024-10-04T23:32 | 618 | 950 | 12.2 | 7.1 | ||
| 2024-10-04T23:32 | 775 | 933 | 10.7 | 6.1 | ||
| 2024-10-04T23:33 | 859 | 923 | 344 | 12 | ||
| 2024-10-04T23:33 | 909 | 918 | 9.6 | 5.2 | ||
| 2024-10-04T23:33 | 987 | 909 | 9.2 | 2.1 | ||
| 2024-10-04T23:34 | 1195 | 887 | 350 | 13 | ||
| 2024-10-04T23:34 | 1229 | 883 | 7.3 | 0.0 | ||
| 2024-10-04T23:34 | 1279 | 878 | 7.0 | -0.7 | ||
| 2024-10-04T23:34 | 1417 | 863 | 6.1 | -0.2 | ||
| 2024-10-04T23:35 | 1449 | 860 | 359 | 14 | ||
| 2024-10-04T23:35 | 1529 | 852 | 6.0 | -2.1 | ||
| 2024-10-04T23:36 | 1768 | 827 | 337 | 16 | ||
| 2024-10-04T23:36 | 1805 | 824 | 4.8 | 0.9 | ||
| 2024-10-04T23:36 | 1885 | 815 | 4.9 | -0.5 | ||
| 2024-10-04T23:36 | 1951 | 809 | 5.4 | -3.4 | ||
| 2024-10-04T23:36 | 2001 | 804 | 5.5 | -9.9 | ||
| 2024-10-04T23:36 | 2065 | 798 | 5.2 | -14.8 | ||
| 2024-10-04T23:36 | 2101 | 794 | 350 | 18 | ||
| 2024-10-04T23:37 | 2277 | 777 | 4.7 | -4.8 | ||
| 2024-10-04T23:37 | 2308 | 774 | 5.5 | -4.9 | ||
| 2024-10-04T23:37 | 2340 | 771 | 6.6 | -7.4 | ||
| 2024-10-04T23:37 | 2454 | 761 | 6.4 | -6.2 | ||
| 2024-10-04T23:37 | 2461 | 760 | 335 | 16 | ||
| 2024-10-04T23:38 | 2499 | 756 | 7.6 | -16.7 | ||
| 2024-10-04T23:38 | 2590 | 748 | 7.6 | -26.1 | ||
| 2024-10-04T23:38 | 2813 | 728 | 309 | 16 | ||
| 2024-10-04T23:38 | 2837 | 726 | 7.2 | -17.0 | ||
| 2024-10-04T23:39 | 3006 | 711 | 6.1 | -14.1 | ||
| 2024-10-04T23:39 | 3116 | 702 | 5.2 | -11.8 | ||
| 2024-10-04T23:39 | 3167 | 697 | 302 | 16 | ||
| 2024-10-04T23:40 | 3362 | 681 | 3.3 | -9.0 | ||
| 2024-10-04T23:40 | 3440 | 674 | 4.5 | -18.5 | ||
| 2024-10-04T23:40 | 3500 | 669 | 287 | 17 | ||
| 2024-10-04T23:41 | 3581 | 663 | 4.5 | -28.5 | ||
| 2024-10-04T23:41 | 3693 | 654 | 4.9 | -40.9 | ||
| 2024-10-04T23:41 | 3731 | 650 | 294 | 14 | ||
| 2024-10-04T23:42 | 3875 | 639 | 276 | 15 | ||
| 2024-10-04T23:42 | 4066 | 624 | 2.1 | -31.9 | ||
| 2024-10-04T23:43 | 4215 | 613 | 280 | 18 | ||
| 2024-10-04T23:43 | 4436 | 596 | 270 | 15 | ||
| 2024-10-04T23:44 | 4558 | 587 | -1.5 | -34.6 | ||
| 2024-10-04T23:44 | 4765 | 572 | 273 | 16 | ||
| 2024-10-04T23:44 | 4787 | 570 | -3.0 | -39.7 | ||
| 2024-10-04T23:45 | 4959 | 558 | -4.1 | -38.3 | ||
| 2024-10-04T23:45 | 5102 | 548 | 281 | 18 | ||
| 2024-10-04T23:46 | 5359 | 530 | -6.9 | -34.6 | ||
| 2024-10-04T23:46 | 5473 | 522 | 275 | 15 | ||
| 2024-10-04T23:47 | 5701 | 507 | -9.5 | -39.1 | ||
| 2024-10-04T23:47 | 5856 | 497 | 273 | 17 | ||
| 2024-10-04T23:48 | 6175 | 477 | 274 | 20 | ||
| 2024-10-04T23:49 | 6457 | 459 | -15.9 | -41.6 | ||
| 2024-10-04T23:49 | 6570 | 452 | 281 | 21 | ||
| 2024-10-04T23:50 | 6928 | 431 | 274 | 22 | ||
| 2024-10-04T23:51 | 7289 | 411 | 273 | 24 | ||
| 2024-10-04T23:51 | 7388 | 405 | -24.4 | -44.3 | ||
| 2024-10-04T23:52 | 7609 | 393 | 277 | 24 | ||
| 2024-10-04T23:53 | 7912 | 377 | 278 | 25 | ||
| 2024-10-04T23:53 | 8037 | 370 | -29.4 | -47.9 | ||
| 2024-10-04T23:54 | 8210 | 361 | -28.6 | -55.1 | 267 | 26 |
| 2024-10-04T23:55 | 8507 | 347 | 257 | 27 | ||
| 2024-10-04T23:55 | 8605 | 342 | -31.4 | -56.0 | ||
| 2024-10-04T23:56 | 8836 | 331 | 253 | 27 | ||
| 2024-10-04T23:57 | 9198 | 314 | 254 | 28 | ||
| 2024-10-04T23:57 | 9380 | 306 | -36.0 | -59.6 | ||
| 2024-10-04T23:58 | 9543 | 299 | -36.8 | -60.2 | ||
| 2024-10-04T23:58 | 9573 | 298 | 255 | 28 | ||
| 2024-10-04T23:59 | 9917 | 283 | 242 | 28 | ||
| 2024-10-04T23:59 | 10028 | 279 | -40.0 | -63.9 | ||
| 2024-10-05T00:00 | 10244 | 270 | 234 | 31 | ||
| 2024-10-05T00:01 | 10544 | 258 | 233 | 32 | ||
| 2024-10-05T00:02 | 10835 | 247 | 231 | 33 | ||
| 2024-10-05T00:03 | 11091 | 238 | 234 | 35 | ||
| 2024-10-05T00:04 | 11335 | 229 | 229 | 33 | ||
| 2024-10-05T00:04 | 11420 | 226 | -50.0 | |||
| 2024-10-05T00:05 | 11604 | 220 | 231 | 34 | ||
| 2024-10-05T00:05 | 11716 | 216 | -51.7 | |||
| 2024-10-05T00:06 | 11889 | 210 | 236 | 35 | ||
| 2024-10-05T00:07 | 12183 | 201 | 240 | 32 | ||
| 2024-10-05T00:08 | 12510 | 191 | 242 | 35 | ||
| 2024-10-05T00:08 | 12527 | 191 | -54.2 | |||
| 2024-10-05T00:09 | 12828 | 182 | 242 | 29 | ||
| 2024-10-05T00:10 | 13058 | 175 | -54.8 | |||
| 2024-10-05T00:10 | 13119 | 174 | 248 | 32 | ||
| 2024-10-05T00:11 | 13374 | 167 | -55.1 | |||
| 2024-10-05T00:11 | 13392 | 166 | 246 | 32 | ||
| 2024-10-05T00:12 | 13688 | 159 | 247 | 33 | ||
| 2024-10-05T00:13 | 14006 | 151 | -56.3 | |||
| 2024-10-05T00:13 | 14023 | 151 | 241 | 26 | ||
| 2024-10-05T00:14 | 14371 | 143 | 234 | 27 | ||
| 2024-10-05T00:15 | 14748 | 134 | 248 | 31 | ||
| 2024-10-05T00:15 | 14876 | 132 | -59.4 | |||
| 2024-10-05T00:16 | 15011 | 129 | 259 | 27 | ||
| 2024-10-05T00:16 | 15228 | 124 | 247 | 22 | ||
| 2024-10-05T00:16 | 15268 | 124 | -61.2 | |||
| 2024-10-05T00:17 | 15476 | 120 | 237 | 23 | ||
| 2024-10-05T00:17 | 15597 | 117 | -63.2 | |||
| 2024-10-05T00:18 | 15734 | 115 | 239 | 25 | ||
| 2024-10-05T00:18 | 15830 | 113 | -63.2 | |||
| 2024-10-05T00:19 | 16007 | 110 | 234 | 22 | ||
| 2024-10-05T00:19 | 16086 | 108 | -63.3 | |||
| 2024-10-05T00:20 | 16285 | 105 | 232 | 25 | ||
| 2024-10-05T00:20 | 16422 | 102 | -65.7 | |||
| 2024-10-05T00:21 | 16585 | 100 | 241 | 27 | ||
| 2024-10-05T00:21 | 16719 | 98 | 242 | 24 | ||
| 2024-10-05T00:21 | 16816 | 96 | -64.7 | |||
| 2024-10-05T00:22 | 17042 | 93 | 262 | 22 | ||
| 2024-10-05T00:23 | 17339 | 88 | 262 | 16 | ||
| 2024-10-05T00:23 | 17459 | 86 | -64.8 | |||
| 2024-10-05T00:23 | 17546 | 85 | 266 | 15 | ||
| 2024-10-05T00:24 | 17596 | 85 | -63.7 | |||
| 2024-10-05T00:24 | 17736 | 83 | 260 | 6 | ||
| 2024-10-05T00:24 | 17752 | 82 | -61.1 | |||
| 2024-10-05T00:24 | 17888 | 81 | 198 | 6 | ||
| 2024-10-05T00:25 | 18075 | 78 | 209 | 9 | ||
| 2024-10-05T00:25 | 18091 | 78 | -62.9 | |||
| 2024-10-05T00:26 | 18396 | 74 | 238 | 12 | ||
| 2024-10-05T00:26 | 18539 | 73 | -64.8 | |||
| 2024-10-05T00:27 | 18598 | 72 | 247 | 14 | ||
| 2024-10-05T00:27 | 18685 | 71 | -63.7 | |||
| 2024-10-05T00:27 | 18746 | 70 | 232 | 11 | ||
| 2024-10-05T00:28 | 18959 | 68 | 221 | 13 | ||
| 2024-10-05T00:28 | 19151 | 66 | -64.1 | |||
| 2024-10-05T00:28 | 19160 | 66 | 226 | 12 | ||
| 2024-10-05T00:29 | 19427 | 63 | 258 | 9 | ||
| 2024-10-05T00:29 | 19628 | 61 | 263 | 7 | ||
| 2024-10-05T00:29 | 19659 | 60 | -62.0 | |||
| 2024-10-05T00:30 | 19910 | 58 | -63.2 | |||
| 2024-10-05T00:30 | 19927 | 58 | 236 | 8 | ||
| 2024-10-05T00:31 | 20101 | 56 | 233 | 7 | ||
| 2024-10-05T00:31 | 20199 | 55 | 239 | 3 | ||
| 2024-10-05T00:31 | 20245 | 55 | -61.0 | |||
| 2024-10-05T00:31 | 20314 | 54 | 185 | 2 | ||
| 2024-10-05T00:32 | 20583 | 52 | -61.7 | |||
| 2024-10-05T00:32 | 20693 | 51 | 215 | 3 | ||
| 2024-10-05T00:33 | 20887 | 50 | 236 | 7 | ||
| 2024-10-05T00:33 | 20902 | 49 | -61.0 | |||
| 2024-10-05T00:33 | 21066 | 48 | 268 | 4 | ||
| 2024-10-05T00:34 | 21145 | 48 | 287 | 2 | ||
| 2024-10-05T00:34 | 21223 | 47 | -58.5 | |||
| 2024-10-05T00:34 | 21238 | 47 | 88 | 3 | ||
| 2024-10-05T00:34 | 21402 | 46 | 149 | 1 | ||
| 2024-10-05T00:35 | 21528 | 45 | 187 | 3 | ||
| 2024-10-05T00:35 | 21742 | 43 | 209 | 3 | ||
| 2024-10-05T00:36 | 21857 | 42 | 267 | 4 | ||
| 2024-10-05T00:36 | 21991 | 42 | 270 | 2 | ||
| 2024-10-05T00:36 | 22129 | 41 | 241 | 3 | ||
| 2024-10-05T00:37 | 22510 | 38 | 304 | 6 | ||
| 2024-10-05T00:37 | 22560 | 38 | -58.1 | |||
| 2024-10-05T00:38 | 22727 | 37 | 358 | 4 | ||
| 2024-10-05T00:38 | 22742 | 37 | 1 | 4 | ||
| 2024-10-05T00:38 | 22830 | 36 | 359 | 4 | ||
| 2024-10-05T00:38 | 22917 | 36 | 317 | 5 | ||
| 2024-10-05T00:39 | 22953 | 36 | -57.9 | |||
| 2024-10-05T00:39 | 23007 | 35 | 351 | 4 | ||
| 2024-10-05T00:39 | 23208 | 34 | 101 | 4 | ||
| 2024-10-05T00:40 | 23356 | 33 | 114 | 4 | ||
| 2024-10-05T00:40 | 23450 | 33 | 72 | 1 | ||
| 2024-10-05T00:40 | 23588 | 32 | 308 | 3 | ||
| 2024-10-05T00:41 | 23844 | 31 | 27 | 1 | ||
| 2024-10-05T00:41 | 24031 | 30 | -58.3 | 3 | 2 | |
| 2024-10-05T00:42 | 24310 | 29 | 12 | 6 | ||
| 2024-10-05T00:43 | 24468 | 28 | 25 | 5 | ||
| 2024-10-05T00:43 | 24579 | 28 | 42 | 6 | ||
| 2024-10-05T00:43 | 24695 | 27 | -57.0 | |||
| 2024-10-05T00:44 | 24933 | 26 | 27 | 4 | ||
| 2024-10-05T00:44 | 25082 | 25 | 62 | 4 | ||
| 2024-10-05T00:45 | 25307 | 25 | 95 | 5 | ||
| 2024-10-05T00:45 | 25489 | 24 | 98 | 8 | ||
| 2024-10-05T00:46 | 25702 | 23 | 105 | 8 | ||
| 2024-10-05T00:46 | 25816 | 23 | -58.0 | |||
| 2024-10-05T00:46 | 25842 | 23 | 107 | 6 | ||
| 2024-10-05T00:47 | 26100 | 22 | 140 | 7 | ||
| 2024-10-05T00:47 | 26251 | 21 | 143 | 6 | ||
| 2024-10-05T00:47 | 26340 | 21 | 119 | 5 | ||
| 2024-10-05T00:47 | 26403 | 21 | 157 | 3 | ||
| 2024-10-05T00:47 | 26437 | 21 | 181 | 3 | ||
| 2024-10-05T00:48 | 26531 | 20 | -53.5 | |||
| 2024-10-05T00:48 | 26561 | 20 | 135 | 5 | ||
| 2024-10-05T00:48 | 26658 | 20 | 76 | 4 | ||
| 2024-10-05T00:49 | 26921 | 19 | 119 | 1 | ||
| 2024-10-05T00:49 | 27026 | 19 | 33 | 3 | ||
| 2024-10-05T00:49 | 27239 | 18 | 66 | 5 | ||
| 2024-10-05T00:50 | 27381 | 18 | 146 | 1 | ||
| 2024-10-05T00:50 | 27452 | 18 | 8 | 3 | ||
| 2024-10-05T00:50 | 27528 | 17 | -52.2 | |||
| 2024-10-05T00:50 | 27718 | 17 | 42 | 6 | ||
| 2024-10-05T00:51 | 27833 | 17 | 71 | 4 | ||
| 2024-10-05T00:51 | 28032 | 16 | 68 | 6 | ||
| 2024-10-05T00:51 | 28158 | 16 | -51.7 | |||
| 2024-10-05T00:52 | 28237 | 16 | 7 | 5 | ||
| 2024-10-05T00:52 | 28584 | 15 | 37 | 7 | ||
| 2024-10-05T00:53 | 28797 | 14 | -50.0 | 14 | 11 | |
| 2024-10-05T11:30 | 18 | 1022 | 15.0 | 12.7 | 190 | 1 |
| 2024-10-05T11:30 | 22 | 1021 | 14.8 | 12.7 | 0 | 0 |
| 2024-10-05T11:30 | 41 | 1019 | 15.1 | 12.6 | ||
| 2024-10-05T11:30 | 125 | 1009 | 15.3 | 12.1 | ||
| 2024-10-05T11:31 | 179 | 1003 | 16.1 | 11.1 | ||
| 2024-10-05T11:31 | 340 | 984 | 5 | 1 | ||
| 2024-10-05T11:31 | 453 | 971 | 14.1 | 10.9 | ||
| 2024-10-05T11:32 | 538 | 961 | 13.9 | 8.9 | ||
| 2024-10-05T11:32 | 624 | 951 | 13.8 | 7.8 | ||
| 2024-10-05T11:32 | 682 | 945 | 2 | 1 | ||
| 2024-10-05T11:32 | 688 | 944 | 13.8 | 6.2 | ||
| 2024-10-05T11:33 | 849 | 926 | 13.0 | 2.0 | ||
| 2024-10-05T11:33 | 952 | 915 | 12.1 | -0.4 | ||
| 2024-10-05T11:33 | 998 | 910 | 274 | 3 | ||
| 2024-10-05T11:33 | 1101 | 899 | 11.4 | -11.4 | ||
| 2024-10-05T11:34 | 1238 | 884 | 282 | 2 | ||
| 2024-10-05T11:34 | 1315 | 876 | 9.7 | -10.5 | ||
| 2024-10-05T11:34 | 1451 | 862 | 8.5 | -7.7 | ||
| 2024-10-05T11:35 | 1594 | 847 | 291 | 3 | ||
| 2024-10-05T11:35 | 1746 | 832 | 265 | 4 | ||
| 2024-10-05T11:35 | 1795 | 827 | 6.4 | -10.4 | ||
| 2024-10-05T11:35 | 1896 | 817 | 267 | 3 | ||
| 2024-10-05T11:36 | 1949 | 811 | 6.1 | -13.5 | ||
| 2024-10-05T11:36 | 2001 | 806 | 5.7 | -11.0 | ||
| 2024-10-05T11:36 | 2093 | 797 | 6.2 | -22.1 | ||
| 2024-10-05T11:36 | 2104 | 796 | 269 | 5 | ||
| 2024-10-05T11:37 | 2344 | 773 | 6.3 | -28.8 | ||
| 2024-10-05T11:37 | 2381 | 770 | 239 | 7 | ||
| 2024-10-05T11:37 | 2486 | 760 | 5.9 | -31.0 | ||
| 2024-10-05T11:37 | 2596 | 750 | 244 | 5 | ||
| 2024-10-05T11:38 | 2706 | 740 | 5.2 | -33.8 | ||
| 2024-10-05T11:38 | 2718 | 739 | 239 | 7 | ||
| 2024-10-05T11:39 | 3082 | 706 | 249 | 7 | ||
| 2024-10-05T11:39 | 3348 | 684 | 255 | 11 | ||
| 2024-10-05T11:40 | 3536 | 668 | 2.7 | -38.4 | ||
| 2024-10-05T11:40 | 3679 | 656 | 2.2 | -35.9 | ||
| 2024-10-05T11:40 | 3722 | 653 | 265 | 10 | ||
| 2024-10-05T11:41 | 3807 | 646 | 2.7 | -35.6 | ||
| 2024-10-05T11:41 | 3890 | 639 | 265 | 16 | ||
| 2024-10-05T11:42 | 4092 | 623 | 0.9 | -29.8 | ||
| 2024-10-05T11:42 | 4239 | 612 | 269 | 16 | ||
| 2024-10-05T11:43 | 4603 | 585 | 272 | 16 | ||
| 2024-10-05T11:44 | 4946 | 560 | 257 | 16 | ||
| 2024-10-05T11:44 | 5052 | 552 | 267 | 13 | ||
| 2024-10-05T11:44 | 5117 | 548 | -5.6 | -34.7 | ||
| 2024-10-05T11:45 | 5230 | 540 | 266 | 17 | ||
| 2024-10-05T11:45 | 5253 | 538 | -6.1 | -29.3 | ||
| 2024-10-05T11:46 | 5585 | 516 | 260 | 14 | ||
| 2024-10-05T11:46 | 5868 | 497 | 258 | 16 | ||
| 2024-10-05T11:47 | 5903 | 495 | -11.9 | -30.9 | ||
| 2024-10-05T11:47 | 5990 | 489 | 253 | 13 | ||
| 2024-10-05T11:47 | 6153 | 479 | 270 | 14 | ||
| 2024-10-05T11:47 | 6231 | 474 | -13.9 | -40.0 | ||
| 2024-10-05T11:48 | 6383 | 465 | 263 | 19 | ||
| 2024-10-05T11:48 | 6559 | 454 | -16.4 | -41.0 | ||
| 2024-10-05T11:49 | 6677 | 447 | 257 | 16 | ||
| 2024-10-05T11:50 | 7081 | 423 | 266 | 18 | ||
| 2024-10-05T11:50 | 7178 | 418 | -21.3 | -45.9 | ||
| 2024-10-05T11:51 | 7483 | 401 | 266 | 18 | ||
| 2024-10-05T11:52 | 7862 | 380 | -27.3 | -48.9 | ||
| 2024-10-05T11:52 | 7876 | 379 | 264 | 20 | ||
| 2024-10-05T11:52 | 8027 | 372 | 268 | 17 | ||
| 2024-10-05T11:52 | 8154 | 365 | 260 | 22 | ||
| 2024-10-05T11:53 | 8363 | 354 | 261 | 22 | ||
| 2024-10-05T11:54 | 8735 | 336 | -34.1 | -51.2 | ||
| 2024-10-05T11:54 | 8761 | 335 | 271 | 23 | ||
| 2024-10-05T11:55 | 9037 | 322 | 262 | 25 | ||
| 2024-10-05T11:55 | 9297 | 310 | 265 | 27 | ||
| 2024-10-05T11:56 | 9431 | 304 | -40.0 | -51.9 | ||
| 2024-10-05T11:56 | 9687 | 293 | 260 | 29 | ||
| 2024-10-05T11:57 | 9747 | 290 | -42.2 | |||
| 2024-10-05T11:57 | 10019 | 279 | 255 | 27 | ||
| 2024-10-05T11:58 | 10345 | 265 | -45.4 | |||
| 2024-10-05T11:58 | 10383 | 264 | 251 | 28 | ||
| 2024-10-05T11:59 | 10545 | 257 | 251 | 31 | ||
| 2024-10-05T11:59 | 10794 | 248 | -47.7 | |||
| 2024-10-05T12:00 | 10929 | 243 | 249 | 31 | ||
| 2024-10-05T12:01 | 11289 | 230 | 248 | 32 | ||
| 2024-10-05T12:02 | 11661 | 217 | 247 | 32 | ||
| 2024-10-05T12:02 | 11668 | 217 | -53.5 | |||
| 2024-10-05T12:02 | 11780 | 213 | -53.0 | |||
| 2024-10-05T12:02 | 11893 | 209 | 256 | 36 | ||
| 2024-10-05T12:03 | 12117 | 202 | -54.9 | |||
| 2024-10-05T12:03 | 12240 | 198 | 256 | 30 | ||
| 2024-10-05T12:04 | 12481 | 191 | 255 | 30 | ||
| 2024-10-05T12:05 | 12677 | 185 | -55.2 | |||
| 2024-10-05T12:05 | 12824 | 181 | 253 | 31 | ||
| 2024-10-05T12:06 | 13146 | 172 | 243 | 31 | ||
| 2024-10-05T12:06 | 13279 | 169 | -54.4 | |||
| 2024-10-05T12:07 | 13461 | 164 | 241 | 36 | ||
| 2024-10-05T12:08 | 13773 | 156 | 253 | 40 | ||
| 2024-10-05T12:09 | 14097 | 148 | 250 | 36 | ||
| 2024-10-05T12:09 | 14164 | 147 | -55.6 | |||
| 2024-10-05T12:10 | 14441 | 141 | 252 | 38 | ||
| 2024-10-05T12:11 | 14733 | 134 | -58.7 | |||
| 2024-10-05T12:11 | 14791 | 133 | 259 | 34 | ||
| 2024-10-05T12:12 | 15099 | 127 | -58.1 | |||
| 2024-10-05T12:12 | 15133 | 126 | 264 | 26 | ||
| 2024-10-05T12:13 | 15529 | 118 | 253 | 18 | ||
| 2024-10-05T12:13 | 15550 | 118 | -60.8 | |||
| 2024-10-05T12:14 | 15750 | 114 | 233 | 18 | ||
| 2024-10-05T12:15 | 16117 | 107 | 234 | 25 | ||
| 2024-10-05T12:15 | 16146 | 107 | -64.9 | |||
| 2024-10-05T12:15 | 16310 | 104 | -64.6 | |||
| 2024-10-05T12:16 | 16466 | 101 | 250 | 27 | ||
| 2024-10-05T12:16 | 16615 | 99 | -64.0 | |||
| 2024-10-05T12:16 | 16779 | 96 | -63.7 | |||
| 2024-10-05T12:17 | 16827 | 96 | 245 | 19 | ||
| 2024-10-05T12:17 | 16971 | 93 | -64.1 | |||
| 2024-10-05T12:17 | 17170 | 90 | 253 | 22 | ||
| 2024-10-05T12:18 | 17203 | 90 | -63.5 | |||
| 2024-10-05T12:18 | 17369 | 88 | 251 | 15 | ||
| 2024-10-05T12:19 | 17540 | 85 | -62.2 | |||
| 2024-10-05T12:19 | 17705 | 83 | 232 | 21 | ||
| 2024-10-05T12:19 | 17904 | 80 | -64.0 | |||
| 2024-10-05T12:20 | 17933 | 80 | 241 | 24 | ||
| 2024-10-05T12:20 | 18217 | 76 | 264 | 19 | ||
| 2024-10-05T12:21 | 18380 | 74 | 279 | 17 | ||
| 2024-10-05T12:21 | 18553 | 72 | -59.1 | |||
| 2024-10-05T12:21 | 18595 | 72 | 259 | 9 | ||
| 2024-10-05T12:22 | 18965 | 68 | 227 | 9 | ||
| 2024-10-05T12:23 | 18991 | 67 | -60.6 | |||
| 2024-10-05T12:23 | 19226 | 65 | 243 | 10 | ||
| 2024-10-05T12:24 | 19440 | 63 | -60.4 | |||
| 2024-10-05T12:24 | 19511 | 62 | 282 | 13 | ||
| 2024-10-05T12:24 | 19801 | 59 | 296 | 4 | ||
| 2024-10-05T12:25 | 19874 | 58 | 244 | 2 | ||
| 2024-10-05T12:25 | 19908 | 58 | -60.3 | |||
| 2024-10-05T12:25 | 19961 | 58 | 214 | 3 | ||
| 2024-10-05T12:25 | 20135 | 56 | -61.2 | |||
| 2024-10-05T12:26 | 20328 | 54 | 253 | 7 | ||
| 2024-10-05T12:26 | 20492 | 53 | -58.3 | |||
| 2024-10-05T12:26 | 20610 | 52 | 274 | 5 | ||
| 2024-10-05T12:27 | 20822 | 50 | 202 | 4 | ||
| 2024-10-05T12:27 | 20838 | 50 | -59.0 | |||
| 2024-10-05T12:28 | 21075 | 48 | 225 | 6 | ||
| 2024-10-05T12:28 | 21102 | 48 | -60.4 | |||
| 2024-10-05T12:28 | 21297 | 47 | 258 | 6 | ||
| 2024-10-05T12:28 | 21393 | 46 | -59.5 | |||
| 2024-10-05T12:29 | 21515 | 45 | 279 | 3 | ||
| 2024-10-05T12:29 | 21831 | 43 | 228 | 1 | ||
| 2024-10-05T12:30 | 21979 | 42 | 232 | 4 | ||
| 2024-10-05T12:30 | 21996 | 42 | -59.7 | |||
| 2024-10-05T12:31 | 22369 | 39 | 238 | 3 | ||
| 2024-10-05T12:31 | 22481 | 39 | 224 | 3 | ||
| 2024-10-05T12:32 | 22784 | 37 | 300 | 6 | ||
| 2024-10-05T12:32 | 22996 | 36 | 278 | 3 | ||
| 2024-10-05T12:33 | 23285 | 34 | 15 | 4 | ||
| 2024-10-05T12:33 | 23397 | 33 | 52 | 4 | ||
| 2024-10-05T12:34 | 23552 | 33 | 50 | 1 | ||
| 2024-10-05T12:34 | 23588 | 32 | -57.7 | |||
| 2024-10-05T12:34 | 23750 | 32 | 334 | 3 | ||
| 2024-10-05T12:34 | 23785 | 31 | -57.4 | 344 | 3 | |
| 2024-10-05T23:30 | 18 | 1021 | 17.2 | 10.1 | 130 | 2 |
| 2024-10-05T23:30 | 23 | 1020 | 17.6 | 10.2 | 0 | 0 |
| 2024-10-05T23:30 | 65 | 1015 | 16.8 | 9.2 | ||
| 2024-10-05T23:30 | 129 | 1007 | 127 | 3 | ||
| 2024-10-05T23:31 | 187 | 1001 | 15.7 | 8.9 | ||
| 2024-10-05T23:31 | 239 | 995 | 16.5 | 8.5 | ||
| 2024-10-05T23:31 | 396 | 976 | 183 | 3 | ||
| 2024-10-05T23:32 | 487 | 966 | 167 | 3 | ||
| 2024-10-05T23:32 | 579 | 955 | 14.0 | 7.8 | ||
| 2024-10-05T23:32 | 667 | 946 | 13.5 | 7.3 | ||
| 2024-10-05T23:32 | 771 | 934 | 198 | 4 | ||
| 2024-10-05T23:33 | 1025 | 906 | 209 | 6 | ||
| 2024-10-05T23:34 | 1315 | 875 | 8.8 | 4.4 | ||
| 2024-10-05T23:34 | 1353 | 871 | 224 | 11 | ||
| 2024-10-05T23:35 | 1678 | 837 | 213 | 4 | ||
| 2024-10-05T23:35 | 1742 | 831 | 6.2 | 0.9 | ||
| 2024-10-05T23:36 | 1817 | 823 | 236 | 3 | ||
| 2024-10-05T23:36 | 1894 | 815 | 236 | 3 | ||
| 2024-10-05T23:36 | 1928 | 812 | 4.7 | 0.1 | ||
| 2024-10-05T23:36 | 1985 | 806 | 192 | 4 | ||
| 2024-10-05T23:36 | 2087 | 796 | 4.6 | -6.3 | ||
| 2024-10-05T23:37 | 2121 | 793 | 199 | 4 | ||
| 2024-10-05T23:37 | 2189 | 786 | 217 | 2 | ||
| 2024-10-05T23:37 | 2217 | 784 | 3.7 | -9.3 | ||
| 2024-10-05T23:37 | 2273 | 778 | 246 | 6 | ||
| 2024-10-05T23:37 | 2289 | 777 | 4.9 | -25.4 | ||
| 2024-10-05T23:37 | 2399 | 766 | 4.8 | -29.9 | ||
| 2024-10-05T23:37 | 2410 | 765 | 250 | 9 | ||
| 2024-10-05T23:38 | 2512 | 756 | 263 | 12 | ||
| 2024-10-05T23:38 | 2517 | 755 | 5.6 | -33.5 | ||
| 2024-10-05T23:39 | 2768 | 732 | 255 | 9 | ||
| 2024-10-05T23:39 | 3024 | 709 | 247 | 14 | ||
| 2024-10-05T23:40 | 3118 | 701 | 4.6 | -41.1 | ||
| 2024-10-05T23:40 | 3333 | 683 | 270 | 16 | ||
| 2024-10-05T23:41 | 3484 | 670 | 2.5 | -48.8 | ||
| 2024-10-05T23:41 | 3639 | 657 | 261 | 19 | ||
| 2024-10-05T23:42 | 3835 | 641 | 0.7 | -49.9 | ||
| 2024-10-05T23:42 | 3959 | 632 | 261 | 19 | ||
| 2024-10-05T23:43 | 4290 | 606 | 260 | 20 | ||
| 2024-10-05T23:44 | 4615 | 581 | 267 | 21 | ||
| 2024-10-05T23:44 | 4620 | 581 | -4.3 | -53.1 | ||
| 2024-10-05T23:45 | 4750 | 572 | 268 | 20 | ||
| 2024-10-05T23:45 | 4855 | 564 | 267 | 21 | ||
| 2024-10-05T23:45 | 4861 | 564 | -5.8 | -39.5 | ||
| 2024-10-05T23:45 | 4905 | 560 | -6.0 | -24.3 | ||
| 2024-10-05T23:46 | 5188 | 540 | 263 | 21 | ||
| 2024-10-05T23:46 | 5239 | 537 | -9.0 | -26.9 | ||
| 2024-10-05T23:47 | 5544 | 516 | 261 | 26 | ||
| 2024-10-05T23:48 | 5743 | 503 | -12.7 | -36.3 | ||
| 2024-10-05T23:48 | 5780 | 500 | 273 | 27 | ||
| 2024-10-05T23:48 | 5884 | 494 | -12.8 | -44.7 | ||
| 2024-10-05T23:49 | 6045 | 483 | 271 | 29 | ||
| 2024-10-05T23:50 | 6391 | 462 | 264 | 28 | ||
| 2024-10-05T23:50 | 6533 | 453 | -17.4 | -40.1 | ||
| 2024-10-05T23:50 | 6729 | 441 | 262 | 27 | ||
| 2024-10-05T23:51 | 7082 | 420 | 272 | 29 | ||
| 2024-10-05T23:52 | 7129 | 418 | -22.9 | -41.8 | ||
| 2024-10-05T23:52 | 7244 | 411 | -23.4 | -43.5 | ||
| 2024-10-05T23:52 | 7428 | 401 | 281 | 32 | ||
| 2024-10-05T23:53 | 7487 | 398 | -24.3 | -47.3 | ||
| 2024-10-05T23:53 | 7784 | 382 | 286 | 32 | ||
| 2024-10-05T23:54 | 7999 | 371 | -28.8 | -45.2 | ||
| 2024-10-05T23:54 | 8006 | 370 | 289 | 36 | ||
| 2024-10-05T23:55 | 8315 | 355 | 285 | 36 | ||
| 2024-10-05T23:56 | 8585 | 341 | -33.9 | -47.2 | ||
| 2024-10-05T23:56 | 8675 | 337 | 286 | 36 | ||
| 2024-10-05T23:57 | 8992 | 322 | -37.3 | -54.5 | ||
| 2024-10-05T23:57 | 9040 | 320 | 287 | 35 | ||
| 2024-10-05T23:58 | 9391 | 304 | 285 | 36 | ||
| 2024-10-05T23:58 | 9402 | 303 | -40.0 | -57.3 | ||
| 2024-10-05T23:59 | 9736 | 289 | 285 | 36 | ||
| 2024-10-06T00:00 | 10083 | 274 | 283 | 35 | ||
| 2024-10-06T00:01 | 10460 | 259 | 278 | 36 | ||
| 2024-10-06T00:01 | 10604 | 253 | -49.6 | |||
| 2024-10-06T00:02 | 10794 | 246 | 288 | 38 | ||
| 2024-10-06T00:03 | 11145 | 233 | 278 | 37 | ||
| 2024-10-06T00:04 | 11491 | 221 | 279 | 42 | ||
| 2024-10-06T00:05 | 11829 | 209 | 276 | 43 | ||
| 2024-10-06T00:05 | 11931 | 206 | -58.6 | |||
| 2024-10-06T00:06 | 12149 | 199 | -58.6 | |||
| 2024-10-06T00:06 | 12166 | 198 | 277 | 41 | ||
| 2024-10-06T00:06 | 12313 | 194 | -57.8 | |||
| 2024-10-06T00:07 | 12379 | 192 | 276 | 45 | ||
| 2024-10-06T00:07 | 12493 | 188 | -55.4 | |||
| 2024-10-06T00:08 | 12700 | 182 | -53.9 | 276 | 36 | |
| 2024-10-06T00:08 | 12969 | 175 | -53.4 | |||
| 2024-10-06T00:09 | 13034 | 173 | 265 | 29 | ||
| 2024-10-06T00:10 | 13352 | 165 | 258 | 28 | ||
| 2024-10-06T00:10 | 13629 | 158 | -57.0 | |||
| 2024-10-06T00:11 | 13679 | 156 | 252 | 28 | ||
| 2024-10-06T00:11 | 13839 | 152 | -58.4 | |||
| 2024-10-06T00:12 | 14018 | 148 | 245 | 32 | ||
| 2024-10-06T00:12 | 14077 | 147 | -59.6 | |||
| 2024-10-06T00:13 | 14338 | 141 | 253 | 34 | ||
| 2024-10-06T00:13 | 14498 | 137 | -61.1 | |||
| 2024-10-06T00:13 | 14614 | 135 | 253 | 40 | ||
| 2024-10-06T00:14 | 14765 | 131 | -61.4 | |||
| 2024-10-06T00:14 | 14932 | 128 | 263 | 40 | ||
| 2024-10-06T00:15 | 15118 | 124 | -60.7 | |||
| 2024-10-06T00:15 | 15204 | 122 | 272 | 38 | ||
| 2024-10-06T00:16 | 15392 | 119 | -58.4 | |||
| 2024-10-06T00:16 | 15525 | 116 | 263 | 22 | ||
| 2024-10-06T00:16 | 15637 | 114 | -59.2 | |||
| 2024-10-06T00:17 | 15898 | 110 | 247 | 26 | ||
| 2024-10-06T00:18 | 16093 | 106 | -61.7 | |||
| 2024-10-06T00:18 | 16222 | 104 | 256 | 28 | ||
| 2024-10-06T00:18 | 16228 | 104 | -61.2 | |||
| 2024-10-06T00:18 | 16338 | 102 | -60.9 | |||
| 2024-10-06T00:19 | 16561 | 98 | 261 | 22 | ||
| 2024-10-06T00:19 | 16584 | 98 | -61.5 | |||
| 2024-10-06T00:20 | 16849 | 94 | -62.3 | |||
| 2024-10-06T00:20 | 16898 | 93 | 253 | 22 | ||
| 2024-10-06T00:21 | 17202 | 89 | 265 | 22 | ||
| 2024-10-06T00:21 | 17257 | 88 | -63.1 | |||
| 2024-10-06T00:22 | 17406 | 86 | 259 | 16 | ||
| 2024-10-06T00:22 | 17492 | 85 | -62.6 | |||
| 2024-10-06T00:22 | 17662 | 82 | 237 | 18 | ||
| 2024-10-06T00:23 | 17753 | 81 | -63.0 | |||
| 2024-10-06T00:23 | 17844 | 80 | 258 | 18 | ||
| 2024-10-06T00:24 | 18034 | 78 | -61.7 | |||
| 2024-10-06T00:24 | 18194 | 76 | 259 | 13 | ||
| 2024-10-06T00:25 | 18463 | 72 | 239 | 14 | ||
| 2024-10-06T00:25 | 18639 | 70 | -61.5 | |||
| 2024-10-06T00:26 | 18816 | 68 | 245 | 17 | ||
| 2024-10-06T00:26 | 19017 | 66 | -60.7 | |||
| 2024-10-06T00:27 | 19159 | 65 | 263 | 16 | ||
| 2024-10-06T00:27 | 19427 | 62 | 263 | 12 | ||
| 2024-10-06T00:28 | 19449 | 62 | -60.4 | |||
| 2024-10-06T00:28 | 19623 | 60 | -61.2 | 255 | 12 | |
| 2024-10-06T00:29 | 19888 | 58 | 277 | 9 | ||
| 2024-10-06T00:29 | 19975 | 57 | -59.8 | |||
| 2024-10-06T00:29 | 20052 | 56 | 270 | 6 | ||
| 2024-10-06T00:30 | 20350 | 53 | 254 | 8 | ||
| 2024-10-06T00:30 | 20398 | 53 | -60.2 | |||
| 2024-10-06T00:30 | 20506 | 52 | 227 | 5 | ||
| 2024-10-06T00:31 | 20759 | 50 | -59.6 | 247 | 8 | |
| 2024-10-06T00:32 | 20912 | 49 | 249 | 3 | ||
| 2024-10-06T00:32 | 21068 | 48 | -58.2 | |||
| 2024-10-06T00:32 | 21109 | 47 | 203 | 2 | ||
| 2024-10-06T00:32 | 21203 | 47 | 176 | 3 | ||
| 2024-10-06T00:33 | 21338 | 46 | 228 | 4 | ||
| 2024-10-06T00:33 | 21576 | 44 | -60.2 | |||
| 2024-10-06T00:33 | 21618 | 44 | 263 | 9 | ||
| 2024-10-06T00:34 | 21765 | 43 | 255 | 5 | ||
| 2024-10-06T00:34 | 21929 | 42 | 197 | 4 | ||
| 2024-10-06T00:35 | 22007 | 41 | 232 | 3 | ||
| 2024-10-06T00:35 | 22036 | 41 | -58.1 | |||
| 2024-10-06T00:35 | 22099 | 40 | 279 | 7 | ||
| 2024-10-06T00:35 | 22323 | 39 | 308 | 4 | ||
| 2024-10-06T00:36 | 22420 | 38 | 332 | 4 | ||
| 2024-10-06T00:36 | 22538 | 38 | -57.5 | |||
| 2024-10-06T00:36 | 22605 | 37 | 299 | 3 | ||
| 2024-10-06T00:36 | 22707 | 37 | 255 | 4 | ||
| 2024-10-06T00:37 | 22970 | 35 | -57.2 | |||
| 2024-10-06T00:37 | 22990 | 35 | 335 | 4 | ||
| 2024-10-06T00:37 | 23080 | 35 | 329 | 3 | ||
| 2024-10-06T00:38 | 23190 | 34 | 313 | 3 | ||
| 2024-10-06T00:38 | 23418 | 33 | 37 | 3 | ||
| 2024-10-06T00:38 | 23532 | 32 | 90 | 2 | ||
| 2024-10-06T00:39 | 23629 | 32 | -57.7 | |||
| 2024-10-06T00:39 | 23666 | 32 | 221 | 3 | ||
| 2024-10-06T00:39 | 23828 | 31 | 188 | 4 | ||
| 2024-10-06T00:39 | 23956 | 30 | 155 | 4 | ||
| 2024-10-06T00:40 | 24210 | 29 | 191 | 2 | ||
| 2024-10-06T00:41 | 24549 | 27 | 173 | 3 | ||
| 2024-10-06T00:41 | 24690 | 27 | 192 | 2 | ||
| 2024-10-06T00:42 | 24836 | 26 | 212 | 3 | ||
| 2024-10-06T00:42 | 25058 | 25 | 247 | 1 | ||
| 2024-10-06T00:42 | 25109 | 25 | -55.2 | |||
| 2024-10-06T00:42 | 25161 | 25 | 315 | 3 | ||
| 2024-10-06T00:43 | 25236 | 25 | 285 | 2 | ||
| 2024-10-06T00:43 | 25527 | 24 | 15 | 3 | ||
| 2024-10-06T00:44 | 25807 | 23 | 45 | 5 | ||
| 2024-10-06T00:44 | 25979 | 22 | 15 | 3 | ||
| 2024-10-06T00:45 | 26040 | 22 | -54.7 | |||
| 2024-10-06T00:45 | 26097 | 22 | 50 | 4 | ||
| 2024-10-06T00:45 | 26310 | 21 | 50 | 7 | ||
| 2024-10-06T00:46 | 26497 | 20 | 57 | 8 | ||
| 2024-10-06T00:47 | 26887 | 19 | 72 | 6 | ||
| 2024-10-06T00:47 | 27062 | 19 | 74 | 7 | ||
| 2024-10-06T00:47 | 27203 | 18 | 53 | 8 | ||
| 2024-10-06T00:48 | 27345 | 18 | 55 | 7 | ||
| 2024-10-06T00:48 | 27494 | 17 | 47 | 8 | ||
| 2024-10-06T00:48 | 27647 | 17 | 46 | 6 | ||
| 2024-10-06T00:49 | 27762 | 17 | 26 | 8 | ||
| 2024-10-06T00:49 | 27944 | 16 | -51.9 | 26 | 10 | |
| 2024-10-06T11:30 | 18 | 1018 | 16.6 | 13.3 | 210 | 1 |
| 2024-10-06T11:30 | 22 | 1018 | 16.8 | 13.3 | 0 | 0 |
| 2024-10-06T11:30 | 163 | 1001 | 16.8 | 11.9 | ||
| 2024-10-06T11:31 | 216 | 995 | 16.9 | 11.8 | ||
| 2024-10-06T11:31 | 336 | 981 | 104 | 2 | ||
| 2024-10-06T11:31 | 439 | 969 | 15.4 | 10.0 | ||
| 2024-10-06T11:32 | 664 | 944 | 70 | 1 | ||
| 2024-10-06T11:32 | 784 | 930 | 181 | 2 | ||
| 2024-10-06T11:32 | 800 | 929 | 12.4 | 10.1 | ||
| 2024-10-06T11:33 | 936 | 914 | 190 | 2 | ||
| 2024-10-06T11:33 | 1088 | 897 | 196 | 6 | ||
| 2024-10-06T11:33 | 1099 | 896 | 10.3 | 6.6 | ||
| 2024-10-06T11:34 | 1151 | 890 | 10.2 | 5.6 | ||
| 2024-10-06T11:34 | 1188 | 886 | 186 | 6 | ||
| 2024-10-06T11:34 | 1316 | 873 | 8.7 | 6.5 | ||
| 2024-10-06T11:34 | 1406 | 863 | 206 | 7 | ||
| 2024-10-06T11:35 | 1735 | 830 | 185 | 7 | ||
| 2024-10-06T11:35 | 1741 | 829 | 5.2 | 3.9 | ||
| 2024-10-06T11:36 | 1834 | 820 | 6.5 | -9.4 | ||
| 2024-10-06T11:36 | 1886 | 814 | 7.6 | -21.0 | ||
| 2024-10-06T11:36 | 1898 | 813 | 230 | 6 | ||
| 2024-10-06T11:36 | 2010 | 802 | 267 | 4 | ||
| 2024-10-06T11:36 | 2048 | 799 | 7.5 | -27.9 | ||
| 2024-10-06T11:37 | 2131 | 791 | 244 | 6 | ||
| 2024-10-06T11:37 | 2252 | 779 | 7.6 | -32.1 | 248 | 6 |
| 2024-10-06T11:37 | 2351 | 770 | 228 | 7 | ||
| 2024-10-06T11:38 | 2569 | 749 | 7.7 | -35.0 | ||
| 2024-10-06T11:38 | 2611 | 746 | 241 | 7 | ||
| 2024-10-06T11:38 | 2719 | 736 | 237 | 6 | ||
| 2024-10-06T11:39 | 2811 | 728 | 6.0 | -24.6 | 261 | 6 |
| 2024-10-06T11:39 | 2955 | 715 | 4.9 | -28.2 | ||
| 2024-10-06T11:39 | 2989 | 712 | 245 | 8 | ||
| 2024-10-06T11:40 | 3110 | 701 | 242 | 8 | ||
| 2024-10-06T11:40 | 3250 | 689 | 3.6 | -41.7 | ||
| 2024-10-06T11:41 | 3411 | 676 | 248 | 11 | ||
| 2024-10-06T11:41 | 3463 | 672 | 2.7 | -48.6 | ||
| 2024-10-06T11:41 | 3621 | 658 | 2.2 | -49.0 | ||
| 2024-10-06T11:42 | 3671 | 654 | 250 | 13 | ||
| 2024-10-06T11:42 | 3847 | 640 | 240 | 14 | ||
| 2024-10-06T11:43 | 3979 | 630 | 0.2 | -31.7 | ||
| 2024-10-06T11:43 | 4168 | 615 | 245 | 21 | ||
| 2024-10-06T11:43 | 4174 | 615 | -1.6 | -24.9 | ||
| 2024-10-06T11:43 | 4286 | 606 | 243 | 18 | ||
| 2024-10-06T11:44 | 4476 | 592 | -3.7 | -40.2 | ||
| 2024-10-06T11:45 | 4648 | 579 | 241 | 15 | ||
| 2024-10-06T11:45 | 4708 | 574 | -5.8 | -22.7 | ||
| 2024-10-06T11:46 | 5008 | 553 | 240 | 16 | ||
| 2024-10-06T11:46 | 5044 | 550 | -8.7 | -23.6 | ||
| 2024-10-06T11:46 | 5112 | 545 | -9.1 | -26.5 | ||
| 2024-10-06T11:46 | 5197 | 539 | -9.8 | -26.2 | ||
| 2024-10-06T11:46 | 5359 | 528 | -10.3 | -30.1 | ||
| 2024-10-06T11:46 | 5370 | 527 | 227 | 19 | ||
| 2024-10-06T11:47 | 5558 | 515 | -11.3 | -35.1 | ||
| 2024-10-06T11:47 | 5699 | 505 | 213 | 19 | ||
| 2024-10-06T11:48 | 5844 | 496 | -12.9 | -38.2 | ||
| 2024-10-06T11:48 | 6039 | 483 | 208 | 21 | ||
| 2024-10-06T11:49 | 6391 | 461 | 214 | 24 | ||
| 2024-10-06T11:50 | 6730 | 441 | -19.2 | -42.3 | ||
| 2024-10-06T11:51 | 6762 | 439 | 213 | 26 | ||
| 2024-10-06T11:51 | 6988 | 426 | -20.5 | -39.8 | ||
| 2024-10-06T11:51 | 7046 | 422 | -20.9 | -28.8 | ||
| 2024-10-06T11:52 | 7144 | 417 | 223 | 26 | ||
| 2024-10-06T11:52 | 7176 | 415 | -21.9 | -24.6 | ||
| 2024-10-06T11:52 | 7233 | 412 | -22.2 | -24.9 | ||
| 2024-10-06T11:52 | 7278 | 409 | 224 | 29 | ||
| 2024-10-06T11:52 | 7285 | 409 | -22.2 | -29.8 | ||
| 2024-10-06T11:52 | 7507 | 397 | 220 | 34 | ||
| 2024-10-06T11:53 | 7578 | 393 | -24.8 | -30.7 | ||
| 2024-10-06T11:53 | 7944 | 373 | 219 | 34 | ||
| 2024-10-06T11:54 | 8049 | 368 | -29.1 | -31.7 | ||
| 2024-10-06T11:54 | 8178 | 361 | -29.6 | -31.7 | ||
| 2024-10-06T11:54 | 8350 | 353 | -30.4 | -32.6 | 224 | 37 |
| 2024-10-06T11:55 | 8413 | 350 | -29.8 | -31.9 | ||
| 2024-10-06T11:55 | 8602 | 340 | -30.6 | -32.8 | ||
| 2024-10-06T11:55 | 8704 | 336 | 234 | 39 | ||
| 2024-10-06T11:56 | 8855 | 328 | -31.4 | -33.6 | ||
| 2024-10-06T11:56 | 9049 | 320 | 244 | 43 | ||
| 2024-10-06T11:57 | 9133 | 316 | -31.8 | -34.6 | ||
| 2024-10-06T11:57 | 9384 | 305 | 247 | 44 | ||
| 2024-10-06T11:58 | 9721 | 290 | 248 | 45 | ||
| 2024-10-06T11:59 | 9894 | 283 | -38.0 | -40.8 | ||
| 2024-10-06T11:59 | 10073 | 276 | 249 | 44 | ||
| 2024-10-06T12:00 | 10113 | 274 | -40.0 | -42.6 | ||
| 2024-10-06T12:00 | 10404 | 263 | 248 | 44 | ||
| 2024-10-06T12:01 | 10735 | 250 | 252 | 42 | ||
| 2024-10-06T12:02 | 11063 | 238 | 253 | 43 | ||
| 2024-10-06T12:03 | 11409 | 226 | 253 | 41 | ||
| 2024-10-06T12:04 | 11737 | 214 | 253 | 42 | ||
| 2024-10-06T12:05 | 11775 | 213 | -55.4 | |||
| 2024-10-06T12:05 | 12074 | 203 | 253 | 43 | ||
| 2024-10-06T12:06 | 12335 | 195 | 255 | 48 | ||
| 2024-10-06T12:07 | 12545 | 189 | 258 | 48 | ||
| 2024-10-06T12:08 | 12926 | 177 | 262 | 52 | ||
| 2024-10-06T12:08 | 12969 | 176 | -64.2 | |||
| 2024-10-06T12:09 | 13246 | 168 | -64.8 | |||
| 2024-10-06T12:09 | 13280 | 167 | 265 | 51 | ||
| 2024-10-06T12:09 | 13331 | 166 | -63.0 | |||
| 2024-10-06T12:10 | 13568 | 160 | 270 | 42 | ||
| 2024-10-06T12:10 | 13625 | 158 | -61.0 | |||
| 2024-10-06T12:10 | 13812 | 154 | 271 | 38 | ||
| 2024-10-06T12:10 | 13859 | 152 | -60.1 | |||
| 2024-10-06T12:11 | 14062 | 147 | 265 | 33 | ||
| 2024-10-06T12:11 | 14090 | 147 | -59.7 | |||
| 2024-10-06T12:12 | 14276 | 143 | 253 | 29 | ||
| 2024-10-06T12:12 | 14393 | 140 | -60.8 | |||
| 2024-10-06T12:13 | 14606 | 135 | 259 | 32 | ||
| 2024-10-06T12:13 | 14735 | 132 | -60.9 | |||
| 2024-10-06T12:14 | 14949 | 128 | 258 | 34 | ||
| 2024-10-06T12:14 | 15134 | 124 | -61.8 | |||
| 2024-10-06T12:15 | 15290 | 121 | 257 | 29 | ||
| 2024-10-06T12:15 | 15295 | 121 | -62.6 | |||
| 2024-10-06T12:16 | 15534 | 116 | 258 | 34 | ||
| 2024-10-06T12:16 | 15648 | 114 | 261 | 34 | ||
| 2024-10-06T12:16 | 15783 | 112 | -63.3 | |||
| 2024-10-06T12:17 | 15888 | 110 | -63.0 | |||
| 2024-10-06T12:17 | 15946 | 109 | 270 | 32 | ||
| 2024-10-06T12:17 | 16063 | 107 | -62.0 | 273 | 27 | |
| 2024-10-06T12:18 | 16217 | 104 | 273 | 26 | ||
| 2024-10-06T12:18 | 16239 | 104 | -61.5 | |||
| 2024-10-06T12:19 | 16512 | 99 | -61.7 | |||
| 2024-10-06T12:19 | 16524 | 99 | 267 | 21 | ||
| 2024-10-06T12:20 | 16869 | 94 | 255 | 24 | ||
| 2024-10-06T12:20 | 17044 | 91 | -64.4 | |||
| 2024-10-06T12:21 | 17197 | 89 | 262 | 26 | ||
| 2024-10-06T12:21 | 17400 | 86 | -63.4 | |||
| 2024-10-06T12:21 | 17451 | 85 | 262 | 22 | ||
| 2024-10-06T12:22 | 17671 | 82 | 265 | 25 | ||
| 2024-10-06T12:22 | 17738 | 81 | -62.5 | |||
| 2024-10-06T12:23 | 17994 | 78 | 275 | 22 | ||
| 2024-10-06T12:23 | 18042 | 77 | -62.4 | |||
| 2024-10-06T12:24 | 18336 | 74 | 269 | 16 | ||
| 2024-10-06T12:25 | 18604 | 71 | -60.6 | |||
| 2024-10-06T12:25 | 18685 | 70 | 245 | 15 | ||
| 2024-10-06T12:26 | 18984 | 67 | 245 | 18 | ||
| 2024-10-06T12:26 | 19164 | 65 | -61.4 | |||
| 2024-10-06T12:27 | 19349 | 63 | 271 | 18 | ||
| 2024-10-06T12:27 | 19448 | 62 | -60.3 | |||
| 2024-10-06T12:28 | 19592 | 60 | 290 | 16 | ||
| 2024-10-06T12:28 | 19837 | 58 | 266 | 8 | ||
| 2024-10-06T12:29 | 19943 | 57 | -59.2 | |||
| 2024-10-06T12:29 | 20091 | 56 | 244 | 13 | ||
| 2024-10-06T12:30 | 20260 | 54 | -57.7 | |||
| 2024-10-06T12:30 | 20439 | 53 | 264 | 12 | ||
| 2024-10-06T12:31 | 20769 | 50 | -56.7 | |||
| 2024-10-06T12:31 | 20818 | 50 | 302 | 6 | ||
| 2024-10-06T12:31 | 20973 | 48 | 239 | 4 | ||
| 2024-10-06T12:32 | 21172 | 47 | 235 | 7 | ||
| 2024-10-06T12:33 | 21450 | 45 | -59.7 | |||
| 2024-10-06T12:33 | 21505 | 45 | 277 | 9 | ||
| 2024-10-06T12:33 | 21747 | 43 | 261 | 3 | ||
| 2024-10-06T12:34 | 21927 | 42 | 256 | 5 | ||
| 2024-10-06T12:34 | 22093 | 41 | -58.9 | |||
| 2024-10-06T12:34 | 22110 | 40 | 249 | 4 | ||
| 2024-10-06T12:35 | 22220 | 40 | 231 | 6 | ||
| 2024-10-06T12:35 | 22460 | 38 | 266 | 9 | ||
| 2024-10-06T12:35 | 22545 | 38 | -57.0 | |||
| 2024-10-06T12:36 | 22869 | 36 | 303 | 7 | ||
| 2024-10-06T12:36 | 23013 | 35 | 318 | 7 | ||
| 2024-10-06T12:37 | 23218 | 34 | 359 | 7 | ||
| 2024-10-06T12:37 | 23366 | 33 | 356 | 6 | ||
| 2024-10-06T12:38 | 23444 | 33 | 22 | 3 | ||
| 2024-10-06T12:38 | 23542 | 32 | 64 | 6 | ||
| 2024-10-06T12:38 | 23825 | 31 | -55.8 | |||
| 2024-10-06T12:38 | 23849 | 31 | 53 | 6 | ||
| 2024-10-06T12:39 | 24230 | 29 | 108 | 3 | ||
| 2024-10-06T12:40 | 24387 | 28 | 181 | 3 | ||
| 2024-10-06T12:40 | 24499 | 28 | -56.5 | |||
| 2024-10-06T12:41 | 24685 | 27 | 36 | 1 | ||
| 2024-10-06T12:41 | 24758 | 27 | 146 | 3 | ||
| 2024-10-06T12:41 | 24854 | 26 | 148 | 3 | ||
| 2024-10-06T12:41 | 24951 | 26 | 155 | 3 | ||
| 2024-10-06T12:42 | 25153 | 25 | 234 | 3 | ||
| 2024-10-06T12:42 | 25334 | 24 | 295 | 4 | ||
| 2024-10-06T12:42 | 25439 | 24 | -53.1 | |||
| 2024-10-06T12:43 | 25607 | 23 | 360 | 4 | ||
| 2024-10-06T12:43 | 25633 | 23 | 7 | 4 | ||
| 2024-10-06T12:43 | 25831 | 23 | 26 | 6 | ||
| 2024-10-06T12:44 | 26124 | 22 | 342 | 5 | ||
| 2024-10-06T12:44 | 26226 | 21 | -52.8 | 357 | 4 | |
| 2024-10-06T23:30 | 18 | 1014 | 15.8 | 14.8 | 140 | 2 |
| 2024-10-06T23:30 | 22 | 1013 | 15.9 | 15.3 | 0 | 0 |
| 2024-10-06T23:30 | 76 | 1007 | 131 | 3 | ||
| 2024-10-06T23:30 | 158 | 997 | 173 | 5 | ||
| 2024-10-06T23:31 | 375 | 972 | 13.5 | 12.6 | ||
| 2024-10-06T23:31 | 465 | 962 | 166 | 10 | ||
| 2024-10-06T23:32 | 787 | 925 | 147 | 9 | ||
| 2024-10-06T23:33 | 809 | 923 | 10.7 | 10.2 | ||
| 2024-10-06T23:33 | 1120 | 889 | 136 | 5 | ||
| 2024-10-06T23:34 | 1275 | 872 | 8.7 | 8.7 | ||
| 2024-10-06T23:34 | 1439 | 855 | 175 | 3 | ||
| 2024-10-06T23:35 | 1631 | 836 | 201 | 4 | ||
| 2024-10-06T23:36 | 1805 | 818 | 205 | 3 | ||
| 2024-10-06T23:36 | 1917 | 807 | 210 | 5 | ||
| 2024-10-06T23:37 | 2092 | 790 | 5.4 | 5.3 | ||
| 2024-10-06T23:37 | 2213 | 778 | 202 | 11 | ||
| 2024-10-06T23:37 | 2293 | 771 | 4.8 | 4.8 | ||
| 2024-10-06T23:38 | 2533 | 748 | 220 | 12 | ||
| 2024-10-06T23:38 | 2592 | 743 | 2.9 | 2.9 | ||
| 2024-10-06T23:39 | 2814 | 723 | 212 | 12 | ||
| 2024-10-06T23:40 | 3030 | 704 | -0.4 | -0.8 | ||
| 2024-10-06T23:40 | 3063 | 701 | 222 | 12 | ||
| 2024-10-06T23:40 | 3182 | 691 | -1.2 | -1.2 | ||
| 2024-10-06T23:41 | 3411 | 671 | 223 | 13 | ||
| 2024-10-06T23:41 | 3455 | 667 | -2.9 | -2.9 | ||
| 2024-10-06T23:41 | 3568 | 658 | -4.3 | -5.0 | ||
| 2024-10-06T23:41 | 3652 | 651 | -5.1 | -9.7 | ||
| 2024-10-06T23:42 | 3747 | 643 | 233 | 16 | ||
| 2024-10-06T23:42 | 3753 | 643 | -6.0 | -13.4 | ||
| 2024-10-06T23:42 | 3866 | 633 | -7.1 | -12.4 | ||
| 2024-10-06T23:43 | 4068 | 617 | 220 | 18 | ||
| 2024-10-06T23:43 | 4079 | 616 | -8.3 | -11.1 | ||
| 2024-10-06T23:43 | 4175 | 608 | -8.8 | -10.7 | ||
| 2024-10-06T23:43 | 4286 | 600 | -9.8 | -12.8 | ||
| 2024-10-06T23:43 | 4333 | 596 | -10.2 | -13.6 | ||
| 2024-10-06T23:44 | 4380 | 592 | -9.3 | -10.2 | ||
| 2024-10-06T23:44 | 4415 | 590 | 237 | 17 | ||
| 2024-10-06T23:44 | 4613 | 575 | 234 | 17 | ||
| 2024-10-06T23:44 | 4653 | 572 | -10.2 | -11.0 | ||
| 2024-10-06T23:45 | 4761 | 564 | -10.0 | -10.3 | ||
| 2024-10-06T23:45 | 4812 | 560 | -10.3 | -11.9 | ||
| 2024-10-06T23:45 | 4891 | 554 | 236 | 24 | ||
| 2024-10-06T23:45 | 4931 | 552 | -8.1 | -8.6 | ||
| 2024-10-06T23:46 | 5056 | 543 | -7.8 | -8.1 | ||
| 2024-10-06T23:46 | 5159 | 536 | 241 | 29 | ||
| 2024-10-06T23:47 | 5526 | 511 | 242 | 32 | ||
| 2024-10-06T23:47 | 5532 | 511 | -11.0 | -11.0 | ||
| 2024-10-06T23:48 | 5803 | 493 | -12.5 | -12.5 | ||
| 2024-10-06T23:48 | 5820 | 492 | 242 | 32 | ||
| 2024-10-06T23:48 | 5838 | 491 | -12.6 | -12.7 | ||
| 2024-10-06T23:48 | 5867 | 489 | -12.8 | -19.8 | ||
| 2024-10-06T23:48 | 5885 | 488 | -12.9 | -20.7 | ||
| 2024-10-06T23:48 | 5927 | 485 | -13.1 | -15.1 | ||
| 2024-10-06T23:48 | 5945 | 484 | 235 | 36 | ||
| 2024-10-06T23:49 | 6251 | 465 | -15.3 | -18.3 | ||
| 2024-10-06T23:49 | 6312 | 461 | 239 | 36 | ||
| 2024-10-06T23:50 | 6677 | 439 | 239 | 35 | ||
| 2024-10-06T23:51 | 7038 | 418 | 240 | 33 | ||
| 2024-10-06T23:51 | 7183 | 410 | -21.2 | -23.5 | ||
| 2024-10-06T23:52 | 7402 | 398 | 243 | 34 | ||
| 2024-10-06T23:53 | 7764 | 379 | 247 | 36 | ||
| 2024-10-06T23:53 | 7821 | 376 | -24.6 | -26.5 | ||
| 2024-10-06T23:53 | 7943 | 370 | 246 | 41 | ||
| 2024-10-06T23:54 | 8328 | 351 | 246 | 39 | ||
| 2024-10-06T23:55 | 8707 | 332 | 243 | 39 | ||
| 2024-10-06T23:56 | 9091 | 315 | 238 | 41 | ||
| 2024-10-06T23:57 | 9160 | 312 | -34.5 | -36.1 | ||
| 2024-10-06T23:57 | 9328 | 304 | 242 | 44 | ||
| 2024-10-06T23:57 | 9427 | 300 | -35.8 | -37.9 | ||
| 2024-10-06T23:58 | 9513 | 296 | 246 | 49 | ||
| 2024-10-06T23:59 | 9886 | 281 | -38.8 | -41.1 | ||
| 2024-10-06T23:59 | 9892 | 281 | 247 | 51 | ||
| 2024-10-06T23:59 | 10000 | 276 | -40.0 | -42.2 | ||
| 2024-10-07T00:00 | 10268 | 265 | 248 | 54 | ||
| 2024-10-07T00:01 | 10637 | 251 | 250 | 55 | ||
| 2024-10-07T00:02 | 11015 | 237 | 248 | 57 | ||
| 2024-10-07T00:02 | 11171 | 232 | -50.2 | |||
| 2024-10-07T00:03 | 11400 | 224 | 247 | 57 | ||
| 2024-10-07T00:04 | 11786 | 211 | 246 | 57 | ||
| 2024-10-07T00:04 | 12061 | 202 | 254 | 58 | ||
| 2024-10-07T00:05 | 12155 | 199 | -58.4 | |||
| 2024-10-07T00:05 | 12213 | 197 | 256 | 58 | ||
| 2024-10-07T00:05 | 12349 | 193 | 259 | 60 | ||
| 2024-10-07T00:05 | 12509 | 188 | -59.5 | |||
| 2024-10-07T00:06 | 12651 | 184 | 263 | 62 | ||
| 2024-10-07T00:07 | 12857 | 178 | 267 | 62 | ||
| 2024-10-07T00:07 | 12936 | 175 | -60.0 | |||
| 2024-10-07T00:07 | 13089 | 171 | 266 | 54 | ||
| 2024-10-07T00:07 | 13155 | 169 | -59.1 | |||
| 2024-10-07T00:08 | 13330 | 165 | 264 | 50 | ||
| 2024-10-07T00:09 | 13576 | 158 | 265 | 47 | ||
| 2024-10-07T00:09 | 13793 | 153 | 256 | 41 | ||
| 2024-10-07T00:10 | 14127 | 145 | 252 | 42 | ||
| 2024-10-07T00:10 | 14183 | 144 | -60.2 | |||
| 2024-10-07T00:11 | 14353 | 140 | 253 | 43 | ||
| 2024-10-07T00:12 | 14598 | 134 | -61.6 | |||
| 2024-10-07T00:12 | 14694 | 132 | 253 | 42 | ||
| 2024-10-07T00:13 | 14950 | 127 | 258 | 41 | ||
| 2024-10-07T00:13 | 15014 | 126 | -60.2 | |||
| 2024-10-07T00:14 | 15274 | 121 | 255 | 37 | ||
| 2024-10-07T00:15 | 15602 | 114 | 264 | 40 | ||
| 2024-10-07T00:15 | 15662 | 113 | -61.0 | |||
| 2024-10-07T00:16 | 15873 | 109 | -60.0 | |||
| 2024-10-07T00:16 | 15935 | 108 | 260 | 30 | ||
| 2024-10-07T00:16 | 16109 | 105 | 254 | 30 | ||
| 2024-10-07T00:16 | 16115 | 105 | -60.1 | |||
| 2024-10-07T00:17 | 16446 | 100 | 254 | 33 | ||
| 2024-10-07T00:18 | 16698 | 96 | -63.8 | |||
| 2024-10-07T00:18 | 16791 | 94 | 255 | 34 | ||
| 2024-10-07T00:19 | 17046 | 91 | -64.5 | |||
| 2024-10-07T00:19 | 17144 | 89 | 259 | 33 | ||
| 2024-10-07T00:20 | 17494 | 84 | 270 | 27 | ||
| 2024-10-07T00:21 | 17676 | 82 | -62.5 | |||
| 2024-10-07T00:21 | 17827 | 80 | 267 | 21 | ||
| 2024-10-07T00:21 | 17913 | 79 | -62.4 | |||
| 2024-10-07T00:22 | 18098 | 76 | -61.4 | |||
| 2024-10-07T00:22 | 18195 | 75 | 253 | 17 | ||
| 2024-10-07T00:23 | 18449 | 72 | -62.3 | |||
| 2024-10-07T00:23 | 18542 | 71 | 246 | 21 | ||
| 2024-10-07T00:24 | 18727 | 69 | -62.5 | |||
| 2024-10-07T00:24 | 18773 | 68 | 262 | 19 | ||
| 2024-10-07T00:24 | 18883 | 67 | -60.9 | |||
| 2024-10-07T00:25 | 19012 | 66 | 269 | 14 | ||
| 2024-10-07T00:25 | 19050 | 65 | -59.2 | |||
| 2024-10-07T00:25 | 19149 | 64 | 248 | 11 | ||
| 2024-10-07T00:25 | 19157 | 64 | -58.8 | |||
| 2024-10-07T00:26 | 19426 | 62 | -59.8 | |||
| 2024-10-07T00:26 | 19507 | 61 | 242 | 17 | ||
| 2024-10-07T00:27 | 19876 | 57 | 259 | 19 | ||
| 2024-10-07T00:27 | 20049 | 56 | -61.1 | |||
| 2024-10-07T00:28 | 20255 | 54 | 267 | 14 | ||
| 2024-10-07T00:29 | 20542 | 52 | 263 | 12 | ||
| 2024-10-07T00:29 | 20742 | 50 | 233 | 13 | ||
| 2024-10-07T00:30 | 20818 | 49 | -58.4 | |||
| 2024-10-07T00:30 | 21101 | 47 | 267 | 15 | ||
| 2024-10-07T00:31 | 21431 | 45 | 290 | 6 | ||
| 2024-10-07T00:32 | 21687 | 43 | 272 | 8 | ||
| 2024-10-07T00:32 | 21912 | 41 | 252 | 3 | ||
| 2024-10-07T00:33 | 22034 | 41 | -59.4 | 210 | 4 | |
| 2024-10-07T00:33 | 22253 | 39 | 251 | 4 | ||
| 2024-10-07T00:34 | 22398 | 38 | 228 | 5 | ||
| 2024-10-07T00:34 | 22580 | 37 | -58.2 | 227 | 5 | |
| 2024-10-07T00:35 | 22985 | 35 | 266 | 9 | ||
| 2024-10-07T00:36 | 23167 | 34 | 294 | 6 | ||
| 2024-10-07T00:37 | 23565 | 32 | -56.2 | 341 | 6 | |
| 2024-10-07T11:30 | 18 | 1009 | 15.7 | 14.7 | 310 | 1 |
| 2024-10-07T11:30 | 23 | 1009 | 15.9 | 15.1 | 0 | 0 |
| 2024-10-07T11:30 | 50 | 1006 | 282 | 3 | ||
| 2024-10-07T11:31 | 182 | 990 | 15.0 | 14.5 | ||
| 2024-10-07T11:31 | 377 | 968 | 320 | 3 | ||
| 2024-10-07T11:32 | 563 | 947 | 13.0 | 11.2 | ||
| 2024-10-07T11:32 | 574 | 945 | 322 | 7 | ||
| 2024-10-07T11:32 | 683 | 933 | 12.9 | 9.0 | ||
| 2024-10-07T11:32 | 695 | 932 | 327 | 5 | ||
| 2024-10-07T11:32 | 781 | 923 | 323 | 3 | ||
| 2024-10-07T11:33 | 849 | 915 | 314 | 3 | ||
| 2024-10-07T11:33 | 1011 | 898 | 338 | 4 | ||
| 2024-10-07T11:33 | 1085 | 890 | 9.8 | 7.4 | ||
| 2024-10-07T11:33 | 1163 | 881 | 351 | 4 | ||
| 2024-10-07T11:34 | 1278 | 869 | 8.5 | 5.6 | ||
| 2024-10-07T11:34 | 1305 | 866 | 5 | 2 | ||
| 2024-10-07T11:34 | 1478 | 848 | 7.6 | 3.8 | ||
| 2024-10-07T11:35 | 1542 | 842 | 8.1 | 1.0 | ||
| 2024-10-07T11:35 | 1579 | 838 | 8.1 | -0.1 | ||
| 2024-10-07T11:35 | 1621 | 834 | 313 | 6 | ||
| 2024-10-07T11:35 | 1729 | 823 | 6.8 | 5.0 | ||
| 2024-10-07T11:36 | 1929 | 803 | 294 | 5 | ||
| 2024-10-07T11:36 | 2108 | 786 | 4.0 | 3.1 | ||
| 2024-10-07T11:37 | 2213 | 775 | 279 | 8 | ||
| 2024-10-07T11:37 | 2353 | 762 | 279 | 7 | ||
| 2024-10-07T11:37 | 2434 | 755 | 2.2 | 0.6 | ||
| 2024-10-07T11:38 | 2471 | 751 | 258 | 6 | ||
| 2024-10-07T11:38 | 2497 | 749 | 2.8 | -2.1 | ||
| 2024-10-07T11:38 | 2518 | 747 | 2.8 | -3.8 | ||
| 2024-10-07T11:38 | 2554 | 743 | 2.9 | -10.4 | ||
| 2024-10-07T11:38 | 2644 | 735 | 2.6 | -18.7 | ||
| 2024-10-07T11:38 | 2693 | 731 | 2.7 | -7.8 | ||
| 2024-10-07T11:39 | 2780 | 723 | 246 | 7 | ||
| 2024-10-07T11:39 | 2828 | 719 | 2.1 | -7.5 | ||
| 2024-10-07T11:39 | 2889 | 713 | 261 | 7 | ||
| 2024-10-07T11:39 | 3019 | 702 | 261 | 9 | ||
| 2024-10-07T11:40 | 3336 | 674 | -1.8 | -9.7 | ||
| 2024-10-07T11:40 | 3347 | 674 | 256 | 11 | ||
| 2024-10-07T11:41 | 3659 | 647 | 245 | 8 | ||
| 2024-10-07T11:41 | 3701 | 644 | -4.6 | -9.8 | ||
| 2024-10-07T11:42 | 3816 | 635 | -4.8 | -10.6 | ||
| 2024-10-07T11:42 | 3978 | 622 | 252 | 9 | ||
| 2024-10-07T11:43 | 4301 | 597 | 258 | 15 | ||
| 2024-10-07T11:44 | 4436 | 586 | -7.3 | -14.6 | ||
| 2024-10-07T11:44 | 4595 | 574 | -8.3 | -15.3 | ||
| 2024-10-07T11:44 | 4611 | 573 | 257 | 19 | ||
| 2024-10-07T11:45 | 4766 | 562 | -9.2 | -22.2 | ||
| 2024-10-07T11:45 | 4835 | 557 | -9.8 | -21.5 | ||
| 2024-10-07T11:45 | 4899 | 552 | -10.2 | -22.8 | ||
| 2024-10-07T11:45 | 4931 | 550 | 246 | 21 | ||
| 2024-10-07T11:46 | 5104 | 538 | 243 | 19 | ||
| 2024-10-07T11:46 | 5148 | 535 | -12.0 | -26.5 | ||
| 2024-10-07T11:46 | 5241 | 528 | 247 | 23 | ||
| 2024-10-07T11:46 | 5274 | 526 | -12.9 | -25.5 | ||
| 2024-10-07T11:47 | 5368 | 520 | -12.6 | -39.0 | ||
| 2024-10-07T11:47 | 5505 | 510 | -12.5 | -52.6 | ||
| 2024-10-07T11:47 | 5580 | 505 | 250 | 25 | ||
| 2024-10-07T11:48 | 5925 | 483 | 251 | 26 | ||
| 2024-10-07T11:49 | 6116 | 471 | -16.2 | -55.1 | ||
| 2024-10-07T11:49 | 6277 | 461 | 253 | 29 | ||
| 2024-10-07T11:50 | 6478 | 448 | -17.8 | -48.4 | ||
| 2024-10-07T11:50 | 6511 | 446 | 249 | 33 | ||
| 2024-10-07T11:50 | 6544 | 444 | -18.1 | -41.5 | ||
| 2024-10-07T11:50 | 6597 | 441 | -18.2 | -26.8 | ||
| 2024-10-07T11:50 | 6668 | 437 | 250 | 36 | ||
| 2024-10-07T11:50 | 6681 | 436 | -19.2 | -24.8 | ||
| 2024-10-07T11:51 | 6834 | 427 | -20.4 | -25.8 | ||
| 2024-10-07T11:51 | 7042 | 416 | -21.3 | -24.1 | ||
| 2024-10-07T11:51 | 7056 | 415 | 247 | 36 | ||
| 2024-10-07T11:51 | 7160 | 409 | -21.5 | -23.5 | ||
| 2024-10-07T11:52 | 7350 | 399 | -21.8 | -23.5 | ||
| 2024-10-07T11:52 | 7460 | 393 | 240 | 36 | ||
| 2024-10-07T11:53 | 7652 | 383 | 239 | 42 | ||
| 2024-10-07T11:53 | 7749 | 378 | -23.0 | -25.2 | ||
| 2024-10-07T11:53 | 7773 | 376 | 240 | 43 | ||
| 2024-10-07T11:53 | 7833 | 373 | -23.3 | -25.5 | ||
| 2024-10-07T11:54 | 8144 | 358 | 242 | 45 | ||
| 2024-10-07T11:55 | 8492 | 341 | 249 | 48 | ||
| 2024-10-07T11:55 | 8518 | 340 | -28.7 | -31.5 | ||
| 2024-10-07T11:56 | 8726 | 330 | 245 | 52 | ||
| 2024-10-07T11:56 | 8959 | 319 | -31.3 | -33.6 | ||
| 2024-10-07T11:57 | 9127 | 312 | 239 | 53 | ||
| 2024-10-07T11:57 | 9431 | 299 | 240 | 55 | ||
| 2024-10-07T11:57 | 9493 | 296 | -35.6 | -37.5 | ||
| 2024-10-07T11:58 | 9683 | 288 | 242 | 57 | ||
| 2024-10-07T11:59 | 9937 | 277 | 243 | 59 | ||
| 2024-10-07T11:59 | 9969 | 276 | -40.0 | -42.1 | ||
| 2024-10-07T11:59 | 10286 | 264 | 243 | 63 | ||
| 2024-10-07T12:00 | 10621 | 251 | 246 | 65 | ||
| 2024-10-07T12:01 | 10971 | 238 | 251 | 67 | ||
| 2024-10-07T12:02 | 11002 | 237 | -47.3 | |||
| 2024-10-07T12:02 | 11221 | 229 | 252 | 73 | ||
| 2024-10-07T12:02 | 11299 | 226 | -49.1 | |||
| 2024-10-07T12:03 | 11531 | 218 | 253 | 72 | ||
| 2024-10-07T12:04 | 11825 | 209 | 257 | 74 | ||
| 2024-10-07T12:05 | 12122 | 199 | -54.5 | |||
| 2024-10-07T12:05 | 12142 | 199 | 258 | 72 | ||
| 2024-10-07T12:05 | 12224 | 196 | -54.5 | |||
| 2024-10-07T12:06 | 12467 | 189 | 254 | 64 | ||
| 2024-10-07T12:06 | 12500 | 188 | -55.8 | |||
| 2024-10-07T12:06 | 12596 | 185 | 246 | 60 | ||
| 2024-10-07T12:06 | 12627 | 184 | -55.5 | |||
| 2024-10-07T12:07 | 12766 | 180 | 246 | 62 | ||
| 2024-10-07T12:08 | 13170 | 169 | 246 | 67 | ||
| 2024-10-07T12:08 | 13464 | 161 | -59.1 | |||
| 2024-10-07T12:08 | 13550 | 159 | 248 | 61 | ||
| 2024-10-07T12:09 | 13721 | 155 | -57.7 | |||
| 2024-10-07T12:09 | 13886 | 151 | 256 | 59 | ||
| 2024-10-07T12:10 | 14179 | 144 | 261 | 58 | ||
| 2024-10-07T12:11 | 14380 | 139 | -60.3 | |||
| 2024-10-07T12:11 | 14537 | 136 | 257 | 45 | ||
| 2024-10-07T12:12 | 14742 | 131 | -61.1 | |||
| 2024-10-07T12:12 | 14893 | 128 | 252 | 51 | ||
| 2024-10-07T12:12 | 14994 | 126 | -62.3 | |||
| 2024-10-07T12:13 | 15058 | 125 | 256 | 50 | ||
| 2024-10-07T12:13 | 15187 | 122 | -61.7 | |||
| 2024-10-07T12:14 | 15392 | 118 | 258 | 43 | ||
| 2024-10-07T12:14 | 15443 | 117 | -63.1 | |||
| 2024-10-07T12:14 | 15517 | 116 | -61.5 | |||
| 2024-10-07T12:14 | 15568 | 115 | 249 | 38 | ||
| 2024-10-07T12:14 | 15702 | 113 | -62.0 | |||
| 2024-10-07T12:15 | 15812 | 111 | 258 | 36 | ||
| 2024-10-07T12:15 | 15947 | 108 | -61.7 | |||
| 2024-10-07T12:15 | 16025 | 107 | 247 | 30 | ||
| 2024-10-07T12:16 | 16147 | 105 | -61.7 | |||
| 2024-10-07T12:16 | 16361 | 101 | 240 | 33 | ||
| 2024-10-07T12:17 | 16487 | 99 | -63.2 | |||
| 2024-10-07T12:17 | 16657 | 96 | -63.0 | |||
| 2024-10-07T12:17 | 16702 | 96 | 248 | 31 | ||
| 2024-10-07T12:18 | 17046 | 91 | 245 | 30 | ||
| 2024-10-07T12:19 | 17304 | 87 | -63.1 | |||
| 2024-10-07T12:19 | 17390 | 86 | 259 | 27 | ||
| 2024-10-07T12:20 | 17625 | 82 | -62.7 | |||
| 2024-10-07T12:20 | 17724 | 81 | 250 | 23 | ||
| 2024-10-07T12:21 | 18050 | 77 | 249 | 26 | ||
| 2024-10-07T12:22 | 18075 | 77 | -63.0 | |||
| 2024-10-07T12:22 | 18375 | 73 | 265 | 20 | ||
| 2024-10-07T12:23 | 18450 | 72 | -59.8 | |||
| 2024-10-07T12:23 | 18698 | 69 | 252 | 17 | ||
| 2024-10-07T12:24 | 18742 | 69 | -60.8 | |||
| 2024-10-07T12:24 | 18880 | 67 | -60.4 | |||
| 2024-10-07T12:24 | 18944 | 67 | 244 | 19 | ||
| 2024-10-07T12:25 | 19212 | 64 | -61.5 | |||
| 2024-10-07T12:25 | 19240 | 64 | 261 | 21 | ||
| 2024-10-07T12:26 | 19443 | 62 | -58.8 | |||
| 2024-10-07T12:26 | 19455 | 61 | 270 | 15 | ||
| 2024-10-07T12:27 | 19811 | 58 | 256 | 14 | ||
| 2024-10-07T12:27 | 20041 | 56 | -58.3 | |||
| 2024-10-07T12:28 | 20124 | 55 | 236 | 8 | ||
| 2024-10-07T12:28 | 20176 | 55 | -57.9 | |||
| 2024-10-07T12:29 | 20473 | 52 | 239 | 18 | ||
| 2024-10-07T12:29 | 20568 | 51 | -58.5 | |||
| 2024-10-07T12:29 | 20816 | 49 | 245 | 15 | ||
| 2024-10-07T12:30 | 21116 | 47 | 253 | 8 | ||
| 2024-10-07T12:30 | 21131 | 47 | -59.0 | |||
| 2024-10-07T12:31 | 21263 | 46 | 230 | 10 | ||
| 2024-10-07T12:31 | 21442 | 45 | 248 | 12 | ||
| 2024-10-07T12:32 | 21728 | 43 | 261 | 11 | ||
| 2024-10-07T12:33 | 22109 | 40 | 254 | 10 | ||
| 2024-10-07T12:33 | 22169 | 40 | -58.5 | |||
| 2024-10-07T12:34 | 22363 | 39 | -57.3 | |||
| 2024-10-07T12:34 | 22477 | 38 | 269 | 7 | ||
| 2024-10-07T12:34 | 22614 | 37 | 256 | 7 | ||
| 2024-10-07T12:35 | 22736 | 36 | 272 | 7 | ||
| 2024-10-07T12:35 | 22839 | 36 | 266 | 6 | ||
| 2024-10-07T12:35 | 22983 | 35 | 300 | 6 | ||
| 2024-10-07T12:36 | 23057 | 35 | -56.0 | |||
| 2024-10-07T12:36 | 23396 | 33 | 242 | 3 | ||
| 2024-10-07T12:37 | 23509 | 32 | -56.3 | |||
| 2024-10-07T12:37 | 23610 | 32 | 249 | 4 | ||
| 2024-10-07T12:38 | 23918 | 30 | -56.7 | 268 | 8 | |
| 2024-10-07T12:38 | 24046 | 30 | 302 | 6 | ||
| 2024-10-07T12:39 | 24378 | 28 | 328 | 4 | ||
| 2024-10-07T12:39 | 24491 | 28 | -55.0 | |||
| 2024-10-07T12:39 | 24610 | 27 | 16 | 3 | ||
| 2024-10-07T12:40 | 24824 | 26 | 9 | 3 | ||
| 2024-10-07T12:41 | 25102 | 25 | -54.3 | 77 | 3 | |
| 2024-10-07T12:41 | 25204 | 25 | 97 | 3 | ||
| 2024-10-07T12:41 | 25336 | 24 | 69 | 4 | ||
| 2024-10-07T12:41 | 25392 | 24 | 83 | 2 | ||
| 2024-10-07T12:42 | 25495 | 24 | 184 | 3 | ||
| 2024-10-07T12:42 | 25608 | 23 | 194 | 4 | ||
| 2024-10-07T12:42 | 25655 | 23 | -53.0 | 185 | 4 | |
| 2024-10-07T23:30 | 18 | 1012 | 15.0 | 12.5 | 310 | 4 |
| 2024-10-07T23:30 | 21 | 1012 | 15.4 | 12.9 | 0 | 0 |
| 2024-10-07T23:30 | 23 | 1012 | 15.8 | 13.1 | ||
| 2024-10-07T23:30 | 33 | 1011 | 15.1 | 12.1 | ||
| 2024-10-07T23:30 | 99 | 1003 | 300 | 3 | ||
| 2024-10-07T23:31 | 395 | 968 | 323 | 9 | ||
| 2024-10-07T23:31 | 443 | 963 | 11.8 | 9.2 | ||
| 2024-10-07T23:32 | 704 | 933 | 334 | 9 | ||
| 2024-10-07T23:33 | 1015 | 898 | 340 | 9 | ||
| 2024-10-07T23:33 | 1040 | 895 | 6.9 | 6.9 | ||
| 2024-10-07T23:34 | 1305 | 867 | 326 | 8 | ||
| 2024-10-07T23:35 | 1605 | 836 | 303 | 8 | ||
| 2024-10-07T23:36 | 1710 | 825 | 3.1 | 2.5 | ||
| 2024-10-07T23:36 | 1934 | 803 | 290 | 9 | ||
| 2024-10-07T23:37 | 2033 | 793 | 1.5 | 0.6 | ||
| 2024-10-07T23:37 | 2277 | 769 | 254 | 7 | ||
| 2024-10-07T23:37 | 2339 | 763 | -0.4 | -1.8 | ||
| 2024-10-07T23:38 | 2469 | 751 | -1.5 | -3.4 | ||
| 2024-10-07T23:38 | 2523 | 746 | 254 | 7 | ||
| 2024-10-07T23:38 | 2540 | 744 | -1.5 | -6.3 | ||
| 2024-10-07T23:38 | 2669 | 732 | -2.2 | -6.6 | ||
| 2024-10-07T23:39 | 2693 | 730 | 243 | 8 | ||
| 2024-10-07T23:39 | 2761 | 724 | -2.6 | -9.9 | ||
| 2024-10-07T23:39 | 2803 | 720 | -1.9 | -16.8 | ||
| 2024-10-07T23:39 | 2839 | 717 | 265 | 11 | ||
| 2024-10-07T23:39 | 2874 | 714 | -0.9 | -21.7 | ||
| 2024-10-07T23:39 | 2932 | 709 | -0.9 | -22.9 | ||
| 2024-10-07T23:39 | 2950 | 707 | 252 | 12 | ||
| 2024-10-07T23:40 | 3058 | 698 | -1.7 | -27.4 | ||
| 2024-10-07T23:40 | 3239 | 682 | 274 | 12 | ||
| 2024-10-07T23:41 | 3357 | 672 | -2.7 | -42.2 | ||
| 2024-10-07T23:41 | 3426 | 666 | 269 | 13 | ||
| 2024-10-07T23:41 | 3550 | 656 | -3.7 | -42.9 | ||
| 2024-10-07T23:42 | 3582 | 653 | 271 | 14 | ||
| 2024-10-07T23:42 | 3778 | 637 | -4.3 | -38.4 | ||
| 2024-10-07T23:42 | 3818 | 634 | 267 | 19 | ||
| 2024-10-07T23:43 | 3938 | 624 | -5.4 | -33.4 | ||
| 2024-10-07T23:43 | 4151 | 607 | 267 | 17 | ||
| 2024-10-07T23:44 | 4374 | 590 | -8.0 | -33.4 | ||
| 2024-10-07T23:44 | 4428 | 586 | 264 | 19 | ||
| 2024-10-07T23:45 | 4632 | 571 | -9.5 | -35.5 | ||
| 2024-10-07T23:45 | 4800 | 559 | 262 | 19 | ||
| 2024-10-07T23:45 | 4948 | 548 | 259 | 21 | ||
| 2024-10-07T23:46 | 5303 | 523 | -13.6 | -40.9 | ||
| 2024-10-07T23:46 | 5327 | 521 | 254 | 19 | ||
| 2024-10-07T23:47 | 5692 | 497 | 253 | 22 | ||
| 2024-10-07T23:48 | 6065 | 473 | 249 | 26 | ||
| 2024-10-07T23:49 | 6312 | 457 | -19.7 | -57.5 | ||
| 2024-10-07T23:49 | 6400 | 452 | 247 | 29 | ||
| 2024-10-07T23:50 | 6543 | 443 | 245 | 34 | ||
| 2024-10-07T23:50 | 6567 | 442 | -20.3 | -46.2 | ||
| 2024-10-07T23:50 | 6786 | 429 | 248 | 35 | ||
| 2024-10-07T23:51 | 6961 | 419 | -23.5 | -36.6 | ||
| 2024-10-07T23:51 | 7152 | 408 | 240 | 41 | ||
| 2024-10-07T23:52 | 7451 | 392 | -25.9 | -32.9 | ||
| 2024-10-07T23:52 | 7477 | 390 | 239 | 46 | ||
| 2024-10-07T23:53 | 7616 | 383 | -27.1 | -33.8 | ||
| 2024-10-07T23:53 | 7669 | 380 | -26.5 | -52.2 | ||
| 2024-10-07T23:53 | 7834 | 371 | -27.2 | -59.6 | ||
| 2024-10-07T23:53 | 7872 | 369 | 239 | 47 | ||
| 2024-10-07T23:54 | 8049 | 360 | -27.9 | -63.2 | ||
| 2024-10-07T23:54 | 8191 | 353 | 240 | 51 | ||
| 2024-10-07T23:54 | 8230 | 351 | -28.4 | -60.5 | ||
| 2024-10-07T23:55 | 8338 | 346 | -28.4 | -47.6 | ||
| 2024-10-07T23:55 | 8353 | 345 | 237 | 54 | ||
| 2024-10-07T23:55 | 8449 | 341 | -29.4 | -42.5 | ||
| 2024-10-07T23:56 | 8658 | 331 | 241 | 55 | ||
| 2024-10-07T23:56 | 8756 | 327 | -32.3 | -43.2 | ||
| 2024-10-07T23:57 | 8891 | 320 | -33.6 | -42.3 | ||
| 2024-10-07T23:57 | 8949 | 318 | 239 | 55 | ||
| 2024-10-07T23:57 | 8969 | 317 | -34.3 | -40.4 | ||
| 2024-10-07T23:58 | 9234 | 305 | -36.6 | -40.7 | ||
| 2024-10-07T23:58 | 9244 | 304 | 241 | 56 | ||
| 2024-10-07T23:59 | 9562 | 291 | 237 | 60 | ||
| 2024-10-07T23:59 | 9596 | 289 | -39.2 | -40.9 | ||
| 2024-10-07T23:59 | 9724 | 284 | -40.0 | -41.2 | ||
| 2024-10-08T00:00 | 9896 | 277 | 236 | 61 | ||
| 2024-10-08T00:00 | 10086 | 269 | 237 | 66 | ||
| 2024-10-08T00:00 | 10114 | 268 | -42.8 | |||
| 2024-10-08T00:01 | 10199 | 265 | -41.2 | |||
| 2024-10-08T00:01 | 10390 | 257 | -42.3 | |||
| 2024-10-08T00:01 | 10423 | 256 | 234 | 65 | ||
| 2024-10-08T00:02 | 10747 | 244 | 240 | 68 | ||
| 2024-10-08T00:03 | 11038 | 234 | 240 | 68 | ||
| 2024-10-08T00:04 | 11162 | 229 | -48.1 | |||
| 2024-10-08T00:04 | 11334 | 223 | 237 | 68 | ||
| 2024-10-08T00:05 | 11636 | 213 | 238 | 69 | ||
| 2024-10-08T00:06 | 11678 | 212 | -51.6 | |||
| 2024-10-08T00:06 | 11959 | 203 | 241 | 70 | ||
| 2024-10-08T00:07 | 12019 | 201 | -53.4 | |||
| 2024-10-08T00:07 | 12277 | 193 | 239 | 69 | ||
| 2024-10-08T00:08 | 12370 | 190 | -55.7 | |||
| 2024-10-08T00:08 | 12591 | 184 | 242 | 67 | ||
| 2024-10-08T00:09 | 12869 | 176 | 245 | 62 | ||
| 2024-10-08T00:09 | 12875 | 176 | -56.8 | |||
| 2024-10-08T00:10 | 13080 | 170 | 245 | 60 | ||
| 2024-10-08T00:11 | 13397 | 162 | 245 | 59 | ||
| 2024-10-08T00:11 | 13408 | 161 | -57.1 | |||
| 2024-10-08T00:12 | 13616 | 156 | 246 | 58 | ||
| 2024-10-08T00:13 | 13895 | 149 | -57.7 | |||
| 2024-10-08T00:13 | 13920 | 149 | 245 | 54 | ||
| 2024-10-08T00:13 | 14126 | 144 | -57.2 | |||
| 2024-10-08T00:14 | 14206 | 142 | 244 | 49 | ||
| 2024-10-08T00:15 | 14502 | 136 | 242 | 49 | ||
| 2024-10-08T00:15 | 14606 | 134 | -58.7 | |||
| 2024-10-08T00:15 | 14778 | 130 | 249 | 48 | ||
| 2024-10-08T00:16 | 15048 | 125 | 248 | 46 | ||
| 2024-10-08T00:17 | 15322 | 119 | 251 | 37 | ||
| 2024-10-08T00:17 | 15356 | 119 | -59.7 | |||
| 2024-10-08T00:18 | 15574 | 114 | -60.9 | |||
| 2024-10-08T00:18 | 15646 | 113 | 246 | 38 | ||
| 2024-10-08T00:18 | 15779 | 111 | -60.6 | |||
| 2024-10-08T00:18 | 15789 | 111 | 247 | 42 | ||
| 2024-10-08T00:19 | 16062 | 106 | -60.4 | |||
| 2024-10-08T00:19 | 16080 | 106 | 245 | 30 | ||
| 2024-10-08T00:20 | 16406 | 100 | 252 | 29 | ||
| 2024-10-08T00:21 | 16482 | 99 | -59.3 | |||
| 2024-10-08T00:21 | 16739 | 95 | 242 | 27 | ||
| 2024-10-08T00:22 | 17073 | 90 | 249 | 26 | ||
| 2024-10-08T00:23 | 17138 | 89 | -61.4 | |||
| 2024-10-08T00:23 | 17379 | 86 | -59.3 | |||
| 2024-10-08T00:23 | 17385 | 86 | 245 | 20 | ||
| 2024-10-08T00:24 | 17686 | 82 | -61.0 | |||
| 2024-10-08T00:24 | 17722 | 81 | 248 | 22 | ||
| 2024-10-08T00:25 | 18060 | 77 | 244 | 22 | ||
| 2024-10-08T00:26 | 18384 | 73 | -62.6 | |||
| 2024-10-08T00:26 | 18398 | 73 | 244 | 22 | ||
| 2024-10-08T00:27 | 18620 | 70 | -61.5 | |||
| 2024-10-08T00:27 | 18762 | 69 | 250 | 22 | ||
| 2024-10-08T00:28 | 18906 | 67 | -60.6 | |||
| 2024-10-08T00:28 | 19133 | 65 | 240 | 20 | ||
| 2024-10-08T00:29 | 19361 | 62 | 252 | 23 | ||
| 2024-10-08T00:30 | 19671 | 59 | 247 | 16 | ||
| 2024-10-08T00:31 | 19852 | 58 | -59.0 | |||
| 2024-10-08T00:31 | 19973 | 56 | -58.7 | |||
| 2024-10-08T00:31 | 20017 | 56 | 240 | 18 | ||
| 2024-10-08T00:32 | 20364 | 53 | -59.8 | |||
| 2024-10-08T00:32 | 20388 | 53 | 276 | 14 | ||
| 2024-10-08T00:32 | 20527 | 52 | -58.0 | |||
| 2024-10-08T00:33 | 20577 | 51 | 265 | 12 | ||
| 2024-10-08T00:33 | 20701 | 50 | -56.8 | |||
| 2024-10-08T00:33 | 20781 | 50 | 251 | 15 | ||
| 2024-10-08T00:34 | 21145 | 47 | 247 | 17 | ||
| 2024-10-08T00:34 | 21235 | 46 | -58.4 | |||
| 2024-10-08T00:35 | 21388 | 45 | 256 | 8 | ||
| 2024-10-08T00:35 | 21518 | 44 | 209 | 6 | ||
| 2024-10-08T00:35 | 21562 | 44 | -56.5 | |||
| 2024-10-08T00:36 | 21856 | 42 | 232 | 9 | ||
| 2024-10-08T00:36 | 21917 | 41 | -57.5 | |||
| 2024-10-08T00:37 | 22056 | 41 | 239 | 10 | ||
| 2024-10-08T00:37 | 22294 | 39 | 225 | 11 | ||
| 2024-10-08T00:37 | 22360 | 39 | -56.8 | |||
| 2024-10-08T00:38 | 22593 | 37 | 272 | 10 | ||
| 2024-10-08T00:39 | 22818 | 36 | 244 | 11 | ||
| 2024-10-08T00:39 | 23067 | 35 | 274 | 9 | ||
| 2024-10-08T00:40 | 23198 | 34 | 293 | 8 | ||
| 2024-10-08T00:40 | 23218 | 34 | -56.3 | |||
| 2024-10-08T00:40 | 23426 | 33 | 312 | 8 | ||
| 2024-10-08T00:40 | 23543 | 32 | 313 | 4 | ||
| 2024-10-08T00:41 | 23687 | 31 | -56.0 | 55 | 1 | |
| 2024-10-08T00:41 | 23768 | 31 | 173 | 3 | ||
| 2024-10-08T00:42 | 23998 | 30 | 214 | 3 | ||
| 2024-10-08T00:42 | 24148 | 29 | 174 | 3 | ||
| 2024-10-08T00:42 | 24285 | 29 | 238 | 3 | ||
| 2024-10-08T00:43 | 24422 | 28 | 238 | 1 | ||
| 2024-10-08T00:43 | 24656 | 27 | -53.5 | |||
| 2024-10-08T00:44 | 24827 | 26 | 126 | 1 | ||
| 2024-10-08T00:45 | 25203 | 25 | 152 | 3 | ||
| 2024-10-08T00:45 | 25306 | 24 | -53.6 | 158 | 4 | |
| 2024-10-08T00:45 | 25439 | 24 | 119 | 5 | ||
| 2024-10-08T00:46 | 25774 | 23 | 172 | 8 | ||
| 2024-10-08T00:47 | 26128 | 21 | 214 | 6 | ||
| 2024-10-08T00:47 | 26159 | 21 | -52.8 | |||
| 2024-10-08T00:48 | 26433 | 20 | 282 | 5 | ||
| 2024-10-08T00:48 | 26566 | 20 | 304 | 2 | ||
| 2024-10-08T00:48 | 26596 | 20 | -52.3 | 337 | 1 | |
| 2024-10-08T11:30 | 18 | 1015 | 13.4 | 8.3 | 280 | 2 |
| 2024-10-08T11:30 | 21 | 1015 | 13.3 | 8.2 | 0 | 0 |
| 2024-10-08T11:30 | 46 | 1012 | 13.7 | 7.7 | ||
| 2024-10-08T11:30 | 151 | 999 | 288 | 3 | ||
| 2024-10-08T11:31 | 303 | 981 | 323 | 5 | ||
| 2024-10-08T11:31 | 315 | 980 | 12.8 | 6.4 | ||
| 2024-10-08T11:32 | 553 | 952 | 329 | 7 | ||
| 2024-10-08T11:33 | 942 | 909 | 328 | 6 | ||
| 2024-10-08T11:33 | 1051 | 897 | 5.8 | 3.8 | ||
| 2024-10-08T11:33 | 1111 | 890 | 339 | 7 | ||
| 2024-10-08T11:33 | 1247 | 875 | 4.1 | 2.6 | ||
| 2024-10-08T11:34 | 1314 | 868 | 4.5 | -1.7 | ||
| 2024-10-08T11:34 | 1357 | 863 | 5.8 | -13.2 | ||
| 2024-10-08T11:34 | 1426 | 856 | 334 | 3 | ||
| 2024-10-08T11:34 | 1451 | 854 | 5.5 | -20.8 | ||
| 2024-10-08T11:35 | 1742 | 824 | 310 | 3 | ||
| 2024-10-08T11:35 | 1760 | 822 | 3.1 | -26.8 | ||
| 2024-10-08T11:35 | 1958 | 802 | 289 | 3 | ||
| 2024-10-08T11:36 | 2191 | 779 | 272 | 6 | ||
| 2024-10-08T11:36 | 2219 | 776 | 0.0 | -22.9 | ||
| 2024-10-08T11:36 | 2322 | 766 | 0.4 | -35.0 | ||
| 2024-10-08T11:37 | 2392 | 760 | 0.8 | -34.7 | ||
| 2024-10-08T11:37 | 2440 | 755 | 1.4 | -39.3 | ||
| 2024-10-08T11:37 | 2518 | 748 | 304 | 7 | ||
| 2024-10-08T11:37 | 2667 | 734 | 1.5 | -43.1 | ||
| 2024-10-08T11:38 | 2774 | 724 | 293 | 8 | ||
| 2024-10-08T11:38 | 2941 | 710 | -0.3 | -25.4 | ||
| 2024-10-08T11:39 | 3163 | 690 | 291 | 10 | ||
| 2024-10-08T11:39 | 3498 | 661 | -4.7 | -25.4 | ||
| 2024-10-08T11:40 | 3565 | 656 | 268 | 10 | ||
| 2024-10-08T11:41 | 3980 | 622 | 271 | 14 | ||
| 2024-10-08T11:41 | 4008 | 620 | -7.3 | -31.1 | ||
| 2024-10-08T11:41 | 4322 | 595 | -9.3 | -31.9 | ||
| 2024-10-08T11:42 | 4388 | 590 | 269 | 17 | ||
| 2024-10-08T11:42 | 4497 | 582 | -10.3 | -36.2 | ||
| 2024-10-08T11:43 | 4760 | 562 | 267 | 20 | ||
| 2024-10-08T11:43 | 4915 | 551 | -12.7 | -34.7 | ||
| 2024-10-08T11:43 | 5056 | 541 | -13.1 | -36.6 | ||
| 2024-10-08T11:44 | 5114 | 537 | 256 | 20 | ||
| 2024-10-08T11:44 | 5365 | 519 | -14.8 | -39.7 | ||
| 2024-10-08T11:45 | 5476 | 511 | 257 | 20 | ||
| 2024-10-08T11:46 | 5785 | 491 | -17.6 | -45.3 | ||
| 2024-10-08T11:46 | 5826 | 488 | 257 | 24 | ||
| 2024-10-08T11:46 | 6026 | 475 | -18.9 | -47.7 | ||
| 2024-10-08T11:46 | 6114 | 470 | 251 | 20 | ||
| 2024-10-08T11:47 | 6420 | 451 | -21.6 | -51.3 | ||
| 2024-10-08T11:47 | 6495 | 446 | 250 | 21 | ||
| 2024-10-08T11:48 | 6875 | 424 | 247 | 23 | ||
| 2024-10-08T11:49 | 7007 | 416 | -25.8 | -56.3 | ||
| 2024-10-08T11:49 | 7156 | 407 | -26.5 | -56.8 | ||
| 2024-10-08T11:49 | 7182 | 406 | 244 | 28 | ||
| 2024-10-08T11:49 | 7261 | 402 | -26.3 | -59.0 | ||
| 2024-10-08T11:50 | 7314 | 399 | 243 | 32 | ||
| 2024-10-08T11:50 | 7632 | 381 | 244 | 34 | ||
| 2024-10-08T11:50 | 7650 | 380 | -28.2 | -58.1 | ||
| 2024-10-08T11:51 | 7771 | 374 | 248 | 37 | ||
| 2024-10-08T11:51 | 8040 | 360 | -30.5 | -59.8 | ||
| 2024-10-08T11:52 | 8147 | 355 | 243 | 44 | ||
| 2024-10-08T11:52 | 8315 | 346 | 242 | 45 | ||
| 2024-10-08T11:53 | 8477 | 339 | 240 | 48 | ||
| 2024-10-08T11:53 | 8570 | 334 | -34.2 | -58.2 | ||
| 2024-10-08T11:54 | 8828 | 322 | 238 | 50 | ||
| 2024-10-08T11:54 | 9057 | 312 | -37.9 | -55.6 | ||
| 2024-10-08T11:55 | 9202 | 305 | 238 | 52 | ||
| 2024-10-08T11:55 | 9272 | 302 | -40.0 | -54.0 | ||
| 2024-10-08T11:56 | 9606 | 287 | 240 | 51 | ||
| 2024-10-08T11:56 | 9628 | 286 | -42.8 | |||
| 2024-10-08T11:57 | 10005 | 271 | 233 | 59 | ||
| 2024-10-08T11:57 | 10290 | 260 | -45.0 | |||
| 2024-10-08T11:58 | 10375 | 256 | 238 | 58 | ||
| 2024-10-08T11:59 | 10746 | 242 | 241 | 58 | ||
| 2024-10-08T11:59 | 10986 | 234 | -48.3 | |||
| 2024-10-08T12:00 | 11107 | 229 | 239 | 64 | ||
| 2024-10-08T12:00 | 11294 | 223 | -48.5 | |||
| 2024-10-08T12:00 | 11465 | 217 | 240 | 59 | ||
| 2024-10-08T12:01 | 11594 | 213 | -50.0 | |||
| 2024-10-08T12:01 | 11809 | 206 | 238 | 63 | ||
| 2024-10-08T12:01 | 11821 | 206 | -51.3 | |||
| 2024-10-08T12:02 | 12115 | 197 | 236 | 63 | ||
| 2024-10-08T12:03 | 12455 | 187 | 235 | 63 | ||
| 2024-10-08T12:04 | 12785 | 177 | 238 | 61 | ||
| 2024-10-08T12:05 | 13119 | 168 | 239 | 61 | ||
| 2024-10-08T12:05 | 13208 | 166 | -55.9 | |||
| 2024-10-08T12:06 | 13485 | 159 | 242 | 56 | ||
| 2024-10-08T12:07 | 13833 | 150 | 241 | 51 | ||
| 2024-10-08T12:07 | 13879 | 149 | -57.5 | |||
| 2024-10-08T12:08 | 14169 | 142 | 243 | 48 | ||
| 2024-10-08T12:09 | 14391 | 137 | -57.5 | |||
| 2024-10-08T12:09 | 14486 | 135 | 245 | 44 | ||
| 2024-10-08T12:10 | 14814 | 129 | 244 | 42 | ||
| 2024-10-08T12:10 | 14830 | 128 | -58.5 | |||
| 2024-10-08T12:11 | 15144 | 122 | 240 | 40 | ||
| 2024-10-08T12:11 | 15193 | 121 | -58.0 | |||
| 2024-10-08T12:12 | 15473 | 116 | 238 | 32 | ||
| 2024-10-08T12:13 | 15618 | 113 | -58.1 | |||
| 2024-10-08T12:13 | 15815 | 110 | 241 | 32 | ||
| 2024-10-08T12:14 | 15958 | 107 | -58.3 | |||
| 2024-10-08T12:14 | 16154 | 104 | 236 | 30 | ||
| 2024-10-08T12:15 | 16339 | 101 | -59.6 | |||
| 2024-10-08T12:15 | 16503 | 98 | 241 | 31 | ||
| 2024-10-08T12:16 | 16804 | 94 | -60.1 | |||
| 2024-10-08T12:16 | 16851 | 93 | 238 | 26 | ||
| 2024-10-08T12:17 | 17035 | 90 | -60.9 | |||
| 2024-10-08T12:17 | 17211 | 88 | 253 | 27 | ||
| 2024-10-08T12:17 | 17310 | 86 | -59.9 | |||
| 2024-10-08T12:18 | 17451 | 84 | 242 | 23 | ||
| 2024-10-08T12:19 | 17781 | 80 | 249 | 26 | ||
| 2024-10-08T12:20 | 18059 | 77 | 253 | 23 | ||
| 2024-10-08T12:20 | 18324 | 73 | -60.8 | |||
| 2024-10-08T12:20 | 18349 | 73 | 260 | 22 | ||
| 2024-10-08T12:21 | 18427 | 72 | -59.2 | |||
| 2024-10-08T12:21 | 18586 | 70 | 259 | 18 | ||
| 2024-10-08T12:22 | 18777 | 68 | -58.2 | |||
| 2024-10-08T12:22 | 18887 | 67 | -58.0 | |||
| 2024-10-08T12:22 | 18934 | 67 | 245 | 17 | ||
| 2024-10-08T12:23 | 19253 | 63 | -58.5 | |||
| 2024-10-08T12:23 | 19295 | 63 | 245 | 17 | ||
| 2024-10-08T12:24 | 19456 | 61 | -57.5 | |||
| 2024-10-08T12:24 | 19658 | 59 | 255 | 16 | ||
| 2024-10-08T12:24 | 19743 | 59 | -57.9 | |||
| 2024-10-08T12:25 | 20029 | 56 | 257 | 15 | ||
| 2024-10-08T12:26 | 20190 | 55 | -59.5 | |||
| 2024-10-08T12:26 | 20270 | 54 | 250 | 13 | ||
| 2024-10-08T12:26 | 20305 | 54 | -58.4 | |||
| 2024-10-08T12:26 | 20505 | 52 | -58.3 | |||
| 2024-10-08T12:27 | 20582 | 51 | 244 | 10 | ||
| 2024-10-08T12:27 | 20703 | 50 | -57.8 | |||
| 2024-10-08T12:27 | 20753 | 50 | 225 | 13 | ||
| 2024-10-08T12:28 | 21104 | 47 | -60.2 | |||
| 2024-10-08T12:28 | 21129 | 47 | 238 | 15 | ||
| 2024-10-08T12:29 | 21348 | 45 | 250 | 15 | ||
| 2024-10-08T12:29 | 21389 | 45 | -58.3 | |||
| 2024-10-08T12:30 | 21692 | 43 | 241 | 15 | ||
| 2024-10-08T12:30 | 21738 | 43 | -57.0 | |||
| 2024-10-08T12:31 | 22072 | 40 | 257 | 11 | ||
| 2024-10-08T12:31 | 22310 | 39 | 251 | 9 | ||
| 2024-10-08T12:32 | 22376 | 39 | -56.8 | |||
| 2024-10-08T12:32 | 22560 | 37 | 239 | 12 | ||
| 2024-10-08T12:32 | 22663 | 37 | -56.0 | |||
| 2024-10-08T12:33 | 22981 | 35 | 218 | 10 | ||
| 2024-10-08T12:34 | 23313 | 33 | 242 | 10 | ||
| 2024-10-08T12:34 | 23466 | 32 | 248 | 12 | ||
| 2024-10-08T12:34 | 23525 | 32 | -57.6 | |||
| 2024-10-08T12:35 | 23623 | 32 | 255 | 12 | ||
| 2024-10-08T12:35 | 23911 | 30 | 311 | 5 | ||
| 2024-10-08T12:36 | 24041 | 30 | -55.4 | 358 | 3 | |
| 2024-10-08T12:37 | 24393 | 28 | 278 | 2 | ||
| 2024-10-08T12:37 | 24463 | 28 | -55.4 | |||
| 2024-10-08T12:37 | 24509 | 28 | 200 | 3 | ||
| 2024-10-08T12:37 | 24578 | 27 | 205 | 3 | ||
| 2024-10-08T12:37 | 24650 | 27 | 241 | 3 | ||
| 2024-10-08T12:37 | 24771 | 26 | 209 | 4 | ||
| 2024-10-08T12:38 | 24918 | 26 | 254 | 6 | ||
| 2024-10-08T12:38 | 24945 | 26 | -51.7 | |||
| 2024-10-08T12:38 | 25072 | 25 | 237 | 2 | ||
| 2024-10-08T12:38 | 25147 | 25 | -51.4 | 284 | 2 | |
| 2024-10-08T23:30 | 18 | 1017 | 12.9 | 6.7 | 190 | 1 |
| 2024-10-08T23:30 | 22 | 1017 | 13.4 | 6.7 | 0 | 0 |
| 2024-10-08T23:30 | 26 | 1016 | 13.8 | 6.9 | ||
| 2024-10-08T23:30 | 39 | 1015 | 12.5 | 5.4 | ||
| 2024-10-08T23:30 | 146 | 1002 | 11.5 | 3.8 | ||
| 2024-10-08T23:31 | 332 | 980 | 354 | 2 | ||
| 2024-10-08T23:31 | 476 | 963 | 9.6 | 1.5 | ||
| 2024-10-08T23:32 | 585 | 951 | 333 | 2 | ||
| 2024-10-08T23:32 | 661 | 942 | 333 | 3 | ||
| 2024-10-08T23:32 | 814 | 924 | 358 | 6 | ||
| 2024-10-08T23:33 | 836 | 922 | 6.5 | 2.4 | ||
| 2024-10-08T23:33 | 978 | 906 | 6.0 | -5.0 | ||
| 2024-10-08T23:33 | 999 | 904 | 15 | 5 | ||
| 2024-10-08T23:34 | 1142 | 888 | 59 | 3 | ||
| 2024-10-08T23:34 | 1173 | 885 | 5.4 | -13.1 | ||
| 2024-10-08T23:34 | 1234 | 878 | 6.3 | -17.0 | ||
| 2024-10-08T23:34 | 1255 | 876 | 360 | 3 | ||
| 2024-10-08T23:34 | 1324 | 868 | 6.6 | -19.9 | ||
| 2024-10-08T23:35 | 1546 | 845 | 5.8 | -27.5 | ||
| 2024-10-08T23:35 | 1586 | 841 | 70 | 1 | ||
| 2024-10-08T23:35 | 1775 | 822 | 360 | 3 | ||
| 2024-10-08T23:36 | 2102 | 789 | 311 | 4 | ||
| 2024-10-08T23:37 | 2260 | 774 | 0.8 | -32.8 | 302 | 4 |
| 2024-10-08T23:37 | 2344 | 766 | 328 | 5 | ||
| 2024-10-08T23:37 | 2371 | 763 | 0.6 | -26.6 | ||
| 2024-10-08T23:38 | 2529 | 748 | 0.0 | -23.6 | ||
| 2024-10-08T23:38 | 2555 | 746 | 272 | 3 | ||
| 2024-10-08T23:39 | 2860 | 718 | 287 | 2 | ||
| 2024-10-08T23:39 | 2975 | 708 | 261 | 4 | ||
| 2024-10-08T23:40 | 3086 | 698 | 254 | 2 | ||
| 2024-10-08T23:40 | 3168 | 691 | 287 | 3 | ||
| 2024-10-08T23:40 | 3366 | 674 | -3.9 | -36.3 | ||
| 2024-10-08T23:41 | 3434 | 668 | 278 | 5 | ||
| 2024-10-08T23:41 | 3548 | 658 | 288 | 5 | ||
| 2024-10-08T23:42 | 3767 | 640 | 251 | 5 | ||
| 2024-10-08T23:42 | 3844 | 634 | -5.9 | -39.6 | ||
| 2024-10-08T23:42 | 3900 | 629 | 276 | 5 | ||
| 2024-10-08T23:42 | 3968 | 624 | -6.6 | -40.1 | ||
| 2024-10-08T23:43 | 4170 | 608 | 275 | 7 | ||
| 2024-10-08T23:43 | 4182 | 607 | -7.0 | -42.5 | ||
| 2024-10-08T23:43 | 4313 | 597 | 259 | 7 | ||
| 2024-10-08T23:44 | 4634 | 572 | -10.3 | -39.7 | ||
| 2024-10-08T23:44 | 4645 | 571 | 269 | 8 | ||
| 2024-10-08T23:45 | 4751 | 564 | 270 | 11 | ||
| 2024-10-08T23:45 | 4839 | 557 | -11.2 | -36.9 | ||
| 2024-10-08T23:45 | 4950 | 549 | 265 | 11 | ||
| 2024-10-08T23:46 | 5093 | 539 | 268 | 10 | ||
| 2024-10-08T23:46 | 5123 | 537 | -13.3 | -37.6 | ||
| 2024-10-08T23:46 | 5311 | 524 | -14.2 | -41.4 | ||
| 2024-10-08T23:47 | 5399 | 518 | 273 | 10 | ||
| 2024-10-08T23:47 | 5479 | 512 | -15.1 | -43.3 | ||
| 2024-10-08T23:47 | 5522 | 509 | -15.0 | -43.3 | ||
| 2024-10-08T23:47 | 5679 | 499 | 280 | 9 | ||
| 2024-10-08T23:48 | 5956 | 481 | -18.2 | -44.5 | ||
| 2024-10-08T23:48 | 6019 | 477 | 278 | 12 | ||
| 2024-10-08T23:49 | 6380 | 454 | 279 | 11 | ||
| 2024-10-08T23:50 | 6732 | 433 | -24.8 | -52.2 | ||
| 2024-10-08T23:50 | 6738 | 433 | 271 | 11 | ||
| 2024-10-08T23:51 | 7004 | 417 | 261 | 10 | ||
| 2024-10-08T23:52 | 7225 | 404 | 253 | 11 | ||
| 2024-10-08T23:52 | 7313 | 399 | -29.4 | -57.2 | ||
| 2024-10-08T23:53 | 7553 | 386 | 248 | 14 | ||
| 2024-10-08T23:54 | 7796 | 373 | 251 | 19 | ||
| 2024-10-08T23:54 | 7949 | 365 | -32.5 | -59.5 | ||
| 2024-10-08T23:55 | 8139 | 355 | 250 | 27 | ||
| 2024-10-08T23:55 | 8343 | 345 | 243 | 29 | ||
| 2024-10-08T23:56 | 8490 | 338 | -35.1 | -63.2 | ||
| 2024-10-08T23:56 | 8501 | 337 | 243 | 33 | ||
| 2024-10-08T23:56 | 8753 | 325 | 239 | 39 | ||
| 2024-10-08T23:56 | 8784 | 324 | -35.9 | -65.9 | ||
| 2024-10-08T23:57 | 8860 | 320 | -35.6 | -63.6 | ||
| 2024-10-08T23:57 | 8945 | 317 | 237 | 48 | ||
| 2024-10-08T23:57 | 9097 | 310 | -37.1 | -63.0 | ||
| 2024-10-08T23:58 | 9235 | 304 | -37.6 | -55.9 | ||
| 2024-10-08T23:58 | 9319 | 300 | 232 | 58 | ||
| 2024-10-08T23:58 | 9349 | 299 | -38.6 | -51.3 | ||
| 2024-10-08T23:58 | 9410 | 296 | -39.0 | -45.2 | ||
| 2024-10-08T23:58 | 9550 | 290 | -39.3 | -42.4 | ||
| 2024-10-08T23:59 | 9686 | 284 | 228 | 67 | ||
| 2024-10-08T23:59 | 9790 | 280 | -40.0 | -43.9 | ||
| 2024-10-09T00:00 | 10015 | 271 | 222 | 69 | ||
| 2024-10-09T00:00 | 10083 | 268 | -42.5 | |||
| 2024-10-09T00:01 | 10404 | 256 | 218 | 69 | ||
| 2024-10-09T00:02 | 10721 | 244 | -47.9 | |||
| 2024-10-09T00:02 | 10744 | 243 | 216 | 70 | ||
| 2024-10-09T00:03 | 11083 | 231 | 220 | 71 | ||
| 2024-10-09T00:04 | 11418 | 219 | 222 | 68 | ||
| 2024-10-09T00:04 | 11529 | 215 | -54.4 | |||
| 2024-10-09T00:04 | 11603 | 213 | 225 | 64 | ||
| 2024-10-09T00:04 | 11615 | 212 | -53.8 | |||
| 2024-10-09T00:05 | 11723 | 209 | -53.7 | |||
| 2024-10-09T00:05 | 11762 | 207 | 229 | 60 | ||
| 2024-10-09T00:06 | 12036 | 199 | -54.1 | |||
| 2024-10-09T00:06 | 12092 | 197 | 231 | 64 | ||
| 2024-10-09T00:07 | 12388 | 188 | 233 | 60 | ||
| 2024-10-09T00:07 | 12493 | 185 | -54.9 | |||
| 2024-10-09T00:07 | 12651 | 181 | 236 | 58 | ||
| 2024-10-09T00:08 | 12910 | 173 | 236 | 53 | ||
| 2024-10-09T00:09 | 13068 | 169 | -55.9 | |||
| 2024-10-09T00:09 | 13099 | 168 | 237 | 55 | ||
| 2024-10-09T00:09 | 13257 | 164 | 237 | 49 | ||
| 2024-10-09T00:10 | 13576 | 156 | 237 | 48 | ||
| 2024-10-09T00:11 | 13803 | 151 | -56.4 | |||
| 2024-10-09T00:11 | 13880 | 149 | 236 | 46 | ||
| 2024-10-09T00:12 | 14202 | 141 | 241 | 43 | ||
| 2024-10-09T00:13 | 14387 | 137 | 244 | 42 | ||
| 2024-10-09T00:13 | 14476 | 135 | -57.2 | |||
| 2024-10-09T00:14 | 14697 | 131 | 243 | 35 | ||
| 2024-10-09T00:14 | 14822 | 128 | -57.7 | |||
| 2024-10-09T00:15 | 14947 | 126 | 244 | 35 | ||
| 2024-10-09T00:15 | 15155 | 122 | 240 | 32 | ||
| 2024-10-09T00:16 | 15294 | 119 | -59.7 | |||
| 2024-10-09T00:16 | 15408 | 117 | 246 | 32 | ||
| 2024-10-09T00:17 | 15577 | 114 | 243 | 28 | ||
| 2024-10-09T00:17 | 15824 | 109 | 251 | 31 | ||
| 2024-10-09T00:18 | 15949 | 107 | -59.0 | |||
| 2024-10-09T00:18 | 16165 | 103 | 245 | 25 | ||
| 2024-10-09T00:19 | 16291 | 101 | -60.5 | |||
| 2024-10-09T00:19 | 16465 | 99 | 238 | 28 | ||
| 2024-10-09T00:20 | 16714 | 95 | -60.2 | |||
| 2024-10-09T00:20 | 16758 | 94 | 241 | 36 | ||
| 2024-10-09T00:20 | 16805 | 93 | -59.5 | |||
| 2024-10-09T00:21 | 17111 | 89 | 249 | 24 | ||
| 2024-10-09T00:22 | 17356 | 86 | 253 | 26 | ||
| 2024-10-09T00:22 | 17547 | 83 | 249 | 23 | ||
| 2024-10-09T00:23 | 17693 | 81 | -58.5 | |||
| 2024-10-09T00:23 | 17820 | 79 | 236 | 19 | ||
| 2024-10-09T00:24 | 18182 | 75 | 234 | 23 | ||
| 2024-10-09T00:25 | 18299 | 74 | -61.0 | |||
| 2024-10-09T00:25 | 18525 | 71 | -60.8 | 255 | 24 | |
| 2024-10-09T00:26 | 18803 | 68 | 244 | 25 | ||
| 2024-10-09T00:27 | 19064 | 65 | 259 | 24 | ||
| 2024-10-09T00:27 | 19321 | 62 | -60.3 | |||
| 2024-10-09T00:28 | 19434 | 61 | 269 | 18 | ||
| 2024-10-09T00:28 | 19702 | 59 | 262 | 15 | ||
| 2024-10-09T00:29 | 19997 | 56 | 252 | 16 | ||
| 2024-10-09T00:29 | 20110 | 55 | -59.8 | |||
| 2024-10-09T00:30 | 20236 | 54 | 242 | 17 | ||
| 2024-10-09T00:30 | 20410 | 52 | -59.5 | |||
| 2024-10-09T00:30 | 20471 | 52 | 227 | 14 | ||
| 2024-10-09T00:31 | 20570 | 51 | -59.4 | |||
| 2024-10-09T00:31 | 20856 | 49 | -58.9 | 265 | 14 | |
| 2024-10-09T00:32 | 21011 | 48 | 245 | 9 | ||
| 2024-10-09T00:32 | 21175 | 46 | 205 | 12 | ||
| 2024-10-09T00:32 | 21225 | 46 | -58.5 | |||
| 2024-10-09T00:33 | 21579 | 44 | 237 | 12 | ||
| 2024-10-09T00:34 | 21908 | 41 | 238 | 8 | ||
| 2024-10-09T00:34 | 21969 | 41 | -57.2 | |||
| 2024-10-09T00:35 | 22289 | 39 | 220 | 15 | ||
| 2024-10-09T00:36 | 22687 | 37 | 242 | 12 | ||
| 2024-10-09T00:36 | 22705 | 36 | -59.2 | |||
| 2024-10-09T00:36 | 22933 | 35 | -55.5 | |||
| 2024-10-09T00:37 | 23043 | 35 | 274 | 8 | ||
| 2024-10-09T00:37 | 23230 | 34 | 251 | 7 | ||
| 2024-10-09T00:37 | 23329 | 33 | -53.5 | |||
| 2024-10-09T00:38 | 23467 | 32 | 171 | 6 | ||
| 2024-10-09T00:38 | 23811 | 31 | 208 | 5 | ||
| 2024-10-09T00:39 | 24042 | 30 | 234 | 5 | ||
| 2024-10-09T00:39 | 24084 | 29 | -57.1 | |||
| 2024-10-09T00:39 | 24173 | 29 | 278 | 7 | ||
| 2024-10-09T00:40 | 24328 | 28 | 290 | 9 | ||
| 2024-10-09T00:40 | 24512 | 27 | 316 | 5 | ||
| 2024-10-09T00:40 | 24581 | 27 | 308 | 3 | ||
| 2024-10-09T00:41 | 24700 | 27 | -54.6 | |||
| 2024-10-09T00:41 | 24726 | 27 | 194 | 3 | ||
| 2024-10-09T00:41 | 24895 | 26 | 231 | 5 | ||
| 2024-10-09T00:41 | 25046 | 25 | 303 | 5 | ||
| 2024-10-09T00:42 | 25279 | 24 | -55.1 | |||
| 2024-10-09T00:43 | 25464 | 24 | 321 | 4 | ||
| 2024-10-09T00:43 | 25549 | 23 | 304 | 2 | ||
| 2024-10-09T00:44 | 25973 | 22 | 254 | 3 | ||
| 2024-10-09T00:44 | 26209 | 21 | -54.1 | 200 | 3 | |
| 2024-10-09T00:45 | 26333 | 21 | -51.9 | |||
| 2024-10-09T00:45 | 26396 | 20 | 182 | 7 | ||
| 2024-10-09T00:46 | 26790 | 19 | 205 | 10 | ||
| 2024-10-09T00:46 | 27084 | 18 | -50.4 | 225 | 8 | |
| 2024-10-09T11:30 | 18 | 1018 | 11.3 | 5.8 | 210 | 1 |
| 2024-10-09T11:30 | 22 | 1018 | 11.0 | 5.5 | 0 | 0 |
| 2024-10-09T11:30 | 33 | 1016 | 11.2 | 5.1 | ||
| 2024-10-09T11:30 | 46 | 1015 | 12.4 | 5.3 | ||
| 2024-10-09T11:30 | 99 | 1008 | 12.6 | 3.5 | ||
| 2024-10-09T11:30 | 127 | 1005 | 14.3 | 1.6 | ||
| 2024-10-09T11:31 | 172 | 1000 | 14.6 | 0.8 | ||
| 2024-10-09T11:31 | 344 | 979 | 21 | 2 | ||
| 2024-10-09T11:32 | 514 | 960 | 4 | 3 | ||
| 2024-10-09T11:32 | 711 | 937 | 35 | 5 | ||
| 2024-10-09T11:32 | 821 | 925 | 9.1 | -3.1 | ||
| 2024-10-09T11:33 | 919 | 914 | 51 | 7 | ||
| 2024-10-09T11:33 | 999 | 905 | 7.7 | -3.5 | ||
| 2024-10-09T11:33 | 1128 | 891 | 74 | 6 | ||
| 2024-10-09T11:33 | 1140 | 890 | 6.7 | -3.0 | ||
| 2024-10-09T11:34 | 1211 | 882 | 6.6 | -8.2 | ||
| 2024-10-09T11:34 | 1299 | 873 | 61 | 4 | ||
| 2024-10-09T11:34 | 1410 | 861 | 5.0 | -4.3 | ||
| 2024-10-09T11:34 | 1463 | 855 | 75 | 3 | ||
| 2024-10-09T11:34 | 1509 | 850 | 4.5 | -6.4 | ||
| 2024-10-09T11:35 | 1574 | 844 | 3.7 | -2.3 | ||
| 2024-10-09T11:35 | 1662 | 834 | 3.1 | -1.8 | 110 | 3 |
| 2024-10-09T11:35 | 1732 | 827 | 3.1 | -6.9 | ||
| 2024-10-09T11:35 | 1761 | 824 | 2.9 | -5.5 | 132 | 2 |
| 2024-10-09T11:35 | 1801 | 820 | 2.4 | -1.6 | ||
| 2024-10-09T11:35 | 1848 | 815 | 2.2 | -2.5 | ||
| 2024-10-09T11:35 | 1865 | 814 | 136 | 5 | ||
| 2024-10-09T11:36 | 1929 | 807 | 2.0 | -6.8 | ||
| 2024-10-09T11:36 | 1976 | 803 | 2.0 | -14.6 | ||
| 2024-10-09T11:36 | 2017 | 799 | 160 | 4 | ||
| 2024-10-09T11:36 | 2100 | 790 | 108 | 3 | ||
| 2024-10-09T11:36 | 2106 | 790 | 1.4 | -21.7 | ||
| 2024-10-09T11:36 | 2177 | 783 | 71 | 3 | ||
| 2024-10-09T11:36 | 2195 | 781 | 0.9 | -25.4 | ||
| 2024-10-09T11:37 | 2327 | 768 | 0.8 | -25.4 | 72 | 3 |
| 2024-10-09T11:37 | 2531 | 749 | -0.6 | -23.4 | ||
| 2024-10-09T11:37 | 2543 | 748 | 50 | 3 | ||
| 2024-10-09T11:38 | 2708 | 733 | 55 | 4 | ||
| 2024-10-09T11:38 | 2784 | 726 | 46 | 4 | ||
| 2024-10-09T11:38 | 2904 | 715 | 18 | 6 | ||
| 2024-10-09T11:39 | 3014 | 705 | 355 | 3 | ||
| 2024-10-09T11:39 | 3095 | 698 | 352 | 4 | ||
| 2024-10-09T11:39 | 3249 | 684 | -3.7 | -29.0 | 15 | 4 |
| 2024-10-09T11:40 | 3434 | 668 | 34 | 5 | ||
| 2024-10-09T11:40 | 3451 | 667 | -5.0 | -23.0 | ||
| 2024-10-09T11:40 | 3552 | 658 | 34 | 4 | ||
| 2024-10-09T11:40 | 3630 | 652 | -5.5 | -21.2 | ||
| 2024-10-09T11:41 | 3762 | 641 | -6.4 | -19.7 | ||
| 2024-10-09T11:41 | 3785 | 639 | 40 | 3 | ||
| 2024-10-09T11:41 | 3969 | 624 | 57 | 2 | ||
| 2024-10-09T11:42 | 4078 | 615 | -7.2 | -25.3 | ||
| 2024-10-09T11:42 | 4276 | 600 | 328 | 4 | ||
| 2024-10-09T11:43 | 4447 | 587 | 359 | 5 | ||
| 2024-10-09T11:43 | 4500 | 583 | -9.0 | -28.5 | ||
| 2024-10-09T11:43 | 4566 | 578 | 313 | 4 | ||
| 2024-10-09T11:43 | 4632 | 573 | 282 | 2 | ||
| 2024-10-09T11:44 | 4717 | 567 | 326 | 3 | ||
| 2024-10-09T11:44 | 4893 | 554 | 270 | 3 | ||
| 2024-10-09T11:44 | 4905 | 553 | -11.7 | -31.9 | ||
| 2024-10-09T11:44 | 4993 | 547 | 279 | 6 | ||
| 2024-10-09T11:45 | 5100 | 539 | -12.5 | -32.6 | ||
| 2024-10-09T11:45 | 5119 | 538 | 262 | 9 | ||
| 2024-10-09T11:45 | 5381 | 519 | -14.6 | -33.2 | ||
| 2024-10-09T11:46 | 5465 | 514 | -14.8 | -39.7 | ||
| 2024-10-09T11:46 | 5503 | 511 | 279 | 8 | ||
| 2024-10-09T11:46 | 5737 | 495 | -16.7 | -40.3 | ||
| 2024-10-09T11:46 | 5791 | 492 | 281 | 7 | ||
| 2024-10-09T11:47 | 6187 | 466 | 274 | 7 | ||
| 2024-10-09T11:47 | 6206 | 465 | -20.7 | -42.7 | ||
| 2024-10-09T11:48 | 6565 | 443 | 278 | 8 | ||
| 2024-10-09T11:49 | 6743 | 432 | -24.3 | -47.3 | ||
| 2024-10-09T11:49 | 6755 | 432 | 284 | 11 | ||
| 2024-10-09T11:50 | 7142 | 409 | 281 | 13 | ||
| 2024-10-09T11:50 | 7181 | 407 | -27.7 | -53.1 | ||
| 2024-10-09T11:51 | 7527 | 388 | 258 | 11 | ||
| 2024-10-09T11:51 | 7546 | 387 | -29.9 | -56.1 | ||
| 2024-10-09T11:52 | 7912 | 367 | 253 | 12 | ||
| 2024-10-09T11:53 | 8304 | 347 | 251 | 11 | ||
| 2024-10-09T11:54 | 8695 | 328 | 247 | 15 | ||
| 2024-10-09T11:54 | 8913 | 318 | -39.2 | -63.3 | ||
| 2024-10-09T11:55 | 9088 | 310 | -40.0 | -63.9 | ||
| 2024-10-09T11:55 | 9095 | 310 | 243 | 14 | ||
| 2024-10-09T11:56 | 9503 | 291 | 234 | 17 | ||
| 2024-10-09T11:56 | 9611 | 287 | -42.8 | |||
| 2024-10-09T11:57 | 9906 | 274 | 237 | 19 | ||
| 2024-10-09T11:57 | 9946 | 273 | -44.3 | |||
| 2024-10-09T11:58 | 10267 | 260 | 231 | 21 | ||
| 2024-10-09T11:58 | 10355 | 257 | -45.3 | |||
| 2024-10-09T11:58 | 10593 | 248 | 223 | 27 | ||
| 2024-10-09T11:59 | 10691 | 244 | -47.5 | |||
| 2024-10-09T11:59 | 10742 | 242 | 230 | 27 | ||
| 2024-10-09T12:00 | 11072 | 230 | -49.1 | |||
| 2024-10-09T12:00 | 11084 | 230 | 230 | 25 | ||
| 2024-10-09T12:00 | 11225 | 225 | -48.4 | |||
| 2024-10-09T12:01 | 11395 | 219 | 225 | 28 | ||
| 2024-10-09T12:01 | 11629 | 212 | -49.0 | |||
| 2024-10-09T12:01 | 11659 | 211 | 234 | 30 | ||
| 2024-10-09T12:02 | 11886 | 203 | -48.3 | |||
| 2024-10-09T12:02 | 11993 | 200 | 236 | 28 | ||
| 2024-10-09T12:03 | 12177 | 195 | 236 | 30 | ||
| 2024-10-09T12:03 | 12209 | 194 | -49.4 | |||
| 2024-10-09T12:04 | 12569 | 183 | 237 | 32 | ||
| 2024-10-09T12:05 | 12909 | 174 | 239 | 34 | ||
| 2024-10-09T12:06 | 13294 | 164 | -52.0 | 238 | 34 | |
| 2024-10-09T12:07 | 13661 | 155 | 242 | 34 | ||
| 2024-10-09T12:08 | 13993 | 147 | 242 | 31 | ||
| 2024-10-09T12:09 | 14308 | 140 | -55.0 | |||
| 2024-10-09T12:09 | 14325 | 140 | 249 | 30 | ||
| 2024-10-09T12:10 | 14663 | 132 | 247 | 31 | ||
| 2024-10-09T12:10 | 14781 | 130 | -57.2 | |||
| 2024-10-09T12:11 | 15019 | 125 | 245 | 31 | ||
| 2024-10-09T12:11 | 15231 | 121 | -58.0 | |||
| 2024-10-09T12:12 | 15380 | 118 | 245 | 31 | ||
| 2024-10-09T12:12 | 15566 | 115 | 247 | 33 | ||
| 2024-10-09T12:13 | 15834 | 110 | 255 | 30 | ||
| 2024-10-09T12:13 | 15988 | 107 | -57.5 | |||
| 2024-10-09T12:14 | 16176 | 104 | 246 | 30 | ||
| 2024-10-09T12:14 | 16352 | 101 | 246 | 29 | ||
| 2024-10-09T12:15 | 16612 | 97 | 245 | 25 | ||
| 2024-10-09T12:15 | 16657 | 97 | -59.7 | |||
| 2024-10-09T12:16 | 16957 | 92 | 244 | 31 | ||
| 2024-10-09T12:17 | 17309 | 87 | 260 | 28 | ||
| 2024-10-09T12:18 | 17477 | 85 | -60.4 | |||
| 2024-10-09T12:18 | 17632 | 83 | 245 | 19 | ||
| 2024-10-09T12:18 | 17708 | 82 | -60.3 | |||
| 2024-10-09T12:19 | 17903 | 79 | -60.5 | |||
| 2024-10-09T12:19 | 17966 | 78 | 245 | 22 | ||
| 2024-10-09T12:20 | 18293 | 74 | 253 | 20 | ||
| 2024-10-09T12:21 | 18439 | 73 | -58.4 | |||
| 2024-10-09T12:21 | 18448 | 72 | 262 | 16 | ||
| 2024-10-09T12:21 | 18669 | 70 | 262 | 13 | ||
| 2024-10-09T12:22 | 18862 | 68 | 254 | 10 | ||
| 2024-10-09T12:22 | 18878 | 68 | -58.9 | |||
| 2024-10-09T12:22 | 19070 | 66 | 222 | 10 | ||
| 2024-10-09T12:23 | 19274 | 64 | -60.3 | 211 | 14 | |
| 2024-10-09T12:24 | 19574 | 61 | -61.2 | |||
| 2024-10-09T12:24 | 19634 | 60 | 244 | 17 | ||
| 2024-10-09T12:24 | 19802 | 58 | -60.0 | |||
| 2024-10-09T12:25 | 19910 | 57 | 246 | 8 | ||
| 2024-10-09T12:26 | 20278 | 54 | 250 | 6 | ||
| 2024-10-09T12:26 | 20325 | 54 | -60.7 | |||
| 2024-10-09T12:26 | 20550 | 52 | -60.5 | |||
| 2024-10-09T12:27 | 20622 | 51 | 231 | 10 | ||
| 2024-10-09T12:28 | 20985 | 48 | 235 | 13 | ||
| 2024-10-09T12:28 | 21012 | 48 | -59.2 | |||
| 2024-10-09T12:29 | 21348 | 46 | 271 | 12 | ||
| 2024-10-09T12:29 | 21571 | 44 | 267 | 12 | ||
| 2024-10-09T12:30 | 21763 | 43 | 267 | 12 | ||
| 2024-10-09T12:30 | 21805 | 42 | -57.2 | |||
| 2024-10-09T12:31 | 22143 | 40 | 278 | 9 | ||
| 2024-10-09T12:31 | 22175 | 40 | -57.5 | |||
| 2024-10-09T12:31 | 22286 | 39 | 278 | 6 | ||
| 2024-10-09T12:31 | 22419 | 38 | 245 | 7 | ||
| 2024-10-09T12:31 | 22436 | 38 | -55.9 | |||
| 2024-10-09T12:32 | 22604 | 37 | 233 | 8 | ||
| 2024-10-09T12:32 | 22689 | 37 | -55.2 | |||
| 2024-10-09T12:33 | 22920 | 36 | 224 | 10 | ||
| 2024-10-09T12:33 | 23267 | 34 | -57.2 | |||
| 2024-10-09T12:34 | 23344 | 33 | 267 | 9 | ||
| 2024-10-09T12:34 | 23617 | 32 | 263 | 5 | ||
| 2024-10-09T12:35 | 23820 | 31 | -54.6 | |||
| 2024-10-09T12:35 | 23841 | 31 | 272 | 4 | ||
| 2024-10-09T12:35 | 24026 | 30 | 169 | 3 | ||
| 2024-10-09T12:36 | 24269 | 29 | -55.4 | |||
| 2024-10-09T12:36 | 24404 | 28 | 207 | 9 | ||
| 2024-10-09T12:37 | 24660 | 27 | 251 | 3 | ||
| 2024-10-09T12:37 | 24802 | 26 | 310 | 3 | ||
| 2024-10-09T12:38 | 24974 | 26 | 320 | 7 | ||
| 2024-10-09T12:38 | 25126 | 25 | -54.6 | |||
| 2024-10-09T12:39 | 25359 | 24 | 268 | 4 | ||
| 2024-10-09T12:39 | 25491 | 24 | 257 | 3 | ||
| 2024-10-09T12:39 | 25686 | 23 | -55.1 | |||
| 2024-10-09T12:40 | 25712 | 23 | 192 | 2 | ||
| 2024-10-09T12:40 | 25942 | 22 | -53.3 | |||
| 2024-10-09T12:40 | 25969 | 22 | 176 | 6 | ||
| 2024-10-09T12:41 | 26210 | 21 | 228 | 4 | ||
| 2024-10-09T12:41 | 26394 | 21 | -51.8 | |||
| 2024-10-09T12:42 | 26589 | 20 | 253 | 2 | ||
| 2024-10-09T12:42 | 26817 | 19 | 258 | 3 | ||
| 2024-10-09T12:43 | 26951 | 19 | 229 | 3 | ||
| 2024-10-09T12:43 | 26979 | 19 | -53.0 | 237 | 2 | |
| 2024-10-09T23:30 | 18 | 1020 | 12.0 | 5.4 | 120 | 2 |
| 2024-10-09T23:30 | 21 | 1019 | 12.4 | 5.6 | 0 | 0 |
| 2024-10-09T23:30 | 45 | 1016 | 11.4 | 4.4 | ||
| 2024-10-09T23:31 | 183 | 1000 | 10.4 | 3.4 | ||
| 2024-10-09T23:31 | 225 | 995 | 10.6 | 2.4 | ||
| 2024-10-09T23:31 | 262 | 990 | 150 | 4 | ||
| 2024-10-09T23:31 | 305 | 985 | 11.4 | -1.1 | ||
| 2024-10-09T23:31 | 370 | 978 | 151 | 6 | ||
| 2024-10-09T23:32 | 577 | 954 | 127 | 7 | ||
| 2024-10-09T23:32 | 656 | 944 | 8.6 | -3.6 | ||
| 2024-10-09T23:33 | 824 | 926 | 115 | 11 | ||
| 2024-10-09T23:33 | 924 | 914 | 7.8 | -7.1 | ||
| 2024-10-09T23:33 | 957 | 911 | 112 | 9 | ||
| 2024-10-09T23:33 | 974 | 909 | 8.2 | -8.8 | ||
| 2024-10-09T23:34 | 1295 | 874 | 109 | 6 | ||
| 2024-10-09T23:34 | 1455 | 857 | 104 | 3 | ||
| 2024-10-09T23:35 | 1502 | 852 | 3.5 | -7.9 | ||
| 2024-10-09T23:35 | 1539 | 848 | 90 | 4 | ||
| 2024-10-09T23:35 | 1607 | 841 | 3.1 | -10.9 | ||
| 2024-10-09T23:35 | 1671 | 834 | 98 | 6 | ||
| 2024-10-09T23:35 | 1746 | 827 | 2.2 | -10.7 | ||
| 2024-10-09T23:35 | 1795 | 822 | 2.4 | -16.7 | ||
| 2024-10-09T23:36 | 1806 | 820 | 85 | 3 | ||
| 2024-10-09T23:36 | 1828 | 818 | 3.5 | -24.3 | ||
| 2024-10-09T23:36 | 1971 | 804 | 3.2 | -22.6 | ||
| 2024-10-09T23:36 | 1976 | 804 | 92 | 3 | ||
| 2024-10-09T23:36 | 2103 | 791 | 53 | 3 | ||
| 2024-10-09T23:37 | 2199 | 782 | 80 | 4 | ||
| 2024-10-09T23:37 | 2246 | 777 | 2.1 | -22.7 | ||
| 2024-10-09T23:37 | 2393 | 763 | 63 | 5 | ||
| 2024-10-09T23:38 | 2521 | 751 | 0.9 | -25.4 | ||
| 2024-10-09T23:38 | 2569 | 747 | 88 | 8 | ||
| 2024-10-09T23:38 | 2687 | 736 | 0.2 | -25.9 | ||
| 2024-10-09T23:39 | 2826 | 723 | 100 | 8 | ||
| 2024-10-09T23:39 | 2899 | 716 | -0.9 | -25.9 | ||
| 2024-10-09T23:39 | 2987 | 709 | 89 | 8 | ||
| 2024-10-09T23:39 | 3075 | 701 | -1.4 | -24.7 | ||
| 2024-10-09T23:40 | 3270 | 684 | 87 | 10 | ||
| 2024-10-09T23:40 | 3298 | 682 | -1.8 | -24.4 | ||
| 2024-10-09T23:41 | 3600 | 656 | 84 | 9 | ||
| 2024-10-09T23:42 | 3778 | 641 | 73 | 8 | ||
| 2024-10-09T23:42 | 3806 | 639 | -5.4 | -24.9 | ||
| 2024-10-09T23:42 | 3873 | 634 | 82 | 8 | ||
| 2024-10-09T23:42 | 3977 | 625 | 66 | 7 | ||
| 2024-10-09T23:42 | 4081 | 617 | 75 | 5 | ||
| 2024-10-09T23:43 | 4093 | 616 | -6.5 | -30.4 | ||
| 2024-10-09T23:43 | 4246 | 604 | 61 | 5 | ||
| 2024-10-09T23:43 | 4393 | 593 | -9.0 | -33.3 | ||
| 2024-10-09T23:44 | 4475 | 586 | -8.8 | -37.2 | ||
| 2024-10-09T23:44 | 4528 | 582 | 74 | 5 | ||
| 2024-10-09T23:44 | 4576 | 579 | -8.6 | -41.6 | ||
| 2024-10-09T23:44 | 4727 | 568 | 88 | 3 | ||
| 2024-10-09T23:45 | 4891 | 556 | 114 | 2 | ||
| 2024-10-09T23:45 | 5038 | 545 | -9.9 | -47.3 | ||
| 2024-10-09T23:46 | 5135 | 538 | 54 | 3 | ||
| 2024-10-09T23:46 | 5241 | 531 | 48 | 1 | ||
| 2024-10-09T23:46 | 5327 | 525 | -11.1 | -51.6 | ||
| 2024-10-09T23:47 | 5559 | 509 | 35 | 3 | ||
| 2024-10-09T23:47 | 5674 | 502 | 316 | 3 | ||
| 2024-10-09T23:48 | 5779 | 495 | 318 | 2 | ||
| 2024-10-09T23:48 | 5944 | 484 | 348 | 3 | ||
| 2024-10-09T23:48 | 6045 | 478 | 338 | 3 | ||
| 2024-10-09T23:48 | 6056 | 477 | -16.0 | -51.6 | ||
| 2024-10-09T23:49 | 6157 | 471 | 337 | 2 | ||
| 2024-10-09T23:50 | 6489 | 450 | 320 | 4 | ||
| 2024-10-09T23:50 | 6516 | 449 | -18.6 | -53.4 | ||
| 2024-10-09T23:50 | 6577 | 445 | 315 | 4 | ||
| 2024-10-09T23:50 | 6695 | 438 | 355 | 3 | ||
| 2024-10-09T23:51 | 6870 | 428 | 307 | 2 | ||
| 2024-10-09T23:51 | 6970 | 422 | -22.0 | -53.5 | ||
| 2024-10-09T23:52 | 7112 | 414 | 255 | 5 | ||
| 2024-10-09T23:52 | 7242 | 406 | 267 | 4 | ||
| 2024-10-09T23:52 | 7322 | 402 | 256 | 4 | ||
| 2024-10-09T23:53 | 7453 | 395 | 280 | 6 | ||
| 2024-10-09T23:53 | 7570 | 388 | -26.0 | -53.1 | ||
| 2024-10-09T23:54 | 7791 | 377 | -27.4 | -54.2 | ||
| 2024-10-09T23:54 | 7802 | 376 | 257 | 10 | ||
| 2024-10-09T23:54 | 7963 | 368 | 262 | 7 | ||
| 2024-10-09T23:55 | 8314 | 350 | 238 | 8 | ||
| 2024-10-09T23:56 | 8669 | 333 | 231 | 8 | ||
| 2024-10-09T23:56 | 8729 | 330 | -34.9 | -58.7 | ||
| 2024-10-09T23:57 | 9032 | 316 | 222 | 10 | ||
| 2024-10-09T23:58 | 9374 | 301 | -40.0 | -63.9 | ||
| 2024-10-09T23:58 | 9412 | 299 | 221 | 12 | ||
| 2024-10-09T23:59 | 9780 | 283 | 225 | 10 | ||
| 2024-10-10T00:00 | 10132 | 268 | 227 | 15 | ||
| 2024-10-10T00:00 | 10231 | 264 | -46.4 | |||
| 2024-10-10T00:00 | 10309 | 261 | 234 | 20 | ||
| 2024-10-10T00:01 | 10649 | 248 | 239 | 23 | ||
| 2024-10-10T00:02 | 10721 | 246 | -50.0 | |||
| 2024-10-10T00:02 | 10960 | 237 | 245 | 26 | ||
| 2024-10-10T00:02 | 10981 | 236 | -51.2 | |||
| 2024-10-10T00:03 | 11187 | 229 | -48.5 | |||
| 2024-10-10T00:03 | 11277 | 226 | 238 | 30 | ||
| 2024-10-10T00:04 | 11372 | 222 | -47.9 | |||
| 2024-10-10T00:04 | 11588 | 215 | 233 | 30 | ||
| 2024-10-10T00:05 | 11736 | 210 | -50.0 | |||
| 2024-10-10T00:05 | 11911 | 205 | 235 | 31 | ||
| 2024-10-10T00:06 | 12131 | 198 | 233 | 34 | ||
| 2024-10-10T00:07 | 12457 | 188 | 236 | 34 | ||
| 2024-10-10T00:07 | 12511 | 187 | -50.6 | |||
| 2024-10-10T00:08 | 12666 | 182 | -50.3 | |||
| 2024-10-10T00:08 | 12776 | 179 | 230 | 39 | ||
| 2024-10-10T00:08 | 12955 | 174 | 231 | 42 | ||
| 2024-10-10T00:09 | 13079 | 171 | -51.9 | |||
| 2024-10-10T00:09 | 13263 | 166 | 230 | 47 | ||
| 2024-10-10T00:10 | 13580 | 158 | 233 | 46 | ||
| 2024-10-10T00:11 | 13862 | 152 | -55.4 | |||
| 2024-10-10T00:11 | 13912 | 150 | 235 | 39 | ||
| 2024-10-10T00:12 | 14191 | 144 | -56.7 | |||
| 2024-10-10T00:12 | 14252 | 143 | 223 | 36 | ||
| 2024-10-10T00:13 | 14404 | 139 | -57.5 | |||
| 2024-10-10T00:13 | 14532 | 136 | 231 | 38 | ||
| 2024-10-10T00:14 | 14668 | 133 | -57.6 | |||
| 2024-10-10T00:14 | 14857 | 129 | 229 | 40 | ||
| 2024-10-10T00:14 | 14905 | 128 | -58.3 | |||
| 2024-10-10T00:15 | 15143 | 124 | -59.5 | |||
| 2024-10-10T00:15 | 15182 | 123 | 237 | 37 | ||
| 2024-10-10T00:16 | 15519 | 116 | 244 | 26 | ||
| 2024-10-10T00:17 | 15692 | 113 | -60.5 | |||
| 2024-10-10T00:17 | 15853 | 110 | 241 | 20 | ||
| 2024-10-10T00:18 | 16200 | 104 | 223 | 20 | ||
| 2024-10-10T00:19 | 16353 | 102 | -63.9 | |||
| 2024-10-10T00:19 | 16458 | 100 | -64.3 | |||
| 2024-10-10T00:19 | 16535 | 99 | 221 | 22 | ||
| 2024-10-10T00:20 | 16712 | 96 | -62.9 | |||
| 2024-10-10T00:20 | 16846 | 94 | 217 | 25 | ||
| 2024-10-10T00:21 | 17057 | 91 | -62.7 | |||
| 2024-10-10T00:21 | 17083 | 90 | 215 | 19 | ||
| 2024-10-10T00:22 | 17402 | 86 | -64.1 | |||
| 2024-10-10T00:22 | 17434 | 85 | 203 | 25 | ||
| 2024-10-10T00:23 | 17687 | 82 | 213 | 27 | ||
| 2024-10-10T00:23 | 17739 | 81 | -64.6 | |||
| 2024-10-10T00:23 | 17845 | 80 | -62.7 | |||
| 2024-10-10T00:23 | 17854 | 80 | 224 | 24 | ||
| 2024-10-10T00:24 | 18026 | 78 | -63.2 | |||
| 2024-10-10T00:24 | 18154 | 76 | 236 | 21 | ||
| 2024-10-10T00:25 | 18389 | 73 | -61.8 | |||
| 2024-10-10T00:25 | 18508 | 72 | 246 | 13 | ||
| 2024-10-10T00:26 | 18858 | 68 | 222 | 13 | ||
| 2024-10-10T00:27 | 19016 | 66 | 219 | 11 | ||
| 2024-10-10T00:27 | 19062 | 66 | -58.8 | |||
| 2024-10-10T00:27 | 19210 | 64 | 192 | 15 | ||
| 2024-10-10T00:28 | 19513 | 61 | 214 | 15 | ||
| 2024-10-10T00:28 | 19678 | 60 | -59.5 | |||
| 2024-10-10T00:29 | 19880 | 58 | 238 | 13 | ||
| 2024-10-10T00:30 | 20111 | 56 | -59.3 | |||
| 2024-10-10T00:30 | 20123 | 55 | 224 | 13 | ||
| 2024-10-10T00:30 | 20437 | 53 | 238 | 11 | ||
| 2024-10-10T00:31 | 20726 | 50 | 243 | 10 | ||
| 2024-10-10T00:31 | 20776 | 50 | -59.8 | |||
| 2024-10-10T00:32 | 20951 | 49 | 231 | 5 | ||
| 2024-10-10T00:33 | 21272 | 46 | 237 | 10 | ||
| 2024-10-10T00:33 | 21506 | 44 | -60.1 | |||
| 2024-10-10T00:34 | 21646 | 43 | 255 | 10 | ||
| 2024-10-10T00:34 | 21855 | 42 | 266 | 6 | ||
| 2024-10-10T00:34 | 21963 | 41 | 264 | 3 | ||
| 2024-10-10T00:35 | 22053 | 41 | 220 | 5 | ||
| 2024-10-10T00:35 | 22132 | 40 | -57.6 | |||
| 2024-10-10T00:36 | 22371 | 39 | 228 | 12 | ||
| 2024-10-10T00:36 | 22549 | 38 | -59.0 | |||
| 2024-10-10T00:36 | 22720 | 37 | 278 | 7 | ||
| 2024-10-10T00:37 | 22967 | 35 | -56.9 | |||
| 2024-10-10T00:37 | 22983 | 35 | 264 | 3 | ||
| 2024-10-10T00:37 | 23096 | 35 | 234 | 3 | ||
| 2024-10-10T00:38 | 23301 | 33 | 199 | 3 | ||
| 2024-10-10T00:39 | 23574 | 32 | 286 | 2 | ||
| 2024-10-10T00:39 | 23714 | 31 | 146 | 2 | ||
| 2024-10-10T00:40 | 23963 | 30 | 160 | 7 | ||
| 2024-10-10T00:40 | 24005 | 30 | -56.2 | |||
| 2024-10-10T00:40 | 24157 | 29 | 151 | 2 | ||
| 2024-10-10T00:40 | 24243 | 29 | 102 | 3 | ||
| 2024-10-10T00:41 | 24332 | 28 | -55.6 | |||
| 2024-10-10T00:41 | 24445 | 28 | 140 | 8 | ||
| 2024-10-10T00:42 | 24845 | 26 | 190 | 5 | ||
| 2024-10-10T00:42 | 24869 | 26 | -56.0 | |||
| 2024-10-10T00:42 | 25020 | 26 | 225 | 5 | ||
| 2024-10-10T00:43 | 25195 | 25 | 185 | 7 | ||
| 2024-10-10T00:43 | 25273 | 25 | -55.1 | |||
| 2024-10-10T00:43 | 25456 | 24 | 181 | 4 | ||
| 2024-10-10T00:43 | 25541 | 24 | 214 | 1 | ||
| 2024-10-10T00:44 | 25761 | 23 | 201 | 2 | ||
| 2024-10-10T00:44 | 25845 | 22 | -55.6 | |||
| 2024-10-10T00:45 | 26076 | 22 | 211 | 5 | ||
| 2024-10-10T00:45 | 26257 | 21 | 194 | 1 | ||
| 2024-10-10T00:45 | 26379 | 21 | 197 | 2 | ||
| 2024-10-10T00:46 | 26536 | 20 | 230 | 4 | ||
| 2024-10-10T00:46 | 26664 | 20 | -55.0 | |||
| 2024-10-10T00:47 | 26931 | 19 | 289 | 5 | ||
| 2024-10-10T00:47 | 27031 | 19 | 290 | 7 | ||
| 2024-10-10T00:47 | 27067 | 19 | -52.7 | |||
| 2024-10-10T00:47 | 27243 | 18 | 314 | 3 | ||
| 2024-10-10T00:48 | 27314 | 18 | 302 | 3 | ||
| 2024-10-10T00:48 | 27391 | 18 | 248 | 3 | ||
| 2024-10-10T00:48 | 27612 | 17 | 244 | 5 | ||
| 2024-10-10T00:49 | 27848 | 16 | 251 | 4 | ||
| 2024-10-10T00:49 | 27967 | 16 | 261 | 4 | ||
| 2024-10-10T00:49 | 28088 | 16 | 201 | 4 | ||
| 2024-10-10T00:49 | 28133 | 16 | -51.6 | |||
| 2024-10-10T00:50 | 28214 | 16 | 215 | 6 | ||
| 2024-10-10T00:50 | 28298 | 15 | -51.5 | 234 | 7 | |
| 2024-10-10T11:30 | 18 | 1017 | 12.1 | 7.6 | 170 | 1 |
| 2024-10-10T11:30 | 22 | 1017 | 12.4 | 7.9 | 0 | 0 |
| 2024-10-10T11:30 | 67 | 1011 | 13.0 | 7.2 | ||
| 2024-10-10T11:30 | 149 | 1001 | 152 | 3 | ||
| 2024-10-10T11:31 | 237 | 991 | 12.5 | 4.0 | ||
| 2024-10-10T11:31 | 493 | 961 | 124 | 9 | ||
| 2024-10-10T11:32 | 737 | 933 | 9.0 | 0.9 | ||
| 2024-10-10T11:32 | 782 | 928 | 125 | 7 | ||
| 2024-10-10T11:33 | 1042 | 899 | 133 | 5 | ||
| 2024-10-10T11:33 | 1114 | 892 | 5.9 | 1.2 | ||
| 2024-10-10T11:34 | 1214 | 881 | 173 | 3 | ||
| 2024-10-10T11:34 | 1404 | 861 | 189 | 3 | ||
| 2024-10-10T11:34 | 1415 | 859 | 3.7 | -0.7 | ||
| 2024-10-10T11:35 | 1637 | 836 | 2.0 | -3.1 | ||
| 2024-10-10T11:35 | 1681 | 832 | 34 | 2 | ||
| 2024-10-10T11:35 | 1742 | 826 | 1.6 | -3.7 | ||
| 2024-10-10T11:36 | 1870 | 813 | 313 | 3 | ||
| 2024-10-10T11:36 | 1916 | 808 | 0.0 | -3.0 | ||
| 2024-10-10T11:36 | 1955 | 804 | -0.1 | -2.8 | ||
| 2024-10-10T11:36 | 2012 | 798 | 0.5 | -12.9 | ||
| 2024-10-10T11:36 | 2040 | 796 | 34 | 2 | ||
| 2024-10-10T11:36 | 2074 | 792 | 1.7 | -21.5 | ||
| 2024-10-10T11:36 | 2180 | 782 | 2.0 | -22.0 | ||
| 2024-10-10T11:37 | 2359 | 765 | 1.4 | -25.0 | ||
| 2024-10-10T11:37 | 2370 | 764 | 275 | 2 | ||
| 2024-10-10T11:37 | 2431 | 758 | 1.8 | -27.8 | ||
| 2024-10-10T11:38 | 2562 | 746 | 154 | 2 | ||
| 2024-10-10T11:38 | 2596 | 743 | 0.7 | -29.9 | ||
| 2024-10-10T11:38 | 2717 | 731 | 159 | 3 | ||
| 2024-10-10T11:38 | 2789 | 725 | 171 | 2 | ||
| 2024-10-10T11:39 | 2863 | 718 | 134 | 5 | ||
| 2024-10-10T11:39 | 2959 | 710 | 0.0 | -35.3 | ||
| 2024-10-10T11:39 | 2993 | 707 | 162 | 5 | ||
| 2024-10-10T11:39 | 3118 | 696 | -1.0 | -36.0 | 144 | 5 |
| 2024-10-10T11:40 | 3199 | 689 | -1.0 | -34.2 | ||
| 2024-10-10T11:40 | 3421 | 670 | -1.6 | -34.6 | ||
| 2024-10-10T11:40 | 3457 | 667 | 149 | 6 | ||
| 2024-10-10T11:41 | 3823 | 636 | 128 | 8 | ||
| 2024-10-10T11:42 | 3954 | 626 | -5.6 | -26.8 | ||
| 2024-10-10T11:42 | 4063 | 617 | 157 | 8 | ||
| 2024-10-10T11:42 | 4202 | 606 | 165 | 8 | ||
| 2024-10-10T11:43 | 4319 | 597 | 171 | 8 | ||
| 2024-10-10T11:43 | 4442 | 588 | -9.1 | -28.0 | ||
| 2024-10-10T11:43 | 4613 | 575 | -10.2 | -27.0 | ||
| 2024-10-10T11:43 | 4645 | 573 | 164 | 8 | ||
| 2024-10-10T11:44 | 4883 | 555 | -11.9 | -32.7 | ||
| 2024-10-10T11:44 | 5031 | 545 | 161 | 9 | ||
| 2024-10-10T11:45 | 5240 | 530 | -12.9 | -46.8 | ||
| 2024-10-10T11:45 | 5272 | 528 | 184 | 8 | ||
| 2024-10-10T11:45 | 5410 | 518 | 207 | 7 | ||
| 2024-10-10T11:46 | 5503 | 512 | -14.0 | -50.2 | ||
| 2024-10-10T11:46 | 5813 | 491 | 200 | 7 | ||
| 2024-10-10T11:47 | 6031 | 477 | -17.4 | -46.5 | ||
| 2024-10-10T11:47 | 6113 | 472 | 187 | 9 | ||
| 2024-10-10T11:47 | 6207 | 466 | -19.1 | -31.7 | ||
| 2024-10-10T11:48 | 6260 | 463 | 198 | 8 | ||
| 2024-10-10T11:48 | 6266 | 462 | -19.7 | -29.1 | ||
| 2024-10-10T11:49 | 6654 | 439 | 187 | 7 | ||
| 2024-10-10T11:49 | 6750 | 433 | -24.1 | -29.1 | ||
| 2024-10-10T11:49 | 6810 | 429 | -24.2 | -28.1 | ||
| 2024-10-10T11:50 | 7046 | 416 | 163 | 11 | ||
| 2024-10-10T11:50 | 7059 | 415 | -26.3 | -29.3 | ||
| 2024-10-10T11:50 | 7216 | 406 | -27.5 | -30.0 | ||
| 2024-10-10T11:50 | 7328 | 400 | -28.4 | -29.4 | ||
| 2024-10-10T11:51 | 7435 | 394 | 166 | 11 | ||
| 2024-10-10T11:51 | 7622 | 383 | 169 | 12 | ||
| 2024-10-10T11:51 | 7727 | 378 | -30.4 | -32.9 | ||
| 2024-10-10T11:52 | 7834 | 372 | -30.0 | -32.2 | ||
| 2024-10-10T11:52 | 7915 | 368 | 184 | 19 | ||
| 2024-10-10T11:52 | 8194 | 354 | 189 | 17 | ||
| 2024-10-10T11:52 | 8276 | 350 | -33.2 | -35.9 | ||
| 2024-10-10T11:53 | 8414 | 343 | 183 | 17 | ||
| 2024-10-10T11:53 | 8648 | 332 | 184 | 20 | ||
| 2024-10-10T11:54 | 8708 | 329 | -36.6 | -39.0 | ||
| 2024-10-10T11:54 | 8769 | 326 | 188 | 15 | ||
| 2024-10-10T11:54 | 8810 | 324 | -37.3 | -39.0 | ||
| 2024-10-10T11:54 | 8899 | 320 | 187 | 17 | ||
| 2024-10-10T11:54 | 8962 | 317 | -38.6 | -41.2 | ||
| 2024-10-10T11:54 | 9112 | 310 | -40.0 | -41.9 | ||
| 2024-10-10T11:55 | 9240 | 304 | 182 | 16 | ||
| 2024-10-10T11:55 | 9463 | 294 | 173 | 17 | ||
| 2024-10-10T11:55 | 9495 | 293 | -43.2 | |||
| 2024-10-10T11:56 | 9579 | 289 | 177 | 21 | ||
| 2024-10-10T11:57 | 9971 | 273 | -44.7 | 179 | 24 | |
| 2024-10-10T11:57 | 10207 | 263 | 183 | 28 | ||
| 2024-10-10T11:58 | 10309 | 259 | -43.6 | |||
| 2024-10-10T11:58 | 10448 | 254 | 194 | 30 | ||
| 2024-10-10T11:59 | 10716 | 244 | 196 | 36 | ||
| 2024-10-10T11:59 | 10897 | 238 | -43.9 | |||
| 2024-10-10T12:00 | 11075 | 231 | 193 | 38 | ||
| 2024-10-10T12:00 | 11247 | 225 | -45.0 | |||
| 2024-10-10T12:00 | 11379 | 221 | 194 | 35 | ||
| 2024-10-10T12:01 | 11553 | 215 | -45.6 | |||
| 2024-10-10T12:01 | 11746 | 209 | 190 | 40 | ||
| 2024-10-10T12:02 | 12103 | 198 | 191 | 47 | ||
| 2024-10-10T12:03 | 12357 | 191 | -48.5 | |||
| 2024-10-10T12:03 | 12459 | 188 | 195 | 50 | ||
| 2024-10-10T12:04 | 12752 | 180 | -50.7 | |||
| 2024-10-10T12:04 | 12817 | 178 | 201 | 50 | ||
| 2024-10-10T12:05 | 13154 | 169 | 208 | 50 | ||
| 2024-10-10T12:06 | 13203 | 167 | -51.2 | |||
| 2024-10-10T12:06 | 13487 | 160 | 211 | 43 | ||
| 2024-10-10T12:07 | 13544 | 159 | -51.5 | |||
| 2024-10-10T12:07 | 13834 | 152 | 209 | 37 | ||
| 2024-10-10T12:08 | 13956 | 149 | -53.4 | |||
| 2024-10-10T12:08 | 14196 | 144 | 208 | 34 | ||
| 2024-10-10T12:09 | 14566 | 136 | 202 | 33 | ||
| 2024-10-10T12:10 | 14930 | 128 | -60.0 | |||
| 2024-10-10T12:10 | 14959 | 127 | 194 | 40 | ||
| 2024-10-10T12:11 | 15297 | 121 | 200 | 44 | ||
| 2024-10-10T12:11 | 15303 | 120 | -61.9 | |||
| 2024-10-10T12:12 | 15548 | 116 | -61.2 | |||
| 2024-10-10T12:12 | 15635 | 114 | 210 | 38 | ||
| 2024-10-10T12:13 | 16015 | 107 | 209 | 37 | ||
| 2024-10-10T12:13 | 16045 | 107 | -61.9 | |||
| 2024-10-10T12:14 | 16251 | 103 | -61.2 | |||
| 2024-10-10T12:14 | 16368 | 102 | 221 | 33 | ||
| 2024-10-10T12:15 | 16681 | 97 | -61.3 | |||
| 2024-10-10T12:15 | 16710 | 96 | 234 | 28 | ||
| 2024-10-10T12:16 | 16852 | 94 | 231 | 24 | ||
| 2024-10-10T12:16 | 17007 | 92 | -59.6 | |||
| 2024-10-10T12:16 | 17079 | 91 | 219 | 23 | ||
| 2024-10-10T12:17 | 17223 | 88 | -59.6 | |||
| 2024-10-10T12:17 | 17455 | 85 | 219 | 21 | ||
| 2024-10-10T12:18 | 17568 | 84 | -58.9 | |||
| 2024-10-10T12:18 | 17604 | 83 | 207 | 17 | ||
| 2024-10-10T12:18 | 17844 | 80 | -58.8 | |||
| 2024-10-10T12:19 | 17996 | 78 | 208 | 21 | ||
| 2024-10-10T12:19 | 18187 | 76 | -60.4 | |||
| 2024-10-10T12:19 | 18272 | 75 | 221 | 20 | ||
| 2024-10-10T12:20 | 18405 | 73 | -59.7 | |||
| 2024-10-10T12:20 | 18519 | 72 | 213 | 13 | ||
| 2024-10-10T12:21 | 18731 | 70 | 197 | 14 | ||
| 2024-10-10T12:21 | 18793 | 69 | -59.6 | |||
| 2024-10-10T12:21 | 18997 | 67 | 228 | 20 | ||
| 2024-10-10T12:22 | 19102 | 66 | -58.0 | |||
| 2024-10-10T12:22 | 19288 | 64 | 227 | 12 | ||
| 2024-10-10T12:23 | 19407 | 62 | -57.4 | |||
| 2024-10-10T12:23 | 19573 | 61 | 199 | 12 | ||
| 2024-10-10T12:23 | 19583 | 61 | -57.3 | |||
| 2024-10-10T12:24 | 19859 | 58 | 229 | 13 | ||
| 2024-10-10T12:24 | 20106 | 56 | -56.1 | 198 | 11 | |
| 2024-10-10T12:25 | 20360 | 54 | 196 | 13 | ||
| 2024-10-10T12:25 | 20459 | 53 | -56.8 | |||
| 2024-10-10T12:26 | 20649 | 51 | 204 | 11 | ||
| 2024-10-10T12:26 | 20807 | 50 | 224 | 10 | ||
| 2024-10-10T12:27 | 21045 | 48 | 221 | 16 | ||
| 2024-10-10T12:28 | 21352 | 46 | 262 | 7 | ||
| 2024-10-10T12:28 | 21380 | 46 | -57.3 | |||
| 2024-10-10T12:28 | 21561 | 44 | 238 | 7 | ||
| 2024-10-10T12:28 | 21722 | 43 | 269 | 2 | ||
| 2024-10-10T12:29 | 21916 | 42 | 199 | 3 | ||
| 2024-10-10T12:29 | 22083 | 41 | 159 | 2 | ||
| 2024-10-10T12:29 | 22115 | 41 | -56.9 | |||
| 2024-10-10T12:30 | 22190 | 40 | 101 | 3 | ||
| 2024-10-10T12:30 | 22317 | 39 | 116 | 6 | ||
| 2024-10-10T12:30 | 22402 | 39 | -56.5 | |||
| 2024-10-10T12:30 | 22501 | 38 | 161 | 8 | ||
| 2024-10-10T12:31 | 22732 | 37 | 196 | 7 | ||
| 2024-10-10T12:32 | 22992 | 35 | 261 | 7 | ||
| 2024-10-10T12:32 | 23012 | 35 | -58.9 | |||
| 2024-10-10T12:32 | 23136 | 35 | 261 | 3 | ||
| 2024-10-10T12:32 | 23304 | 34 | 320 | 1 | ||
| 2024-10-10T12:33 | 23414 | 33 | 193 | 3 | ||
| 2024-10-10T12:33 | 23570 | 32 | 234 | 4 | ||
| 2024-10-10T12:33 | 23631 | 32 | -56.3 | |||
| 2024-10-10T12:33 | 23711 | 32 | 233 | 3 | ||
| 2024-10-10T12:34 | 23810 | 31 | 301 | 1 | ||
| 2024-10-10T12:34 | 23976 | 30 | 102 | 3 | ||
| 2024-10-10T12:34 | 24149 | 30 | 113 | 3 | ||
| 2024-10-10T12:35 | 24438 | 28 | -55.5 | |||
| 2024-10-10T12:36 | 24572 | 28 | 255 | 2 | ||
| 2024-10-10T12:36 | 24782 | 27 | 158 | 3 | ||
| 2024-10-10T12:37 | 25052 | 26 | 143 | 9 | ||
| 2024-10-10T12:37 | 25229 | 25 | -56.0 | |||
| 2024-10-10T12:37 | 25306 | 25 | 124 | 4 | ||
| 2024-10-10T12:38 | 25436 | 24 | 54 | 2 | ||
| 2024-10-10T12:38 | 25591 | 24 | -55.0 | 180 | 2 | |
| 2024-10-10T23:30 | 18 | 1016 | 12.0 | 4.2 | 150 | 2 |
| 2024-10-10T23:30 | 22 | 1015 | 12.2 | 4.2 | 0 | 0 |
| 2024-10-10T23:30 | 172 | 997 | 10.1 | 2.5 | ||
| 2024-10-10T23:31 | 290 | 983 | 9.1 | 1.5 | ||
| 2024-10-10T23:31 | 341 | 977 | 54 | 2 | ||
| 2024-10-10T23:31 | 352 | 976 | 10.3 | 0.1 | ||
| 2024-10-10T23:32 | 557 | 952 | 8.6 | -0.2 | ||
| 2024-10-10T23:32 | 614 | 945 | 8.6 | 0.3 | ||
| 2024-10-10T23:32 | 645 | 942 | 309 | 1 | ||
| 2024-10-10T23:32 | 795 | 925 | 7.7 | 0.9 | ||
| 2024-10-10T23:33 | 906 | 913 | 355 | 6 | ||
| 2024-10-10T23:33 | 918 | 911 | 7.1 | 2.2 | ||
| 2024-10-10T23:33 | 979 | 905 | 7.0 | 0.2 | ||
| 2024-10-10T23:33 | 1078 | 894 | 331 | 7 | ||
| 2024-10-10T23:34 | 1300 | 870 | 358 | 8 | ||
| 2024-10-10T23:34 | 1400 | 859 | 3.6 | -1.2 | ||
| 2024-10-10T23:35 | 1607 | 837 | 344 | 10 | ||
| 2024-10-10T23:35 | 1715 | 826 | 1.5 | -0.4 | ||
| 2024-10-10T23:36 | 1776 | 820 | 328 | 12 | ||
| 2024-10-10T23:36 | 1881 | 809 | 0.6 | 0.2 | ||
| 2024-10-10T23:36 | 1962 | 801 | 0.4 | -1.4 | ||
| 2024-10-10T23:36 | 2001 | 797 | 0.3 | -2.2 | ||
| 2024-10-10T23:36 | 2068 | 791 | 337 | 12 | ||
| 2024-10-10T23:36 | 2084 | 789 | 1.0 | -9.6 | ||
| 2024-10-10T23:37 | 2146 | 783 | 1.7 | -16.3 | ||
| 2024-10-10T23:37 | 2185 | 779 | 3.0 | -25.7 | ||
| 2024-10-10T23:37 | 2231 | 775 | 305 | 5 | ||
| 2024-10-10T23:37 | 2278 | 770 | 2.7 | -23.9 | ||
| 2024-10-10T23:37 | 2334 | 765 | 2.1 | -10.4 | ||
| 2024-10-10T23:37 | 2412 | 757 | 287 | 6 | ||
| 2024-10-10T23:38 | 2518 | 747 | 278 | 7 | ||
| 2024-10-10T23:38 | 2674 | 733 | -0.9 | -7.5 | ||
| 2024-10-10T23:38 | 2708 | 730 | 289 | 7 | ||
| 2024-10-10T23:39 | 2781 | 723 | -1.8 | -7.3 | ||
| 2024-10-10T23:39 | 3001 | 703 | 291 | 4 | ||
| 2024-10-10T23:39 | 3007 | 703 | -3.1 | -9.6 | ||
| 2024-10-10T23:39 | 3094 | 695 | 298 | 2 | ||
| 2024-10-10T23:39 | 3100 | 695 | -4.0 | -9.2 | ||
| 2024-10-10T23:40 | 3149 | 690 | -3.7 | -15.7 | ||
| 2024-10-10T23:40 | 3192 | 687 | 17 | 3 | ||
| 2024-10-10T23:40 | 3198 | 686 | -4.0 | -15.3 | ||
| 2024-10-10T23:40 | 3237 | 683 | -3.5 | -30.8 | ||
| 2024-10-10T23:40 | 3266 | 680 | 7 | 3 | ||
| 2024-10-10T23:40 | 3344 | 674 | -2.8 | -35.5 | 266 | 3 |
| 2024-10-10T23:40 | 3410 | 668 | -2.5 | -37.1 | ||
| 2024-10-10T23:41 | 3655 | 648 | 280 | 7 | ||
| 2024-10-10T23:41 | 3727 | 642 | -5.1 | -41.2 | ||
| 2024-10-10T23:42 | 3781 | 637 | 276 | 4 | ||
| 2024-10-10T23:42 | 3880 | 629 | 265 | 4 | ||
| 2024-10-10T23:42 | 3891 | 628 | -5.4 | -31.3 | ||
| 2024-10-10T23:42 | 3968 | 622 | 263 | 4 | ||
| 2024-10-10T23:42 | 4097 | 612 | 282 | 6 | ||
| 2024-10-10T23:43 | 4262 | 599 | 271 | 6 | ||
| 2024-10-10T23:43 | 4293 | 597 | -8.3 | -29.7 | ||
| 2024-10-10T23:44 | 4494 | 582 | -9.5 | -31.4 | ||
| 2024-10-10T23:44 | 4566 | 576 | -9.2 | -32.6 | 260 | 3 |
| 2024-10-10T23:44 | 4666 | 569 | 291 | 4 | ||
| 2024-10-10T23:44 | 4758 | 562 | -9.7 | -36.7 | ||
| 2024-10-10T23:44 | 4770 | 561 | 270 | 2 | ||
| 2024-10-10T23:45 | 4855 | 555 | 305 | 3 | ||
| 2024-10-10T23:45 | 5069 | 540 | 238 | 3 | ||
| 2024-10-10T23:45 | 5104 | 537 | -11.8 | -34.0 | ||
| 2024-10-10T23:46 | 5198 | 531 | -12.7 | -26.7 | ||
| 2024-10-10T23:46 | 5244 | 527 | 270 | 5 | ||
| 2024-10-10T23:46 | 5319 | 522 | -13.8 | -24.0 | ||
| 2024-10-10T23:46 | 5392 | 517 | 243 | 4 | ||
| 2024-10-10T23:46 | 5495 | 510 | -15.0 | -28.4 | ||
| 2024-10-10T23:47 | 5548 | 507 | 294 | 3 | ||
| 2024-10-10T23:47 | 5595 | 504 | -15.8 | -28.7 | ||
| 2024-10-10T23:47 | 5648 | 500 | 40 | 1 | ||
| 2024-10-10T23:47 | 5666 | 499 | -16.6 | -27.1 | ||
| 2024-10-10T23:47 | 5732 | 494 | 330 | 3 | ||
| 2024-10-10T23:47 | 5744 | 494 | -17.3 | -28.8 | ||
| 2024-10-10T23:48 | 5875 | 485 | -18.5 | -35.0 | ||
| 2024-10-10T23:48 | 5910 | 483 | -18.8 | -33.6 | ||
| 2024-10-10T23:48 | 5928 | 482 | 300 | 2 | ||
| 2024-10-10T23:48 | 5957 | 480 | -19.1 | -38.7 | ||
| 2024-10-10T23:48 | 6086 | 471 | 325 | 2 | ||
| 2024-10-10T23:48 | 6160 | 467 | 297 | 3 | ||
| 2024-10-10T23:48 | 6178 | 466 | -21.1 | -32.0 | ||
| 2024-10-10T23:49 | 6417 | 451 | 304 | 4 | ||
| 2024-10-10T23:50 | 6676 | 435 | 295 | 4 | ||
| 2024-10-10T23:50 | 6819 | 426 | -26.9 | -34.8 | ||
| 2024-10-10T23:50 | 6880 | 423 | -27.3 | -34.8 | ||
| 2024-10-10T23:51 | 6953 | 418 | 299 | 5 | ||
| 2024-10-10T23:51 | 7006 | 415 | -28.4 | -31.9 | ||
| 2024-10-10T23:51 | 7053 | 413 | 282 | 5 | ||
| 2024-10-10T23:51 | 7130 | 408 | -29.3 | -33.3 | ||
| 2024-10-10T23:52 | 7400 | 393 | 292 | 6 | ||
| 2024-10-10T23:52 | 7538 | 385 | -32.9 | -34.8 | ||
| 2024-10-10T23:53 | 7708 | 376 | -34.5 | -36.0 | ||
| 2024-10-10T23:53 | 7749 | 374 | 265 | 4 | ||
| 2024-10-10T23:53 | 7817 | 370 | -34.3 | -37.9 | ||
| 2024-10-10T23:54 | 8049 | 358 | -36.2 | -38.9 | ||
| 2024-10-10T23:54 | 8090 | 356 | 236 | 7 | ||
| 2024-10-10T23:54 | 8218 | 350 | -37.8 | -40.1 | ||
| 2024-10-10T23:54 | 8291 | 346 | -38.3 | -42.1 | ||
| 2024-10-10T23:55 | 8337 | 344 | -38.2 | -49.1 | ||
| 2024-10-10T23:55 | 8349 | 343 | 251 | 7 | ||
| 2024-10-10T23:55 | 8493 | 336 | -39.1 | -54.0 | ||
| 2024-10-10T23:55 | 8623 | 330 | 229 | 9 | ||
| 2024-10-10T23:55 | 8634 | 329 | -39.1 | -59.3 | ||
| 2024-10-10T23:56 | 8763 | 323 | -40.0 | -58.5 | ||
| 2024-10-10T23:56 | 8810 | 321 | 218 | 9 | ||
| 2024-10-10T23:56 | 8971 | 313 | -40.9 | |||
| 2024-10-10T23:57 | 9127 | 306 | -41.0 | |||
| 2024-10-10T23:57 | 9149 | 305 | 228 | 13 | ||
| 2024-10-10T23:57 | 9294 | 299 | -42.1 | |||
| 2024-10-10T23:58 | 9345 | 296 | 230 | 13 | ||
| 2024-10-10T23:58 | 9646 | 283 | 230 | 12 | ||
| 2024-10-10T23:59 | 9809 | 277 | 234 | 12 | ||
| 2024-10-10T23:59 | 9871 | 274 | -45.7 | |||
| 2024-10-11T00:00 | 10062 | 266 | 217 | 9 | ||
| 2024-10-11T00:01 | 10368 | 254 | -47.8 | |||
| 2024-10-11T00:01 | 10390 | 253 | 209 | 17 | ||
| 2024-10-11T00:02 | 10709 | 242 | 211 | 13 | ||
| 2024-10-11T00:02 | 10810 | 238 | -49.2 | |||
| 2024-10-11T00:03 | 10978 | 232 | 207 | 15 | ||
| 2024-10-11T00:03 | 11097 | 228 | -50.1 | |||
| 2024-10-11T00:03 | 11188 | 224 | -49.4 | |||
| 2024-10-11T00:04 | 11281 | 221 | 222 | 15 | ||
| 2024-10-11T00:04 | 11556 | 212 | 215 | 16 | ||
| 2024-10-11T00:05 | 11601 | 211 | -50.8 | |||
| 2024-10-11T00:05 | 11674 | 208 | 215 | 19 | ||
| 2024-10-11T00:06 | 11954 | 200 | -49.8 | |||
| 2024-10-11T00:06 | 11996 | 198 | 214 | 21 | ||
| 2024-10-11T00:07 | 12301 | 189 | 219 | 22 | ||
| 2024-10-11T00:07 | 12393 | 187 | -49.8 | |||
| 2024-10-11T00:08 | 12590 | 181 | 212 | 23 | ||
| 2024-10-11T00:08 | 12628 | 180 | -49.5 | |||
| 2024-10-11T00:08 | 12787 | 176 | 209 | 23 | ||
| 2024-10-11T00:09 | 13084 | 168 | 206 | 22 | ||
| 2024-10-11T00:10 | 13188 | 165 | -51.3 | |||
| 2024-10-11T00:10 | 13358 | 161 | 210 | 24 | ||
| 2024-10-11T00:11 | 13682 | 153 | 204 | 23 | ||
| 2024-10-11T00:11 | 13746 | 151 | -52.0 | |||
| 2024-10-11T00:12 | 13999 | 146 | 204 | 24 | ||
| 2024-10-11T00:13 | 14243 | 140 | -53.9 | |||
| 2024-10-11T00:13 | 14324 | 138 | 198 | 24 | ||
| 2024-10-11T00:14 | 14638 | 132 | 195 | 23 | ||
| 2024-10-11T00:15 | 14764 | 129 | -56.1 | |||
| 2024-10-11T00:15 | 14834 | 128 | 199 | 25 | ||
| 2024-10-11T00:15 | 14866 | 127 | -55.6 | |||
| 2024-10-11T00:16 | 15160 | 121 | 204 | 28 | ||
| 2024-10-11T00:16 | 15176 | 121 | -57.5 | |||
| 2024-10-11T00:16 | 15331 | 118 | 215 | 30 | ||
| 2024-10-11T00:17 | 15369 | 117 | -57.1 | |||
| 2024-10-11T00:17 | 15473 | 116 | -57.3 | |||
| 2024-10-11T00:17 | 15575 | 114 | 212 | 24 | ||
| 2024-10-11T00:18 | 15802 | 110 | -57.1 | |||
| 2024-10-11T00:18 | 15871 | 108 | 216 | 24 | ||
| 2024-10-11T00:19 | 16001 | 106 | -56.0 | |||
| 2024-10-11T00:19 | 16044 | 106 | 209 | 24 | ||
| 2024-10-11T00:19 | 16170 | 103 | -56.6 | |||
| 2024-10-11T00:19 | 16269 | 102 | 220 | 24 | ||
| 2024-10-11T00:20 | 16376 | 100 | 220 | 20 | ||
| 2024-10-11T00:20 | 16402 | 100 | -54.9 | |||
| 2024-10-11T00:21 | 16716 | 95 | -56.8 | |||
| 2024-10-11T00:21 | 16734 | 95 | 200 | 23 | ||
| 2024-10-11T00:21 | 16959 | 91 | 207 | 26 | ||
| 2024-10-11T00:22 | 17280 | 87 | 221 | 24 | ||
| 2024-10-11T00:22 | 17288 | 87 | -57.7 | |||
| 2024-10-11T00:23 | 17459 | 84 | 223 | 21 | ||
| 2024-10-11T00:24 | 17709 | 81 | -56.5 | |||
| 2024-10-11T00:24 | 17756 | 81 | 215 | 14 | ||
| 2024-10-11T00:24 | 17828 | 80 | -56.1 | |||
| 2024-10-11T00:25 | 18097 | 76 | 194 | 18 | ||
| 2024-10-11T00:25 | 18230 | 75 | -57.7 | |||
| 2024-10-11T00:25 | 18314 | 74 | 210 | 23 | ||
| 2024-10-11T00:26 | 18656 | 70 | -58.2 | |||
| 2024-10-11T00:26 | 18665 | 70 | 238 | 22 | ||
| 2024-10-11T00:27 | 18915 | 67 | 226 | 12 | ||
| 2024-10-11T00:27 | 18941 | 67 | -56.8 | |||
| 2024-10-11T00:28 | 19196 | 64 | 218 | 13 | ||
| 2024-10-11T00:28 | 19355 | 63 | -57.1 | |||
| 2024-10-11T00:29 | 19549 | 61 | 230 | 10 | ||
| 2024-10-11T00:29 | 19710 | 59 | 209 | 11 | ||
| 2024-10-11T00:30 | 19783 | 58 | -57.6 | |||
| 2024-10-11T00:30 | 19958 | 57 | -58.8 | |||
| 2024-10-11T00:30 | 20015 | 56 | 213 | 15 | ||
| 2024-10-11T00:30 | 20083 | 56 | -57.2 | |||
| 2024-10-11T00:31 | 20254 | 54 | 228 | 10 | ||
| 2024-10-11T00:32 | 20544 | 52 | 184 | 9 | ||
| 2024-10-11T00:33 | 20919 | 49 | 205 | 9 | ||
| 2024-10-11T00:33 | 21089 | 48 | 197 | 5 | ||
| 2024-10-11T00:33 | 21116 | 47 | -56.7 | |||
| 2024-10-11T00:33 | 21210 | 47 | 163 | 7 | ||
| 2024-10-11T00:34 | 21574 | 44 | 194 | 9 | ||
| 2024-10-11T00:35 | 21749 | 43 | 226 | 5 | ||
| 2024-10-11T00:35 | 21810 | 42 | -56.4 | |||
| 2024-10-11T00:35 | 21839 | 42 | 261 | 4 | ||
| 2024-10-11T00:36 | 22037 | 41 | 218 | 2 | ||
| 2024-10-11T00:36 | 22162 | 40 | 155 | 3 | ||
| 2024-10-11T00:36 | 22307 | 39 | 191 | 3 | ||
| 2024-10-11T00:37 | 22589 | 38 | -56.4 | |||
| 2024-10-11T00:37 | 22672 | 37 | 161 | 9 | ||
| 2024-10-11T00:38 | 23007 | 35 | 195 | 5 | ||
| 2024-10-11T00:38 | 23116 | 35 | -57.9 | |||
| 2024-10-11T00:38 | 23187 | 34 | 175 | 3 | ||
| 2024-10-11T00:39 | 23375 | 33 | 188 | 2 | ||
| 2024-10-11T00:39 | 23668 | 32 | 140 | 3 | ||
| 2024-10-11T00:40 | 23871 | 31 | -57.9 | |||
| 2024-10-11T00:40 | 24002 | 30 | 198 | 1 | ||
| 2024-10-11T00:41 | 24251 | 29 | -57.9 | |||
| 2024-10-11T00:41 | 24451 | 28 | 174 | 2 | ||
| 2024-10-11T00:42 | 24730 | 27 | 68 | 3 | ||
| 2024-10-11T00:43 | 24999 | 26 | 69 | 8 | ||
| 2024-10-11T00:43 | 25304 | 24 | 5 | 2 | ||
| 2024-10-11T00:44 | 25436 | 24 | 59 | 3 | ||
| 2024-10-11T00:44 | 25460 | 24 | -55.6 | |||
| 2024-10-11T00:44 | 25578 | 23 | -55.6 | 96 | 5 | |
| 2024-10-11T11:30 | 18 | 1016 | 13.9 | 6.3 | 290 | 3 |
| 2024-10-11T11:30 | 24 | 1016 | 14.2 | 6.3 | 0 | 0 |
| 2024-10-11T11:30 | 118 | 1005 | 302 | 3 | ||
| 2024-10-11T11:30 | 192 | 996 | 13.9 | 6.5 | ||
| 2024-10-11T11:31 | 491 | 961 | 323 | 8 | ||
| 2024-10-11T11:32 | 697 | 937 | 9.3 | 5.8 | ||
| 2024-10-11T11:32 | 848 | 920 | 351 | 8 | ||
| 2024-10-11T11:33 | 1064 | 896 | 6.0 | 3.0 | ||
| 2024-10-11T11:33 | 1120 | 890 | 6.1 | -0.6 | ||
| 2024-10-11T11:33 | 1188 | 883 | 349 | 9 | ||
| 2024-10-11T11:33 | 1233 | 878 | 6.0 | 1.9 | ||
| 2024-10-11T11:34 | 1398 | 860 | 5.2 | 0.4 | ||
| 2024-10-11T11:34 | 1530 | 847 | 340 | 11 | ||
| 2024-10-11T11:35 | 1647 | 835 | 3.7 | -1.1 | ||
| 2024-10-11T11:35 | 1808 | 818 | 341 | 10 | ||
| 2024-10-11T11:36 | 1996 | 799 | 1.3 | -4.2 | ||
| 2024-10-11T11:36 | 2021 | 797 | 337 | 10 | ||
| 2024-10-11T11:36 | 2137 | 785 | 1.2 | -7.1 | ||
| 2024-10-11T11:36 | 2231 | 776 | 336 | 12 | ||
| 2024-10-11T11:36 | 2243 | 775 | 1.9 | -10.9 | ||
| 2024-10-11T11:36 | 2329 | 767 | 1.6 | -10.9 | ||
| 2024-10-11T11:37 | 2566 | 745 | -0.4 | -11.8 | ||
| 2024-10-11T11:37 | 2596 | 742 | 337 | 14 | ||
| 2024-10-11T11:37 | 2631 | 739 | 0.4 | -15.2 | ||
| 2024-10-11T11:38 | 2737 | 729 | 0.0 | -18.2 | ||
| 2024-10-11T11:38 | 2887 | 715 | -0.2 | -21.1 | ||
| 2024-10-11T11:38 | 2954 | 709 | 330 | 11 | ||
| 2024-10-11T11:39 | 3141 | 693 | -0.6 | -25.7 | ||
| 2024-10-11T11:39 | 3284 | 681 | 335 | 9 | ||
| 2024-10-11T11:39 | 3412 | 670 | -2.2 | -27.8 | ||
| 2024-10-11T11:40 | 3655 | 650 | -3.4 | -30.7 | ||
| 2024-10-11T11:40 | 3668 | 649 | 310 | 10 | ||
| 2024-10-11T11:41 | 4036 | 619 | -6.4 | -28.8 | ||
| 2024-10-11T11:41 | 4042 | 618 | 302 | 9 | ||
| 2024-10-11T11:41 | 4152 | 610 | -6.3 | -33.0 | ||
| 2024-10-11T11:42 | 4372 | 593 | 304 | 12 | ||
| 2024-10-11T11:43 | 4643 | 572 | -9.7 | -33.9 | ||
| 2024-10-11T11:43 | 4724 | 566 | 308 | 10 | ||
| 2024-10-11T11:44 | 4976 | 548 | 310 | 15 | ||
| 2024-10-11T11:44 | 5262 | 528 | -14.2 | -37.5 | ||
| 2024-10-11T11:45 | 5321 | 524 | 299 | 11 | ||
| 2024-10-11T11:45 | 5628 | 503 | 295 | 10 | ||
| 2024-10-11T11:46 | 5986 | 479 | -20.3 | -39.1 | ||
| 2024-10-11T11:46 | 6004 | 478 | 309 | 11 | ||
| 2024-10-11T11:47 | 6154 | 468 | 300 | 10 | ||
| 2024-10-11T11:48 | 6534 | 445 | 297 | 13 | ||
| 2024-10-11T11:48 | 6671 | 436 | 298 | 12 | ||
| 2024-10-11T11:49 | 6886 | 423 | 278 | 9 | ||
| 2024-10-11T11:49 | 6899 | 423 | -28.2 | -46.3 | ||
| 2024-10-11T11:50 | 7190 | 406 | -30.7 | -46.4 | ||
| 2024-10-11T11:50 | 7277 | 401 | 286 | 11 | ||
| 2024-10-11T11:50 | 7382 | 395 | -32.3 | -47.8 | ||
| 2024-10-11T11:51 | 7564 | 385 | -33.7 | -52.1 | ||
| 2024-10-11T11:51 | 7654 | 380 | 293 | 12 | ||
| 2024-10-11T11:51 | 7749 | 375 | -34.3 | -51.4 | ||
| 2024-10-11T11:51 | 7934 | 365 | 292 | 13 | ||
| 2024-10-11T11:53 | 8322 | 345 | 281 | 11 | ||
| 2024-10-11T11:53 | 8446 | 339 | -39.2 | -56.6 | ||
| 2024-10-11T11:53 | 8559 | 333 | -40.0 | -57.9 | ||
| 2024-10-11T11:54 | 8717 | 326 | 282 | 13 | ||
| 2024-10-11T11:54 | 8835 | 320 | 279 | 11 | ||
| 2024-10-11T11:54 | 9044 | 310 | 281 | 14 | ||
| 2024-10-11T11:54 | 9070 | 309 | -43.2 | |||
| 2024-10-11T11:55 | 9423 | 293 | 270 | 13 | ||
| 2024-10-11T11:56 | 9665 | 283 | 271 | 15 | ||
| 2024-10-11T11:56 | 9808 | 277 | 276 | 14 | ||
| 2024-10-11T11:56 | 9864 | 274 | -47.6 | |||
| 2024-10-11T11:57 | 10200 | 261 | -48.2 | |||
| 2024-10-11T11:57 | 10236 | 259 | 255 | 14 | ||
| 2024-10-11T11:58 | 10434 | 252 | 249 | 17 | ||
| 2024-10-11T11:58 | 10468 | 250 | -49.8 | |||
| 2024-10-11T11:58 | 10665 | 243 | 251 | 18 | ||
| 2024-10-11T11:59 | 10765 | 239 | -50.0 | |||
| 2024-10-11T11:59 | 10975 | 232 | 254 | 21 | ||
| 2024-10-11T11:59 | 11012 | 230 | -51.0 | |||
| 2024-10-11T12:00 | 11208 | 223 | 244 | 21 | ||
| 2024-10-11T12:00 | 11264 | 222 | -49.6 | |||
| 2024-10-11T12:00 | 11512 | 213 | 237 | 21 | ||
| 2024-10-11T12:00 | 11542 | 212 | -49.2 | |||
| 2024-10-11T12:01 | 11789 | 204 | -49.6 | |||
| 2024-10-11T12:01 | 11942 | 200 | 245 | 23 | ||
| 2024-10-11T12:02 | 12106 | 195 | 242 | 20 | ||
| 2024-10-11T12:02 | 12178 | 193 | -49.3 | |||
| 2024-10-11T12:03 | 12483 | 184 | 240 | 25 | ||
| 2024-10-11T12:04 | 12851 | 174 | 238 | 21 | ||
| 2024-10-11T12:04 | 12947 | 171 | -49.8 | |||
| 2024-10-11T12:05 | 13162 | 166 | -50.4 | |||
| 2024-10-11T12:05 | 13211 | 165 | 238 | 24 | ||
| 2024-10-11T12:05 | 13434 | 159 | -51.1 | |||
| 2024-10-11T12:05 | 13472 | 158 | 232 | 25 | ||
| 2024-10-11T12:06 | 13791 | 150 | 234 | 27 | ||
| 2024-10-11T12:07 | 14150 | 142 | 241 | 25 | ||
| 2024-10-11T12:08 | 14501 | 135 | 243 | 22 | ||
| 2024-10-11T12:09 | 14747 | 130 | -54.6 | |||
| 2024-10-11T12:09 | 14834 | 128 | 225 | 22 | ||
| 2024-10-11T12:10 | 14955 | 126 | -55.7 | |||
| 2024-10-11T12:10 | 15056 | 124 | 227 | 25 | ||
| 2024-10-11T12:11 | 15355 | 118 | 232 | 23 | ||
| 2024-10-11T12:12 | 15582 | 114 | -56.2 | |||
| 2024-10-11T12:12 | 15693 | 112 | 221 | 22 | ||
| 2024-10-11T12:13 | 15955 | 107 | 227 | 27 | ||
| 2024-10-11T12:13 | 16062 | 106 | -56.0 | |||
| 2024-10-11T12:13 | 16260 | 102 | 244 | 26 | ||
| 2024-10-11T12:13 | 16267 | 102 | -54.7 | |||
| 2024-10-11T12:14 | 16489 | 99 | 236 | 17 | ||
| 2024-10-11T12:14 | 16573 | 97 | -53.5 | |||
| 2024-10-11T12:15 | 16692 | 96 | 232 | 20 | ||
| 2024-10-11T12:15 | 16891 | 93 | 231 | 17 | ||
| 2024-10-11T12:15 | 16988 | 91 | -54.1 | |||
| 2024-10-11T12:16 | 17252 | 88 | 232 | 20 | ||
| 2024-10-11T12:16 | 17324 | 87 | -54.9 | |||
| 2024-10-11T12:17 | 17511 | 84 | 209 | 14 | ||
| 2024-10-11T12:18 | 17838 | 80 | 212 | 17 | ||
| 2024-10-11T12:18 | 17886 | 79 | -55.7 | |||
| 2024-10-11T12:18 | 18016 | 78 | -55.4 | |||
| 2024-10-11T12:18 | 18063 | 77 | 213 | 21 | ||
| 2024-10-11T12:19 | 18431 | 73 | 237 | 19 | ||
| 2024-10-11T12:20 | 18608 | 71 | -57.2 | |||
| 2024-10-11T12:20 | 18788 | 69 | -55.5 | |||
| 2024-10-11T12:20 | 18807 | 69 | 200 | 19 | ||
| 2024-10-11T12:21 | 19041 | 66 | 205 | 23 | ||
| 2024-10-11T12:22 | 19395 | 63 | 230 | 18 | ||
| 2024-10-11T12:23 | 19573 | 61 | -57.7 | |||
| 2024-10-11T12:23 | 19760 | 59 | 232 | 12 | ||
| 2024-10-11T12:24 | 20004 | 57 | 233 | 12 | ||
| 2024-10-11T12:24 | 20047 | 56 | -56.8 | |||
| 2024-10-11T12:24 | 20208 | 55 | 221 | 7 | ||
| 2024-10-11T12:25 | 20414 | 53 | 225 | 10 | ||
| 2024-10-11T12:25 | 20534 | 52 | -57.9 | |||
| 2024-10-11T12:26 | 20785 | 50 | 241 | 11 | ||
| 2024-10-11T12:26 | 20871 | 50 | -58.6 | |||
| 2024-10-11T12:27 | 21025 | 48 | 234 | 9 | ||
| 2024-10-11T12:27 | 21241 | 47 | 241 | 6 | ||
| 2024-10-11T12:27 | 21359 | 46 | 234 | 7 | ||
| 2024-10-11T12:28 | 21530 | 45 | -57.2 | |||
| 2024-10-11T12:28 | 21542 | 45 | 247 | 13 | ||
| 2024-10-11T12:29 | 21802 | 43 | 236 | 8 | ||
| 2024-10-11T12:29 | 21966 | 42 | 236 | 10 | ||
| 2024-10-11T12:29 | 22027 | 41 | -56.8 | |||
| 2024-10-11T12:30 | 22182 | 40 | 278 | 7 | ||
| 2024-10-11T12:30 | 22296 | 40 | 316 | 3 | ||
| 2024-10-11T12:30 | 22426 | 39 | -54.9 | |||
| 2024-10-11T12:30 | 22509 | 38 | 144 | 3 | ||
| 2024-10-11T12:31 | 22884 | 36 | 143 | 3 | ||
| 2024-10-11T12:32 | 23100 | 35 | 174 | 5 | ||
| 2024-10-11T12:32 | 23213 | 34 | 176 | 3 | ||
| 2024-10-11T12:33 | 23380 | 33 | 149 | 3 | ||
| 2024-10-11T12:33 | 23561 | 32 | -56.5 | 173 | 5 | |
| 2024-10-11T23:30 | 18 | 1020 | 12.9 | 7.4 | 140 | 1 |
| 2024-10-11T23:30 | 22 | 1020 | 12.7 | 6.9 | 0 | 0 |
| 2024-10-11T23:30 | 42 | 1017 | 12.2 | 6.0 | ||
| 2024-10-11T23:31 | 188 | 1000 | 11.1 | 5.6 | ||
| 2024-10-11T23:31 | 199 | 998 | 149 | 3 | ||
| 2024-10-11T23:31 | 237 | 994 | 12.9 | 6.3 | ||
| 2024-10-11T23:31 | 282 | 989 | 147 | 3 | ||
| 2024-10-11T23:31 | 360 | 979 | 12.5 | 6.1 | ||
| 2024-10-11T23:31 | 371 | 978 | 128 | 3 | ||
| 2024-10-11T23:31 | 415 | 973 | 13.2 | 5.1 | ||
| 2024-10-11T23:32 | 605 | 951 | 0 | 0 | ||
| 2024-10-11T23:32 | 637 | 948 | 11.5 | 4.5 | ||
| 2024-10-11T23:32 | 669 | 944 | 291 | 3 | ||
| 2024-10-11T23:33 | 862 | 922 | 10.2 | 6.0 | ||
| 2024-10-11T23:33 | 992 | 908 | 293 | 5 | ||
| 2024-10-11T23:34 | 1173 | 888 | 7.9 | 4.5 | ||
| 2024-10-11T23:34 | 1323 | 872 | 288 | 8 | ||
| 2024-10-11T23:34 | 1412 | 863 | 6.5 | 1.2 | ||
| 2024-10-11T23:35 | 1657 | 838 | 285 | 12 | ||
| 2024-10-11T23:35 | 1685 | 835 | 4.9 | -0.9 | ||
| 2024-10-11T23:36 | 1972 | 806 | 2.4 | -1.8 | ||
| 2024-10-11T23:36 | 1994 | 803 | 288 | 14 | ||
| 2024-10-11T23:36 | 2038 | 799 | 2.1 | -3.4 | ||
| 2024-10-11T23:37 | 2194 | 784 | 0.7 | -1.5 | ||
| 2024-10-11T23:37 | 2283 | 775 | 0.3 | -1.3 | ||
| 2024-10-11T23:37 | 2298 | 774 | 288 | 11 | ||
| 2024-10-11T23:37 | 2400 | 764 | 0.3 | -2.6 | ||
| 2024-10-11T23:38 | 2605 | 745 | 305 | 10 | ||
| 2024-10-11T23:39 | 2856 | 721 | -3.5 | -3.8 | ||
| 2024-10-11T23:39 | 2877 | 720 | 304 | 11 | ||
| 2024-10-11T23:39 | 2925 | 715 | -2.3 | -4.6 | ||
| 2024-10-11T23:39 | 2995 | 709 | -2.2 | -5.2 | ||
| 2024-10-11T23:39 | 3000 | 709 | 290 | 12 | ||
| 2024-10-11T23:39 | 3080 | 701 | -2.0 | -6.4 | ||
| 2024-10-11T23:40 | 3150 | 695 | -2.6 | -7.9 | ||
| 2024-10-11T23:40 | 3188 | 692 | -2.4 | -12.7 | ||
| 2024-10-11T23:40 | 3237 | 688 | -2.7 | -9.6 | ||
| 2024-10-11T23:40 | 3324 | 680 | 285 | 11 | ||
| 2024-10-11T23:40 | 3399 | 674 | -3.9 | -10.1 | ||
| 2024-10-11T23:41 | 3442 | 670 | -3.9 | -15.5 | ||
| 2024-10-11T23:41 | 3518 | 664 | -4.4 | -9.8 | ||
| 2024-10-11T23:41 | 3572 | 659 | -4.2 | -17.7 | ||
| 2024-10-11T23:41 | 3583 | 658 | 285 | 11 | ||
| 2024-10-11T23:42 | 3769 | 643 | -5.2 | -16.4 | ||
| 2024-10-11T23:42 | 3924 | 630 | 282 | 10 | ||
| 2024-10-11T23:42 | 3940 | 629 | -6.4 | -16.7 | ||
| 2024-10-11T23:43 | 4208 | 608 | 267 | 14 | ||
| 2024-10-11T23:43 | 4270 | 603 | -7.8 | -21.3 | ||
| 2024-10-11T23:44 | 4459 | 589 | -8.6 | -27.6 | ||
| 2024-10-11T23:44 | 4551 | 582 | 284 | 12 | ||
| 2024-10-11T23:45 | 4834 | 561 | -11.5 | -29.0 | ||
| 2024-10-11T23:45 | 4891 | 557 | 272 | 10 | ||
| 2024-10-11T23:46 | 5235 | 532 | 278 | 12 | ||
| 2024-10-11T23:46 | 5275 | 529 | -14.0 | -35.8 | ||
| 2024-10-11T23:46 | 5431 | 518 | 281 | 9 | ||
| 2024-10-11T23:47 | 5596 | 507 | -16.5 | -38.6 | ||
| 2024-10-11T23:47 | 5778 | 495 | 278 | 10 | ||
| 2024-10-11T23:48 | 5903 | 487 | -18.8 | -42.0 | ||
| 2024-10-11T23:48 | 6103 | 474 | 285 | 8 | ||
| 2024-10-11T23:49 | 6438 | 453 | 293 | 8 | ||
| 2024-10-11T23:50 | 6609 | 442 | -24.3 | -49.3 | ||
| 2024-10-11T23:50 | 6771 | 433 | 291 | 7 | ||
| 2024-10-11T23:51 | 7100 | 413 | 284 | 9 | ||
| 2024-10-11T23:52 | 7148 | 410 | -29.0 | -45.9 | ||
| 2024-10-11T23:52 | 7279 | 403 | -30.1 | -45.9 | ||
| 2024-10-11T23:52 | 7431 | 395 | 286 | 11 | ||
| 2024-10-11T23:53 | 7481 | 392 | -31.8 | -47.3 | ||
| 2024-10-11T23:53 | 7656 | 382 | -33.2 | -51.0 | ||
| 2024-10-11T23:53 | 7761 | 376 | 269 | 11 | ||
| 2024-10-11T23:54 | 8112 | 358 | 269 | 13 | ||
| 2024-10-11T23:55 | 8175 | 355 | -37.2 | -53.4 | ||
| 2024-10-11T23:55 | 8452 | 341 | 274 | 15 | ||
| 2024-10-11T23:56 | 8512 | 338 | -40.0 | -54.0 | ||
| 2024-10-11T23:56 | 8777 | 325 | 271 | 13 | ||
| 2024-10-11T23:57 | 9104 | 309 | 258 | 14 | ||
| 2024-10-11T23:58 | 9437 | 294 | 260 | 16 | ||
| 2024-10-11T23:58 | 9442 | 294 | -47.1 | |||
| 2024-10-11T23:59 | 9637 | 285 | -47.8 | |||
| 2024-10-11T23:59 | 9757 | 280 | 253 | 17 | ||
| 2024-10-12T00:00 | 9969 | 271 | 252 | 18 | ||
| 2024-10-12T00:01 | 10260 | 259 | 265 | 20 | ||
| 2024-10-12T00:01 | 10372 | 255 | -52.0 | |||
| 2024-10-12T00:02 | 10559 | 248 | 243 | 21 | ||
| 2024-10-12T00:02 | 10621 | 245 | -52.1 | |||
| 2024-10-12T00:03 | 10887 | 236 | 250 | 25 | ||
| 2024-10-12T00:03 | 11025 | 231 | -52.9 | |||
| 2024-10-12T00:04 | 11132 | 227 | 249 | 28 | ||
| 2024-10-12T00:04 | 11185 | 225 | -52.2 | |||
| 2024-10-12T00:05 | 11383 | 218 | 249 | 28 | ||
| 2024-10-12T00:05 | 11533 | 213 | -50.8 | |||
| 2024-10-12T00:05 | 11614 | 211 | 237 | 28 | ||
| 2024-10-12T00:06 | 11805 | 204 | -50.4 | |||
| 2024-10-12T00:06 | 11917 | 201 | 241 | 34 | ||
| 2024-10-12T00:07 | 12228 | 192 | 247 | 30 | ||
| 2024-10-12T00:08 | 12428 | 186 | -51.9 | |||
| 2024-10-12T00:08 | 12552 | 182 | 243 | 31 | ||
| 2024-10-12T00:09 | 12703 | 178 | -52.0 | |||
| 2024-10-12T00:09 | 12779 | 176 | 248 | 30 | ||
| 2024-10-12T00:10 | 13098 | 168 | 249 | 26 | ||
| 2024-10-12T00:10 | 13222 | 164 | -52.9 | |||
| 2024-10-12T00:11 | 13366 | 161 | -53.6 | |||
| 2024-10-12T00:11 | 13419 | 159 | 243 | 27 | ||
| 2024-10-12T00:12 | 13699 | 153 | -54.5 | |||
| 2024-10-12T00:12 | 13747 | 151 | 231 | 28 | ||
| 2024-10-12T00:13 | 14049 | 144 | -56.7 | |||
| 2024-10-12T00:13 | 14064 | 144 | 240 | 30 | ||
| 2024-10-12T00:13 | 14217 | 141 | -56.5 | |||
| 2024-10-12T00:14 | 14380 | 137 | 233 | 30 | ||
| 2024-10-12T00:15 | 14597 | 132 | 243 | 32 | ||
| 2024-10-12T00:15 | 14838 | 128 | -55.6 | 247 | 29 | |
| 2024-10-12T00:16 | 15147 | 122 | 249 | 28 | ||
| 2024-10-12T00:17 | 15305 | 119 | -57.2 | |||
| 2024-10-12T00:17 | 15458 | 116 | 252 | 25 | ||
| 2024-10-12T00:18 | 15603 | 113 | -56.7 | |||
| 2024-10-12T00:18 | 15664 | 112 | 247 | 19 | ||
| 2024-10-12T00:19 | 15962 | 107 | 244 | 22 | ||
| 2024-10-12T00:19 | 15990 | 106 | -56.5 | |||
| 2024-10-12T00:19 | 16102 | 105 | -56.1 | |||
| 2024-10-12T00:20 | 16306 | 101 | 242 | 22 | ||
| 2024-10-12T00:20 | 16329 | 101 | -56.6 | |||
| 2024-10-12T00:21 | 16504 | 98 | 248 | 22 | ||
| 2024-10-12T00:21 | 16621 | 96 | -56.9 | |||
| 2024-10-12T00:21 | 16721 | 95 | 234 | 15 | ||
| 2024-10-12T00:22 | 16889 | 92 | -56.9 | |||
| 2024-10-12T00:22 | 16952 | 91 | 223 | 19 | ||
| 2024-10-12T00:22 | 17049 | 90 | -56.5 | |||
| 2024-10-12T00:23 | 17214 | 88 | 224 | 21 | ||
| 2024-10-12T00:24 | 17578 | 83 | 218 | 24 | ||
| 2024-10-12T00:24 | 17869 | 79 | -56.6 | |||
| 2024-10-12T00:25 | 17941 | 78 | 231 | 17 | ||
| 2024-10-12T00:26 | 18283 | 74 | -57.4 | |||
| 2024-10-12T00:26 | 18291 | 74 | 244 | 16 | ||
| 2024-10-12T00:26 | 18525 | 71 | -56.3 | |||
| 2024-10-12T00:26 | 18569 | 71 | 232 | 16 | ||
| 2024-10-12T00:27 | 18707 | 69 | 238 | 20 | ||
| 2024-10-12T00:28 | 18952 | 67 | -55.0 | |||
| 2024-10-12T00:28 | 19001 | 66 | 221 | 16 | ||
| 2024-10-12T00:28 | 19214 | 64 | 218 | 18 | ||
| 2024-10-12T00:29 | 19461 | 62 | -55.3 | |||
| 2024-10-12T00:29 | 19595 | 60 | 223 | 12 | ||
| 2024-10-12T00:30 | 19899 | 57 | -57.7 | |||
| 2024-10-12T00:30 | 19920 | 57 | 241 | 9 | ||
| 2024-10-12T00:31 | 20169 | 55 | 190 | 9 | ||
| 2024-10-12T00:31 | 20517 | 52 | -58.2 | |||
| 2024-10-12T00:32 | 20580 | 52 | 222 | 16 | ||
| 2024-10-12T00:32 | 20908 | 49 | 250 | 10 | ||
| 2024-10-12T00:33 | 21077 | 48 | 243 | 7 | ||
| 2024-10-12T00:34 | 21403 | 45 | 233 | 7 | ||
| 2024-10-12T00:34 | 21597 | 44 | 188 | 6 | ||
| 2024-10-12T00:35 | 21953 | 41 | 237 | 6 | ||
| 2024-10-12T00:35 | 22108 | 40 | 216 | 7 | ||
| 2024-10-12T00:36 | 22186 | 40 | -58.5 | |||
| 2024-10-12T00:36 | 22411 | 39 | 257 | 10 | ||
| 2024-10-12T00:37 | 22700 | 37 | 304 | 4 | ||
| 2024-10-12T00:37 | 22785 | 36 | 347 | 1 | ||
| 2024-10-12T00:37 | 22926 | 36 | 45 | 3 | ||
| 2024-10-12T00:38 | 23033 | 35 | -55.8 | |||
| 2024-10-12T00:38 | 23090 | 35 | 69 | 2 | ||
| 2024-10-12T00:38 | 23165 | 34 | 108 | 3 | ||
| 2024-10-12T00:39 | 23429 | 33 | -57.1 | 118 | 6 | |
| 2024-10-12T00:39 | 23547 | 32 | 120 | 6 | ||
| 2024-10-12T00:39 | 23666 | 32 | 123 | 5 | ||
| 2024-10-12T00:40 | 23850 | 31 | 87 | 9 | ||
| 2024-10-12T00:40 | 23956 | 30 | -55.1 | |||
| 2024-10-12T00:41 | 24257 | 29 | 147 | 3 | ||
| 2024-10-12T00:42 | 24647 | 27 | 91 | 7 | ||
| 2024-10-12T00:42 | 24883 | 26 | 107 | 7 | ||
| 2024-10-12T00:43 | 25105 | 25 | -56.2 | |||
| 2024-10-12T00:43 | 25285 | 25 | 108 | 4 | ||
| 2024-10-12T00:44 | 25714 | 23 | 9 | 2 | ||
| 2024-10-12T00:45 | 25912 | 22 | 30 | 6 | ||
| 2024-10-12T00:45 | 26090 | 22 | 53 | 5 | ||
| 2024-10-12T00:46 | 26301 | 21 | 20 | 6 | ||
| 2024-10-12T00:46 | 26455 | 20 | 58 | 6 | ||
| 2024-10-12T00:47 | 26678 | 20 | -53.9 | |||
| 2024-10-12T00:47 | 26746 | 20 | 153 | 6 | ||
| 2024-10-12T00:47 | 26877 | 19 | 168 | 3 | ||
| 2024-10-12T00:48 | 27013 | 19 | 63 | 3 | ||
| 2024-10-12T00:48 | 27328 | 18 | 50 | 7 | ||
| 2024-10-12T00:49 | 27774 | 17 | -54.8 | 65 | 6 | |
| 2024-10-12T00:49 | 27869 | 16 | -54.3 | 65 | 5 | |
| 2024-10-12T11:30 | 18 | 1018 | 15.8 | 11.4 | 160 | 4 |
| 2024-10-12T11:30 | 22 | 1018 | 15.6 | 11.6 | 167 | 1 |
| 2024-10-12T11:30 | 53 | 1014 | 16.2 | 10.9 | ||
| 2024-10-12T11:30 | 87 | 1010 | 16.1 | 10.6 | 141 | 3 |
| 2024-10-12T11:30 | 105 | 1008 | 17.1 | 10.9 | ||
| 2024-10-12T11:31 | 154 | 1002 | 133 | 4 | ||
| 2024-10-12T11:31 | 200 | 997 | 191 | 2 | ||
| 2024-10-12T11:31 | 282 | 987 | 16.1 | 10.2 | ||
| 2024-10-12T11:31 | 345 | 980 | 219 | 3 | ||
| 2024-10-12T11:32 | 525 | 959 | 14.2 | 9.2 | ||
| 2024-10-12T11:32 | 596 | 951 | 240 | 7 | ||
| 2024-10-12T11:33 | 875 | 920 | 259 | 11 | ||
| 2024-10-12T11:33 | 922 | 915 | 11.7 | 7.0 | ||
| 2024-10-12T11:34 | 995 | 907 | 11.4 | 6.1 | ||
| 2024-10-12T11:34 | 1130 | 893 | 264 | 14 | ||
| 2024-10-12T11:34 | 1134 | 892 | 11.1 | 3.6 | ||
| 2024-10-12T11:35 | 1233 | 882 | 11.3 | 2.1 | ||
| 2024-10-12T11:35 | 1401 | 864 | 9.8 | 0.7 | ||
| 2024-10-12T11:35 | 1422 | 862 | 291 | 11 | ||
| 2024-10-12T11:35 | 1473 | 857 | 9.3 | -1.4 | ||
| 2024-10-12T11:36 | 1724 | 831 | 280 | 14 | ||
| 2024-10-12T11:37 | 1902 | 813 | 5.5 | 0.3 | ||
| 2024-10-12T11:37 | 2038 | 800 | 291 | 15 | ||
| 2024-10-12T11:38 | 2368 | 768 | 279 | 14 | ||
| 2024-10-12T11:39 | 2689 | 738 | -0.7 | -4.1 | 273 | 12 |
| 2024-10-12T11:40 | 2864 | 722 | -1.6 | -6.2 | ||
| 2024-10-12T11:40 | 3045 | 705 | 279 | 15 | ||
| 2024-10-12T11:40 | 3051 | 705 | -2.6 | -6.1 | ||
| 2024-10-12T11:41 | 3210 | 691 | -3.1 | -10.6 | ||
| 2024-10-12T11:41 | 3274 | 685 | -3.1 | -14.5 | ||
| 2024-10-12T11:41 | 3388 | 675 | -3.7 | -14.5 | ||
| 2024-10-12T11:41 | 3393 | 675 | 277 | 13 | ||
| 2024-10-12T11:42 | 3549 | 662 | 274 | 16 | ||
| 2024-10-12T11:42 | 3571 | 660 | -5.2 | -12.6 | ||
| 2024-10-12T11:42 | 3615 | 656 | -5.4 | -10.9 | ||
| 2024-10-12T11:42 | 3652 | 653 | -5.5 | -10.1 | ||
| 2024-10-12T11:42 | 3746 | 645 | -6.1 | -15.9 | ||
| 2024-10-12T11:43 | 3813 | 640 | -6.2 | -23.1 | ||
| 2024-10-12T11:43 | 3862 | 636 | 285 | 14 | ||
| 2024-10-12T11:43 | 3872 | 635 | -6.3 | -21.9 | ||
| 2024-10-12T11:43 | 3905 | 632 | -6.4 | -16.9 | ||
| 2024-10-12T11:43 | 3928 | 630 | -6.7 | -13.4 | ||
| 2024-10-12T11:43 | 3952 | 628 | -6.8 | -12.9 | ||
| 2024-10-12T11:43 | 3985 | 626 | -7.3 | -9.7 | ||
| 2024-10-12T11:43 | 4022 | 623 | -7.4 | -10.1 | ||
| 2024-10-12T11:43 | 4040 | 621 | -7.0 | -12.3 | ||
| 2024-10-12T11:43 | 4073 | 619 | -6.5 | -25.8 | ||
| 2024-10-12T11:44 | 4109 | 616 | -6.5 | -33.2 | ||
| 2024-10-12T11:44 | 4141 | 613 | 263 | 14 | ||
| 2024-10-12T11:45 | 4376 | 595 | -7.7 | -31.4 | ||
| 2024-10-12T11:45 | 4386 | 594 | 257 | 16 | ||
| 2024-10-12T11:45 | 4512 | 585 | -8.8 | -24.9 | ||
| 2024-10-12T11:45 | 4637 | 576 | -9.8 | -23.4 | ||
| 2024-10-12T11:46 | 4694 | 571 | 263 | 19 | ||
| 2024-10-12T11:46 | 4954 | 552 | -12.3 | -25.6 | ||
| 2024-10-12T11:47 | 5021 | 547 | 262 | 17 | ||
| 2024-10-12T11:47 | 5197 | 535 | -14.1 | -27.9 | ||
| 2024-10-12T11:47 | 5287 | 528 | 269 | 19 | ||
| 2024-10-12T11:48 | 5401 | 520 | 267 | 21 | ||
| 2024-10-12T11:48 | 5609 | 506 | -16.6 | -33.4 | ||
| 2024-10-12T11:49 | 5761 | 496 | 270 | 19 | ||
| 2024-10-12T11:49 | 5997 | 481 | 270 | 22 | ||
| 2024-10-12T11:50 | 6363 | 457 | 270 | 22 | ||
| 2024-10-12T11:50 | 6406 | 455 | -22.4 | -42.0 | ||
| 2024-10-12T11:51 | 6559 | 445 | -23.1 | -39.9 | ||
| 2024-10-12T11:51 | 6713 | 436 | 269 | 19 | ||
| 2024-10-12T11:52 | 6875 | 427 | -25.7 | -39.6 | ||
| 2024-10-12T11:52 | 7068 | 415 | 278 | 22 | ||
| 2024-10-12T11:53 | 7256 | 405 | -28.8 | -41.0 | ||
| 2024-10-12T11:53 | 7396 | 397 | -29.5 | -43.3 | ||
| 2024-10-12T11:53 | 7432 | 395 | 277 | 21 | ||
| 2024-10-12T11:54 | 7557 | 388 | -30.6 | -45.0 | ||
| 2024-10-12T11:54 | 7691 | 381 | -31.4 | -49.5 | ||
| 2024-10-12T11:54 | 7817 | 374 | 284 | 21 | ||
| 2024-10-12T11:55 | 8164 | 356 | -34.5 | -54.7 | ||
| 2024-10-12T11:55 | 8213 | 353 | 288 | 22 | ||
| 2024-10-12T11:56 | 8660 | 331 | 282 | 23 | ||
| 2024-10-12T11:57 | 8890 | 320 | -40.0 | -58.5 | ||
| 2024-10-12T11:57 | 9109 | 310 | 289 | 23 | ||
| 2024-10-12T11:58 | 9310 | 301 | 292 | 23 | ||
| 2024-10-12T11:59 | 9671 | 285 | 285 | 20 | ||
| 2024-10-12T11:59 | 9811 | 279 | -46.4 | |||
| 2024-10-12T12:00 | 9953 | 273 | 285 | 19 | ||
| 2024-10-12T12:00 | 10102 | 267 | -47.9 | |||
| 2024-10-12T12:01 | 10194 | 264 | 284 | 18 | ||
| 2024-10-12T12:01 | 10281 | 260 | -48.3 | |||
| 2024-10-12T12:01 | 10330 | 258 | 265 | 18 | ||
| 2024-10-12T12:02 | 10635 | 246 | 259 | 17 | ||
| 2024-10-12T12:02 | 10723 | 243 | -50.4 | |||
| 2024-10-12T12:03 | 10958 | 234 | 261 | 19 | ||
| 2024-10-12T12:04 | 11103 | 229 | -51.3 | |||
| 2024-10-12T12:04 | 11308 | 222 | 256 | 17 | ||
| 2024-10-12T12:05 | 11497 | 216 | 248 | 22 | ||
| 2024-10-12T12:05 | 11743 | 208 | 258 | 19 | ||
| 2024-10-12T12:06 | 11945 | 201 | -56.5 | |||
| 2024-10-12T12:06 | 12038 | 198 | 269 | 19 | ||
| 2024-10-12T12:06 | 12127 | 195 | -56.5 | |||
| 2024-10-12T12:07 | 12288 | 190 | -54.9 | |||
| 2024-10-12T12:07 | 12360 | 188 | 277 | 27 | ||
| 2024-10-12T12:07 | 12421 | 187 | -53.5 | |||
| 2024-10-12T12:08 | 12641 | 180 | -53.2 | |||
| 2024-10-12T12:08 | 12734 | 178 | 263 | 27 | ||
| 2024-10-12T12:09 | 12867 | 174 | -54.7 | |||
| 2024-10-12T12:09 | 12897 | 173 | 260 | 31 | ||
| 2024-10-12T12:09 | 13070 | 169 | -54.0 | |||
| 2024-10-12T12:10 | 13225 | 165 | 269 | 29 | ||
| 2024-10-12T12:10 | 13287 | 163 | -52.9 | |||
| 2024-10-12T12:10 | 13532 | 157 | -53.4 | |||
| 2024-10-12T12:11 | 13596 | 155 | 253 | 29 | ||
| 2024-10-12T12:12 | 13902 | 148 | -55.2 | |||
| 2024-10-12T12:12 | 13929 | 148 | 260 | 32 | ||
| 2024-10-12T12:12 | 14072 | 144 | -54.8 | |||
| 2024-10-12T12:13 | 14261 | 140 | 265 | 23 | ||
| 2024-10-12T12:13 | 14506 | 135 | 254 | 21 | ||
| 2024-10-12T12:14 | 14642 | 132 | -56.3 | |||
| 2024-10-12T12:14 | 14717 | 130 | 256 | 26 | ||
| 2024-10-12T12:14 | 14760 | 130 | -56.0 | |||
| 2024-10-12T12:15 | 15034 | 124 | 243 | 25 | ||
| 2024-10-12T12:16 | 15199 | 121 | -58.6 | |||
| 2024-10-12T12:16 | 15329 | 118 | 256 | 29 | ||
| 2024-10-12T12:17 | 15567 | 114 | -58.0 | |||
| 2024-10-12T12:17 | 15629 | 113 | 260 | 24 | ||
| 2024-10-12T12:18 | 15907 | 108 | 255 | 20 | ||
| 2024-10-12T12:18 | 16068 | 105 | -57.9 | |||
| 2024-10-12T12:19 | 16214 | 103 | -57.2 | |||
| 2024-10-12T12:19 | 16238 | 102 | 243 | 24 | ||
| 2024-10-12T12:20 | 16547 | 98 | -59.1 | |||
| 2024-10-12T12:20 | 16596 | 97 | 243 | 27 | ||
| 2024-10-12T12:21 | 16843 | 93 | -57.8 | |||
| 2024-10-12T12:21 | 16948 | 91 | 249 | 26 | ||
| 2024-10-12T12:22 | 17181 | 88 | 249 | 23 | ||
| 2024-10-12T12:23 | 17494 | 84 | 263 | 18 | ||
| 2024-10-12T12:23 | 17608 | 82 | -55.7 | |||
| 2024-10-12T12:23 | 17756 | 81 | -56.1 | |||
| 2024-10-12T12:23 | 17772 | 80 | 250 | 15 | ||
| 2024-10-12T12:24 | 17860 | 79 | -53.9 | |||
| 2024-10-12T12:24 | 18116 | 76 | 218 | 15 | ||
| 2024-10-12T12:25 | 18415 | 73 | -56.4 | 239 | 17 | |
| 2024-10-12T12:26 | 18629 | 70 | 249 | 20 | ||
| 2024-10-12T12:27 | 18937 | 67 | 260 | 16 | ||
| 2024-10-12T12:27 | 19073 | 66 | 249 | 10 | ||
| 2024-10-12T12:27 | 19140 | 65 | -54.2 | |||
| 2024-10-12T12:28 | 19271 | 64 | 232 | 12 | ||
| 2024-10-12T12:29 | 19624 | 60 | 228 | 5 | ||
| 2024-10-12T12:29 | 19739 | 59 | -56.5 | |||
| 2024-10-12T12:30 | 20003 | 57 | 239 | 10 | ||
| 2024-10-12T12:30 | 20070 | 56 | -57.4 | |||
| 2024-10-12T12:30 | 20195 | 55 | 240 | 10 | ||
| 2024-10-12T12:31 | 20405 | 53 | -55.5 | |||
| 2024-10-12T12:31 | 20528 | 52 | 199 | 10 | ||
| 2024-10-12T12:31 | 20538 | 52 | -55.2 | |||
| 2024-10-12T12:32 | 20931 | 49 | -56.5 | 252 | 11 | |
| 2024-10-12T12:33 | 21195 | 47 | 307 | 10 | ||
| 2024-10-12T12:33 | 21319 | 46 | -56.5 | |||
| 2024-10-12T12:33 | 21499 | 45 | 322 | 4 | ||
| 2024-10-12T12:34 | 21701 | 43 | -57.6 | |||
| 2024-10-12T12:34 | 21758 | 43 | 276 | 3 | ||
| 2024-10-12T12:35 | 21969 | 42 | 18 | 1 | ||
| 2024-10-12T12:35 | 22281 | 40 | -58.3 | 207 | 3 | |
| 2024-10-12T12:36 | 22494 | 38 | 206 | 5 | ||
| 2024-10-12T12:37 | 22812 | 36 | 261 | 9 | ||
| 2024-10-12T12:37 | 22917 | 36 | -58.3 | |||
| 2024-10-12T12:38 | 23208 | 34 | 285 | 5 | ||
| 2024-10-12T12:38 | 23492 | 33 | 34 | 3 | ||
| 2024-10-12T12:39 | 23533 | 32 | -55.2 | |||
| 2024-10-12T12:39 | 23693 | 32 | 73 | 4 | ||
| 2024-10-12T12:39 | 23853 | 31 | 40 | 3 | ||
| 2024-10-12T12:40 | 23999 | 30 | 121 | 3 | ||
| 2024-10-12T12:40 | 24169 | 29 | 135 | 5 | ||
| 2024-10-12T12:40 | 24218 | 29 | -54.5 | |||
| 2024-10-12T12:40 | 24259 | 29 | 142 | 2 | ||
| 2024-10-12T12:41 | 24373 | 28 | 61 | 3 | ||
| 2024-10-12T12:41 | 24672 | 27 | 72 | 9 | ||
| 2024-10-12T12:42 | 24962 | 26 | -55.0 | |||
| 2024-10-12T12:42 | 25014 | 26 | 88 | 9 | ||
| 2024-10-12T12:43 | 25450 | 24 | 108 | 4 | ||
| 2024-10-12T12:44 | 25633 | 23 | -56.6 | |||
| 2024-10-12T12:44 | 25717 | 23 | 86 | 3 | ||
| 2024-10-12T12:45 | 26122 | 22 | -55.6 | 55 | 2 | |
| 2024-10-12T23:30 | 18 | 1022 | 16.7 | 3.7 | 310 | 6 |
| 2024-10-12T23:30 | 21 | 1022 | 16.7 | 2.7 | 301 | 1 |
| 2024-10-12T23:30 | 41 | 1020 | 15.8 | 1.5 | ||
| 2024-10-12T23:30 | 50 | 1018 | 303 | 7 | ||
| 2024-10-12T23:31 | 328 | 985 | 295 | 12 | ||
| 2024-10-12T23:32 | 612 | 952 | 308 | 12 | ||
| 2024-10-12T23:33 | 923 | 917 | 313 | 13 | ||
| 2024-10-12T23:34 | 1156 | 891 | 5.1 | -2.0 | ||
| 2024-10-12T23:34 | 1217 | 885 | 310 | 13 | ||
| 2024-10-12T23:34 | 1331 | 872 | 3.9 | -4.6 | ||
| 2024-10-12T23:35 | 1419 | 863 | 3.1 | -2.2 | ||
| 2024-10-12T23:35 | 1456 | 859 | 2.8 | -3.8 | ||
| 2024-10-12T23:35 | 1499 | 854 | 2.7 | -7.0 | ||
| 2024-10-12T23:35 | 1531 | 851 | 318 | 12 | ||
| 2024-10-12T23:36 | 1777 | 825 | 316 | 14 | ||
| 2024-10-12T23:36 | 1806 | 822 | 0.8 | -11.0 | ||
| 2024-10-12T23:36 | 1891 | 814 | 1.1 | -26.2 | ||
| 2024-10-12T23:36 | 1922 | 811 | 2.0 | -38.9 | ||
| 2024-10-12T23:37 | 2141 | 789 | 295 | 19 | ||
| 2024-10-12T23:37 | 2148 | 788 | 1.4 | -43.2 | ||
| 2024-10-12T23:37 | 2331 | 770 | 0.9 | -43.5 | ||
| 2024-10-12T23:38 | 2549 | 749 | 298 | 19 | ||
| 2024-10-12T23:38 | 2714 | 734 | -0.6 | -50.7 | ||
| 2024-10-12T23:38 | 2830 | 724 | -0.6 | -44.5 | ||
| 2024-10-12T23:39 | 2902 | 717 | -0.3 | -35.5 | ||
| 2024-10-12T23:39 | 2921 | 715 | 300 | 23 | ||
| 2024-10-12T23:39 | 3100 | 700 | -1.0 | -28.9 | ||
| 2024-10-12T23:39 | 3117 | 698 | 297 | 28 | ||
| 2024-10-12T23:40 | 3419 | 672 | 297 | 25 | ||
| 2024-10-12T23:41 | 3567 | 660 | -3.9 | -24.2 | ||
| 2024-10-12T23:41 | 3709 | 648 | 302 | 29 | ||
| 2024-10-12T23:41 | 3806 | 640 | -4.8 | -25.5 | ||
| 2024-10-12T23:42 | 4005 | 624 | 298 | 27 | ||
| 2024-10-12T23:42 | 4042 | 621 | -6.3 | -27.4 | ||
| 2024-10-12T23:43 | 4192 | 609 | 296 | 26 | ||
| 2024-10-12T23:43 | 4364 | 596 | -6.6 | -31.4 | ||
| 2024-10-12T23:44 | 4501 | 586 | 297 | 24 | ||
| 2024-10-12T23:44 | 4645 | 575 | 289 | 24 | ||
| 2024-10-12T23:44 | 4657 | 574 | -8.5 | -34.7 | ||
| 2024-10-12T23:44 | 4792 | 564 | 288 | 24 | ||
| 2024-10-12T23:45 | 4934 | 554 | -10.2 | -39.6 | ||
| 2024-10-12T23:45 | 4991 | 550 | 284 | 27 | ||
| 2024-10-12T23:45 | 5077 | 543 | -11.1 | -43.5 | ||
| 2024-10-12T23:45 | 5188 | 536 | 284 | 23 | ||
| 2024-10-12T23:46 | 5415 | 520 | -13.6 | -47.3 | ||
| 2024-10-12T23:46 | 5556 | 510 | 278 | 24 | ||
| 2024-10-12T23:47 | 5911 | 487 | 281 | 25 | ||
| 2024-10-12T23:48 | 6064 | 477 | -19.3 | -48.0 | ||
| 2024-10-12T23:48 | 6262 | 464 | 284 | 24 | ||
| 2024-10-12T23:49 | 6398 | 456 | 283 | 26 | ||
| 2024-10-12T23:49 | 6502 | 449 | 281 | 24 | ||
| 2024-10-12T23:49 | 6621 | 442 | -23.8 | -52.9 | ||
| 2024-10-12T23:50 | 6878 | 427 | 283 | 24 | ||
| 2024-10-12T23:51 | 7182 | 409 | 285 | 26 | ||
| 2024-10-12T23:51 | 7255 | 405 | -29.2 | -58.8 | ||
| 2024-10-12T23:52 | 7574 | 387 | 283 | 27 | ||
| 2024-10-12T23:53 | 7885 | 370 | 283 | 27 | ||
| 2024-10-12T23:53 | 7957 | 366 | -35.4 | -56.2 | ||
| 2024-10-12T23:53 | 8100 | 359 | -36.0 | -55.2 | ||
| 2024-10-12T23:53 | 8181 | 355 | 276 | 27 | ||
| 2024-10-12T23:54 | 8446 | 341 | -38.4 | -56.6 | ||
| 2024-10-12T23:54 | 8469 | 340 | 279 | 29 | ||
| 2024-10-12T23:55 | 8621 | 333 | -40.0 | -57.3 | ||
| 2024-10-12T23:55 | 8810 | 324 | 275 | 29 | ||
| 2024-10-12T23:56 | 9144 | 308 | 275 | 30 | ||
| 2024-10-12T23:57 | 9264 | 303 | -45.0 | |||
| 2024-10-12T23:57 | 9475 | 293 | 276 | 28 | ||
| 2024-10-12T23:58 | 9667 | 285 | -46.7 | |||
| 2024-10-12T23:58 | 9689 | 284 | 272 | 32 | ||
| 2024-10-12T23:58 | 9833 | 278 | -46.9 | |||
| 2024-10-12T23:59 | 10024 | 270 | 270 | 31 | ||
| 2024-10-13T00:00 | 10347 | 257 | 267 | 32 | ||
| 2024-10-13T00:00 | 10419 | 254 | -51.3 | |||
| 2024-10-13T00:01 | 10639 | 245 | 270 | 32 | ||
| 2024-10-13T00:01 | 10699 | 243 | -50.4 | |||
| 2024-10-13T00:02 | 10926 | 235 | 265 | 33 | ||
| 2024-10-13T00:02 | 11051 | 231 | -49.0 | |||
| 2024-10-13T00:03 | 11263 | 223 | 263 | 33 | ||
| 2024-10-13T00:03 | 11276 | 223 | -49.0 | |||
| 2024-10-13T00:04 | 11639 | 211 | 265 | 30 | ||
| 2024-10-13T00:05 | 12024 | 199 | 267 | 29 | ||
| 2024-10-13T00:05 | 12134 | 195 | -50.9 | |||
| 2024-10-13T00:06 | 12379 | 188 | 261 | 28 | ||
| 2024-10-13T00:07 | 12711 | 179 | -53.5 | |||
| 2024-10-13T00:07 | 12739 | 178 | 268 | 30 | ||
| 2024-10-13T00:08 | 13057 | 169 | 263 | 24 | ||
| 2024-10-13T00:09 | 13371 | 161 | 264 | 27 | ||
| 2024-10-13T00:10 | 13655 | 154 | -55.3 | |||
| 2024-10-13T00:10 | 13705 | 153 | 255 | 27 | ||
| 2024-10-13T00:11 | 14027 | 146 | 263 | 30 | ||
| 2024-10-13T00:12 | 14304 | 139 | -56.7 | |||
| 2024-10-13T00:12 | 14318 | 139 | 268 | 29 | ||
| 2024-10-13T00:13 | 14561 | 134 | -57.5 | |||
| 2024-10-13T00:13 | 14583 | 133 | 265 | 32 | ||
| 2024-10-13T00:14 | 14856 | 128 | 271 | 30 | ||
| 2024-10-13T00:15 | 15173 | 121 | 276 | 28 | ||
| 2024-10-13T00:15 | 15254 | 120 | -58.6 | |||
| 2024-10-13T00:16 | 15533 | 115 | 277 | 26 | ||
| 2024-10-13T00:17 | 15895 | 108 | -60.6 | |||
| 2024-10-13T00:17 | 15901 | 108 | 260 | 24 | ||
| 2024-10-13T00:17 | 16126 | 104 | -61.4 | |||
| 2024-10-13T00:17 | 16132 | 104 | 256 | 27 | ||
| 2024-10-13T00:18 | 16409 | 100 | 268 | 32 | ||
| 2024-10-13T00:18 | 16424 | 99 | -61.1 | |||
| 2024-10-13T00:19 | 16539 | 98 | -59.7 | |||
| 2024-10-13T00:19 | 16663 | 96 | -59.3 | |||
| 2024-10-13T00:19 | 16709 | 95 | 280 | 26 | ||
| 2024-10-13T00:20 | 16909 | 92 | -58.0 | |||
| 2024-10-13T00:20 | 16988 | 91 | 277 | 23 | ||
| 2024-10-13T00:21 | 17234 | 87 | 266 | 20 | ||
| 2024-10-13T00:22 | 17575 | 83 | 268 | 21 | ||
| 2024-10-13T00:22 | 17744 | 81 | 265 | 19 | ||
| 2024-10-13T00:23 | 17967 | 78 | 250 | 16 | ||
| 2024-10-13T00:23 | 17983 | 78 | -59.5 | |||
| 2024-10-13T00:24 | 18328 | 73 | -61.0 | |||
| 2024-10-13T00:24 | 18364 | 73 | 259 | 18 | ||
| 2024-10-13T00:24 | 18547 | 71 | -59.6 | |||
| 2024-10-13T00:25 | 18633 | 70 | 245 | 14 | ||
| 2024-10-13T00:25 | 18805 | 68 | -59.9 | |||
| 2024-10-13T00:25 | 18965 | 66 | -59.3 | |||
| 2024-10-13T00:26 | 19023 | 66 | 255 | 19 | ||
| 2024-10-13T00:26 | 19246 | 63 | -56.7 | |||
| 2024-10-13T00:27 | 19412 | 62 | 254 | 20 | ||
| 2024-10-13T00:27 | 19694 | 59 | -57.0 | |||
| 2024-10-13T00:28 | 19799 | 58 | 251 | 19 | ||
| 2024-10-13T00:28 | 19901 | 57 | -56.2 | |||
| 2024-10-13T00:28 | 20127 | 55 | -54.6 | |||
| 2024-10-13T00:28 | 20137 | 55 | 270 | 18 | ||
| 2024-10-13T00:29 | 20222 | 54 | -52.7 | |||
| 2024-10-13T00:29 | 20339 | 53 | 278 | 8 | ||
| 2024-10-13T00:29 | 20484 | 52 | 258 | 6 | ||
| 2024-10-13T00:29 | 20546 | 52 | -54.1 | |||
| 2024-10-13T00:30 | 20762 | 50 | 220 | 6 | ||
| 2024-10-13T00:31 | 21152 | 47 | 234 | 9 | ||
| 2024-10-13T00:31 | 21249 | 46 | -58.5 | |||
| 2024-10-13T00:32 | 21469 | 45 | 257 | 8 | ||
| 2024-10-13T00:32 | 21689 | 43 | 299 | 4 | ||
| 2024-10-13T00:33 | 21854 | 42 | 330 | 4 | ||
| 2024-10-13T00:33 | 22005 | 41 | 53 | 3 | ||
| 2024-10-13T00:34 | 22180 | 40 | -56.6 | |||
| 2024-10-13T00:34 | 22212 | 40 | 55 | 1 | ||
| 2024-10-13T00:34 | 22357 | 39 | 90 | 3 | ||
| 2024-10-13T00:34 | 22540 | 38 | 87 | 5 | ||
| 2024-10-13T00:35 | 22746 | 37 | 109 | 5 | ||
| 2024-10-13T00:35 | 22921 | 36 | 120 | 2 | ||
| 2024-10-13T00:36 | 23081 | 35 | -57.8 | |||
| 2024-10-13T00:36 | 23343 | 33 | 326 | 2 | ||
| 2024-10-13T00:37 | 23594 | 32 | 304 | 2 | ||
| 2024-10-13T00:38 | 23998 | 30 | 141 | 2 | ||
| 2024-10-13T00:38 | 24060 | 30 | -58.6 | 136 | 4 | |
| 2024-10-13T11:30 | 18 | 1025 | 12.7 | 5.4 | 290 | 2 |
| 2024-10-13T11:30 | 22 | 1025 | 12.6 | 4.8 | 0 | 0 |
| 2024-10-13T11:30 | 52 | 1021 | 13.4 | 4.3 | ||
| 2024-10-13T11:31 | 184 | 1005 | 285 | 3 | ||
| 2024-10-13T11:31 | 201 | 1003 | 12.2 | 3.4 | ||
| 2024-10-13T11:31 | 472 | 971 | 321 | 8 | ||
| 2024-10-13T11:32 | 563 | 961 | 9.4 | 2.3 | ||
| 2024-10-13T11:32 | 827 | 930 | 323 | 6 | ||
| 2024-10-13T11:33 | 989 | 912 | 337 | 6 | ||
| 2024-10-13T11:34 | 1275 | 881 | 2.6 | 0.2 | ||
| 2024-10-13T11:34 | 1297 | 878 | 2.4 | -0.2 | ||
| 2024-10-13T11:34 | 1308 | 877 | 325 | 8 | ||
| 2024-10-13T11:34 | 1314 | 877 | 2.7 | -3.9 | ||
| 2024-10-13T11:34 | 1335 | 874 | 4.1 | -12.8 | ||
| 2024-10-13T11:34 | 1385 | 869 | 4.7 | -30.0 | ||
| 2024-10-13T11:35 | 1526 | 854 | 4.4 | -30.2 | ||
| 2024-10-13T11:35 | 1548 | 852 | 358 | 11 | ||
| 2024-10-13T11:35 | 1702 | 836 | 332 | 13 | ||
| 2024-10-13T11:35 | 1717 | 834 | 4.9 | -36.9 | ||
| 2024-10-13T11:35 | 1774 | 828 | 5.2 | -40.7 | ||
| 2024-10-13T11:36 | 1966 | 809 | 5.4 | -47.0 | ||
| 2024-10-13T11:36 | 2010 | 805 | 333 | 13 | ||
| 2024-10-13T11:36 | 2025 | 803 | 5.9 | -46.6 | ||
| 2024-10-13T11:37 | 2239 | 782 | 5.7 | -23.6 | ||
| 2024-10-13T11:37 | 2275 | 779 | 340 | 13 | ||
| 2024-10-13T11:38 | 2585 | 750 | 328 | 15 | ||
| 2024-10-13T11:38 | 2617 | 747 | 3.8 | -16.0 | ||
| 2024-10-13T11:39 | 2910 | 721 | 327 | 12 | ||
| 2024-10-13T11:39 | 3021 | 711 | 1.4 | -19.7 | ||
| 2024-10-13T11:39 | 3043 | 709 | 330 | 10 | ||
| 2024-10-13T11:40 | 3213 | 694 | 332 | 14 | ||
| 2024-10-13T11:40 | 3401 | 678 | -0.6 | -20.8 | ||
| 2024-10-13T11:41 | 3544 | 666 | 326 | 14 | ||
| 2024-10-13T11:41 | 3683 | 654 | -2.5 | -22.4 | ||
| 2024-10-13T11:42 | 3826 | 642 | 315 | 13 | ||
| 2024-10-13T11:42 | 3961 | 632 | -3.1 | -24.1 | ||
| 2024-10-13T11:43 | 4130 | 618 | 316 | 16 | ||
| 2024-10-13T11:43 | 4262 | 608 | 321 | 14 | ||
| 2024-10-13T11:44 | 4406 | 597 | 318 | 17 | ||
| 2024-10-13T11:44 | 4539 | 587 | -7.6 | -30.6 | ||
| 2024-10-13T11:45 | 4721 | 573 | 289 | 17 | ||
| 2024-10-13T11:45 | 4903 | 560 | 280 | 14 | ||
| 2024-10-13T11:46 | 5005 | 552 | -10.8 | -37.6 | ||
| 2024-10-13T11:46 | 5205 | 538 | 271 | 14 | ||
| 2024-10-13T11:47 | 5366 | 527 | -13.2 | -40.6 | ||
| 2024-10-13T11:47 | 5407 | 524 | 265 | 14 | ||
| 2024-10-13T11:48 | 5699 | 504 | -16.0 | -45.5 | ||
| 2024-10-13T11:48 | 5721 | 503 | 272 | 16 | ||
| 2024-10-13T11:49 | 5939 | 488 | 270 | 14 | ||
| 2024-10-13T11:49 | 6023 | 483 | 270 | 18 | ||
| 2024-10-13T11:49 | 6149 | 475 | 273 | 16 | ||
| 2024-10-13T11:50 | 6486 | 453 | 277 | 16 | ||
| 2024-10-13T11:51 | 6822 | 433 | 278 | 16 | ||
| 2024-10-13T11:52 | 7111 | 416 | -28.0 | -56.1 | ||
| 2024-10-13T11:52 | 7164 | 413 | 281 | 18 | ||
| 2024-10-13T11:53 | 7397 | 399 | 283 | 19 | ||
| 2024-10-13T11:54 | 7650 | 385 | -32.4 | -58.0 | ||
| 2024-10-13T11:54 | 7741 | 380 | 284 | 21 | ||
| 2024-10-13T11:54 | 7882 | 373 | -34.0 | -58.0 | ||
| 2024-10-13T11:55 | 8081 | 362 | 279 | 21 | ||
| 2024-10-13T11:56 | 8420 | 345 | 277 | 20 | ||
| 2024-10-13T11:56 | 8566 | 338 | -40.0 | -51.3 | ||
| 2024-10-13T11:57 | 8749 | 329 | 285 | 21 | ||
| 2024-10-13T11:58 | 9069 | 314 | 288 | 22 | ||
| 2024-10-13T11:59 | 9388 | 299 | 286 | 21 | ||
| 2024-10-13T11:59 | 9497 | 294 | -47.5 | |||
| 2024-10-13T12:00 | 9706 | 285 | 289 | 21 | ||
| 2024-10-13T12:01 | 10024 | 271 | -50.7 | |||
| 2024-10-13T12:01 | 10030 | 271 | 289 | 21 | ||
| 2024-10-13T12:02 | 10366 | 257 | 292 | 21 | ||
| 2024-10-13T12:03 | 10690 | 245 | 291 | 22 | ||
| 2024-10-13T12:03 | 10716 | 244 | -54.8 | |||
| 2024-10-13T12:03 | 10870 | 238 | 284 | 22 | ||
| 2024-10-13T12:04 | 11046 | 231 | 284 | 26 | ||
| 2024-10-13T12:04 | 11155 | 227 | -54.3 | |||
| 2024-10-13T12:05 | 11340 | 221 | 290 | 29 | ||
| 2024-10-13T12:06 | 11602 | 212 | -54.3 | |||
| 2024-10-13T12:06 | 11639 | 211 | 285 | 29 | ||
| 2024-10-13T12:07 | 11847 | 204 | 279 | 29 | ||
| 2024-10-13T12:07 | 11853 | 204 | -51.8 | |||
| 2024-10-13T12:07 | 11967 | 200 | -51.7 | |||
| 2024-10-13T12:07 | 12082 | 197 | -51.7 | |||
| 2024-10-13T12:07 | 12093 | 197 | 275 | 29 | ||
| 2024-10-13T12:08 | 12309 | 190 | 275 | 33 | ||
| 2024-10-13T12:09 | 12514 | 184 | 278 | 36 | ||
| 2024-10-13T12:09 | 12519 | 184 | -51.7 | |||
| 2024-10-13T12:09 | 12729 | 178 | 278 | 30 | ||
| 2024-10-13T12:10 | 12912 | 173 | -51.0 | |||
| 2024-10-13T12:10 | 13012 | 171 | 270 | 32 | ||
| 2024-10-13T12:11 | 13304 | 163 | 281 | 34 | ||
| 2024-10-13T12:12 | 13517 | 158 | -51.6 | |||
| 2024-10-13T12:12 | 13610 | 156 | 276 | 34 | ||
| 2024-10-13T12:14 | 13923 | 148 | 275 | 32 | ||
| 2024-10-13T12:14 | 14127 | 144 | -54.0 | |||
| 2024-10-13T12:14 | 14220 | 142 | 277 | 32 | ||
| 2024-10-13T12:15 | 14519 | 135 | 274 | 34 | ||
| 2024-10-13T12:16 | 14756 | 130 | -54.9 | |||
| 2024-10-13T12:16 | 14844 | 128 | 280 | 34 | ||
| 2024-10-13T12:17 | 15176 | 122 | 281 | 30 | ||
| 2024-10-13T12:18 | 15261 | 120 | -56.7 | |||
| 2024-10-13T12:18 | 15489 | 116 | 276 | 31 | ||
| 2024-10-13T12:19 | 15551 | 115 | -58.4 | |||
| 2024-10-13T12:19 | 15805 | 110 | 277 | 30 | ||
| 2024-10-13T12:20 | 15971 | 107 | -60.5 | |||
| 2024-10-13T12:20 | 16138 | 105 | 275 | 32 | ||
| 2024-10-13T12:21 | 16370 | 101 | 275 | 27 | ||
| 2024-10-13T12:21 | 16453 | 99 | -61.5 | |||
| 2024-10-13T12:22 | 16648 | 96 | 278 | 27 | ||
| 2024-10-13T12:23 | 16927 | 92 | 270 | 21 | ||
| 2024-10-13T12:24 | 17244 | 88 | 271 | 22 | ||
| 2024-10-13T12:25 | 17432 | 85 | -61.0 | |||
| 2024-10-13T12:25 | 17512 | 84 | 260 | 16 | ||
| 2024-10-13T12:26 | 17822 | 80 | 238 | 17 | ||
| 2024-10-13T12:27 | 18067 | 77 | -62.5 | 253 | 20 | |
| 2024-10-13T12:27 | 18279 | 74 | 267 | 19 | ||
| 2024-10-13T12:27 | 18423 | 72 | -62.8 | |||
| 2024-10-13T12:28 | 18675 | 69 | 259 | 20 | ||
| 2024-10-13T12:28 | 18685 | 69 | -62.1 | |||
| 2024-10-13T12:29 | 18912 | 67 | 278 | 18 | ||
| 2024-10-13T12:29 | 19100 | 65 | 287 | 17 | ||
| 2024-10-13T12:30 | 19245 | 63 | -61.7 | |||
| 2024-10-13T12:30 | 19303 | 63 | 281 | 18 | ||
| 2024-10-13T12:31 | 19607 | 60 | 285 | 19 | ||
| 2024-10-13T12:32 | 19958 | 56 | 284 | 12 | ||
| 2024-10-13T12:32 | 20060 | 56 | -61.1 | |||
| 2024-10-13T12:32 | 20205 | 54 | -60.5 | |||
| 2024-10-13T12:33 | 20309 | 53 | 273 | 18 | ||
| 2024-10-13T12:33 | 20539 | 51 | -56.9 | |||
| 2024-10-13T12:34 | 20627 | 51 | -55.2 | |||
| 2024-10-13T12:34 | 20664 | 50 | 249 | 13 | ||
| 2024-10-13T12:35 | 20986 | 48 | -56.2 | |||
| 2024-10-13T12:35 | 21052 | 47 | 256 | 15 | ||
| 2024-10-13T12:36 | 21432 | 45 | 297 | 3 | ||
| 2024-10-13T12:36 | 21445 | 45 | -53.0 | |||
| 2024-10-13T12:37 | 21814 | 42 | 227 | 4 | ||
| 2024-10-13T12:37 | 21874 | 42 | -56.6 | 230 | 5 | |
| 2024-10-13T23:30 | 18 | 1027 | 13.4 | 0.8 | 130 | 3 |
| 2024-10-13T23:30 | 22 | 1026 | 13.7 | 0.3 | 0 | 0 |
| 2024-10-13T23:30 | 29 | 1025 | 14.4 | 0.6 | ||
| 2024-10-13T23:30 | 46 | 1023 | 13.0 | -1.7 | ||
| 2024-10-13T23:30 | 110 | 1015 | 130 | 3 | ||
| 2024-10-13T23:30 | 160 | 1009 | 11.9 | -2.0 | ||
| 2024-10-13T23:31 | 193 | 1005 | 12.2 | 0.0 | ||
| 2024-10-13T23:31 | 244 | 999 | 152 | 6 | ||
| 2024-10-13T23:31 | 352 | 987 | 12.0 | -3.4 | ||
| 2024-10-13T23:32 | 572 | 961 | 10.7 | -12.7 | ||
| 2024-10-13T23:32 | 583 | 960 | 157 | 7 | ||
| 2024-10-13T23:32 | 638 | 953 | 10.8 | -17.5 | ||
| 2024-10-13T23:32 | 802 | 935 | 153 | 3 | ||
| 2024-10-13T23:33 | 867 | 928 | 10.7 | -19.7 | ||
| 2024-10-13T23:33 | 1097 | 902 | 1 | 3 | ||
| 2024-10-13T23:34 | 1201 | 891 | 8.6 | -9.8 | ||
| 2024-10-13T23:34 | 1366 | 873 | 8.3 | -8.3 | ||
| 2024-10-13T23:34 | 1428 | 867 | 2 | 6 | ||
| 2024-10-13T23:34 | 1480 | 861 | 9.5 | -5.6 | ||
| 2024-10-13T23:35 | 1658 | 843 | 8.4 | -7.4 | ||
| 2024-10-13T23:35 | 1715 | 837 | 16 | 5 | ||
| 2024-10-13T23:35 | 1738 | 835 | 8.7 | -5.5 | ||
| 2024-10-13T23:36 | 1907 | 818 | 7.7 | -7.6 | ||
| 2024-10-13T23:36 | 1986 | 810 | 20 | 8 | ||
| 2024-10-13T23:37 | 2306 | 779 | 18 | 3 | ||
| 2024-10-13T23:37 | 2373 | 773 | 5.3 | -9.7 | ||
| 2024-10-13T23:37 | 2452 | 765 | 349 | 2 | ||
| 2024-10-13T23:38 | 2562 | 755 | 292 | 3 | ||
| 2024-10-13T23:38 | 2692 | 743 | 3.2 | -12.3 | ||
| 2024-10-13T23:38 | 2756 | 737 | 339 | 4 | ||
| 2024-10-13T23:39 | 2946 | 720 | 1.3 | -14.4 | ||
| 2024-10-13T23:39 | 3030 | 712 | 288 | 5 | ||
| 2024-10-13T23:39 | 3138 | 703 | 297 | 6 | ||
| 2024-10-13T23:39 | 3156 | 701 | 1.2 | -19.9 | ||
| 2024-10-13T23:40 | 3487 | 673 | 277 | 8 | ||
| 2024-10-13T23:41 | 3844 | 643 | 267 | 9 | ||
| 2024-10-13T23:42 | 3932 | 636 | -5.2 | -21.3 | ||
| 2024-10-13T23:42 | 4136 | 620 | -5.9 | -24.2 | ||
| 2024-10-13T23:42 | 4202 | 614 | 265 | 10 | ||
| 2024-10-13T23:43 | 4500 | 591 | 274 | 9 | ||
| 2024-10-13T23:44 | 4760 | 572 | -10.4 | -29.6 | ||
| 2024-10-13T23:44 | 4854 | 565 | 274 | 9 | ||
| 2024-10-13T23:45 | 5160 | 543 | -13.3 | -36.0 | ||
| 2024-10-13T23:45 | 5194 | 540 | 270 | 9 | ||
| 2024-10-13T23:46 | 5352 | 529 | -13.9 | -38.1 | ||
| 2024-10-13T23:46 | 5460 | 522 | 267 | 11 | ||
| 2024-10-13T23:46 | 5522 | 517 | -15.0 | -39.9 | ||
| 2024-10-13T23:47 | 5694 | 506 | 273 | 11 | ||
| 2024-10-13T23:48 | 5990 | 486 | 284 | 10 | ||
| 2024-10-13T23:48 | 6172 | 474 | -18.8 | -39.1 | ||
| 2024-10-13T23:48 | 6196 | 473 | 285 | 11 | ||
| 2024-10-13T23:49 | 6503 | 454 | -21.4 | -42.6 | ||
| 2024-10-13T23:49 | 6542 | 451 | 279 | 14 | ||
| 2024-10-13T23:50 | 6774 | 437 | 282 | 17 | ||
| 2024-10-13T23:50 | 6896 | 430 | -24.1 | -43.4 | ||
| 2024-10-13T23:51 | 7076 | 420 | 281 | 15 | ||
| 2024-10-13T23:51 | 7344 | 404 | -27.0 | -49.5 | ||
| 2024-10-13T23:52 | 7450 | 398 | 276 | 13 | ||
| 2024-10-13T23:53 | 7785 | 380 | -29.8 | -53.6 | ||
| 2024-10-13T23:53 | 7822 | 378 | 274 | 13 | ||
| 2024-10-13T23:54 | 8195 | 359 | 279 | 13 | ||
| 2024-10-13T23:54 | 8382 | 349 | -35.0 | -49.3 | ||
| 2024-10-13T23:54 | 8484 | 344 | 284 | 15 | ||
| 2024-10-13T23:55 | 8747 | 331 | -38.3 | -50.0 | ||
| 2024-10-13T23:55 | 8836 | 327 | 283 | 15 | ||
| 2024-10-13T23:56 | 8994 | 320 | -40.0 | -55.3 | ||
| 2024-10-13T23:56 | 9000 | 319 | -40.0 | -55.3 | ||
| 2024-10-13T23:56 | 9006 | 319 | 283 | 15 | ||
| 2024-10-13T23:56 | 9206 | 310 | 295 | 12 | ||
| 2024-10-13T23:57 | 9480 | 298 | -43.1 | |||
| 2024-10-13T23:57 | 9516 | 296 | 283 | 19 | ||
| 2024-10-13T23:58 | 9730 | 287 | 287 | 21 | ||
| 2024-10-13T23:59 | 10097 | 271 | 288 | 22 | ||
| 2024-10-14T00:00 | 10458 | 257 | 287 | 23 | ||
| 2024-10-14T00:01 | 10807 | 243 | 289 | 22 | ||
| 2024-10-14T00:01 | 10929 | 238 | -55.7 | |||
| 2024-10-14T00:02 | 11003 | 236 | 289 | 26 | ||
| 2024-10-14T00:02 | 11148 | 230 | 287 | 30 | ||
| 2024-10-14T00:02 | 11217 | 228 | -55.7 | |||
| 2024-10-14T00:03 | 11470 | 219 | 289 | 29 | ||
| 2024-10-14T00:04 | 11785 | 208 | 282 | 29 | ||
| 2024-10-14T00:05 | 12079 | 199 | -58.9 | |||
| 2024-10-14T00:05 | 12110 | 198 | 285 | 31 | ||
| 2024-10-14T00:06 | 12408 | 189 | 275 | 32 | ||
| 2024-10-14T00:06 | 12452 | 187 | -56.8 | |||
| 2024-10-14T00:07 | 12649 | 182 | -55.9 | |||
| 2024-10-14T00:07 | 12703 | 180 | 281 | 36 | ||
| 2024-10-14T00:08 | 13008 | 172 | 278 | 35 | ||
| 2024-10-14T00:08 | 13153 | 168 | -54.7 | |||
| 2024-10-14T00:09 | 13330 | 163 | 269 | 38 | ||
| 2024-10-14T00:09 | 13421 | 161 | -55.7 | |||
| 2024-10-14T00:10 | 13645 | 156 | 270 | 37 | ||
| 2024-10-14T00:10 | 13727 | 154 | -55.0 | |||
| 2024-10-14T00:11 | 13939 | 148 | 273 | 39 | ||
| 2024-10-14T00:11 | 14126 | 144 | -56.1 | |||
| 2024-10-14T00:12 | 14152 | 144 | 271 | 36 | ||
| 2024-10-14T00:12 | 14416 | 138 | 275 | 36 | ||
| 2024-10-14T00:13 | 14642 | 133 | -58.5 | |||
| 2024-10-14T00:13 | 14648 | 133 | 265 | 31 | ||
| 2024-10-14T00:14 | 14967 | 126 | 268 | 37 | ||
| 2024-10-14T00:15 | 15128 | 123 | -59.7 | |||
| 2024-10-14T00:15 | 15194 | 122 | 278 | 32 | ||
| 2024-10-14T00:16 | 15512 | 116 | -59.1 | |||
| 2024-10-14T00:16 | 15517 | 115 | 270 | 24 | ||
| 2024-10-14T00:17 | 15808 | 110 | -59.7 | |||
| 2024-10-14T00:17 | 15826 | 110 | 276 | 22 | ||
| 2024-10-14T00:17 | 15984 | 107 | 271 | 23 | ||
| 2024-10-14T00:18 | 16109 | 105 | 268 | 25 | ||
| 2024-10-14T00:18 | 16301 | 102 | -60.4 | |||
| 2024-10-14T00:19 | 16440 | 100 | 266 | 20 | ||
| 2024-10-14T00:20 | 16775 | 94 | 268 | 18 | ||
| 2024-10-14T00:20 | 16824 | 94 | -61.7 | |||
| 2024-10-14T00:21 | 17103 | 89 | 255 | 19 | ||
| 2024-10-14T00:21 | 17235 | 88 | -61.8 | |||
| 2024-10-14T00:22 | 17384 | 85 | 272 | 22 | ||
| 2024-10-14T00:23 | 17728 | 81 | 249 | 13 | ||
| 2024-10-14T00:24 | 18071 | 76 | 251 | 18 | ||
| 2024-10-14T00:24 | 18366 | 73 | 261 | 13 | ||
| 2024-10-14T00:24 | 18393 | 73 | -63.3 | |||
| 2024-10-14T00:25 | 18642 | 70 | -62.7 | |||
| 2024-10-14T00:25 | 18669 | 69 | 254 | 17 | ||
| 2024-10-14T00:26 | 18971 | 66 | -61.0 | |||
| 2024-10-14T00:26 | 19025 | 65 | 288 | 10 | ||
| 2024-10-14T00:27 | 19201 | 64 | 261 | 7 | ||
| 2024-10-14T00:27 | 19467 | 61 | 258 | 12 | ||
| 2024-10-14T00:28 | 19491 | 61 | -61.2 | |||
| 2024-10-14T00:28 | 19848 | 57 | 267 | 14 | ||
| 2024-10-14T00:29 | 20056 | 55 | 272 | 14 | ||
| 2024-10-14T00:30 | 20368 | 53 | -59.3 | |||
| 2024-10-14T00:30 | 20440 | 52 | 300 | 18 | ||
| 2024-10-14T00:31 | 20838 | 49 | 318 | 7 | ||
| 2024-10-14T00:32 | 21181 | 46 | 263 | 6 | ||
| 2024-10-14T00:32 | 21209 | 46 | -58.1 | |||
| 2024-10-14T00:32 | 21303 | 45 | -58.4 | 294 | 7 | |
| 2024-10-14T11:30 | 18 | 1023 | 15.0 | 8.5 | 120 | 3 |
| 2024-10-14T11:30 | 22 | 1023 | 14.8 | 8.3 | 0 | 0 |
| 2024-10-14T11:30 | 101 | 1014 | 14.6 | 7.4 | ||
| 2024-10-14T11:30 | 119 | 1011 | 128 | 3 | ||
| 2024-10-14T11:31 | 284 | 992 | 170 | 6 | ||
| 2024-10-14T11:31 | 333 | 986 | 12.7 | 6.7 | ||
| 2024-10-14T11:31 | 437 | 974 | 12.5 | 7.0 | ||
| 2024-10-14T11:31 | 539 | 962 | 177 | 14 | ||
| 2024-10-14T11:32 | 697 | 944 | 10.2 | 6.4 | ||
| 2024-10-14T11:32 | 702 | 943 | 171 | 15 | ||
| 2024-10-14T11:32 | 821 | 930 | 165 | 18 | ||
| 2024-10-14T11:33 | 883 | 923 | 9.3 | 4.5 | ||
| 2024-10-14T11:33 | 911 | 920 | 9.2 | 5.0 | ||
| 2024-10-14T11:33 | 931 | 918 | 9.2 | 5.0 | ||
| 2024-10-14T11:33 | 967 | 914 | 9.7 | -1.1 | ||
| 2024-10-14T11:33 | 987 | 912 | 11.7 | -20.2 | ||
| 2024-10-14T11:33 | 990 | 911 | 170 | 17 | ||
| 2024-10-14T11:33 | 1010 | 909 | 12.7 | -31.5 | ||
| 2024-10-14T11:34 | 1093 | 900 | 13.2 | -42.1 | ||
| 2024-10-14T11:34 | 1101 | 899 | 179 | 12 | ||
| 2024-10-14T11:34 | 1240 | 884 | 13.3 | -42.1 | ||
| 2024-10-14T11:35 | 1386 | 869 | 197 | 10 | ||
| 2024-10-14T11:35 | 1509 | 857 | 12.0 | -24.6 | ||
| 2024-10-14T11:36 | 1765 | 831 | 199 | 8 | ||
| 2024-10-14T11:36 | 2045 | 803 | 7.5 | -16.0 | ||
| 2024-10-14T11:37 | 2103 | 797 | 186 | 9 | ||
| 2024-10-14T11:37 | 2156 | 792 | 7.6 | -14.0 | ||
| 2024-10-14T11:37 | 2396 | 769 | 207 | 8 | ||
| 2024-10-14T11:38 | 2519 | 758 | 201 | 7 | ||
| 2024-10-14T11:38 | 2592 | 751 | 4.2 | -14.6 | ||
| 2024-10-14T11:39 | 2863 | 726 | 1.9 | -15.6 | ||
| 2024-10-14T11:39 | 2906 | 722 | 226 | 8 | ||
| 2024-10-14T11:39 | 3074 | 707 | 0.4 | -17.4 | ||
| 2024-10-14T11:39 | 3153 | 700 | 228 | 9 | ||
| 2024-10-14T11:40 | 3277 | 690 | -0.9 | -20.0 | ||
| 2024-10-14T11:40 | 3312 | 687 | 231 | 10 | ||
| 2024-10-14T11:40 | 3472 | 673 | -2.2 | -21.6 | ||
| 2024-10-14T11:41 | 3545 | 667 | -2.0 | -25.2 | ||
| 2024-10-14T11:41 | 3591 | 663 | 233 | 13 | ||
| 2024-10-14T11:41 | 3704 | 653 | -1.7 | -24.3 | ||
| 2024-10-14T11:41 | 3738 | 651 | 254 | 9 | ||
| 2024-10-14T11:42 | 3895 | 638 | -2.7 | -29.2 | ||
| 2024-10-14T11:42 | 3960 | 633 | 259 | 9 | ||
| 2024-10-14T11:43 | 4305 | 606 | 273 | 10 | ||
| 2024-10-14T11:44 | 4627 | 581 | 274 | 10 | ||
| 2024-10-14T11:44 | 4708 | 575 | -9.3 | -33.5 | ||
| 2024-10-14T11:45 | 4839 | 565 | 262 | 10 | ||
| 2024-10-14T11:46 | 5231 | 537 | 254 | 13 | ||
| 2024-10-14T11:46 | 5381 | 527 | -14.0 | -35.8 | ||
| 2024-10-14T11:46 | 5599 | 512 | -15.7 | -34.1 | ||
| 2024-10-14T11:47 | 5632 | 509 | 252 | 13 | ||
| 2024-10-14T11:47 | 5658 | 508 | -16.1 | -29.4 | ||
| 2024-10-14T11:47 | 5689 | 506 | -16.3 | -27.1 | ||
| 2024-10-14T11:47 | 5726 | 503 | -16.7 | -23.8 | ||
| 2024-10-14T11:47 | 5801 | 498 | -17.3 | -26.7 | ||
| 2024-10-14T11:47 | 5903 | 491 | -17.9 | -29.1 | ||
| 2024-10-14T11:47 | 5909 | 491 | 256 | 16 | ||
| 2024-10-14T11:48 | 5989 | 486 | -18.1 | -23.2 | ||
| 2024-10-14T11:48 | 6063 | 481 | 261 | 16 | ||
| 2024-10-14T11:48 | 6119 | 477 | -19.1 | -22.3 | ||
| 2024-10-14T11:48 | 6220 | 471 | -19.9 | -23.7 | ||
| 2024-10-14T11:48 | 6280 | 467 | -20.2 | -28.6 | ||
| 2024-10-14T11:49 | 6347 | 463 | -20.5 | -32.3 | ||
| 2024-10-14T11:49 | 6378 | 461 | 260 | 14 | ||
| 2024-10-14T11:49 | 6445 | 457 | -20.9 | -34.3 | ||
| 2024-10-14T11:50 | 6635 | 445 | 266 | 16 | ||
| 2024-10-14T11:50 | 6804 | 435 | 263 | 18 | ||
| 2024-10-14T11:50 | 6894 | 430 | -23.2 | -41.0 | ||
| 2024-10-14T11:51 | 7114 | 417 | 267 | 17 | ||
| 2024-10-14T11:51 | 7143 | 415 | -25.1 | -41.6 | ||
| 2024-10-14T11:51 | 7257 | 409 | -25.3 | -39.6 | ||
| 2024-10-14T11:52 | 7331 | 405 | 270 | 23 | ||
| 2024-10-14T11:52 | 7479 | 396 | 266 | 24 | ||
| 2024-10-14T11:52 | 7504 | 395 | -27.1 | -34.2 | ||
| 2024-10-14T11:52 | 7649 | 387 | 258 | 28 | ||
| 2024-10-14T11:52 | 7656 | 387 | -27.5 | -30.4 | ||
| 2024-10-14T11:53 | 7977 | 370 | -30.2 | -31.0 | ||
| 2024-10-14T11:53 | 8051 | 366 | 259 | 30 | ||
| 2024-10-14T11:54 | 8222 | 357 | -32.1 | -33.5 | ||
| 2024-10-14T11:54 | 8418 | 347 | 264 | 30 | ||
| 2024-10-14T11:54 | 8450 | 346 | -34.2 | -35.5 | ||
| 2024-10-14T11:54 | 8481 | 344 | -34.2 | -38.5 | ||
| 2024-10-14T11:55 | 8519 | 342 | -33.9 | -46.8 | ||
| 2024-10-14T11:55 | 8570 | 340 | -34.0 | -49.7 | ||
| 2024-10-14T11:55 | 8799 | 329 | 264 | 31 | ||
| 2024-10-14T11:55 | 8871 | 326 | -35.9 | -63.8 | ||
| 2024-10-14T11:56 | 9190 | 311 | 266 | 33 | ||
| 2024-10-14T11:57 | 9333 | 305 | -38.6 | -60.6 | ||
| 2024-10-14T11:57 | 9473 | 298 | -38.7 | -58.2 | ||
| 2024-10-14T11:57 | 9574 | 294 | -39.2 | -49.4 | ||
| 2024-10-14T11:57 | 9587 | 293 | 272 | 41 | ||
| 2024-10-14T11:58 | 9665 | 290 | -39.8 | -55.1 | ||
| 2024-10-14T11:58 | 9691 | 289 | -40.0 | -54.8 | ||
| 2024-10-14T11:58 | 9979 | 277 | 276 | 44 | ||
| 2024-10-14T11:59 | 10377 | 261 | 272 | 45 | ||
| 2024-10-14T12:00 | 10762 | 246 | 274 | 47 | ||
| 2024-10-14T12:01 | 11090 | 234 | 273 | 45 | ||
| 2024-10-14T12:02 | 11306 | 226 | -53.9 | |||
| 2024-10-14T12:02 | 11404 | 223 | 271 | 45 | ||
| 2024-10-14T12:02 | 11610 | 216 | -55.4 | |||
| 2024-10-14T12:03 | 11788 | 210 | 276 | 42 | ||
| 2024-10-14T12:03 | 11846 | 208 | -55.1 | |||
| 2024-10-14T12:04 | 12086 | 200 | 276 | 38 | ||
| 2024-10-14T12:04 | 12200 | 197 | -56.4 | |||
| 2024-10-14T12:04 | 12328 | 193 | 276 | 38 | ||
| 2024-10-14T12:05 | 12402 | 191 | -54.9 | |||
| 2024-10-14T12:05 | 12487 | 188 | 273 | 35 | ||
| 2024-10-14T12:06 | 12871 | 177 | 270 | 37 | ||
| 2024-10-14T12:06 | 12985 | 174 | -56.6 | |||
| 2024-10-14T12:07 | 13249 | 167 | 269 | 35 | ||
| 2024-10-14T12:07 | 13281 | 166 | -57.5 | |||
| 2024-10-14T12:08 | 13634 | 157 | 266 | 37 | ||
| 2024-10-14T12:08 | 13839 | 152 | -60.1 | |||
| 2024-10-14T12:09 | 13966 | 149 | -59.6 | |||
| 2024-10-14T12:09 | 14016 | 148 | 271 | 37 | ||
| 2024-10-14T12:09 | 14231 | 143 | 271 | 33 | ||
| 2024-10-14T12:09 | 14271 | 142 | -59.6 | |||
| 2024-10-14T12:10 | 14404 | 139 | -60.0 | |||
| 2024-10-14T12:10 | 14451 | 138 | 269 | 37 | ||
| 2024-10-14T12:10 | 14620 | 134 | 267 | 37 | ||
| 2024-10-14T12:10 | 14638 | 134 | -59.5 | |||
| 2024-10-14T12:11 | 14853 | 129 | -58.4 | |||
| 2024-10-14T12:11 | 14999 | 126 | 265 | 40 | ||
| 2024-10-14T12:12 | 15130 | 124 | -60.4 | |||
| 2024-10-14T12:12 | 15389 | 118 | 271 | 39 | ||
| 2024-10-14T12:13 | 15515 | 116 | -61.3 | |||
| 2024-10-14T12:13 | 15658 | 113 | 274 | 32 | ||
| 2024-10-14T12:13 | 15898 | 109 | -62.2 | |||
| 2024-10-14T12:14 | 15983 | 108 | 265 | 24 | ||
| 2024-10-14T12:14 | 16275 | 103 | 251 | 25 | ||
| 2024-10-14T12:15 | 16490 | 99 | -64.7 | |||
| 2024-10-14T12:15 | 16601 | 97 | 257 | 32 | ||
| 2024-10-14T12:15 | 16623 | 97 | -63.8 | |||
| 2024-10-14T12:16 | 16756 | 95 | -61.0 | |||
| 2024-10-14T12:16 | 16864 | 93 | 260 | 24 | ||
| 2024-10-14T12:17 | 17234 | 88 | 254 | 24 | ||
| 2024-10-14T12:17 | 17265 | 87 | -61.5 | |||
| 2024-10-14T12:18 | 17614 | 83 | 265 | 24 | ||
| 2024-10-14T12:18 | 17659 | 82 | -61.3 | |||
| 2024-10-14T12:19 | 17927 | 79 | 265 | 22 | ||
| 2024-10-14T12:19 | 18171 | 76 | 267 | 21 | ||
| 2024-10-14T12:20 | 18397 | 73 | -61.1 | |||
| 2024-10-14T12:20 | 18430 | 72 | 275 | 15 | ||
| 2024-10-14T12:21 | 18792 | 68 | 279 | 11 | ||
| 2024-10-14T12:21 | 18819 | 68 | -62.0 | |||
| 2024-10-14T12:22 | 18992 | 66 | 256 | 7 | ||
| 2024-10-14T12:22 | 19193 | 64 | -62.0 | 233 | 11 | |
| 2024-10-14T12:22 | 19300 | 63 | -61.2 | |||
| 2024-10-14T12:23 | 19468 | 61 | 250 | 16 | ||
| 2024-10-14T12:23 | 19666 | 59 | 247 | 17 | ||
| 2024-10-14T12:24 | 19997 | 56 | 263 | 12 | ||
| 2024-10-14T12:25 | 20271 | 54 | -59.3 | |||
| 2024-10-14T12:25 | 20376 | 53 | 243 | 13 | ||
| 2024-10-14T12:26 | 20449 | 52 | -58.4 | |||
| 2024-10-14T12:26 | 20766 | 50 | 282 | 15 | ||
| 2024-10-14T12:27 | 20989 | 48 | 269 | 9 | ||
| 2024-10-14T12:27 | 21015 | 48 | -57.7 | |||
| 2024-10-14T12:28 | 21217 | 46 | 271 | 14 | ||
| 2024-10-14T12:28 | 21512 | 44 | -55.3 | |||
| 2024-10-14T12:29 | 21627 | 43 | 298 | 11 | ||
| 2024-10-14T12:29 | 21865 | 42 | 282 | 11 | ||
| 2024-10-14T12:29 | 22016 | 41 | 273 | 9 | ||
| 2024-10-14T12:30 | 22239 | 39 | 261 | 5 | ||
| 2024-10-14T12:30 | 22302 | 39 | -56.6 | |||
| 2024-10-14T12:31 | 22567 | 37 | 330 | 3 | ||
| 2024-10-14T12:31 | 22719 | 37 | 357 | 4 | ||
| 2024-10-14T12:32 | 22859 | 36 | 45 | 5 | ||
| 2024-10-14T12:32 | 23037 | 35 | 62 | 1 | ||
| 2024-10-14T12:32 | 23165 | 34 | -60.1 | |||
| 2024-10-14T12:32 | 23217 | 34 | 275 | 3 | ||
| 2024-10-14T12:33 | 23329 | 33 | 297 | 5 | ||
| 2024-10-14T12:33 | 23448 | 33 | -58.0 | 282 | 9 | |
| 2024-10-14T12:33 | 23543 | 32 | -55.5 | |||
| 2024-10-14T12:34 | 23644 | 32 | 355 | 5 | ||
| 2024-10-14T12:34 | 23665 | 31 | 360 | 4 | ||
| 2024-10-14T12:34 | 23685 | 31 | 5 | 3 | ||
| 2024-10-14T12:34 | 24018 | 30 | 153 | 3 | ||
| 2024-10-14T12:35 | 24121 | 29 | 160 | 1 | ||
| 2024-10-14T12:35 | 24257 | 29 | -57.2 | 323 | 3 | |
| 2024-10-14T12:35 | 24322 | 28 | 354 | 5 | ||
| 2024-10-14T12:35 | 24345 | 28 | 5 | 6 | ||
| 2024-10-14T12:36 | 24480 | 28 | 76 | 4 | ||
| 2024-10-14T12:36 | 24573 | 27 | 51 | 4 | ||
| 2024-10-14T12:36 | 24621 | 27 | -56.5 | |||
| 2024-10-14T12:36 | 24717 | 27 | 357 | 5 | ||
| 2024-10-14T12:37 | 24911 | 26 | -55.8 | |||
| 2024-10-14T12:37 | 25112 | 25 | 41 | 7 | ||
| 2024-10-14T12:37 | 25237 | 25 | 62 | 4 | ||
| 2024-10-14T12:38 | 25342 | 24 | 164 | 3 | ||
| 2024-10-14T12:38 | 25645 | 23 | 242 | 6 | ||
| 2024-10-14T12:39 | 25897 | 22 | 293 | 3 | ||
| 2024-10-14T12:39 | 26014 | 22 | 353 | 3 | ||
| 2024-10-14T12:39 | 26047 | 22 | 5 | 3 | ||
| 2024-10-14T12:40 | 26161 | 21 | 11 | 5 | ||
| 2024-10-14T12:40 | 26226 | 21 | -55.1 | |||
| 2024-10-14T12:40 | 26284 | 21 | 11 | 5 | ||
| 2024-10-14T12:40 | 26338 | 21 | -55.1 | 31 | 5 | |
| 2024-10-14T23:30 | 18 | 1020 | 18.6 | 14.1 | 140 | 5 |
| 2024-10-14T23:30 | 21 | 1020 | 18.6 | 13.9 | 140 | 1 |
| 2024-10-14T23:30 | 43 | 1017 | 146 | 3 | ||
| 2024-10-14T23:30 | 86 | 1012 | 17.5 | 13.0 | ||
| 2024-10-14T23:30 | 105 | 1010 | 135 | 9 | ||
| 2024-10-14T23:31 | 398 | 976 | 154 | 12 | ||
| 2024-10-14T23:31 | 417 | 973 | 14.8 | 11.4 | ||
| 2024-10-14T23:32 | 673 | 944 | 13.0 | 9.8 | ||
| 2024-10-14T23:32 | 707 | 941 | 172 | 13 | ||
| 2024-10-14T23:33 | 905 | 919 | 11.7 | 8.4 | ||
| 2024-10-14T23:33 | 1031 | 905 | 184 | 11 | ||
| 2024-10-14T23:33 | 1067 | 901 | 10.9 | 6.6 | ||
| 2024-10-14T23:34 | 1328 | 873 | 9.3 | 5.3 | ||
| 2024-10-14T23:34 | 1345 | 871 | 209 | 8 | ||
| 2024-10-14T23:35 | 1521 | 853 | 8.0 | 4.6 | ||
| 2024-10-14T23:35 | 1570 | 848 | 8.5 | 4.9 | ||
| 2024-10-14T23:35 | 1602 | 845 | 221 | 13 | ||
| 2024-10-14T23:35 | 1611 | 844 | 10.3 | -4.9 | ||
| 2024-10-14T23:35 | 1656 | 839 | 11.0 | -11.8 | ||
| 2024-10-14T23:36 | 1854 | 819 | 222 | 12 | ||
| 2024-10-14T23:37 | 1998 | 805 | 9.7 | -14.9 | ||
| 2024-10-14T23:37 | 2124 | 793 | 216 | 10 | ||
| 2024-10-14T23:37 | 2161 | 790 | 9.1 | -19.9 | ||
| 2024-10-14T23:37 | 2222 | 784 | 9.4 | -22.0 | ||
| 2024-10-14T23:38 | 2472 | 760 | 247 | 6 | ||
| 2024-10-14T23:39 | 2845 | 726 | 240 | 8 | ||
| 2024-10-14T23:40 | 3066 | 707 | 2.2 | -21.8 | ||
| 2024-10-14T23:40 | 3265 | 690 | 221 | 11 | ||
| 2024-10-14T23:41 | 3592 | 662 | -2.1 | -21.5 | ||
| 2024-10-14T23:41 | 3669 | 655 | 215 | 13 | ||
| 2024-10-14T23:41 | 3732 | 650 | -3.4 | -20.6 | ||
| 2024-10-14T23:42 | 3800 | 645 | -4.0 | -17.9 | ||
| 2024-10-14T23:42 | 3915 | 635 | -4.8 | -18.6 | ||
| 2024-10-14T23:42 | 4029 | 626 | 205 | 14 | ||
| 2024-10-14T23:42 | 4055 | 624 | -5.7 | -22.6 | ||
| 2024-10-14T23:43 | 4258 | 608 | -7.4 | -16.5 | ||
| 2024-10-14T23:43 | 4286 | 606 | 206 | 15 | ||
| 2024-10-14T23:43 | 4408 | 596 | -8.7 | -15.5 | ||
| 2024-10-14T23:44 | 4568 | 584 | 211 | 14 | ||
| 2024-10-14T23:44 | 4606 | 581 | -10.3 | -14.7 | ||
| 2024-10-14T23:45 | 4733 | 572 | -11.2 | -15.9 | ||
| 2024-10-14T23:45 | 4883 | 561 | 215 | 15 | ||
| 2024-10-14T23:45 | 4908 | 559 | -12.3 | -16.5 | ||
| 2024-10-14T23:45 | 5021 | 551 | -10.7 | -13.8 | ||
| 2024-10-14T23:46 | 5240 | 535 | 260 | 15 | ||
| 2024-10-14T23:46 | 5269 | 533 | -12.2 | -14.6 | ||
| 2024-10-14T23:47 | 5549 | 514 | -14.8 | -15.7 | ||
| 2024-10-14T23:47 | 5630 | 508 | -14.7 | -24.0 | 259 | 18 |
| 2024-10-14T23:47 | 5671 | 505 | -14.2 | -32.3 | ||
| 2024-10-14T23:47 | 5821 | 496 | -14.8 | -28.9 | ||
| 2024-10-14T23:47 | 5854 | 493 | 256 | 21 | ||
| 2024-10-14T23:47 | 5887 | 491 | -15.2 | -21.8 | ||
| 2024-10-14T23:48 | 6054 | 481 | -16.7 | -20.9 | ||
| 2024-10-14T23:48 | 6235 | 469 | 256 | 24 | ||
| 2024-10-14T23:49 | 6294 | 465 | -18.6 | -20.4 | ||
| 2024-10-14T23:49 | 6444 | 456 | -19.6 | -20.4 | ||
| 2024-10-14T23:49 | 6505 | 452 | -19.3 | -22.5 | ||
| 2024-10-14T23:49 | 6539 | 450 | -18.4 | -29.0 | ||
| 2024-10-14T23:49 | 6558 | 449 | 256 | 26 | ||
| 2024-10-14T23:50 | 6703 | 441 | -19.4 | -33.0 | ||
| 2024-10-14T23:50 | 6851 | 432 | 261 | 24 | ||
| 2024-10-14T23:50 | 6866 | 431 | -21.0 | -30.6 | ||
| 2024-10-14T23:51 | 6934 | 427 | -21.3 | -27.6 | ||
| 2024-10-14T23:51 | 7030 | 421 | 264 | 27 | ||
| 2024-10-14T23:52 | 7226 | 410 | -23.1 | -27.5 | ||
| 2024-10-14T23:52 | 7349 | 403 | 262 | 28 | ||
| 2024-10-14T23:53 | 7678 | 386 | -26.4 | -30.7 | ||
| 2024-10-14T23:53 | 7696 | 385 | 261 | 26 | ||
| 2024-10-14T23:54 | 8090 | 364 | 263 | 28 | ||
| 2024-10-14T23:55 | 8319 | 353 | -31.9 | -35.1 | ||
| 2024-10-14T23:55 | 8415 | 348 | -32.8 | -36.1 | ||
| 2024-10-14T23:55 | 8483 | 344 | -33.2 | -39.2 | 266 | 32 |
| 2024-10-14T23:56 | 8867 | 326 | 265 | 29 | ||
| 2024-10-14T23:56 | 8906 | 324 | -36.8 | -44.2 | ||
| 2024-10-14T23:57 | 9198 | 311 | 257 | 29 | ||
| 2024-10-14T23:57 | 9281 | 307 | -39.9 | -48.1 | ||
| 2024-10-14T23:57 | 9354 | 304 | -40.0 | -50.1 | ||
| 2024-10-14T23:57 | 9407 | 301 | 252 | 29 | ||
| 2024-10-14T23:58 | 9763 | 286 | 261 | 29 | ||
| 2024-10-14T23:59 | 9926 | 279 | 263 | 33 | ||
| 2024-10-14T23:59 | 9932 | 279 | -43.1 | |||
| 2024-10-15T00:00 | 10284 | 265 | 257 | 37 | ||
| 2024-10-15T00:01 | 10632 | 251 | 263 | 38 | ||
| 2024-10-15T00:02 | 10969 | 238 | 261 | 40 | ||
| 2024-10-15T00:03 | 11310 | 226 | 259 | 41 | ||
| 2024-10-15T00:04 | 11560 | 218 | -53.7 | |||
| 2024-10-15T00:04 | 11627 | 215 | 260 | 40 | ||
| 2024-10-15T00:04 | 11800 | 210 | -53.6 | |||
| 2024-10-15T00:05 | 11955 | 205 | 259 | 40 | ||
| 2024-10-15T00:05 | 12003 | 203 | -53.7 | |||
| 2024-10-15T00:06 | 12267 | 195 | 254 | 38 | ||
| 2024-10-15T00:07 | 12509 | 188 | -55.4 | |||
| 2024-10-15T00:07 | 12569 | 186 | 258 | 39 | ||
| 2024-10-15T00:08 | 12882 | 177 | 263 | 40 | ||
| 2024-10-15T00:09 | 13105 | 171 | -57.8 | |||
| 2024-10-15T00:09 | 13117 | 171 | 264 | 40 | ||
| 2024-10-15T00:09 | 13385 | 163 | 260 | 37 | ||
| 2024-10-15T00:10 | 13696 | 156 | 267 | 40 | ||
| 2024-10-15T00:11 | 13994 | 148 | 258 | 40 | ||
| 2024-10-15T00:12 | 14097 | 146 | -61.1 | |||
| 2024-10-15T00:12 | 14291 | 141 | 253 | 43 | ||
| 2024-10-15T00:13 | 14363 | 140 | -61.7 | |||
| 2024-10-15T00:13 | 14611 | 134 | 254 | 49 | ||
| 2024-10-15T00:14 | 14711 | 132 | -62.3 | |||
| 2024-10-15T00:14 | 14943 | 127 | 259 | 49 | ||
| 2024-10-15T00:15 | 14996 | 126 | -63.4 | |||
| 2024-10-15T00:15 | 15199 | 122 | 263 | 47 | ||
| 2024-10-15T00:15 | 15204 | 122 | -64.4 | |||
| 2024-10-15T00:16 | 15512 | 116 | -62.2 | |||
| 2024-10-15T00:16 | 15522 | 116 | 267 | 34 | ||
| 2024-10-15T00:17 | 15653 | 113 | -61.2 | |||
| 2024-10-15T00:17 | 15723 | 112 | 257 | 31 | ||
| 2024-10-15T00:17 | 15841 | 110 | -60.9 | |||
| 2024-10-15T00:17 | 15877 | 109 | 264 | 30 | ||
| 2024-10-15T00:18 | 15980 | 108 | -60.2 | |||
| 2024-10-15T00:18 | 16048 | 106 | 258 | 25 | ||
| 2024-10-15T00:19 | 16404 | 100 | 260 | 27 | ||
| 2024-10-15T00:19 | 16621 | 97 | -63.9 | |||
| 2024-10-15T00:20 | 16687 | 96 | 270 | 25 | ||
| 2024-10-15T00:20 | 16931 | 92 | 258 | 17 | ||
| 2024-10-15T00:21 | 17222 | 88 | -64.1 | |||
| 2024-10-15T00:21 | 17295 | 87 | 250 | 20 | ||
| 2024-10-15T00:22 | 17612 | 82 | 259 | 25 | ||
| 2024-10-15T00:22 | 17710 | 81 | -64.4 | |||
| 2024-10-15T00:23 | 17872 | 79 | -62.6 | |||
| 2024-10-15T00:23 | 17967 | 78 | 262 | 25 | ||
| 2024-10-15T00:24 | 18292 | 74 | -61.2 | |||
| 2024-10-15T00:24 | 18337 | 73 | 259 | 21 | ||
| 2024-10-15T00:25 | 18736 | 69 | 259 | 17 | ||
| 2024-10-15T00:26 | 19024 | 66 | 262 | 13 | ||
| 2024-10-15T00:26 | 19099 | 65 | -60.3 | |||
| 2024-10-15T00:26 | 19120 | 65 | 320 | 7 | ||
| 2024-10-15T00:27 | 19391 | 62 | 269 | 7 | ||
| 2024-10-15T00:28 | 19691 | 59 | -61.4 | |||
| 2024-10-15T00:28 | 19713 | 59 | 246 | 12 | ||
| 2024-10-15T00:28 | 19896 | 57 | 232 | 14 | ||
| 2024-10-15T00:29 | 20050 | 56 | -62.1 | |||
| 2024-10-15T00:29 | 20149 | 55 | 258 | 18 | ||
| 2024-10-15T00:29 | 20275 | 54 | -60.0 | |||
| 2024-10-15T00:30 | 20453 | 52 | 286 | 8 | ||
| 2024-10-15T00:30 | 20501 | 52 | -60.1 | |||
| 2024-10-15T00:30 | 20801 | 49 | 280 | 10 | ||
| 2024-10-15T00:31 | 20992 | 48 | 279 | 15 | ||
| 2024-10-15T00:31 | 21101 | 47 | -57.2 | |||
| 2024-10-15T00:32 | 21290 | 46 | 276 | 9 | ||
| 2024-10-15T00:32 | 21462 | 44 | -57.0 | |||
| 2024-10-15T00:32 | 21502 | 44 | 228 | 5 | ||
| 2024-10-15T00:33 | 21749 | 42 | 209 | 9 | ||
| 2024-10-15T00:33 | 21886 | 42 | -58.0 | |||
| 2024-10-15T00:34 | 22069 | 40 | 250 | 9 | ||
| 2024-10-15T00:34 | 22276 | 39 | 301 | 7 | ||
| 2024-10-15T00:35 | 22508 | 38 | 259 | 9 | ||
| 2024-10-15T00:35 | 22784 | 36 | 297 | 9 | ||
| 2024-10-15T00:35 | 22802 | 36 | -56.6 | |||
| 2024-10-15T00:36 | 22963 | 35 | 314 | 6 | ||
| 2024-10-15T00:36 | 23128 | 34 | 323 | 4 | ||
| 2024-10-15T00:37 | 23469 | 32 | 7 | 5 | ||
| 2024-10-15T00:37 | 23592 | 32 | 34 | 3 | ||
| 2024-10-15T00:37 | 23673 | 31 | -57.9 | 9 | 2 | |
| 2024-10-15T00:38 | 23773 | 31 | 279 | 3 | ||
| 2024-10-15T00:38 | 23854 | 30 | 292 | 4 | ||
| 2024-10-15T00:38 | 23983 | 30 | 342 | 5 | ||
| 2024-10-15T00:39 | 24130 | 29 | 7 | 1 | ||
| 2024-10-15T00:40 | 24534 | 27 | -57.9 | 254 | 2 | |
| 2024-10-15T00:40 | 24914 | 26 | 277 | 2 | ||
| 2024-10-15T00:41 | 25040 | 25 | -56.2 | 330 | 3 | |
| 2024-10-15T00:41 | 25249 | 24 | 7 | 5 | ||
| 2024-10-15T00:42 | 25380 | 24 | 37 | 6 | ||
| 2024-10-15T00:42 | 25513 | 23 | -56.7 | |||
| 2024-10-15T00:42 | 25623 | 23 | 94 | 5 | ||
| 2024-10-15T00:42 | 25730 | 23 | 155 | 5 | ||
| 2024-10-15T00:43 | 25903 | 22 | 164 | 1 | ||
| 2024-10-15T00:43 | 26019 | 22 | 292 | 3 | ||
| 2024-10-15T00:43 | 26087 | 21 | -55.0 | 301 | 4 | |
| 2024-10-15T11:30 | 18 | 1013 | 19.4 | 15.3 | 160 | 6 |
| 2024-10-15T11:30 | 22 | 1013 | 19.5 | 14.5 | 163 | 3 |
| 2024-10-15T11:30 | 77 | 1006 | 160 | 3 | ||
| 2024-10-15T11:30 | 163 | 996 | 157 | 11 | ||
| 2024-10-15T11:31 | 422 | 966 | 171 | 16 | ||
| 2024-10-15T11:32 | 741 | 931 | 14.4 | 10.8 | ||
| 2024-10-15T11:32 | 752 | 930 | 181 | 19 | ||
| 2024-10-15T11:33 | 856 | 918 | 14.1 | 10.1 | ||
| 2024-10-15T11:33 | 1090 | 893 | 191 | 21 | ||
| 2024-10-15T11:33 | 1096 | 892 | 12.3 | 9.5 | ||
| 2024-10-15T11:34 | 1150 | 887 | 12.4 | 9.4 | ||
| 2024-10-15T11:34 | 1335 | 867 | 197 | 22 | ||
| 2024-10-15T11:34 | 1428 | 858 | 10.1 | 8.5 | ||
| 2024-10-15T11:35 | 1475 | 853 | 10.1 | 8.4 | ||
| 2024-10-15T11:35 | 1689 | 831 | 201 | 22 | ||
| 2024-10-15T11:36 | 1915 | 809 | 7.3 | 6.7 | ||
| 2024-10-15T11:36 | 2038 | 797 | 197 | 21 | ||
| 2024-10-15T11:37 | 2299 | 772 | 205 | 20 | ||
| 2024-10-15T11:37 | 2428 | 760 | 203 | 18 | ||
| 2024-10-15T11:38 | 2710 | 734 | 212 | 21 | ||
| 2024-10-15T11:38 | 2727 | 732 | 3.8 | 2.6 | ||
| 2024-10-15T11:39 | 3032 | 705 | 221 | 19 | ||
| 2024-10-15T11:39 | 3114 | 698 | 2.1 | 1.2 | ||
| 2024-10-15T11:40 | 3324 | 680 | 230 | 16 | ||
| 2024-10-15T11:41 | 3480 | 667 | -0.4 | -1.7 | ||
| 2024-10-15T11:41 | 3609 | 657 | 236 | 15 | ||
| 2024-10-15T11:42 | 3906 | 633 | 237 | 15 | ||
| 2024-10-15T11:43 | 4050 | 621 | -3.2 | -4.0 | ||
| 2024-10-15T11:43 | 4075 | 619 | 235 | 18 | ||
| 2024-10-15T11:43 | 4282 | 603 | -4.1 | -6.1 | ||
| 2024-10-15T11:44 | 4362 | 597 | 238 | 18 | ||
| 2024-10-15T11:45 | 4720 | 571 | 242 | 20 | ||
| 2024-10-15T11:45 | 4934 | 555 | -8.5 | -9.7 | ||
| 2024-10-15T11:46 | 5098 | 544 | 245 | 19 | ||
| 2024-10-15T11:46 | 5212 | 535 | -10.3 | -12.2 | ||
| 2024-10-15T11:46 | 5394 | 523 | 245 | 19 | ||
| 2024-10-15T11:47 | 5508 | 515 | -12.3 | -14.0 | ||
| 2024-10-15T11:47 | 5776 | 497 | 248 | 22 | ||
| 2024-10-15T11:48 | 5932 | 487 | -14.9 | -16.6 | ||
| 2024-10-15T11:48 | 6158 | 473 | -16.5 | -19.4 | ||
| 2024-10-15T11:48 | 6164 | 472 | 255 | 22 | ||
| 2024-10-15T11:49 | 6563 | 448 | 246 | 24 | ||
| 2024-10-15T11:50 | 6597 | 446 | -19.0 | -21.9 | ||
| 2024-10-15T11:50 | 6967 | 424 | 229 | 22 | ||
| 2024-10-15T11:51 | 7003 | 422 | -21.8 | -23.6 | ||
| 2024-10-15T11:51 | 7110 | 416 | 230 | 21 | ||
| 2024-10-15T11:51 | 7230 | 409 | 235 | 23 | ||
| 2024-10-15T11:51 | 7286 | 406 | -23.6 | -26.2 | ||
| 2024-10-15T11:52 | 7553 | 392 | 239 | 27 | ||
| 2024-10-15T11:53 | 7807 | 378 | -27.5 | -30.0 | ||
| 2024-10-15T11:53 | 7927 | 372 | 229 | 28 | ||
| 2024-10-15T11:54 | 8154 | 360 | 233 | 33 | ||
| 2024-10-15T11:54 | 8362 | 350 | 233 | 35 | ||
| 2024-10-15T11:54 | 8368 | 349 | -31.0 | -34.0 | ||
| 2024-10-15T11:55 | 8752 | 331 | 240 | 38 | ||
| 2024-10-15T11:56 | 9003 | 319 | 245 | 39 | ||
| 2024-10-15T11:56 | 9227 | 309 | 251 | 42 | ||
| 2024-10-15T11:56 | 9261 | 308 | -37.6 | -41.3 | ||
| 2024-10-15T11:57 | 9557 | 295 | -40.0 | -43.5 | ||
| 2024-10-15T11:57 | 9639 | 291 | 256 | 49 | ||
| 2024-10-15T11:58 | 10015 | 275 | 257 | 52 | ||
| 2024-10-15T11:59 | 10206 | 267 | 259 | 53 | ||
| 2024-10-15T11:59 | 10284 | 264 | -45.5 | |||
| 2024-10-15T12:00 | 10443 | 258 | 258 | 58 | ||
| 2024-10-15T12:00 | 10693 | 249 | 259 | 57 | ||
| 2024-10-15T12:01 | 10803 | 244 | 258 | 58 | ||
| 2024-10-15T12:01 | 10878 | 242 | -49.7 | |||
| 2024-10-15T12:01 | 10971 | 238 | 261 | 58 | ||
| 2024-10-15T12:02 | 11328 | 225 | 264 | 59 | ||
| 2024-10-15T12:03 | 11605 | 216 | -56.1 | |||
| 2024-10-15T12:03 | 11681 | 213 | 268 | 58 | ||
| 2024-10-15T12:03 | 11745 | 211 | -55.8 | |||
| 2024-10-15T12:03 | 11839 | 208 | 262 | 52 | ||
| 2024-10-15T12:03 | 11914 | 206 | -55.4 | |||
| 2024-10-15T12:04 | 12237 | 195 | -56.0 | |||
| 2024-10-15T12:04 | 12298 | 194 | 248 | 46 | ||
| 2024-10-15T12:05 | 12654 | 183 | 249 | 48 | ||
| 2024-10-15T12:06 | 12852 | 177 | -58.3 | |||
| 2024-10-15T12:06 | 12905 | 176 | 251 | 48 | ||
| 2024-10-15T12:07 | 13082 | 171 | 257 | 51 | ||
| 2024-10-15T12:07 | 13126 | 170 | -58.9 | |||
| 2024-10-15T12:07 | 13271 | 166 | 262 | 51 | ||
| 2024-10-15T12:07 | 13380 | 163 | 264 | 49 | ||
| 2024-10-15T12:08 | 13452 | 161 | -57.9 | |||
| 2024-10-15T12:08 | 13553 | 159 | 263 | 38 | ||
| 2024-10-15T12:08 | 13560 | 158 | -57.2 | |||
| 2024-10-15T12:08 | 13719 | 154 | 256 | 35 | ||
| 2024-10-15T12:09 | 14021 | 147 | 242 | 32 | ||
| 2024-10-15T12:09 | 14040 | 147 | -59.3 | |||
| 2024-10-15T12:10 | 14392 | 139 | 246 | 39 | ||
| 2024-10-15T12:10 | 14492 | 136 | -62.0 | |||
| 2024-10-15T12:11 | 14567 | 135 | 246 | 38 | ||
| 2024-10-15T12:11 | 14781 | 130 | 248 | 38 | ||
| 2024-10-15T12:12 | 14932 | 127 | -63.5 | |||
| 2024-10-15T12:12 | 15115 | 123 | 254 | 40 | ||
| 2024-10-15T12:13 | 15334 | 119 | 250 | 37 | ||
| 2024-10-15T12:13 | 15385 | 118 | -63.4 | |||
| 2024-10-15T12:14 | 15677 | 113 | 244 | 39 | ||
| 2024-10-15T12:14 | 15688 | 112 | -63.0 | |||
| 2024-10-15T12:15 | 15896 | 109 | -63.6 | |||
| 2024-10-15T12:15 | 15994 | 107 | 252 | 39 | ||
| 2024-10-15T12:15 | 16163 | 104 | -62.9 | |||
| 2024-10-15T12:16 | 16188 | 104 | 255 | 37 | ||
| 2024-10-15T12:16 | 16237 | 103 | -62.0 | |||
| 2024-10-15T12:16 | 16371 | 101 | -60.1 | |||
| 2024-10-15T12:17 | 16484 | 99 | 256 | 27 | ||
| 2024-10-15T12:17 | 16504 | 98 | -59.7 | |||
| 2024-10-15T12:17 | 16678 | 96 | -59.3 | |||
| 2024-10-15T12:18 | 16790 | 94 | 254 | 23 | ||
| 2024-10-15T12:19 | 17122 | 89 | 263 | 20 | ||
| 2024-10-15T12:19 | 17130 | 89 | -61.2 | |||
| 2024-10-15T12:19 | 17299 | 87 | -60.9 | |||
| 2024-10-15T12:19 | 17320 | 86 | 256 | 15 | ||
| 2024-10-15T12:20 | 17674 | 82 | 248 | 19 | ||
| 2024-10-15T12:21 | 17947 | 78 | -64.1 | |||
| 2024-10-15T12:21 | 17976 | 78 | 244 | 23 | ||
| 2024-10-15T12:21 | 18040 | 77 | -60.7 | |||
| 2024-10-15T12:22 | 18139 | 76 | 257 | 26 | ||
| 2024-10-15T12:22 | 18461 | 72 | 271 | 21 | ||
| 2024-10-15T12:23 | 18673 | 69 | 250 | 16 | ||
| 2024-10-15T12:23 | 18701 | 69 | -61.1 | |||
| 2024-10-15T12:24 | 18920 | 67 | -61.2 | |||
| 2024-10-15T12:24 | 18986 | 66 | 238 | 21 | ||
| 2024-10-15T12:24 | 19024 | 66 | -59.5 | |||
| 2024-10-15T12:25 | 19220 | 64 | 259 | 21 | ||
| 2024-10-15T12:25 | 19318 | 63 | -57.2 | |||
| 2024-10-15T12:26 | 19492 | 61 | -56.4 | |||
| 2024-10-15T12:26 | 19588 | 60 | 268 | 12 | ||
| 2024-10-15T12:26 | 19750 | 59 | -55.5 | |||
| 2024-10-15T12:26 | 19836 | 58 | 295 | 6 | ||
| 2024-10-15T12:27 | 20221 | 54 | 271 | 5 | ||
| 2024-10-15T12:28 | 20380 | 53 | -60.5 | |||
| 2024-10-15T12:28 | 20551 | 52 | 262 | 11 | ||
| 2024-10-15T12:29 | 20686 | 50 | -59.0 | |||
| 2024-10-15T12:29 | 20721 | 50 | 279 | 10 | ||
| 2024-10-15T12:30 | 21070 | 47 | 246 | 12 | ||
| 2024-10-15T12:30 | 21097 | 47 | -57.8 | |||
| 2024-10-15T12:30 | 21286 | 46 | 264 | 14 | ||
| 2024-10-15T12:31 | 21425 | 45 | -58.5 | |||
| 2024-10-15T12:31 | 21653 | 43 | 286 | 13 | ||
| 2024-10-15T12:32 | 22038 | 41 | 322 | 5 | ||
| 2024-10-15T12:33 | 22101 | 40 | -61.3 | |||
| 2024-10-15T12:33 | 22210 | 40 | 282 | 9 | ||
| 2024-10-15T12:33 | 22257 | 39 | -58.7 | |||
| 2024-10-15T12:33 | 22472 | 38 | 308 | 9 | ||
| 2024-10-15T12:34 | 22486 | 38 | -56.9 | |||
| 2024-10-15T12:34 | 22638 | 37 | 317 | 2 | ||
| 2024-10-15T12:34 | 22794 | 36 | 206 | 3 | ||
| 2024-10-15T12:35 | 23113 | 34 | 241 | 6 | ||
| 2024-10-15T12:36 | 23302 | 33 | -58.9 | |||
| 2024-10-15T12:36 | 23379 | 33 | 274 | 3 | ||
| 2024-10-15T12:36 | 23532 | 32 | 260 | 8 | ||
| 2024-10-15T12:36 | 23653 | 31 | 289 | 3 | ||
| 2024-10-15T12:37 | 23757 | 31 | 353 | 4 | ||
| 2024-10-15T12:37 | 23903 | 30 | -55.6 | |||
| 2024-10-15T12:38 | 24162 | 29 | 360 | 1 | ||
| 2024-10-15T12:38 | 24249 | 29 | -56.7 | |||
| 2024-10-15T12:38 | 24429 | 28 | 266 | 4 | ||
| 2024-10-15T12:39 | 24497 | 28 | 236 | 3 | ||
| 2024-10-15T12:39 | 24660 | 27 | 294 | 2 | ||
| 2024-10-15T12:39 | 24854 | 26 | 265 | 2 | ||
| 2024-10-15T12:40 | 24926 | 26 | -56.1 | |||
| 2024-10-15T12:40 | 25102 | 25 | 302 | 10 | ||
| 2024-10-15T12:41 | 25337 | 24 | -54.5 | |||
| 2024-10-15T12:41 | 25503 | 24 | 350 | 14 | ||
| 2024-10-15T12:42 | 25894 | 22 | -54.9 | 23 | 8 | |
| 2024-10-15T23:30 | 18 | 1015 | 16.7 | 10.5 | 300 | 6 |
| 2024-10-15T23:30 | 23 | 1015 | 17.1 | 10.5 | 291 | 1 |
| 2024-10-15T23:30 | 50 | 1011 | 16.1 | 9.1 | ||
| 2024-10-15T23:30 | 71 | 1009 | 294 | 5 | ||
| 2024-10-15T23:30 | 159 | 999 | 321 | 7 | ||
| 2024-10-15T23:31 | 323 | 979 | 301 | 9 | ||
| 2024-10-15T23:31 | 513 | 957 | 11.7 | 7.6 | ||
| 2024-10-15T23:31 | 519 | 957 | 315 | 11 | ||
| 2024-10-15T23:32 | 637 | 943 | 11.1 | 5.8 | ||
| 2024-10-15T23:32 | 807 | 924 | 296 | 7 | ||
| 2024-10-15T23:33 | 1068 | 896 | 297 | 9 | ||
| 2024-10-15T23:33 | 1090 | 893 | 7.2 | 3.8 | ||
| 2024-10-15T23:34 | 1321 | 868 | 5.8 | 3.5 | ||
| 2024-10-15T23:34 | 1370 | 863 | 268 | 6 | ||
| 2024-10-15T23:34 | 1401 | 860 | 6.0 | 0.9 | ||
| 2024-10-15T23:34 | 1440 | 856 | 6.4 | -2.0 | ||
| 2024-10-15T23:34 | 1496 | 850 | 7.5 | -6.3 | ||
| 2024-10-15T23:34 | 1634 | 836 | 6.9 | -6.4 | ||
| 2024-10-15T23:35 | 1733 | 826 | 6.6 | -4.2 | 267 | 18 |
| 2024-10-15T23:35 | 2082 | 791 | 3.2 | -1.9 | ||
| 2024-10-15T23:36 | 2096 | 790 | 259 | 20 | ||
| 2024-10-15T23:36 | 2116 | 788 | 3.0 | -4.7 | ||
| 2024-10-15T23:36 | 2164 | 783 | 3.3 | -13.1 | ||
| 2024-10-15T23:36 | 2316 | 769 | 256 | 18 | ||
| 2024-10-15T23:36 | 2344 | 766 | 4.1 | -34.6 | ||
| 2024-10-15T23:37 | 2606 | 742 | 3.1 | -42.1 | ||
| 2024-10-15T23:37 | 2728 | 731 | 261 | 21 | ||
| 2024-10-15T23:38 | 2912 | 714 | 0.8 | -36.9 | ||
| 2024-10-15T23:38 | 3083 | 699 | 260 | 21 | ||
| 2024-10-15T23:38 | 3088 | 698 | 0.5 | -43.8 | ||
| 2024-10-15T23:39 | 3350 | 676 | -0.8 | -50.8 | ||
| 2024-10-15T23:39 | 3363 | 675 | 271 | 23 | ||
| 2024-10-15T23:40 | 3552 | 659 | -1.2 | -51.1 | ||
| 2024-10-15T23:40 | 3639 | 652 | 265 | 22 | ||
| 2024-10-15T23:41 | 3945 | 627 | 265 | 24 | ||
| 2024-10-15T23:42 | 4128 | 613 | -4.8 | -53.4 | ||
| 2024-10-15T23:42 | 4281 | 601 | 262 | 24 | ||
| 2024-10-15T23:43 | 4637 | 574 | 265 | 23 | ||
| 2024-10-15T23:44 | 4920 | 553 | -10.4 | -56.9 | ||
| 2024-10-15T23:44 | 4998 | 548 | 261 | 25 | ||
| 2024-10-15T23:45 | 5357 | 523 | 265 | 26 | ||
| 2024-10-15T23:46 | 5626 | 504 | -15.4 | -60.2 | ||
| 2024-10-15T23:46 | 5707 | 499 | 264 | 25 | ||
| 2024-10-15T23:47 | 5913 | 485 | -16.8 | -61.1 | ||
| 2024-10-15T23:47 | 6038 | 477 | 256 | 32 | ||
| 2024-10-15T23:47 | 6179 | 469 | -17.7 | -61.6 | ||
| 2024-10-15T23:48 | 6379 | 456 | 250 | 39 | ||
| 2024-10-15T23:49 | 6600 | 443 | -19.9 | -54.4 | ||
| 2024-10-15T23:49 | 6722 | 436 | 248 | 43 | ||
| 2024-10-15T23:50 | 6964 | 421 | -22.5 | -56.2 | ||
| 2024-10-15T23:50 | 7083 | 415 | 242 | 44 | ||
| 2024-10-15T23:50 | 7113 | 413 | -23.5 | -56.9 | ||
| 2024-10-15T23:51 | 7370 | 399 | -25.6 | -58.5 | ||
| 2024-10-15T23:51 | 7440 | 395 | 240 | 47 | ||
| 2024-10-15T23:52 | 7780 | 377 | 240 | 48 | ||
| 2024-10-15T23:52 | 7791 | 376 | -29.3 | -57.1 | ||
| 2024-10-15T23:53 | 8092 | 360 | 242 | 46 | ||
| 2024-10-15T23:53 | 8195 | 355 | -32.2 | -61.0 | ||
| 2024-10-15T23:54 | 8407 | 345 | 240 | 47 | ||
| 2024-10-15T23:55 | 8650 | 333 | -34.9 | -63.1 | ||
| 2024-10-15T23:55 | 8709 | 330 | 242 | 51 | ||
| 2024-10-15T23:56 | 8898 | 321 | -35.6 | -63.6 | ||
| 2024-10-15T23:56 | 9009 | 316 | 244 | 57 | ||
| 2024-10-15T23:57 | 9257 | 305 | -37.0 | -61.6 | ||
| 2024-10-15T23:57 | 9314 | 302 | 238 | 58 | ||
| 2024-10-15T23:58 | 9622 | 289 | -40.0 | -60.8 | ||
| 2024-10-15T23:58 | 9644 | 288 | 237 | 58 | ||
| 2024-10-15T23:59 | 9989 | 274 | 239 | 58 | ||
| 2024-10-16T00:00 | 10312 | 261 | 239 | 57 | ||
| 2024-10-16T00:00 | 10344 | 260 | -44.9 | |||
| 2024-10-16T00:01 | 10618 | 249 | 238 | 58 | ||
| 2024-10-16T00:02 | 10878 | 240 | -48.4 | |||
| 2024-10-16T00:02 | 10917 | 238 | 240 | 58 | ||
| 2024-10-16T00:03 | 11262 | 226 | 243 | 56 | ||
| 2024-10-16T00:04 | 11530 | 217 | -51.6 | |||
| 2024-10-16T00:04 | 11603 | 214 | 243 | 56 | ||
| 2024-10-16T00:05 | 11926 | 204 | 244 | 55 | ||
| 2024-10-16T00:06 | 12245 | 194 | 245 | 53 | ||
| 2024-10-16T00:06 | 12260 | 194 | -55.7 | |||
| 2024-10-16T00:07 | 12445 | 188 | -55.3 | |||
| 2024-10-16T00:07 | 12551 | 185 | 249 | 53 | ||
| 2024-10-16T00:08 | 12802 | 178 | -56.3 | |||
| 2024-10-16T00:08 | 12846 | 177 | 250 | 49 | ||
| 2024-10-16T00:09 | 13145 | 168 | 252 | 50 | ||
| 2024-10-16T00:09 | 13171 | 168 | -57.5 | |||
| 2024-10-16T00:10 | 13359 | 163 | -57.0 | |||
| 2024-10-16T00:10 | 13462 | 160 | 253 | 44 | ||
| 2024-10-16T00:11 | 13799 | 152 | 252 | 41 | ||
| 2024-10-16T00:12 | 14083 | 145 | -59.1 | |||
| 2024-10-16T00:12 | 14125 | 144 | 254 | 39 | ||
| 2024-10-16T00:13 | 14438 | 137 | 257 | 38 | ||
| 2024-10-16T00:13 | 14494 | 136 | -60.9 | |||
| 2024-10-16T00:14 | 14742 | 131 | 250 | 33 | ||
| 2024-10-16T00:14 | 14876 | 128 | -61.3 | |||
| 2024-10-16T00:15 | 14978 | 126 | -60.9 | |||
| 2024-10-16T00:15 | 14984 | 126 | 247 | 35 | ||
| 2024-10-16T00:15 | 15040 | 124 | -59.4 | |||
| 2024-10-16T00:16 | 15269 | 120 | 254 | 34 | ||
| 2024-10-16T00:16 | 15338 | 119 | -58.8 | |||
| 2024-10-16T00:16 | 15450 | 117 | 242 | 28 | ||
| 2024-10-16T00:17 | 15544 | 115 | -59.1 | |||
| 2024-10-16T00:17 | 15629 | 113 | -58.7 | |||
| 2024-10-16T00:17 | 15790 | 110 | 234 | 29 | ||
| 2024-10-16T00:17 | 15824 | 110 | -58.7 | |||
| 2024-10-16T00:18 | 16140 | 104 | -59.9 | |||
| 2024-10-16T00:18 | 16146 | 104 | 243 | 32 | ||
| 2024-10-16T00:19 | 16299 | 102 | -59.2 | |||
| 2024-10-16T00:19 | 16529 | 98 | 247 | 28 | ||
| 2024-10-16T00:20 | 16914 | 92 | 253 | 29 | ||
| 2024-10-16T00:21 | 17263 | 87 | 254 | 28 | ||
| 2024-10-16T00:22 | 17547 | 83 | -62.9 | |||
| 2024-10-16T00:22 | 17583 | 83 | 250 | 31 | ||
| 2024-10-16T00:23 | 17749 | 81 | -61.1 | |||
| 2024-10-16T00:23 | 17890 | 79 | 255 | 33 | ||
| 2024-10-16T00:24 | 18164 | 75 | -59.8 | |||
| 2024-10-16T00:24 | 18198 | 75 | 267 | 31 | ||
| 2024-10-16T00:25 | 18369 | 73 | -55.2 | |||
| 2024-10-16T00:25 | 18412 | 72 | 265 | 27 | ||
| 2024-10-16T00:26 | 18717 | 69 | 266 | 26 | ||
| 2024-10-16T00:26 | 18737 | 69 | -56.1 | |||
| 2024-10-16T00:26 | 18868 | 67 | 266 | 20 | ||
| 2024-10-16T00:27 | 18984 | 66 | -53.6 | |||
| 2024-10-16T00:27 | 19250 | 64 | 248 | 20 | ||
| 2024-10-16T00:27 | 19323 | 63 | -55.3 | |||
| 2024-10-16T00:28 | 19443 | 62 | 254 | 17 | ||
| 2024-10-16T00:28 | 19669 | 60 | 243 | 9 | ||
| 2024-10-16T00:29 | 19776 | 59 | -55.1 | |||
| 2024-10-16T00:29 | 19832 | 58 | 231 | 10 | ||
| 2024-10-16T00:30 | 20222 | 55 | 258 | 11 | ||
| 2024-10-16T00:30 | 20327 | 54 | -58.3 | |||
| 2024-10-16T00:30 | 20399 | 53 | 279 | 10 | ||
| 2024-10-16T00:30 | 20461 | 53 | -57.3 | |||
| 2024-10-16T00:30 | 20555 | 52 | 295 | 7 | ||
| 2024-10-16T00:31 | 20892 | 49 | 283 | 6 | ||
| 2024-10-16T00:31 | 20918 | 49 | -59.5 | |||
| 2024-10-16T00:31 | 21023 | 48 | 259 | 9 | ||
| 2024-10-16T00:32 | 21100 | 47 | -58.8 | |||
| 2024-10-16T00:32 | 21356 | 46 | -58.6 | |||
| 2024-10-16T00:32 | 21397 | 45 | 263 | 9 | ||
| 2024-10-16T00:33 | 21526 | 44 | -57.8 | |||
| 2024-10-16T00:33 | 21773 | 43 | 279 | 10 | ||
| 2024-10-16T00:34 | 21818 | 42 | -57.2 | |||
| 2024-10-16T00:34 | 22013 | 41 | 271 | 3 | ||
| 2024-10-16T00:34 | 22186 | 40 | 211 | 1 | ||
| 2024-10-16T00:35 | 22298 | 39 | -58.2 | |||
| 2024-10-16T00:35 | 22329 | 39 | 167 | 4 | ||
| 2024-10-16T00:35 | 22594 | 37 | -58.0 | |||
| 2024-10-16T00:36 | 22610 | 37 | 242 | 7 | ||
| 2024-10-16T00:36 | 22814 | 36 | 278 | 5 | ||
| 2024-10-16T00:37 | 23009 | 35 | 326 | 5 | ||
| 2024-10-16T00:37 | 23094 | 35 | -57.6 | 310 | 5 | |
| 2024-10-16T11:30 | 18 | 1020 | 11.7 | 7.6 | 260 | 1 |
| 2024-10-16T11:30 | 22 | 1020 | 11.6 | 6.9 | 0 | 0 |
| 2024-10-16T11:30 | 51 | 1016 | 12.3 | 5.7 | ||
| 2024-10-16T11:31 | 356 | 980 | 342 | 2 | ||
| 2024-10-16T11:31 | 367 | 979 | 9.6 | 4.0 | ||
| 2024-10-16T11:32 | 623 | 949 | 343 | 4 | ||
| 2024-10-16T11:32 | 763 | 933 | 346 | 2 | ||
| 2024-10-16T11:33 | 958 | 911 | 4.4 | 3.7 | ||
| 2024-10-16T11:33 | 981 | 908 | 322 | 3 | ||
| 2024-10-16T11:33 | 999 | 907 | 4.2 | 0.3 | ||
| 2024-10-16T11:33 | 1010 | 905 | 4.1 | -1.3 | ||
| 2024-10-16T11:33 | 1050 | 901 | 5.6 | -6.9 | ||
| 2024-10-16T11:33 | 1073 | 898 | 298 | 4 | ||
| 2024-10-16T11:33 | 1108 | 895 | 5.7 | -9.3 | ||
| 2024-10-16T11:33 | 1154 | 890 | 5.7 | -11.9 | ||
| 2024-10-16T11:34 | 1317 | 872 | 7.1 | -39.4 | ||
| 2024-10-16T11:34 | 1361 | 867 | 321 | 11 | ||
| 2024-10-16T11:34 | 1400 | 863 | 7.6 | -39.1 | ||
| 2024-10-16T11:34 | 1483 | 854 | 9.1 | -26.7 | ||
| 2024-10-16T11:35 | 1647 | 838 | 9.4 | -18.6 | ||
| 2024-10-16T11:35 | 1698 | 833 | 284 | 11 | ||
| 2024-10-16T11:35 | 1709 | 832 | 10.1 | -19.1 | ||
| 2024-10-16T11:35 | 1870 | 816 | 10.0 | -21.5 | ||
| 2024-10-16T11:36 | 2015 | 801 | 286 | 10 | ||
| 2024-10-16T11:36 | 2155 | 788 | 8.1 | -20.7 | ||
| 2024-10-16T11:37 | 2247 | 779 | 298 | 9 | ||
| 2024-10-16T11:37 | 2368 | 768 | 6.4 | -19.2 | ||
| 2024-10-16T11:38 | 2588 | 747 | 305 | 9 | ||
| 2024-10-16T11:38 | 2656 | 741 | 4.9 | -21.3 | ||
| 2024-10-16T11:39 | 2934 | 716 | 305 | 8 | ||
| 2024-10-16T11:39 | 2940 | 716 | 3.0 | -22.8 | ||
| 2024-10-16T11:40 | 3281 | 686 | 302 | 8 | ||
| 2024-10-16T11:40 | 3439 | 673 | 285 | 6 | ||
| 2024-10-16T11:40 | 3467 | 670 | -1.0 | -27.8 | ||
| 2024-10-16T11:41 | 3626 | 657 | 283 | 9 | ||
| 2024-10-16T11:42 | 3966 | 629 | 283 | 12 | ||
| 2024-10-16T11:42 | 4159 | 614 | 275 | 13 | ||
| 2024-10-16T11:42 | 4239 | 608 | -5.5 | -39.3 | ||
| 2024-10-16T11:43 | 4515 | 587 | 267 | 14 | ||
| 2024-10-16T11:43 | 4594 | 581 | -8.3 | -41.4 | ||
| 2024-10-16T11:44 | 4881 | 560 | 269 | 14 | ||
| 2024-10-16T11:44 | 4893 | 559 | -10.5 | -43.0 | ||
| 2024-10-16T11:45 | 5255 | 533 | 264 | 17 | ||
| 2024-10-16T11:46 | 5417 | 522 | -14.5 | -48.0 | ||
| 2024-10-16T11:46 | 5525 | 514 | 272 | 17 | ||
| 2024-10-16T11:47 | 5897 | 489 | 272 | 18 | ||
| 2024-10-16T11:48 | 6272 | 465 | 264 | 18 | ||
| 2024-10-16T11:48 | 6309 | 463 | -22.0 | -53.5 | ||
| 2024-10-16T11:49 | 6641 | 442 | 263 | 19 | ||
| 2024-10-16T11:49 | 6770 | 435 | -25.4 | -48.2 | ||
| 2024-10-16T11:50 | 6873 | 428 | 267 | 21 | ||
| 2024-10-16T11:50 | 7224 | 408 | -28.9 | -48.7 | ||
| 2024-10-16T11:51 | 7250 | 407 | 267 | 21 | ||
| 2024-10-16T11:52 | 7639 | 385 | 256 | 21 | ||
| 2024-10-16T11:52 | 7754 | 379 | -33.3 | -51.1 | ||
| 2024-10-16T11:52 | 7997 | 366 | 259 | 23 | ||
| 2024-10-16T11:54 | 8368 | 347 | 262 | 24 | ||
| 2024-10-16T11:54 | 8453 | 342 | -38.7 | -57.5 | ||
| 2024-10-16T11:54 | 8681 | 331 | -40.0 | -59.2 | ||
| 2024-10-16T11:55 | 8729 | 329 | 260 | 28 | ||
| 2024-10-16T11:56 | 9099 | 311 | 255 | 28 | ||
| 2024-10-16T11:56 | 9105 | 311 | -43.1 | |||
| 2024-10-16T11:56 | 9296 | 302 | -43.7 | |||
| 2024-10-16T11:56 | 9350 | 300 | -43.1 | 250 | 32 | |
| 2024-10-16T11:57 | 9553 | 291 | 253 | 36 | ||
| 2024-10-16T11:58 | 9897 | 276 | 257 | 38 | ||
| 2024-10-16T11:58 | 10020 | 271 | -45.8 | |||
| 2024-10-16T11:59 | 10252 | 262 | 256 | 41 | ||
| 2024-10-16T11:59 | 10332 | 259 | -47.6 | |||
| 2024-10-16T12:00 | 10637 | 247 | 251 | 45 | ||
| 2024-10-16T12:01 | 10915 | 237 | -50.7 | |||
| 2024-10-16T12:01 | 11002 | 234 | 256 | 44 | ||
| 2024-10-16T12:01 | 11092 | 231 | -49.9 | |||
| 2024-10-16T12:02 | 11295 | 224 | -50.6 | |||
| 2024-10-16T12:02 | 11341 | 222 | 253 | 43 | ||
| 2024-10-16T12:02 | 11471 | 218 | -50.9 | |||
| 2024-10-16T12:03 | 11671 | 211 | 252 | 45 | ||
| 2024-10-16T12:03 | 11851 | 205 | -53.4 | |||
| 2024-10-16T12:04 | 11978 | 201 | 251 | 47 | ||
| 2024-10-16T12:04 | 12061 | 199 | -53.2 | |||
| 2024-10-16T12:05 | 12293 | 192 | 249 | 47 | ||
| 2024-10-16T12:05 | 12324 | 191 | -54.1 | |||
| 2024-10-16T12:06 | 12614 | 182 | 251 | 48 | ||
| 2024-10-16T12:07 | 12918 | 174 | -55.7 | |||
| 2024-10-16T12:07 | 12939 | 173 | 253 | 46 | ||
| 2024-10-16T12:08 | 13266 | 164 | 254 | 48 | ||
| 2024-10-16T12:08 | 13391 | 161 | -58.2 | |||
| 2024-10-16T12:09 | 13517 | 158 | 259 | 48 | ||
| 2024-10-16T12:09 | 13769 | 152 | -57.5 | |||
| 2024-10-16T12:10 | 13861 | 150 | 264 | 47 | ||
| 2024-10-16T12:10 | 14174 | 142 | -59.2 | |||
| 2024-10-16T12:10 | 14180 | 142 | 261 | 39 | ||
| 2024-10-16T12:11 | 14394 | 137 | -59.6 | |||
| 2024-10-16T12:11 | 14500 | 135 | 261 | 40 | ||
| 2024-10-16T12:12 | 14590 | 133 | -58.6 | |||
| 2024-10-16T12:12 | 14770 | 129 | 256 | 37 | ||
| 2024-10-16T12:13 | 15016 | 124 | 263 | 37 | ||
| 2024-10-16T12:13 | 15060 | 124 | -58.8 | |||
| 2024-10-16T12:14 | 15243 | 120 | -59.0 | |||
| 2024-10-16T12:14 | 15349 | 118 | 257 | 34 | ||
| 2024-10-16T12:14 | 15418 | 117 | -58.7 | |||
| 2024-10-16T12:15 | 15698 | 112 | 260 | 35 | ||
| 2024-10-16T12:15 | 15727 | 111 | -59.4 | |||
| 2024-10-16T12:16 | 15864 | 109 | -58.8 | |||
| 2024-10-16T12:16 | 16062 | 105 | 262 | 29 | ||
| 2024-10-16T12:17 | 16225 | 103 | 254 | 24 | ||
| 2024-10-16T12:17 | 16237 | 102 | -59.4 | |||
| 2024-10-16T12:17 | 16364 | 100 | -58.7 | |||
| 2024-10-16T12:17 | 16479 | 99 | 250 | 30 | ||
| 2024-10-16T12:18 | 16598 | 97 | -57.9 | |||
| 2024-10-16T12:18 | 16823 | 93 | -57.0 | |||
| 2024-10-16T12:18 | 16842 | 93 | 265 | 30 | ||
| 2024-10-16T12:19 | 17167 | 88 | 265 | 20 | ||
| 2024-10-16T12:20 | 17527 | 83 | 254 | 22 | ||
| 2024-10-16T12:20 | 17573 | 83 | -57.7 | |||
| 2024-10-16T12:21 | 17711 | 81 | -54.9 | |||
| 2024-10-16T12:21 | 17726 | 81 | 253 | 25 | ||
| 2024-10-16T12:22 | 18116 | 76 | 249 | 24 | ||
| 2024-10-16T12:22 | 18267 | 74 | -59.0 | |||
| 2024-10-16T12:23 | 18498 | 72 | 251 | 23 | ||
| 2024-10-16T12:23 | 18559 | 71 | -58.7 | |||
| 2024-10-16T12:23 | 18811 | 68 | -57.6 | |||
| 2024-10-16T12:24 | 18870 | 67 | 254 | 18 | ||
| 2024-10-16T12:24 | 19128 | 65 | -56.6 | |||
| 2024-10-16T12:24 | 19156 | 64 | 247 | 17 | ||
| 2024-10-16T12:25 | 19528 | 61 | 270 | 18 | ||
| 2024-10-16T12:26 | 19902 | 57 | 276 | 12 | ||
| 2024-10-16T12:27 | 20136 | 55 | -59.3 | |||
| 2024-10-16T12:27 | 20204 | 55 | 267 | 14 | ||
| 2024-10-16T12:28 | 20597 | 51 | 256 | 10 | ||
| 2024-10-16T12:29 | 20806 | 50 | -60.0 | |||
| 2024-10-16T12:29 | 20871 | 49 | 230 | 16 | ||
| 2024-10-16T12:30 | 21237 | 46 | -61.0 | |||
| 2024-10-16T12:30 | 21263 | 46 | 236 | 17 | ||
| 2024-10-16T12:31 | 21553 | 44 | 269 | 20 | ||
| 2024-10-16T12:31 | 21685 | 43 | -58.3 | |||
| 2024-10-16T12:32 | 21937 | 41 | -56.7 | |||
| 2024-10-16T12:32 | 21971 | 41 | 306 | 12 | ||
| 2024-10-16T12:33 | 22402 | 38 | 354 | 6 | ||
| 2024-10-16T12:33 | 22417 | 38 | -57.3 | |||
| 2024-10-16T12:33 | 22584 | 37 | 36 | 2 | ||
| 2024-10-16T12:34 | 23002 | 35 | 255 | 2 | ||
| 2024-10-16T12:34 | 23132 | 34 | 250 | 5 | ||
| 2024-10-16T12:35 | 23222 | 34 | 223 | 1 | ||
| 2024-10-16T12:35 | 23452 | 33 | 283 | 3 | ||
| 2024-10-16T12:36 | 23667 | 31 | 299 | 9 | ||
| 2024-10-16T12:36 | 23688 | 31 | -57.5 | |||
| 2024-10-16T12:36 | 23964 | 30 | 5 | 6 | ||
| 2024-10-16T12:37 | 24129 | 29 | 29 | 3 | ||
| 2024-10-16T12:37 | 24234 | 29 | -58.2 | |||
| 2024-10-16T12:37 | 24277 | 29 | 196 | 1 | ||
| 2024-10-16T12:37 | 24390 | 28 | 184 | 3 | ||
| 2024-10-16T12:38 | 24595 | 27 | 211 | 1 | ||
| 2024-10-16T12:38 | 24621 | 27 | -57.2 | |||
| 2024-10-16T12:39 | 25032 | 25 | 254 | 1 | ||
| 2024-10-16T12:39 | 25134 | 25 | -56.2 | |||
| 2024-10-16T12:39 | 25185 | 25 | 341 | 6 | ||
| 2024-10-16T12:40 | 25422 | 24 | 15 | 1 | ||
| 2024-10-16T12:40 | 25666 | 23 | 291 | 3 | ||
| 2024-10-16T12:41 | 25805 | 22 | 320 | 5 | ||
| 2024-10-16T12:41 | 25974 | 22 | 308 | 7 | ||
| 2024-10-16T12:42 | 26332 | 21 | -55.6 | 353 | 12 | |
| 2024-10-16T23:30 | 18 | 1022 | 11.8 | 4.3 | 140 | 3 |
| 2024-10-16T23:30 | 22 | 1021 | 11.7 | 3.7 | 0 | 0 |
| 2024-10-16T23:30 | 113 | 1010 | 140 | 3 | ||
| 2024-10-16T23:30 | 134 | 1008 | 10.4 | 1.7 | ||
| 2024-10-16T23:31 | 202 | 999 | 11.7 | 1.3 | ||
| 2024-10-16T23:31 | 229 | 996 | 120 | 3 | ||
| 2024-10-16T23:31 | 327 | 985 | 11.2 | 0.3 | ||
| 2024-10-16T23:31 | 472 | 968 | 10.7 | 1.0 | ||
| 2024-10-16T23:32 | 528 | 961 | 246 | 2 | ||
| 2024-10-16T23:32 | 723 | 939 | 243 | 2 | ||
| 2024-10-16T23:32 | 843 | 925 | 288 | 3 | ||
| 2024-10-16T23:33 | 954 | 913 | 290 | 3 | ||
| 2024-10-16T23:33 | 993 | 908 | 6.3 | 1.4 | ||
| 2024-10-16T23:33 | 1088 | 898 | 288 | 7 | ||
| 2024-10-16T23:34 | 1278 | 877 | 4.5 | -0.3 | ||
| 2024-10-16T23:34 | 1433 | 861 | 290 | 12 | ||
| 2024-10-16T23:34 | 1488 | 855 | 4.0 | -2.8 | ||
| 2024-10-16T23:34 | 1512 | 852 | 4.3 | -5.5 | ||
| 2024-10-16T23:34 | 1548 | 848 | 6.0 | -12.6 | ||
| 2024-10-16T23:35 | 1596 | 844 | 7.3 | -23.6 | ||
| 2024-10-16T23:35 | 1602 | 843 | 273 | 10 | ||
| 2024-10-16T23:35 | 1751 | 828 | 7.2 | -28.1 | ||
| 2024-10-16T23:35 | 1859 | 817 | 256 | 15 | ||
| 2024-10-16T23:36 | 1958 | 807 | 6.9 | -25.2 | ||
| 2024-10-16T23:36 | 2009 | 802 | 6.8 | -25.3 | ||
| 2024-10-16T23:36 | 2045 | 799 | 252 | 16 | ||
| 2024-10-16T23:37 | 2276 | 777 | 5.7 | -33.5 | ||
| 2024-10-16T23:37 | 2362 | 768 | 5.5 | -29.4 | 252 | 17 |
| 2024-10-16T23:38 | 2689 | 738 | 253 | 18 | ||
| 2024-10-16T23:38 | 2822 | 726 | 2.7 | -31.4 | ||
| 2024-10-16T23:39 | 3023 | 708 | 267 | 19 | ||
| 2024-10-16T23:40 | 3251 | 688 | 265 | 20 | ||
| 2024-10-16T23:40 | 3263 | 687 | 0.3 | -35.1 | ||
| 2024-10-16T23:41 | 3597 | 659 | 261 | 22 | ||
| 2024-10-16T23:41 | 3791 | 643 | 264 | 23 | ||
| 2024-10-16T23:42 | 3944 | 631 | -3.3 | -31.8 | ||
| 2024-10-16T23:42 | 4011 | 626 | -3.8 | -23.5 | ||
| 2024-10-16T23:42 | 4152 | 615 | -4.9 | -18.7 | 257 | 25 |
| 2024-10-16T23:43 | 4524 | 586 | 259 | 26 | ||
| 2024-10-16T23:44 | 4882 | 559 | -10.2 | -24.1 | ||
| 2024-10-16T23:44 | 4888 | 559 | 260 | 29 | ||
| 2024-10-16T23:45 | 5248 | 533 | 261 | 28 | ||
| 2024-10-16T23:46 | 5544 | 513 | -15.9 | -23.3 | ||
| 2024-10-16T23:46 | 5596 | 510 | 266 | 29 | ||
| 2024-10-16T23:46 | 5624 | 508 | -15.4 | -31.4 | ||
| 2024-10-16T23:46 | 5709 | 502 | -15.5 | -35.1 | ||
| 2024-10-16T23:47 | 5931 | 487 | 262 | 30 | ||
| 2024-10-16T23:48 | 6059 | 479 | -18.3 | -32.4 | ||
| 2024-10-16T23:48 | 6248 | 467 | 260 | 31 | ||
| 2024-10-16T23:48 | 6274 | 465 | -20.1 | -34.7 | ||
| 2024-10-16T23:49 | 6402 | 457 | -20.8 | -37.9 | ||
| 2024-10-16T23:49 | 6534 | 449 | -21.9 | -37.1 | ||
| 2024-10-16T23:49 | 6551 | 448 | 266 | 33 | ||
| 2024-10-16T23:49 | 6624 | 444 | -22.6 | -37.7 | ||
| 2024-10-16T23:50 | 6703 | 439 | -23.3 | -38.3 | ||
| 2024-10-16T23:50 | 6860 | 430 | -24.8 | -40.9 | ||
| 2024-10-16T23:50 | 6889 | 428 | 264 | 34 | ||
| 2024-10-16T23:50 | 6945 | 425 | -25.5 | -39.4 | ||
| 2024-10-16T23:51 | 7233 | 408 | 262 | 32 | ||
| 2024-10-16T23:51 | 7306 | 404 | -28.7 | -42.2 | ||
| 2024-10-16T23:52 | 7594 | 388 | 263 | 34 | ||
| 2024-10-16T23:52 | 7612 | 387 | -31.5 | -39.7 | ||
| 2024-10-16T23:53 | 7909 | 371 | 268 | 37 | ||
| 2024-10-16T23:53 | 7978 | 367 | -34.5 | -41.7 | ||
| 2024-10-16T23:53 | 8095 | 361 | -35.6 | -42.9 | ||
| 2024-10-16T23:54 | 8251 | 353 | 272 | 38 | ||
| 2024-10-16T23:54 | 8263 | 353 | -36.8 | -48.4 | ||
| 2024-10-16T23:55 | 8581 | 337 | -39.5 | -46.2 | ||
| 2024-10-16T23:55 | 8592 | 336 | 273 | 40 | ||
| 2024-10-16T23:55 | 8640 | 334 | -40.0 | -47.2 | ||
| 2024-10-16T23:56 | 8791 | 327 | -40.8 | |||
| 2024-10-16T23:56 | 8914 | 321 | 272 | 41 | ||
| 2024-10-16T23:56 | 9082 | 313 | -42.3 | |||
| 2024-10-16T23:57 | 9194 | 308 | 272 | 45 | ||
| 2024-10-16T23:57 | 9316 | 302 | -43.2 | |||
| 2024-10-16T23:57 | 9400 | 299 | 273 | 48 | ||
| 2024-10-16T23:58 | 9717 | 285 | 271 | 48 | ||
| 2024-10-16T23:59 | 9743 | 284 | -46.0 | |||
| 2024-10-16T23:59 | 10026 | 272 | 271 | 48 | ||
| 2024-10-17T00:00 | 10345 | 259 | 271 | 45 | ||
| 2024-10-17T00:01 | 10672 | 246 | 272 | 44 | ||
| 2024-10-17T00:02 | 11040 | 232 | 273 | 43 | ||
| 2024-10-17T00:03 | 11287 | 223 | 267 | 41 | ||
| 2024-10-17T00:03 | 11333 | 222 | -58.5 | |||
| 2024-10-17T00:04 | 11608 | 212 | 264 | 44 | ||
| 2024-10-17T00:04 | 11659 | 211 | -57.3 | |||
| 2024-10-17T00:05 | 11852 | 204 | 268 | 50 | ||
| 2024-10-17T00:05 | 11924 | 202 | -55.0 | |||
| 2024-10-17T00:06 | 12091 | 197 | 273 | 50 | ||
| 2024-10-17T00:06 | 12324 | 190 | -54.2 | |||
| 2024-10-17T00:06 | 12339 | 189 | 273 | 45 | ||
| 2024-10-17T00:07 | 12643 | 181 | 273 | 42 | ||
| 2024-10-17T00:08 | 12951 | 172 | 263 | 40 | ||
| 2024-10-17T00:09 | 13033 | 170 | -55.6 | |||
| 2024-10-17T00:10 | 13273 | 164 | -56.2 | 257 | 39 | |
| 2024-10-17T00:10 | 13598 | 155 | 256 | 43 | ||
| 2024-10-17T00:11 | 13647 | 154 | -58.0 | |||
| 2024-10-17T00:11 | 13934 | 147 | 262 | 41 | ||
| 2024-10-17T00:12 | 14048 | 145 | -57.5 | |||
| 2024-10-17T00:12 | 14270 | 140 | 255 | 42 | ||
| 2024-10-17T00:13 | 14420 | 136 | -59.7 | |||
| 2024-10-17T00:13 | 14478 | 135 | 259 | 41 | ||
| 2024-10-17T00:14 | 14752 | 129 | 257 | 36 | ||
| 2024-10-17T00:15 | 14930 | 126 | -61.1 | |||
| 2024-10-17T00:15 | 15021 | 124 | 261 | 38 | ||
| 2024-10-17T00:15 | 15148 | 121 | 262 | 35 | ||
| 2024-10-17T00:16 | 15462 | 115 | 258 | 34 | ||
| 2024-10-17T00:17 | 15534 | 114 | -60.7 | |||
| 2024-10-17T00:17 | 15778 | 110 | 260 | 35 | ||
| 2024-10-17T00:18 | 16102 | 104 | 257 | 30 | ||
| 2024-10-17T00:19 | 16184 | 103 | -62.5 | |||
| 2024-10-17T00:19 | 16387 | 99 | 252 | 36 | ||
| 2024-10-17T00:20 | 16499 | 98 | -61.0 | |||
| 2024-10-17T00:20 | 16525 | 97 | 253 | 36 | ||
| 2024-10-17T00:20 | 16786 | 93 | 265 | 35 | ||
| 2024-10-17T00:21 | 16906 | 91 | -60.9 | |||
| 2024-10-17T00:21 | 17054 | 89 | 263 | 26 | ||
| 2024-10-17T00:22 | 17205 | 87 | -59.4 | |||
| 2024-10-17T00:22 | 17406 | 84 | 254 | 28 | ||
| 2024-10-17T00:22 | 17463 | 84 | -58.5 | |||
| 2024-10-17T00:23 | 17639 | 81 | -58.3 | |||
| 2024-10-17T00:23 | 17677 | 81 | 268 | 27 | ||
| 2024-10-17T00:24 | 17933 | 78 | -57.8 | |||
| 2024-10-17T00:24 | 18015 | 77 | 260 | 22 | ||
| 2024-10-17T00:25 | 18208 | 74 | -56.2 | |||
| 2024-10-17T00:25 | 18330 | 73 | 242 | 16 | ||
| 2024-10-17T00:26 | 18594 | 70 | 245 | 19 | ||
| 2024-10-17T00:26 | 18705 | 69 | -56.0 | |||
| 2024-10-17T00:27 | 18940 | 66 | 253 | 18 | ||
| 2024-10-17T00:28 | 19297 | 63 | 241 | 18 | ||
| 2024-10-17T00:28 | 19388 | 62 | -56.7 | |||
| 2024-10-17T00:29 | 19669 | 59 | 236 | 19 | ||
| 2024-10-17T00:29 | 19766 | 58 | 240 | 19 | ||
| 2024-10-17T00:29 | 19888 | 57 | 247 | 21 | ||
| 2024-10-17T00:30 | 20033 | 56 | -59.2 | |||
| 2024-10-17T00:30 | 20273 | 54 | 268 | 13 | ||
| 2024-10-17T00:31 | 20486 | 52 | -59.0 | |||
| 2024-10-17T00:31 | 20650 | 51 | 277 | 15 | ||
| 2024-10-17T00:32 | 20965 | 48 | 282 | 13 | ||
| 2024-10-17T00:32 | 21043 | 47 | -59.7 | |||
| 2024-10-17T00:33 | 21152 | 47 | -58.5 | |||
| 2024-10-17T00:33 | 21357 | 45 | 268 | 11 | ||
| 2024-10-17T00:33 | 21469 | 44 | -59.5 | 265 | 11 | |
| 2024-10-17T11:30 | 18 | 1023 | 13.2 | 8.1 | 310 | 1 |
| 2024-10-17T11:30 | 22 | 1023 | 13.1 | 7.1 | 0 | 0 |
| 2024-10-17T11:30 | 52 | 1019 | 13.7 | 6.3 | ||
| 2024-10-17T11:30 | 149 | 1007 | 331 | 3 | ||
| 2024-10-17T11:31 | 228 | 998 | 316 | 3 | ||
| 2024-10-17T11:31 | 266 | 994 | 11.8 | 5.7 | ||
| 2024-10-17T11:31 | 341 | 985 | 321 | 9 | ||
| 2024-10-17T11:32 | 517 | 964 | 10.5 | 2.6 | ||
| 2024-10-17T11:32 | 569 | 958 | 320 | 8 | ||
| 2024-10-17T11:32 | 796 | 932 | 9.4 | -9.2 | ||
| 2024-10-17T11:33 | 885 | 922 | 317 | 6 | ||
| 2024-10-17T11:33 | 967 | 913 | 8.4 | -10.0 | ||
| 2024-10-17T11:33 | 1088 | 899 | 8.3 | -14.0 | ||
| 2024-10-17T11:34 | 1170 | 890 | 7.8 | -5.3 | ||
| 2024-10-17T11:34 | 1203 | 887 | 298 | 7 | ||
| 2024-10-17T11:34 | 1306 | 876 | 7.6 | -4.8 | ||
| 2024-10-17T11:34 | 1383 | 868 | 7.5 | -5.9 | ||
| 2024-10-17T11:35 | 1448 | 861 | 7.0 | -4.7 | ||
| 2024-10-17T11:35 | 1496 | 856 | 292 | 10 | ||
| 2024-10-17T11:35 | 1584 | 847 | 6.3 | -10.9 | ||
| 2024-10-17T11:36 | 1833 | 821 | 282 | 12 | ||
| 2024-10-17T11:36 | 1884 | 816 | 5.0 | -13.9 | ||
| 2024-10-17T11:36 | 1997 | 805 | 4.1 | -8.0 | ||
| 2024-10-17T11:37 | 2173 | 788 | 286 | 15 | ||
| 2024-10-17T11:37 | 2255 | 780 | 2.2 | -10.3 | ||
| 2024-10-17T11:37 | 2326 | 773 | 2.1 | -15.9 | ||
| 2024-10-17T11:37 | 2397 | 766 | 2.6 | -22.3 | ||
| 2024-10-17T11:37 | 2445 | 762 | 2.9 | -31.3 | ||
| 2024-10-17T11:38 | 2503 | 756 | 3.0 | -48.5 | ||
| 2024-10-17T11:38 | 2526 | 754 | 283 | 16 | ||
| 2024-10-17T11:38 | 2732 | 735 | 2.5 | -42.5 | ||
| 2024-10-17T11:39 | 2859 | 724 | 286 | 18 | ||
| 2024-10-17T11:39 | 3078 | 704 | 288 | 18 | ||
| 2024-10-17T11:40 | 3396 | 677 | 290 | 18 | ||
| 2024-10-17T11:41 | 3497 | 668 | -1.4 | -32.9 | ||
| 2024-10-17T11:41 | 3718 | 650 | 295 | 22 | ||
| 2024-10-17T11:42 | 3896 | 635 | -2.9 | -35.6 | ||
| 2024-10-17T11:42 | 4049 | 623 | 280 | 23 | ||
| 2024-10-17T11:43 | 4355 | 599 | -5.9 | -41.8 | ||
| 2024-10-17T11:43 | 4378 | 598 | 279 | 23 | ||
| 2024-10-17T11:44 | 4693 | 574 | 281 | 25 | ||
| 2024-10-17T11:45 | 4991 | 552 | 277 | 27 | ||
| 2024-10-17T11:46 | 5142 | 541 | -11.4 | -57.6 | ||
| 2024-10-17T11:46 | 5284 | 532 | 283 | 29 | ||
| 2024-10-17T11:46 | 5447 | 520 | -13.4 | -37.7 | ||
| 2024-10-17T11:47 | 5569 | 512 | 285 | 27 | ||
| 2024-10-17T11:47 | 5823 | 495 | -16.6 | -39.4 | ||
| 2024-10-17T11:47 | 5841 | 494 | 293 | 30 | ||
| 2024-10-17T11:48 | 5994 | 484 | -17.1 | -47.9 | ||
| 2024-10-17T11:48 | 6150 | 474 | -18.0 | -50.5 | ||
| 2024-10-17T11:48 | 6198 | 471 | 296 | 30 | ||
| 2024-10-17T11:49 | 6538 | 450 | 302 | 34 | ||
| 2024-10-17T11:50 | 6786 | 435 | -23.1 | -48.3 | ||
| 2024-10-17T11:50 | 6879 | 429 | 300 | 34 | ||
| 2024-10-17T11:51 | 7130 | 415 | -25.9 | -53.0 | ||
| 2024-10-17T11:51 | 7158 | 413 | 294 | 35 | ||
| 2024-10-17T11:51 | 7237 | 409 | -25.6 | -54.3 | ||
| 2024-10-17T11:52 | 7335 | 403 | -25.7 | -54.4 | ||
| 2024-10-17T11:52 | 7426 | 398 | 289 | 42 | ||
| 2024-10-17T11:53 | 7757 | 380 | 288 | 41 | ||
| 2024-10-17T11:54 | 7930 | 371 | -31.0 | -50.4 | ||
| 2024-10-17T11:54 | 8104 | 362 | 282 | 42 | ||
| 2024-10-17T11:54 | 8127 | 361 | -32.6 | -51.1 | ||
| 2024-10-17T11:54 | 8184 | 358 | -32.8 | -42.1 | ||
| 2024-10-17T11:55 | 8275 | 353 | -32.7 | -40.8 | ||
| 2024-10-17T11:55 | 8446 | 345 | 279 | 48 | ||
| 2024-10-17T11:55 | 8550 | 340 | -33.6 | -42.3 | ||
| 2024-10-17T11:56 | 8671 | 334 | -34.6 | -44.0 | ||
| 2024-10-17T11:56 | 8778 | 329 | 279 | 48 | ||
| 2024-10-17T11:56 | 8789 | 328 | -35.5 | -47.2 | ||
| 2024-10-17T11:56 | 8859 | 325 | -35.9 | -52.2 | ||
| 2024-10-17T11:57 | 9047 | 316 | -37.4 | -57.1 | ||
| 2024-10-17T11:57 | 9130 | 313 | 280 | 46 | ||
| 2024-10-17T11:58 | 9336 | 303 | -40.0 | -60.0 | ||
| 2024-10-17T11:58 | 9470 | 297 | 277 | 48 | ||
| 2024-10-17T11:59 | 9813 | 283 | 278 | 49 | ||
| 2024-10-17T12:00 | 10158 | 268 | 280 | 51 | ||
| 2024-10-17T12:01 | 10484 | 255 | 279 | 52 | ||
| 2024-10-17T12:02 | 10818 | 243 | 278 | 54 | ||
| 2024-10-17T12:03 | 11020 | 235 | -54.7 | |||
| 2024-10-17T12:03 | 11154 | 230 | 276 | 53 | ||
| 2024-10-17T12:04 | 11485 | 219 | 274 | 55 | ||
| 2024-10-17T12:05 | 11825 | 207 | 273 | 54 | ||
| 2024-10-17T12:05 | 11893 | 205 | -61.4 | |||
| 2024-10-17T12:06 | 12063 | 199 | -61.7 | |||
| 2024-10-17T12:06 | 12143 | 197 | 266 | 53 | ||
| 2024-10-17T12:06 | 12158 | 196 | -60.7 | |||
| 2024-10-17T12:07 | 12334 | 191 | -61.7 | |||
| 2024-10-17T12:07 | 12388 | 189 | 265 | 51 | ||
| 2024-10-17T12:07 | 12513 | 185 | -61.1 | |||
| 2024-10-17T12:08 | 12650 | 181 | 266 | 57 | ||
| 2024-10-17T12:08 | 12757 | 178 | -60.0 | |||
| 2024-10-17T12:09 | 12898 | 174 | -59.4 | 270 | 51 | |
| 2024-10-17T12:09 | 12977 | 172 | -57.6 | |||
| 2024-10-17T12:10 | 13213 | 166 | 273 | 50 | ||
| 2024-10-17T12:10 | 13275 | 164 | -58.0 | |||
| 2024-10-17T12:11 | 13532 | 157 | 279 | 49 | ||
| 2024-10-17T12:11 | 13570 | 157 | -59.0 | |||
| 2024-10-17T12:12 | 13854 | 150 | 279 | 46 | ||
| 2024-10-17T12:12 | 14023 | 146 | -59.4 | |||
| 2024-10-17T12:12 | 14142 | 143 | -59.1 | |||
| 2024-10-17T12:13 | 14174 | 142 | 280 | 43 | ||
| 2024-10-17T12:13 | 14348 | 138 | -59.1 | |||
| 2024-10-17T12:13 | 14502 | 135 | 281 | 38 | ||
| 2024-10-17T12:14 | 14872 | 127 | 281 | 37 | ||
| 2024-10-17T12:15 | 15010 | 124 | -61.2 | |||
| 2024-10-17T12:16 | 15263 | 119 | 278 | 36 | ||
| 2024-10-17T12:16 | 15307 | 118 | -62.8 | |||
| 2024-10-17T12:17 | 15633 | 112 | 277 | 36 | ||
| 2024-10-17T12:17 | 15797 | 109 | -61.5 | |||
| 2024-10-17T12:17 | 15898 | 108 | -60.6 | |||
| 2024-10-17T12:18 | 15992 | 106 | 262 | 33 | ||
| 2024-10-17T12:18 | 16159 | 103 | -61.5 | |||
| 2024-10-17T12:19 | 16330 | 100 | 268 | 33 | ||
| 2024-10-17T12:19 | 16426 | 99 | -61.4 | |||
| 2024-10-17T12:19 | 16527 | 97 | -59.9 | |||
| 2024-10-17T12:20 | 16689 | 95 | 264 | 34 | ||
| 2024-10-17T12:20 | 16760 | 94 | -60.1 | |||
| 2024-10-17T12:21 | 17040 | 90 | 265 | 35 | ||
| 2024-10-17T12:21 | 17068 | 89 | -60.5 | |||
| 2024-10-17T12:21 | 17374 | 85 | 277 | 34 | ||
| 2024-10-17T12:22 | 17393 | 85 | -58.5 | |||
| 2024-10-17T12:22 | 17512 | 83 | 277 | 26 | ||
| 2024-10-17T12:23 | 17782 | 80 | 280 | 24 | ||
| 2024-10-17T12:24 | 18099 | 76 | 267 | 25 | ||
| 2024-10-17T12:24 | 18105 | 76 | -58.5 | |||
| 2024-10-17T12:24 | 18352 | 73 | -58.4 | |||
| 2024-10-17T12:25 | 18473 | 71 | -58.7 | |||
| 2024-10-17T12:25 | 18492 | 71 | 257 | 28 | ||
| 2024-10-17T12:25 | 18753 | 68 | 269 | 28 | ||
| 2024-10-17T12:26 | 18799 | 68 | -59.2 | |||
| 2024-10-17T12:26 | 19005 | 65 | -58.4 | |||
| 2024-10-17T12:26 | 19025 | 65 | 266 | 20 | ||
| 2024-10-17T12:27 | 19293 | 63 | 260 | 23 | ||
| 2024-10-17T12:27 | 19432 | 61 | -59.6 | |||
| 2024-10-17T12:27 | 19545 | 60 | 271 | 27 | ||
| 2024-10-17T12:28 | 19597 | 60 | -57.4 | |||
| 2024-10-17T12:28 | 19748 | 58 | 292 | 20 | ||
| 2024-10-17T12:28 | 19761 | 58 | -55.6 | |||
| 2024-10-17T12:28 | 19915 | 57 | 295 | 17 | ||
| 2024-10-17T12:29 | 20191 | 54 | 278 | 6 | ||
| 2024-10-17T12:29 | 20345 | 53 | 230 | 6 | ||
| 2024-10-17T12:30 | 20493 | 52 | 208 | 8 | ||
| 2024-10-17T12:30 | 20603 | 51 | -57.6 | |||
| 2024-10-17T12:31 | 20864 | 49 | 243 | 9 | ||
| 2024-10-17T12:31 | 21103 | 47 | 246 | 10 | ||
| 2024-10-17T12:32 | 21255 | 46 | -58.8 | |||
| 2024-10-17T12:32 | 21363 | 45 | 285 | 10 | ||
| 2024-10-17T12:33 | 21602 | 43 | 268 | 9 | ||
| 2024-10-17T12:33 | 21782 | 42 | -56.8 | |||
| 2024-10-17T12:33 | 21827 | 42 | 263 | 9 | ||
| 2024-10-17T12:34 | 21948 | 41 | 270 | 6 | ||
| 2024-10-17T12:34 | 22075 | 40 | 263 | 7 | ||
| 2024-10-17T12:34 | 22182 | 40 | 202 | 6 | ||
| 2024-10-17T12:34 | 22215 | 39 | -58.2 | |||
| 2024-10-17T12:35 | 22493 | 38 | 227 | 7 | ||
| 2024-10-17T12:36 | 22734 | 36 | -58.1 | |||
| 2024-10-17T12:36 | 22892 | 35 | 280 | 8 | ||
| 2024-10-17T12:37 | 23185 | 34 | 275 | 6 | ||
| 2024-10-17T12:37 | 23296 | 33 | -57.6 | |||
| 2024-10-17T12:37 | 23394 | 33 | 308 | 8 | ||
| 2024-10-17T12:38 | 23609 | 32 | 18 | 8 | ||
| 2024-10-17T12:38 | 23670 | 31 | -55.8 | |||
| 2024-10-17T12:39 | 23898 | 30 | 13 | 3 | ||
| 2024-10-17T12:39 | 24028 | 30 | 260 | 3 | ||
| 2024-10-17T12:39 | 24200 | 29 | 269 | 5 | ||
| 2024-10-17T12:40 | 24539 | 27 | -56.4 | |||
| 2024-10-17T12:40 | 24566 | 27 | 327 | 8 | ||
| 2024-10-17T12:41 | 24771 | 26 | -57.5 | 9 | 5 | |
| 2024-10-17T23:30 | 18 | 1024 | 13.0 | 4.7 | 130 | 2 |
| 2024-10-17T23:30 | 23 | 1024 | 13.1 | 3.7 | 0 | 0 |
| 2024-10-17T23:30 | 71 | 1018 | 99 | 3 | ||
| 2024-10-17T23:30 | 123 | 1011 | 11.5 | 2.3 | ||
| 2024-10-17T23:31 | 242 | 997 | 11.8 | 3.8 | ||
| 2024-10-17T23:31 | 264 | 995 | 148 | 6 | ||
| 2024-10-17T23:31 | 472 | 970 | 11.0 | 2.8 | ||
| 2024-10-17T23:31 | 508 | 966 | 164 | 9 | ||
| 2024-10-17T23:32 | 551 | 961 | 11.8 | -2.8 | ||
| 2024-10-17T23:32 | 696 | 944 | 12.3 | -4.3 | ||
| 2024-10-17T23:32 | 727 | 941 | 171 | 7 | ||
| 2024-10-17T23:32 | 873 | 925 | 11.3 | -4.8 | ||
| 2024-10-17T23:33 | 973 | 914 | 206 | 3 | ||
| 2024-10-17T23:33 | 1119 | 898 | 10.0 | -7.7 | ||
| 2024-10-17T23:33 | 1196 | 889 | 230 | 8 | ||
| 2024-10-17T23:34 | 1260 | 882 | 10.5 | -9.8 | ||
| 2024-10-17T23:34 | 1294 | 879 | 11.1 | -11.0 | ||
| 2024-10-17T23:34 | 1323 | 876 | 257 | 4 | ||
| 2024-10-17T23:34 | 1399 | 868 | 10.6 | -11.5 | ||
| 2024-10-17T23:34 | 1530 | 854 | 9.9 | -6.4 | ||
| 2024-10-17T23:34 | 1570 | 850 | 283 | 6 | ||
| 2024-10-17T23:35 | 1701 | 837 | 266 | 8 | ||
| 2024-10-17T23:35 | 1785 | 828 | 8.3 | -4.2 | ||
| 2024-10-17T23:36 | 2039 | 803 | 259 | 8 | ||
| 2024-10-17T23:36 | 2107 | 796 | 6.0 | -3.6 | ||
| 2024-10-17T23:36 | 2242 | 783 | 5.4 | -6.5 | ||
| 2024-10-17T23:36 | 2275 | 780 | 244 | 14 | ||
| 2024-10-17T23:37 | 2419 | 767 | 3.9 | -1.7 | ||
| 2024-10-17T23:37 | 2462 | 763 | 261 | 11 | ||
| 2024-10-17T23:37 | 2523 | 757 | 3.3 | -3.7 | ||
| 2024-10-17T23:37 | 2578 | 752 | 3.8 | -6.8 | ||
| 2024-10-17T23:38 | 2707 | 740 | 275 | 17 | ||
| 2024-10-17T23:38 | 2724 | 739 | 4.6 | -15.3 | ||
| 2024-10-17T23:38 | 2848 | 727 | 4.2 | -14.6 | ||
| 2024-10-17T23:39 | 2944 | 719 | 3.6 | -10.1 | ||
| 2024-10-17T23:39 | 2994 | 714 | 271 | 15 | ||
| 2024-10-17T23:39 | 3074 | 707 | 2.8 | -9.8 | ||
| 2024-10-17T23:39 | 3125 | 703 | 2.8 | -11.9 | ||
| 2024-10-17T23:39 | 3269 | 690 | 2.6 | -13.3 | ||
| 2024-10-17T23:40 | 3335 | 685 | 3.2 | -15.5 | ||
| 2024-10-17T23:40 | 3340 | 684 | 267 | 16 | ||
| 2024-10-17T23:40 | 3564 | 665 | 2.2 | -14.0 | ||
| 2024-10-17T23:41 | 3664 | 657 | 277 | 16 | ||
| 2024-10-17T23:41 | 3821 | 645 | 0.2 | -14.2 | ||
| 2024-10-17T23:42 | 4013 | 629 | 263 | 19 | ||
| 2024-10-17T23:43 | 4366 | 602 | 270 | 15 | ||
| 2024-10-17T23:43 | 4415 | 598 | -5.1 | -14.9 | ||
| 2024-10-17T23:44 | 4722 | 575 | 270 | 16 | ||
| 2024-10-17T23:44 | 4905 | 562 | -8.9 | -18.9 | ||
| 2024-10-17T23:45 | 5041 | 552 | 254 | 19 | ||
| 2024-10-17T23:45 | 5262 | 536 | -10.9 | -24.7 | ||
| 2024-10-17T23:45 | 5313 | 533 | -11.2 | -26.9 | ||
| 2024-10-17T23:46 | 5382 | 528 | 259 | 25 | ||
| 2024-10-17T23:46 | 5432 | 524 | -11.4 | -36.1 | ||
| 2024-10-17T23:46 | 5650 | 510 | -12.6 | -29.9 | ||
| 2024-10-17T23:47 | 5716 | 505 | 261 | 25 | ||
| 2024-10-17T23:47 | 5750 | 503 | -13.5 | -28.2 | ||
| 2024-10-17T23:47 | 6005 | 486 | 264 | 25 | ||
| 2024-10-17T23:48 | 6187 | 475 | -16.9 | -31.5 | ||
| 2024-10-17T23:48 | 6232 | 472 | 269 | 23 | ||
| 2024-10-17T23:48 | 6370 | 463 | 265 | 25 | ||
| 2024-10-17T23:49 | 6444 | 459 | -18.8 | -33.2 | ||
| 2024-10-17T23:49 | 6680 | 444 | -20.7 | -31.1 | ||
| 2024-10-17T23:49 | 6697 | 443 | 279 | 25 | ||
| 2024-10-17T23:50 | 7039 | 423 | 279 | 28 | ||
| 2024-10-17T23:51 | 7078 | 421 | -23.8 | -33.1 | ||
| 2024-10-17T23:51 | 7201 | 414 | -24.9 | -32.5 | ||
| 2024-10-17T23:51 | 7273 | 410 | -25.2 | -38.8 | ||
| 2024-10-17T23:51 | 7302 | 408 | -25.4 | -40.1 | ||
| 2024-10-17T23:51 | 7358 | 405 | -25.8 | -33.6 | ||
| 2024-10-17T23:51 | 7375 | 404 | 272 | 28 | ||
| 2024-10-17T23:52 | 7634 | 390 | -28.0 | -32.4 | ||
| 2024-10-17T23:52 | 7708 | 386 | 271 | 27 | ||
| 2024-10-17T23:53 | 7915 | 375 | -30.0 | -33.4 | ||
| 2024-10-17T23:53 | 7944 | 373 | 270 | 29 | ||
| 2024-10-17T23:53 | 7999 | 370 | -30.2 | -34.5 | ||
| 2024-10-17T23:54 | 8186 | 361 | -31.4 | -34.9 | ||
| 2024-10-17T23:54 | 8264 | 357 | 266 | 32 | ||
| 2024-10-17T23:54 | 8307 | 354 | -31.0 | -36.6 | ||
| 2024-10-17T23:55 | 8574 | 341 | -31.9 | -37.8 | ||
| 2024-10-17T23:55 | 8590 | 341 | 266 | 31 | ||
| 2024-10-17T23:56 | 8908 | 326 | 267 | 29 | ||
| 2024-10-17T23:57 | 9127 | 315 | -36.6 | -41.4 | ||
| 2024-10-17T23:57 | 9232 | 311 | 267 | 29 | ||
| 2024-10-17T23:58 | 9514 | 298 | -39.8 | -44.5 | ||
| 2024-10-17T23:58 | 9532 | 297 | -40.0 | -44.6 | ||
| 2024-10-17T23:58 | 9579 | 295 | 267 | 30 | ||
| 2024-10-17T23:59 | 9935 | 280 | 269 | 33 | ||
| 2024-10-18T00:00 | 10277 | 266 | 275 | 34 | ||
| 2024-10-18T00:01 | 10617 | 253 | 272 | 34 | ||
| 2024-10-18T00:01 | 10651 | 252 | -49.8 | |||
| 2024-10-18T00:02 | 10959 | 240 | 271 | 38 | ||
| 2024-10-18T00:03 | 11240 | 230 | 276 | 43 | ||
| 2024-10-18T00:04 | 11520 | 220 | -57.0 | |||
| 2024-10-18T00:04 | 11618 | 216 | 281 | 40 | ||
| 2024-10-18T00:05 | 12026 | 203 | 294 | 41 | ||
| 2024-10-18T00:05 | 12149 | 199 | -61.7 | |||
| 2024-10-18T00:05 | 12255 | 195 | -60.7 | |||
| 2024-10-18T00:06 | 12272 | 195 | 299 | 45 | ||
| 2024-10-18T00:06 | 12479 | 188 | -60.4 | |||
| 2024-10-18T00:06 | 12550 | 186 | 285 | 41 | ||
| 2024-10-18T00:07 | 12754 | 180 | -59.7 | |||
| 2024-10-18T00:07 | 12881 | 177 | 283 | 45 | ||
| 2024-10-18T00:08 | 12931 | 175 | -60.3 | |||
| 2024-10-18T00:08 | 13217 | 167 | 283 | 44 | ||
| 2024-10-18T00:09 | 13378 | 163 | -62.1 | |||
| 2024-10-18T00:09 | 13518 | 159 | 275 | 39 | ||
| 2024-10-18T00:10 | 13686 | 155 | -62.9 | |||
| 2024-10-18T00:10 | 13828 | 152 | 271 | 41 | ||
| 2024-10-18T00:11 | 14147 | 144 | 274 | 43 | ||
| 2024-10-18T00:11 | 14226 | 142 | -65.4 | |||
| 2024-10-18T00:12 | 14466 | 137 | 277 | 39 | ||
| 2024-10-18T00:13 | 14774 | 130 | -64.3 | |||
| 2024-10-18T00:13 | 14795 | 129 | 281 | 36 | ||
| 2024-10-18T00:13 | 14850 | 128 | -63.4 | |||
| 2024-10-18T00:14 | 15053 | 124 | 275 | 32 | ||
| 2024-10-18T00:15 | 15363 | 118 | 267 | 35 | ||
| 2024-10-18T00:15 | 15494 | 115 | -63.2 | |||
| 2024-10-18T00:16 | 15695 | 112 | 278 | 39 | ||
| 2024-10-18T00:16 | 15828 | 109 | -63.7 | |||
| 2024-10-18T00:17 | 15972 | 107 | 271 | 33 | ||
| 2024-10-18T00:18 | 16224 | 102 | -63.2 | |||
| 2024-10-18T00:18 | 16307 | 101 | 271 | 31 | ||
| 2024-10-18T00:18 | 16519 | 98 | 268 | 35 | ||
| 2024-10-18T00:18 | 16533 | 97 | -63.5 | |||
| 2024-10-18T00:19 | 16848 | 93 | 270 | 34 | ||
| 2024-10-18T00:20 | 17078 | 89 | 279 | 30 | ||
| 2024-10-18T00:21 | 17275 | 86 | 279 | 26 | ||
| 2024-10-18T00:21 | 17348 | 85 | -62.8 | |||
| 2024-10-18T00:22 | 17631 | 82 | 268 | 25 | ||
| 2024-10-18T00:22 | 17805 | 79 | -64.1 | |||
| 2024-10-18T00:23 | 18001 | 77 | 259 | 24 | ||
| 2024-10-18T00:24 | 18297 | 73 | -61.7 | |||
| 2024-10-18T00:24 | 18373 | 72 | 273 | 24 | ||
| 2024-10-18T00:24 | 18633 | 69 | 287 | 23 | ||
| 2024-10-18T00:25 | 18641 | 69 | -62.5 | |||
| 2024-10-18T00:25 | 18835 | 67 | 269 | 14 | ||
| 2024-10-18T00:25 | 18855 | 67 | -60.3 | |||
| 2024-10-18T00:26 | 19109 | 64 | 255 | 18 | ||
| 2024-10-18T00:26 | 19170 | 64 | -61.4 | |||
| 2024-10-18T00:26 | 19286 | 62 | 260 | 23 | ||
| 2024-10-18T00:27 | 19471 | 61 | -60.4 | |||
| 2024-10-18T00:27 | 19627 | 59 | 269 | 19 | ||
| 2024-10-18T00:28 | 19900 | 57 | -57.1 | |||
| 2024-10-18T00:28 | 19932 | 56 | 272 | 13 | ||
| 2024-10-18T00:29 | 20322 | 53 | 270 | 17 | ||
| 2024-10-18T00:29 | 20418 | 52 | -60.3 | |||
| 2024-10-18T00:30 | 20701 | 50 | 282 | 14 | ||
| 2024-10-18T00:31 | 21043 | 47 | 286 | 12 | ||
| 2024-10-18T00:31 | 21111 | 47 | -57.4 | |||
| 2024-10-18T00:32 | 21270 | 45 | 242 | 8 | ||
| 2024-10-18T00:32 | 21438 | 44 | 253 | 10 | ||
| 2024-10-18T00:33 | 21833 | 42 | 280 | 16 | ||
| 2024-10-18T00:33 | 21956 | 41 | -59.2 | |||
| 2024-10-18T00:34 | 22099 | 40 | 280 | 9 | ||
| 2024-10-18T00:34 | 22403 | 38 | 259 | 4 | ||
| 2024-10-18T00:34 | 22471 | 38 | -58.0 | |||
| 2024-10-18T00:35 | 22572 | 37 | 198 | 4 | ||
| 2024-10-18T00:35 | 22658 | 36 | 171 | 5 | ||
| 2024-10-18T00:36 | 23012 | 34 | 224 | 8 | ||
| 2024-10-18T00:36 | 23138 | 34 | -60.4 | |||
| 2024-10-18T00:37 | 23387 | 32 | 273 | 10 | ||
| 2024-10-18T00:37 | 23541 | 32 | 278 | 5 | ||
| 2024-10-18T00:38 | 23826 | 30 | 309 | 8 | ||
| 2024-10-18T00:38 | 24018 | 29 | 342 | 4 | ||
| 2024-10-18T00:39 | 24302 | 28 | 80 | 4 | ||
| 2024-10-18T00:39 | 24346 | 28 | -57.5 | |||
| 2024-10-18T00:39 | 24440 | 27 | 80 | 2 | ||
| 2024-10-18T00:40 | 24554 | 27 | 202 | 3 | ||
| 2024-10-18T00:41 | 24865 | 26 | 310 | 7 | ||
| 2024-10-18T00:41 | 24963 | 25 | -57.3 | |||
| 2024-10-18T00:41 | 25040 | 25 | 314 | 7 | ||
| 2024-10-18T00:42 | 25273 | 24 | 358 | 6 | ||
| 2024-10-18T00:42 | 25300 | 24 | 8 | 5 | ||
| 2024-10-18T00:42 | 25429 | 23 | 35 | 4 | ||
| 2024-10-18T00:42 | 25510 | 23 | 57 | 2 | ||
| 2024-10-18T00:43 | 25766 | 22 | -57.2 | |||
| 2024-10-18T00:43 | 25794 | 22 | 292 | 4 | ||
| 2024-10-18T00:43 | 26025 | 21 | 360 | 9 | ||
| 2024-10-18T00:43 | 26053 | 21 | 7 | 9 | ||
| 2024-10-18T00:44 | 26174 | 21 | -55.6 | 28 | 8 | |
| 2024-10-18T11:30 | 18 | 1015 | 17.0 | 13.9 | 160 | 7 |
| 2024-10-18T11:30 | 21 | 1014 | 17.0 | 13.3 | 160 | 1 |
| 2024-10-18T11:31 | 209 | 992 | 15.8 | 12.4 | ||
| 2024-10-18T11:31 | 284 | 984 | 163 | 13 | ||
| 2024-10-18T11:32 | 588 | 949 | 13.6 | 11.3 | ||
| 2024-10-18T11:32 | 647 | 942 | 174 | 19 | ||
| 2024-10-18T11:32 | 864 | 918 | 12.3 | 9.9 | ||
| 2024-10-18T11:33 | 1008 | 903 | 188 | 18 | ||
| 2024-10-18T11:33 | 1027 | 901 | 11.8 | 9.0 | ||
| 2024-10-18T11:33 | 1143 | 888 | 11.3 | 8.5 | ||
| 2024-10-18T11:33 | 1179 | 884 | 11.5 | 8.4 | ||
| 2024-10-18T11:34 | 1367 | 865 | 210 | 18 | ||
| 2024-10-18T11:35 | 1582 | 843 | 8.8 | 7.1 | ||
| 2024-10-18T11:35 | 1606 | 840 | 8.9 | 6.0 | ||
| 2024-10-18T11:35 | 1625 | 838 | 10.2 | 0.5 | ||
| 2024-10-18T11:35 | 1644 | 836 | 11.0 | -7.3 | ||
| 2024-10-18T11:35 | 1667 | 834 | 11.1 | -5.4 | ||
| 2024-10-18T11:35 | 1677 | 833 | 216 | 21 | ||
| 2024-10-18T11:35 | 1701 | 831 | 10.8 | 1.3 | ||
| 2024-10-18T11:35 | 1759 | 825 | 10.7 | -2.7 | ||
| 2024-10-18T11:35 | 1805 | 820 | 10.3 | -4.5 | ||
| 2024-10-18T11:35 | 1862 | 815 | 9.8 | -2.5 | ||
| 2024-10-18T11:36 | 1884 | 813 | 227 | 22 | ||
| 2024-10-18T11:36 | 1911 | 810 | 9.4 | 6.3 | ||
| 2024-10-18T11:36 | 2071 | 794 | 8.4 | 4.6 | ||
| 2024-10-18T11:36 | 2165 | 785 | 8.5 | -1.3 | ||
| 2024-10-18T11:37 | 2217 | 780 | 8.3 | -3.5 | ||
| 2024-10-18T11:37 | 2229 | 779 | 230 | 25 | ||
| 2024-10-18T11:37 | 2276 | 775 | 7.9 | -7.0 | ||
| 2024-10-18T11:37 | 2527 | 752 | 6.9 | -21.6 | ||
| 2024-10-18T11:38 | 2589 | 746 | 233 | 22 | ||
| 2024-10-18T11:38 | 2725 | 734 | 6.7 | -30.4 | ||
| 2024-10-18T11:38 | 2869 | 721 | 6.8 | -35.6 | ||
| 2024-10-18T11:38 | 2913 | 717 | 233 | 20 | ||
| 2024-10-18T11:39 | 3004 | 709 | 5.9 | -22.4 | ||
| 2024-10-18T11:39 | 3111 | 700 | 5.0 | -17.4 | ||
| 2024-10-18T11:39 | 3318 | 682 | 227 | 20 | ||
| 2024-10-18T11:40 | 3577 | 661 | 223 | 21 | ||
| 2024-10-18T11:40 | 3676 | 653 | 1.0 | -49.7 | ||
| 2024-10-18T11:41 | 3968 | 629 | 222 | 22 | ||
| 2024-10-18T11:42 | 4277 | 605 | 229 | 21 | ||
| 2024-10-18T11:43 | 4574 | 583 | 221 | 22 | ||
| 2024-10-18T11:43 | 4641 | 578 | -6.2 | -54.3 | ||
| 2024-10-18T11:44 | 4764 | 569 | -6.7 | -54.6 | ||
| 2024-10-18T11:44 | 4778 | 568 | 226 | 23 | ||
| 2024-10-18T11:44 | 4965 | 554 | -7.9 | -41.1 | ||
| 2024-10-18T11:44 | 5008 | 551 | 219 | 23 | ||
| 2024-10-18T11:45 | 5022 | 550 | -8.3 | -29.7 | ||
| 2024-10-18T11:45 | 5129 | 543 | -9.1 | -44.1 | ||
| 2024-10-18T11:45 | 5295 | 531 | -10.4 | -34.4 | ||
| 2024-10-18T11:45 | 5329 | 529 | 219 | 24 | ||
| 2024-10-18T11:46 | 5377 | 525 | -11.2 | -24.3 | ||
| 2024-10-18T11:46 | 5483 | 518 | -12.3 | -21.3 | ||
| 2024-10-18T11:46 | 5564 | 513 | -12.8 | -19.3 | ||
| 2024-10-18T11:46 | 5602 | 510 | -11.0 | -14.2 | ||
| 2024-10-18T11:46 | 5652 | 507 | -10.9 | -14.0 | ||
| 2024-10-18T11:46 | 5703 | 504 | 232 | 28 | ||
| 2024-10-18T11:47 | 6081 | 479 | 232 | 29 | ||
| 2024-10-18T11:48 | 6469 | 455 | 243 | 29 | ||
| 2024-10-18T11:49 | 6591 | 448 | -17.7 | -19.7 | ||
| 2024-10-18T11:50 | 6845 | 433 | 245 | 30 | ||
| 2024-10-18T11:50 | 6971 | 425 | -19.6 | -21.7 | ||
| 2024-10-18T11:50 | 7174 | 414 | 243 | 30 | ||
| 2024-10-18T11:51 | 7199 | 413 | -19.5 | -22.5 | ||
| 2024-10-18T11:51 | 7477 | 397 | 250 | 31 | ||
| 2024-10-18T11:52 | 7767 | 382 | -22.9 | -27.0 | ||
| 2024-10-18T11:52 | 7808 | 380 | 247 | 32 | ||
| 2024-10-18T11:54 | 8177 | 361 | 248 | 32 | ||
| 2024-10-18T11:55 | 8552 | 343 | 255 | 32 | ||
| 2024-10-18T11:55 | 8746 | 334 | 258 | 35 | ||
| 2024-10-18T11:56 | 8989 | 322 | -32.2 | -36.0 | ||
| 2024-10-18T11:56 | 9021 | 321 | 255 | 38 | ||
| 2024-10-18T11:57 | 9332 | 307 | 254 | 40 | ||
| 2024-10-18T11:57 | 9492 | 300 | -36.2 | -40.3 | ||
| 2024-10-18T11:58 | 9637 | 294 | 252 | 41 | ||
| 2024-10-18T11:59 | 9863 | 284 | -39.4 | -43.9 | ||
| 2024-10-18T11:59 | 9932 | 281 | -40.0 | -44.5 | 252 | 42 |
| 2024-10-18T12:00 | 10225 | 270 | 251 | 41 | ||
| 2024-10-18T12:01 | 10561 | 256 | 257 | 43 | ||
| 2024-10-18T12:02 | 10923 | 243 | 264 | 45 | ||
| 2024-10-18T12:03 | 11249 | 231 | 268 | 46 | ||
| 2024-10-18T12:04 | 11453 | 224 | -53.5 | |||
| 2024-10-18T12:04 | 11468 | 223 | 269 | 47 | ||
| 2024-10-18T12:05 | 11785 | 212 | 269 | 49 | ||
| 2024-10-18T12:06 | 12130 | 201 | 268 | 50 | ||
| 2024-10-18T12:06 | 12375 | 193 | 270 | 52 | ||
| 2024-10-18T12:07 | 12690 | 184 | 271 | 55 | ||
| 2024-10-18T12:08 | 12805 | 180 | -64.3 | |||
| 2024-10-18T12:08 | 13012 | 174 | 275 | 59 | ||
| 2024-10-18T12:08 | 13090 | 172 | -63.9 | |||
| 2024-10-18T12:09 | 13259 | 167 | -62.8 | 277 | 52 | |
| 2024-10-18T12:09 | 13378 | 164 | -62.1 | |||
| 2024-10-18T12:10 | 13583 | 159 | 270 | 38 | ||
| 2024-10-18T12:10 | 13645 | 157 | -62.8 | |||
| 2024-10-18T12:11 | 13890 | 151 | 265 | 39 | ||
| 2024-10-18T12:11 | 14098 | 146 | -61.6 | |||
| 2024-10-18T12:12 | 14207 | 144 | 263 | 40 | ||
| 2024-10-18T12:13 | 14553 | 136 | -64.5 | 262 | 43 | |
| 2024-10-18T12:14 | 14885 | 128 | 267 | 45 | ||
| 2024-10-18T12:14 | 14921 | 128 | -66.1 | |||
| 2024-10-18T12:15 | 15186 | 122 | 266 | 35 | ||
| 2024-10-18T12:15 | 15267 | 121 | -64.8 | |||
| 2024-10-18T12:16 | 15438 | 117 | 260 | 38 | ||
| 2024-10-18T12:16 | 15540 | 115 | -66.0 | |||
| 2024-10-18T12:16 | 15679 | 113 | 263 | 38 | ||
| 2024-10-18T12:17 | 15823 | 110 | -63.6 | |||
| 2024-10-18T12:17 | 15949 | 108 | 278 | 35 | ||
| 2024-10-18T12:18 | 16212 | 103 | 270 | 30 | ||
| 2024-10-18T12:18 | 16235 | 103 | -64.7 | |||
| 2024-10-18T12:19 | 16476 | 99 | -65.9 | |||
| 2024-10-18T12:19 | 16520 | 98 | 261 | 32 | ||
| 2024-10-18T12:19 | 16643 | 96 | -64.7 | |||
| 2024-10-18T12:19 | 16713 | 95 | 272 | 38 | ||
| 2024-10-18T12:19 | 16752 | 95 | -63.0 | |||
| 2024-10-18T12:20 | 17041 | 90 | 279 | 26 | ||
| 2024-10-18T12:21 | 17364 | 86 | 262 | 27 | ||
| 2024-10-18T12:22 | 17487 | 84 | -61.4 | |||
| 2024-10-18T12:22 | 17744 | 81 | 266 | 30 | ||
| 2024-10-18T12:22 | 17797 | 80 | -62.3 | |||
| 2024-10-18T12:23 | 18100 | 76 | 270 | 24 | ||
| 2024-10-18T12:24 | 18256 | 74 | -61.5 | |||
| 2024-10-18T12:24 | 18418 | 72 | -60.2 | 262 | 18 | |
| 2024-10-18T12:25 | 18577 | 70 | -59.8 | |||
| 2024-10-18T12:25 | 18728 | 69 | 279 | 18 | ||
| 2024-10-18T12:26 | 18763 | 68 | -59.7 | |||
| 2024-10-18T12:26 | 19042 | 65 | 276 | 12 | ||
| 2024-10-18T12:27 | 19306 | 63 | 259 | 10 | ||
| 2024-10-18T12:28 | 19456 | 61 | -60.8 | |||
| 2024-10-18T12:28 | 19694 | 59 | 258 | 17 | ||
| 2024-10-18T12:28 | 19813 | 58 | -60.5 | |||
| 2024-10-18T12:29 | 20009 | 56 | -59.2 | |||
| 2024-10-18T12:29 | 20087 | 55 | 260 | 16 | ||
| 2024-10-18T12:30 | 20310 | 53 | -59.5 | |||
| 2024-10-18T12:30 | 20389 | 53 | 274 | 18 | ||
| 2024-10-18T12:31 | 20681 | 50 | 291 | 12 | ||
| 2024-10-18T12:31 | 20696 | 50 | -59.2 | |||
| 2024-10-18T12:32 | 20965 | 48 | 239 | 13 | ||
| 2024-10-18T12:32 | 21006 | 48 | -57.2 | |||
| 2024-10-18T12:33 | 21356 | 45 | 250 | 17 | ||
| 2024-10-18T12:33 | 21540 | 44 | -59.1 | |||
| 2024-10-18T12:34 | 21762 | 42 | 296 | 13 | ||
| 2024-10-18T12:34 | 21850 | 42 | -57.7 | |||
| 2024-10-18T12:35 | 22159 | 40 | 280 | 11 | ||
| 2024-10-18T12:36 | 22565 | 37 | 274 | 10 | ||
| 2024-10-18T12:36 | 22582 | 37 | -60.8 | |||
| 2024-10-18T12:37 | 22962 | 35 | 299 | 12 | ||
| 2024-10-18T12:37 | 23015 | 35 | -60.7 | |||
| 2024-10-18T12:37 | 23255 | 33 | -57.4 | |||
| 2024-10-18T12:38 | 23350 | 33 | 345 | 1 | ||
| 2024-10-18T12:38 | 23664 | 31 | 216 | 3 | ||
| 2024-10-18T12:39 | 23703 | 31 | -59.8 | |||
| 2024-10-18T12:39 | 23864 | 30 | 250 | 9 | ||
| 2024-10-18T12:39 | 23993 | 30 | -58.3 | |||
| 2024-10-18T12:40 | 24100 | 29 | 276 | 6 | ||
| 2024-10-18T12:40 | 24321 | 28 | 315 | 6 | ||
| 2024-10-18T12:41 | 24502 | 27 | -57.6 | |||
| 2024-10-18T12:41 | 24666 | 27 | 350 | 3 | ||
| 2024-10-18T12:41 | 24712 | 26 | -57.3 | |||
| 2024-10-18T12:41 | 24810 | 26 | 266 | 1 | ||
| 2024-10-18T12:42 | 25106 | 25 | 312 | 6 | ||
| 2024-10-18T12:42 | 25263 | 24 | 354 | 3 | ||
| 2024-10-18T12:43 | 25367 | 24 | -57.6 | |||
| 2024-10-18T12:43 | 25474 | 23 | 303 | 4 | ||
| 2024-10-18T12:43 | 25613 | 23 | -57.6 | 313 | 6 | |
| 2024-10-18T12:44 | 25821 | 22 | -56.7 | 356 | 4 | |
| 2024-10-18T23:30 | 18 | 1001 | 16.0 | 15.8 | 330 | 4 |
| 2024-10-18T23:30 | 22 | 1000 | 16.0 | 15.4 | 332 | 1 |
| 2024-10-18T23:30 | 44 | 998 | 15.7 | 14.7 | ||
| 2024-10-18T23:30 | 60 | 996 | 324 | 3 | ||
| 2024-10-18T23:31 | 243 | 974 | 328 | 12 | ||
| 2024-10-18T23:32 | 402 | 956 | 13.5 | 13.0 | ||
| 2024-10-18T23:32 | 490 | 946 | 327 | 12 | ||
| 2024-10-18T23:33 | 751 | 917 | 314 | 12 | ||
| 2024-10-18T23:33 | 889 | 902 | 11.4 | 10.8 | ||
| 2024-10-18T23:34 | 990 | 891 | 304 | 11 | ||
| 2024-10-18T23:35 | 1229 | 866 | 303 | 7 | ||
| 2024-10-18T23:35 | 1339 | 855 | 300 | 6 | ||
| 2024-10-18T23:35 | 1445 | 844 | 285 | 2 | ||
| 2024-10-18T23:36 | 1538 | 835 | 238 | 4 | ||
| 2024-10-18T23:36 | 1670 | 822 | 190 | 5 | ||
| 2024-10-18T23:37 | 1816 | 807 | 195 | 6 | ||
| 2024-10-18T23:38 | 2004 | 789 | 8.7 | 8.1 | ||
| 2024-10-18T23:38 | 2130 | 777 | 214 | 7 | ||
| 2024-10-18T23:38 | 2286 | 763 | 7.7 | 7.1 | ||
| 2024-10-18T23:39 | 2435 | 749 | 216 | 14 | ||
| 2024-10-18T23:39 | 2458 | 747 | 7.4 | 7.0 | ||
| 2024-10-18T23:40 | 2683 | 727 | 221 | 18 | ||
| 2024-10-18T23:40 | 2806 | 716 | 226 | 19 | ||
| 2024-10-18T23:41 | 3048 | 695 | 231 | 19 | ||
| 2024-10-18T23:42 | 3244 | 679 | 3.3 | 2.7 | ||
| 2024-10-18T23:42 | 3301 | 674 | 227 | 19 | ||
| 2024-10-18T23:43 | 3579 | 651 | 215 | 21 | ||
| 2024-10-18T23:44 | 3727 | 640 | 1.4 | 0.8 | ||
| 2024-10-18T23:44 | 3882 | 627 | 223 | 22 | ||
| 2024-10-18T23:45 | 4086 | 612 | 227 | 28 | ||
| 2024-10-18T23:46 | 4240 | 600 | 226 | 29 | ||
| 2024-10-18T23:46 | 4293 | 596 | -1.4 | -1.8 | ||
| 2024-10-18T23:47 | 4563 | 576 | 228 | 30 | ||
| 2024-10-18T23:47 | 4655 | 570 | -3.8 | -4.5 | ||
| 2024-10-18T23:48 | 4892 | 553 | 233 | 30 | ||
| 2024-10-18T23:48 | 4996 | 545 | -5.5 | -6.0 | ||
| 2024-10-18T23:49 | 5217 | 530 | 236 | 33 | ||
| 2024-10-18T23:49 | 5416 | 517 | -8.5 | -9.4 | ||
| 2024-10-18T23:50 | 5552 | 508 | 230 | 32 | ||
| 2024-10-18T23:50 | 5569 | 506 | -9.9 | -12.4 | ||
| 2024-10-18T23:50 | 5625 | 503 | -10.4 | -13.8 | ||
| 2024-10-18T23:51 | 5869 | 487 | 236 | 33 | ||
| 2024-10-18T23:51 | 5947 | 482 | -12.7 | -16.4 | ||
| 2024-10-18T23:51 | 6042 | 476 | -13.3 | -16.5 | ||
| 2024-10-18T23:51 | 6095 | 473 | -13.7 | -18.7 | ||
| 2024-10-18T23:51 | 6148 | 470 | -14.2 | -26.0 | ||
| 2024-10-18T23:52 | 6186 | 467 | 241 | 36 | ||
| 2024-10-18T23:52 | 6223 | 465 | -14.4 | -26.2 | ||
| 2024-10-18T23:52 | 6353 | 457 | -14.8 | -29.3 | ||
| 2024-10-18T23:52 | 6459 | 451 | -15.2 | -28.2 | ||
| 2024-10-18T23:53 | 6506 | 448 | 241 | 36 | ||
| 2024-10-18T23:53 | 6649 | 440 | -15.7 | -28.3 | ||
| 2024-10-18T23:53 | 6700 | 437 | -16.1 | -26.1 | ||
| 2024-10-18T23:53 | 6772 | 432 | -16.7 | -28.6 | ||
| 2024-10-18T23:54 | 6813 | 430 | 244 | 37 | ||
| 2024-10-18T23:54 | 6939 | 423 | -17.8 | -26.2 | ||
| 2024-10-18T23:54 | 7129 | 412 | 242 | 40 | ||
| 2024-10-18T23:55 | 7252 | 405 | -19.6 | -28.8 | ||
| 2024-10-18T23:56 | 7461 | 394 | 239 | 39 | ||
| 2024-10-18T23:56 | 7659 | 384 | -23.0 | -29.0 | ||
| 2024-10-18T23:57 | 7794 | 377 | -24.2 | -28.3 | 243 | 40 |
| 2024-10-18T23:57 | 7853 | 374 | -24.8 | -28.2 | ||
| 2024-10-18T23:57 | 7911 | 371 | -25.2 | -28.6 | ||
| 2024-10-18T23:57 | 7977 | 367 | 242 | 44 | ||
| 2024-10-18T23:57 | 8065 | 363 | -25.7 | -29.1 | ||
| 2024-10-18T23:58 | 8321 | 350 | 232 | 50 | ||
| 2024-10-18T23:58 | 8348 | 349 | -26.5 | -30.5 | ||
| 2024-10-18T23:59 | 8495 | 342 | 228 | 45 | ||
| 2024-10-19T00:00 | 8825 | 326 | 227 | 45 | ||
| 2024-10-19T00:00 | 8964 | 320 | 224 | 43 | ||
| 2024-10-19T00:00 | 9060 | 316 | -32.8 | -35.5 | ||
| 2024-10-19T00:01 | 9279 | 306 | 220 | 43 | ||
| 2024-10-19T00:02 | 9576 | 293 | 219 | 43 | ||
| 2024-10-19T00:03 | 9745 | 286 | -38.6 | -40.8 | ||
| 2024-10-19T00:03 | 9818 | 283 | 218 | 45 | ||
| 2024-10-19T00:03 | 9939 | 278 | -40.0 | -42.4 | ||
| 2024-10-19T00:04 | 10125 | 271 | 222 | 49 | ||
| 2024-10-19T00:05 | 10441 | 258 | 224 | 51 | ||
| 2024-10-19T00:06 | 10798 | 245 | 225 | 51 | ||
| 2024-10-19T00:07 | 11151 | 232 | 224 | 51 | ||
| 2024-10-19T00:07 | 11220 | 229 | -51.6 | |||
| 2024-10-19T00:08 | 11424 | 222 | 227 | 52 | ||
| 2024-10-19T00:09 | 11723 | 212 | 229 | 55 | ||
| 2024-10-19T00:10 | 12001 | 203 | 229 | 56 | ||
| 2024-10-19T00:10 | 12135 | 199 | -59.3 | |||
| 2024-10-19T00:11 | 12290 | 194 | 232 | 59 | ||
| 2024-10-19T00:11 | 12566 | 185 | 236 | 60 | ||
| 2024-10-19T00:12 | 12713 | 181 | 238 | 62 | ||
| 2024-10-19T00:13 | 12944 | 174 | -65.3 | |||
| 2024-10-19T00:13 | 12950 | 174 | 242 | 64 | ||
| 2024-10-19T00:13 | 13090 | 170 | 247 | 64 | ||
| 2024-10-19T00:13 | 13192 | 167 | -64.3 | |||
| 2024-10-19T00:14 | 13290 | 165 | -63.3 | |||
| 2024-10-19T00:14 | 13314 | 164 | 249 | 62 | ||
| 2024-10-19T00:14 | 13455 | 160 | 251 | 64 | ||
| 2024-10-19T00:15 | 13521 | 159 | -62.5 | |||
| 2024-10-19T00:15 | 13707 | 154 | -62.5 | |||
| 2024-10-19T00:15 | 13746 | 153 | 252 | 57 | ||
| 2024-10-19T00:16 | 13895 | 149 | 252 | 54 | ||
| 2024-10-19T00:16 | 13934 | 148 | -61.1 | |||
| 2024-10-19T00:16 | 14031 | 146 | -60.2 | |||
| 2024-10-19T00:17 | 14123 | 144 | 255 | 51 | ||
| 2024-10-19T00:17 | 14194 | 142 | -59.3 | |||
| 2024-10-19T00:18 | 14351 | 139 | -57.9 | |||
| 2024-10-19T00:18 | 14396 | 138 | 248 | 42 | ||
| 2024-10-19T00:19 | 14697 | 131 | 241 | 42 | ||
| 2024-10-19T00:19 | 14729 | 131 | -60.6 | |||
| 2024-10-19T00:20 | 14990 | 125 | 239 | 48 | ||
| 2024-10-19T00:20 | 14995 | 125 | -61.8 | |||
| 2024-10-19T00:21 | 15290 | 119 | -62.4 | |||
| 2024-10-19T00:21 | 15295 | 119 | 249 | 42 | ||
| 2024-10-19T00:21 | 15401 | 117 | -60.8 | |||
| 2024-10-19T00:21 | 15474 | 116 | 253 | 35 | ||
| 2024-10-19T00:22 | 15749 | 111 | 252 | 36 | ||
| 2024-10-19T00:23 | 15955 | 107 | -63.8 | |||
| 2024-10-19T00:23 | 16026 | 106 | 246 | 38 | ||
| 2024-10-19T00:24 | 16072 | 105 | -63.8 | |||
| 2024-10-19T00:24 | 16356 | 100 | 247 | 37 | ||
| 2024-10-19T00:25 | 16425 | 99 | -64.5 | |||
| 2024-10-19T00:25 | 16640 | 96 | 251 | 36 | ||
| 2024-10-19T00:25 | 16653 | 96 | -65.1 | |||
| 2024-10-19T00:25 | 16758 | 94 | 253 | 32 | ||
| 2024-10-19T00:26 | 16913 | 92 | -65.0 | |||
| 2024-10-19T00:26 | 16949 | 91 | 257 | 31 | ||
| 2024-10-19T00:26 | 17124 | 89 | -63.5 | |||
| 2024-10-19T00:26 | 17145 | 88 | 246 | 24 | ||
| 2024-10-19T00:27 | 17345 | 85 | 248 | 24 | ||
| 2024-10-19T00:27 | 17494 | 83 | -62.2 | |||
| 2024-10-19T00:27 | 17582 | 82 | 244 | 26 | ||
| 2024-10-19T00:28 | 17803 | 79 | 241 | 26 | ||
| 2024-10-19T00:29 | 18082 | 76 | 251 | 25 | ||
| 2024-10-19T00:29 | 18167 | 75 | -61.6 | |||
| 2024-10-19T00:29 | 18351 | 73 | 260 | 25 | ||
| 2024-10-19T00:30 | 18490 | 71 | -60.5 | |||
| 2024-10-19T00:30 | 18500 | 71 | 268 | 24 | ||
| 2024-10-19T00:30 | 18731 | 68 | 253 | 16 | ||
| 2024-10-19T00:31 | 18936 | 66 | -60.6 | |||
| 2024-10-19T00:31 | 18963 | 66 | 263 | 17 | ||
| 2024-10-19T00:32 | 19234 | 63 | 255 | 16 | ||
| 2024-10-19T00:32 | 19273 | 63 | -61.0 | |||
| 2024-10-19T00:33 | 19622 | 59 | 256 | 15 | ||
| 2024-10-19T00:33 | 19794 | 58 | -60.0 | |||
| 2024-10-19T00:33 | 19836 | 57 | 247 | 16 | ||
| 2024-10-19T00:34 | 20232 | 54 | 258 | 18 | ||
| 2024-10-19T00:35 | 20529 | 51 | 242 | 18 | ||
| 2024-10-19T00:35 | 20578 | 51 | -60.0 | 245 | 20 | |
| 2024-10-19T11:30 | 18 | 1013 | 6.7 | 2.0 | 340 | 9 |
| 2024-10-19T11:30 | 24 | 1012 | 6.9 | 1.0 | 287 | 7 |
| 2024-10-19T11:30 | 37 | 1011 | 335 | 10 | ||
| 2024-10-19T11:30 | 173 | 994 | 6.0 | -0.3 | ||
| 2024-10-19T11:31 | 372 | 970 | 4.6 | -1.6 | 305 | 13 |
| 2024-10-19T11:32 | 735 | 928 | 309 | 19 | ||
| 2024-10-19T11:32 | 748 | 926 | 1.0 | -2.8 | ||
| 2024-10-19T11:33 | 959 | 902 | 321 | 18 | ||
| 2024-10-19T11:33 | 1275 | 867 | -3.7 | -4.5 | ||
| 2024-10-19T11:34 | 1348 | 859 | 315 | 17 | ||
| 2024-10-19T11:34 | 1543 | 838 | 317 | 22 | ||
| 2024-10-19T11:34 | 1563 | 836 | -5.3 | -6.4 | ||
| 2024-10-19T11:35 | 1696 | 822 | -6.2 | -7.6 | ||
| 2024-10-19T11:35 | 1844 | 807 | 309 | 20 | ||
| 2024-10-19T11:36 | 2186 | 772 | 310 | 21 | ||
| 2024-10-19T11:37 | 2436 | 747 | -10.7 | -12.6 | ||
| 2024-10-19T11:37 | 2549 | 736 | 298 | 16 | ||
| 2024-10-19T11:38 | 2735 | 719 | -13.5 | -15.8 | ||
| 2024-10-19T11:38 | 2828 | 710 | -14.0 | -18.6 | 283 | 19 |
| 2024-10-19T11:38 | 2925 | 701 | -14.2 | -28.4 | ||
| 2024-10-19T11:39 | 3024 | 692 | 265 | 31 | ||
| 2024-10-19T11:39 | 3104 | 684 | -11.8 | -30.8 | ||
| 2024-10-19T11:40 | 3280 | 669 | -11.2 | -31.5 | ||
| 2024-10-19T11:40 | 3313 | 666 | 248 | 35 | ||
| 2024-10-19T11:41 | 3550 | 646 | -10.7 | -33.8 | ||
| 2024-10-19T11:41 | 3580 | 643 | 248 | 37 | ||
| 2024-10-19T11:41 | 3635 | 639 | -10.6 | -34.6 | ||
| 2024-10-19T11:42 | 3856 | 621 | 246 | 38 | ||
| 2024-10-19T11:42 | 3908 | 616 | -10.8 | -37.6 | ||
| 2024-10-19T11:42 | 4117 | 600 | 247 | 41 | ||
| 2024-10-19T11:43 | 4172 | 595 | -11.3 | -39.1 | ||
| 2024-10-19T11:43 | 4408 | 577 | -11.5 | -43.8 | ||
| 2024-10-19T11:43 | 4527 | 569 | 245 | 48 | ||
| 2024-10-19T11:44 | 4602 | 563 | -10.9 | -45.4 | ||
| 2024-10-19T11:44 | 4700 | 556 | -10.0 | -47.3 | ||
| 2024-10-19T11:44 | 4817 | 547 | 239 | 52 | ||
| 2024-10-19T11:44 | 4950 | 538 | -11.1 | -45.5 | ||
| 2024-10-19T11:45 | 5205 | 520 | 236 | 52 | ||
| 2024-10-19T11:46 | 5512 | 500 | 237 | 53 | ||
| 2024-10-19T11:46 | 5531 | 498 | -15.4 | -45.0 | ||
| 2024-10-19T11:47 | 5666 | 490 | 240 | 56 | ||
| 2024-10-19T11:47 | 5671 | 489 | -15.5 | -38.5 | ||
| 2024-10-19T11:47 | 5871 | 476 | -16.9 | -46.1 | ||
| 2024-10-19T11:48 | 5995 | 469 | 239 | 56 | ||
| 2024-10-19T11:48 | 6289 | 450 | 241 | 57 | ||
| 2024-10-19T11:48 | 6302 | 450 | -19.8 | -42.8 | ||
| 2024-10-19T11:49 | 6544 | 435 | -21.3 | -34.0 | ||
| 2024-10-19T11:49 | 6657 | 429 | 243 | 59 | ||
| 2024-10-19T11:50 | 6886 | 415 | -23.6 | -37.4 | ||
| 2024-10-19T11:50 | 6999 | 409 | 238 | 60 | ||
| 2024-10-19T11:51 | 7126 | 402 | -25.5 | -42.9 | ||
| 2024-10-19T11:51 | 7212 | 397 | -26.0 | -40.6 | ||
| 2024-10-19T11:51 | 7256 | 395 | -25.7 | -37.0 | ||
| 2024-10-19T11:51 | 7325 | 391 | 242 | 63 | ||
| 2024-10-19T11:52 | 7462 | 384 | -26.9 | -37.5 | ||
| 2024-10-19T11:52 | 7574 | 378 | 240 | 65 | ||
| 2024-10-19T11:52 | 7642 | 374 | -28.5 | -34.6 | ||
| 2024-10-19T11:53 | 7710 | 371 | -29.0 | -33.8 | ||
| 2024-10-19T11:53 | 7762 | 368 | 237 | 65 | ||
| 2024-10-19T11:53 | 7768 | 368 | -29.1 | -37.1 | ||
| 2024-10-19T11:53 | 7910 | 360 | -30.0 | -37.1 | ||
| 2024-10-19T11:53 | 7965 | 358 | -29.6 | -42.0 | ||
| 2024-10-19T11:54 | 8072 | 352 | -30.2 | -43.6 | ||
| 2024-10-19T11:54 | 8132 | 349 | 240 | 70 | ||
| 2024-10-19T11:55 | 8459 | 334 | -33.1 | -46.1 | ||
| 2024-10-19T11:55 | 8550 | 329 | 239 | 71 | ||
| 2024-10-19T11:56 | 8944 | 311 | 240 | 71 | ||
| 2024-10-19T11:56 | 8987 | 309 | -37.8 | -50.2 | ||
| 2024-10-19T11:56 | 9103 | 304 | -37.9 | -60.0 | ||
| 2024-10-19T11:57 | 9277 | 296 | -38.9 | -57.6 | ||
| 2024-10-19T11:57 | 9306 | 295 | 240 | 70 | ||
| 2024-10-19T11:57 | 9420 | 290 | -40.0 | -58.5 | ||
| 2024-10-19T11:58 | 9637 | 281 | 239 | 71 | ||
| 2024-10-19T11:59 | 9863 | 272 | -43.7 | |||
| 2024-10-19T11:59 | 9911 | 270 | 240 | 71 | ||
| 2024-10-19T11:59 | 10101 | 263 | 238 | 71 | ||
| 2024-10-19T12:00 | 10319 | 254 | -44.3 | |||
| 2024-10-19T12:01 | 10378 | 252 | 238 | 72 | ||
| 2024-10-19T12:02 | 10706 | 240 | 235 | 68 | ||
| 2024-10-19T12:02 | 10877 | 234 | -46.6 | |||
| 2024-10-19T12:03 | 11070 | 227 | 236 | 67 | ||
| 2024-10-19T12:04 | 11429 | 215 | 236 | 66 | ||
| 2024-10-19T12:04 | 11434 | 215 | -49.6 | |||
| 2024-10-19T12:05 | 11770 | 204 | 234 | 65 | ||
| 2024-10-19T12:06 | 12087 | 194 | 236 | 60 | ||
| 2024-10-19T12:06 | 12168 | 192 | -52.8 | |||
| 2024-10-19T12:07 | 12385 | 185 | 237 | 62 | ||
| 2024-10-19T12:08 | 12665 | 178 | 238 | 57 | ||
| 2024-10-19T12:08 | 12726 | 176 | -52.1 | |||
| 2024-10-19T12:09 | 12958 | 170 | 240 | 55 | ||
| 2024-10-19T12:10 | 13277 | 162 | 238 | 53 | ||
| 2024-10-19T12:10 | 13327 | 160 | -53.9 | |||
| 2024-10-19T12:10 | 13623 | 153 | 239 | 50 | ||
| 2024-10-19T12:11 | 13892 | 147 | 239 | 49 | ||
| 2024-10-19T12:12 | 14063 | 143 | -55.8 | 245 | 46 | |
| 2024-10-19T12:12 | 14258 | 139 | 247 | 45 | ||
| 2024-10-19T12:13 | 14499 | 133 | -58.5 | |||
| 2024-10-19T12:13 | 14660 | 130 | 249 | 38 | ||
| 2024-10-19T12:14 | 15019 | 123 | 245 | 41 | ||
| 2024-10-19T12:14 | 15052 | 122 | -61.5 | |||
| 2024-10-19T12:15 | 15363 | 116 | 249 | 40 | ||
| 2024-10-19T12:15 | 15426 | 115 | -61.5 | |||
| 2024-10-19T12:16 | 15698 | 110 | 242 | 36 | ||
| 2024-10-19T12:17 | 15972 | 105 | 248 | 39 | ||
| 2024-10-19T12:17 | 16018 | 104 | -61.1 | |||
| 2024-10-19T12:17 | 16182 | 102 | 242 | 35 | ||
| 2024-10-19T12:18 | 16575 | 95 | 240 | 41 | ||
| 2024-10-19T12:19 | 16741 | 93 | -63.6 | |||
| 2024-10-19T12:19 | 16895 | 91 | -62.9 | |||
| 2024-10-19T12:19 | 16907 | 90 | 245 | 46 | ||
| 2024-10-19T12:20 | 17189 | 86 | -63.2 | |||
| 2024-10-19T12:20 | 17196 | 86 | 254 | 48 | ||
| 2024-10-19T12:20 | 17313 | 85 | -61.6 | |||
| 2024-10-19T12:21 | 17466 | 83 | -58.8 | |||
| 2024-10-19T12:21 | 17522 | 82 | 269 | 38 | ||
| 2024-10-19T12:21 | 17780 | 79 | -57.8 | |||
| 2024-10-19T12:22 | 17900 | 77 | 266 | 38 | ||
| 2024-10-19T12:22 | 17917 | 77 | -56.7 | |||
| 2024-10-19T12:23 | 18216 | 73 | 242 | 32 | ||
| 2024-10-19T12:23 | 18222 | 73 | -55.2 | |||
| 2024-10-19T12:23 | 18481 | 70 | -55.2 | |||
| 2024-10-19T12:24 | 18525 | 70 | 251 | 36 | ||
| 2024-10-19T12:24 | 18788 | 67 | -53.7 | |||
| 2024-10-19T12:24 | 18827 | 67 | 266 | 29 | ||
| 2024-10-19T12:25 | 19051 | 64 | -54.2 | |||
| 2024-10-19T12:25 | 19163 | 63 | 258 | 27 | ||
| 2024-10-19T12:25 | 19183 | 63 | -53.5 | |||
| 2024-10-19T12:26 | 19349 | 61 | 267 | 25 | ||
| 2024-10-19T12:26 | 19371 | 61 | -53.3 | |||
| 2024-10-19T12:26 | 19453 | 60 | 261 | 21 | ||
| 2024-10-19T12:26 | 19475 | 60 | -51.8 | |||
| 2024-10-19T12:27 | 19595 | 59 | 250 | 26 | ||
| 2024-10-19T12:27 | 19627 | 59 | -52.0 | |||
| 2024-10-19T12:27 | 19866 | 57 | -50.5 | |||
| 2024-10-19T12:27 | 19913 | 56 | 233 | 14 | ||
| 2024-10-19T12:28 | 20414 | 52 | 211 | 14 | ||
| 2024-10-19T12:29 | 20672 | 50 | 198 | 10 | ||
| 2024-10-19T12:29 | 20814 | 49 | -57.8 | |||
| 2024-10-19T12:29 | 20879 | 48 | 197 | 11 | ||
| 2024-10-19T12:30 | 21254 | 46 | 226 | 12 | ||
| 2024-10-19T12:30 | 21458 | 44 | -61.0 | |||
| 2024-10-19T12:31 | 21599 | 43 | 263 | 20 | ||
| 2024-10-19T12:31 | 21855 | 41 | 260 | 12 | ||
| 2024-10-19T12:32 | 21931 | 41 | -60.7 | |||
| 2024-10-19T12:32 | 22131 | 40 | -61.8 | 258 | 12 | |
| 2024-10-19T23:30 | 18 | 1025 | 7.9 | -0.8 | 280 | 7 |
| 2024-10-19T23:30 | 23 | 1025 | 8.2 | -1.6 | 273 | 1 |
| 2024-10-19T23:30 | 47 | 1022 | 8.2 | -2.4 | ||
| 2024-10-19T23:30 | 75 | 1018 | 7.4 | -3.5 | ||
| 2024-10-19T23:30 | 110 | 1014 | 317 | 5 | ||
| 2024-10-19T23:30 | 204 | 1003 | 312 | 8 | ||
| 2024-10-19T23:31 | 486 | 969 | 290 | 9 | ||
| 2024-10-19T23:32 | 662 | 948 | 292 | 10 | ||
| 2024-10-19T23:32 | 817 | 930 | 306 | 16 | ||
| 2024-10-19T23:32 | 858 | 925 | -0.5 | -5.9 | ||
| 2024-10-19T23:33 | 1131 | 894 | -2.8 | -7.0 | ||
| 2024-10-19T23:33 | 1136 | 893 | 315 | 16 | ||
| 2024-10-19T23:34 | 1454 | 858 | 320 | 15 | ||
| 2024-10-19T23:35 | 1726 | 829 | -8.1 | -9.9 | ||
| 2024-10-19T23:35 | 1776 | 823 | 318 | 15 | ||
| 2024-10-19T23:35 | 1814 | 819 | -8.7 | -10.8 | ||
| 2024-10-19T23:35 | 1892 | 811 | -9.6 | -10.9 | ||
| 2024-10-19T23:36 | 2110 | 788 | 317 | 17 | ||
| 2024-10-19T23:36 | 2198 | 779 | -12.2 | -13.6 | ||
| 2024-10-19T23:37 | 2301 | 769 | -13.1 | -15.7 | ||
| 2024-10-19T23:37 | 2360 | 763 | -13.8 | -19.7 | ||
| 2024-10-19T23:37 | 2432 | 756 | 323 | 18 | ||
| 2024-10-19T23:37 | 2491 | 750 | -13.3 | -25.5 | ||
| 2024-10-19T23:37 | 2588 | 741 | -12.1 | -35.0 | ||
| 2024-10-19T23:38 | 2612 | 738 | 316 | 23 | ||
| 2024-10-19T23:38 | 2748 | 725 | -11.5 | -40.6 | ||
| 2024-10-19T23:38 | 2865 | 714 | -11.4 | -40.5 | ||
| 2024-10-19T23:39 | 2926 | 709 | 315 | 24 | ||
| 2024-10-19T23:39 | 3131 | 690 | 309 | 24 | ||
| 2024-10-19T23:40 | 3334 | 672 | -13.5 | -36.9 | ||
| 2024-10-19T23:40 | 3448 | 662 | 307 | 27 | ||
| 2024-10-19T23:40 | 3620 | 647 | 306 | 27 | ||
| 2024-10-19T23:41 | 3761 | 635 | -15.6 | -40.4 | ||
| 2024-10-19T23:41 | 3970 | 618 | 304 | 27 | ||
| 2024-10-19T23:41 | 3981 | 617 | -15.7 | -46.9 | ||
| 2024-10-19T23:42 | 4173 | 601 | 302 | 30 | ||
| 2024-10-19T23:43 | 4509 | 575 | -18.5 | -53.4 | 306 | 29 |
| 2024-10-19T23:44 | 4788 | 553 | -19.9 | -57.7 | ||
| 2024-10-19T23:44 | 4825 | 551 | 312 | 33 | ||
| 2024-10-19T23:45 | 5162 | 526 | 316 | 35 | ||
| 2024-10-19T23:45 | 5197 | 524 | -20.5 | -58.1 | ||
| 2024-10-19T23:46 | 5509 | 502 | 314 | 35 | ||
| 2024-10-19T23:46 | 5549 | 499 | -21.9 | -64.4 | ||
| 2024-10-19T23:47 | 5777 | 484 | 312 | 37 | ||
| 2024-10-19T23:48 | 6040 | 467 | -25.8 | -56.3 | ||
| 2024-10-19T23:48 | 6117 | 462 | 311 | 36 | ||
| 2024-10-19T23:49 | 6451 | 441 | 312 | 37 | ||
| 2024-10-19T23:49 | 6610 | 431 | -28.3 | -60.4 | 313 | 40 |
| 2024-10-19T23:50 | 6862 | 416 | 312 | 40 | ||
| 2024-10-19T23:51 | 7063 | 405 | -31.0 | -60.1 | ||
| 2024-10-19T23:51 | 7149 | 400 | -31.1 | -62.4 | ||
| 2024-10-19T23:51 | 7153 | 399 | 305 | 41 | ||
| 2024-10-19T23:52 | 7277 | 392 | -31.7 | -60.7 | ||
| 2024-10-19T23:52 | 7435 | 384 | 303 | 44 | ||
| 2024-10-19T23:52 | 7470 | 382 | -31.9 | -60.8 | ||
| 2024-10-19T23:53 | 7743 | 367 | 299 | 41 | ||
| 2024-10-19T23:53 | 7801 | 364 | -33.6 | -67.2 | ||
| 2024-10-19T23:54 | 8072 | 350 | 294 | 44 | ||
| 2024-10-19T23:54 | 8101 | 349 | -36.0 | -66.0 | ||
| 2024-10-19T23:55 | 8310 | 339 | -37.0 | -66.7 | ||
| 2024-10-19T23:55 | 8432 | 333 | 287 | 45 | ||
| 2024-10-19T23:55 | 8565 | 326 | -38.7 | -65.9 | ||
| 2024-10-19T23:56 | 8753 | 317 | -40.0 | -66.9 | ||
| 2024-10-19T23:56 | 8787 | 316 | 287 | 44 | ||
| 2024-10-19T23:57 | 8954 | 308 | -41.0 | |||
| 2024-10-19T23:57 | 9116 | 301 | 282 | 45 | ||
| 2024-10-19T23:58 | 9425 | 287 | 282 | 44 | ||
| 2024-10-19T23:59 | 9731 | 275 | 279 | 43 | ||
| 2024-10-19T23:59 | 9797 | 272 | -45.5 | |||
| 2024-10-20T00:00 | 9915 | 267 | 273 | 43 | ||
| 2024-10-20T00:01 | 10232 | 255 | 265 | 43 | ||
| 2024-10-20T00:01 | 10489 | 245 | -50.4 | |||
| 2024-10-20T00:02 | 10591 | 241 | 263 | 47 | ||
| 2024-10-20T00:03 | 10943 | 228 | 267 | 50 | ||
| 2024-10-20T00:03 | 11079 | 224 | -52.2 | |||
| 2024-10-20T00:04 | 11294 | 216 | 268 | 48 | ||
| 2024-10-20T00:04 | 11410 | 213 | -49.8 | |||
| 2024-10-20T00:04 | 11544 | 208 | -50.1 | |||
| 2024-10-20T00:04 | 11605 | 206 | 270 | 48 | ||
| 2024-10-20T00:05 | 11626 | 206 | -48.7 | |||
| 2024-10-20T00:05 | 11728 | 202 | -48.5 | |||
| 2024-10-20T00:05 | 11769 | 201 | 270 | 46 | ||
| 2024-10-20T00:05 | 11807 | 200 | -48.0 | |||
| 2024-10-20T00:06 | 11951 | 196 | 266 | 42 | ||
| 2024-10-20T00:07 | 12256 | 187 | -49.0 | |||
| 2024-10-20T00:07 | 12266 | 187 | 257 | 43 | ||
| 2024-10-20T00:08 | 12588 | 178 | -50.2 | |||
| 2024-10-20T00:08 | 12594 | 177 | 255 | 44 | ||
| 2024-10-20T00:09 | 12965 | 168 | 259 | 42 | ||
| 2024-10-20T00:09 | 13016 | 166 | -53.0 | |||
| 2024-10-20T00:09 | 13194 | 162 | -54.2 | |||
| 2024-10-20T00:10 | 13300 | 159 | 267 | 42 | ||
| 2024-10-20T00:10 | 13384 | 157 | -53.0 | |||
| 2024-10-20T00:10 | 13573 | 152 | 269 | 43 | ||
| 2024-10-20T00:10 | 13607 | 152 | -53.3 | |||
| 2024-10-20T00:11 | 13812 | 147 | 268 | 43 | ||
| 2024-10-20T00:11 | 13942 | 144 | -52.9 | |||
| 2024-10-20T00:12 | 14121 | 140 | 258 | 38 | ||
| 2024-10-20T00:12 | 14128 | 140 | -52.6 | |||
| 2024-10-20T00:13 | 14448 | 133 | -55.3 | |||
| 2024-10-20T00:13 | 14518 | 132 | 250 | 41 | ||
| 2024-10-20T00:13 | 14602 | 130 | -55.2 | |||
| 2024-10-20T00:14 | 14865 | 125 | 246 | 38 | ||
| 2024-10-20T00:14 | 15075 | 121 | -56.6 | |||
| 2024-10-20T00:15 | 15195 | 118 | 247 | 40 | ||
| 2024-10-20T00:15 | 15398 | 115 | -55.9 | |||
| 2024-10-20T00:16 | 15434 | 114 | 254 | 43 | ||
| 2024-10-20T00:16 | 15471 | 113 | -54.5 | |||
| 2024-10-20T00:16 | 15668 | 110 | -52.2 | |||
| 2024-10-20T00:17 | 15738 | 109 | 259 | 40 | ||
| 2024-10-20T00:17 | 15947 | 105 | -51.8 | |||
| 2024-10-20T00:18 | 16057 | 103 | 263 | 31 | ||
| 2024-10-20T00:18 | 16185 | 101 | -52.2 | |||
| 2024-10-20T00:19 | 16391 | 98 | 265 | 31 | ||
| 2024-10-20T00:20 | 16720 | 93 | 264 | 26 | ||
| 2024-10-20T00:20 | 16908 | 91 | 268 | 31 | ||
| 2024-10-20T00:20 | 17001 | 89 | -53.9 | |||
| 2024-10-20T00:21 | 17060 | 89 | 268 | 26 | ||
| 2024-10-20T00:21 | 17168 | 87 | 253 | 19 | ||
| 2024-10-20T00:21 | 17184 | 87 | -52.0 | |||
| 2024-10-20T00:22 | 17488 | 83 | -53.2 | 244 | 18 | |
| 2024-10-20T00:23 | 17748 | 80 | 250 | 20 | ||
| 2024-10-20T00:23 | 17972 | 77 | -53.7 | |||
| 2024-10-20T00:23 | 18040 | 76 | 263 | 15 | ||
| 2024-10-20T00:24 | 18237 | 74 | -54.1 | |||
| 2024-10-20T00:24 | 18314 | 73 | 263 | 9 | ||
| 2024-10-20T00:25 | 18667 | 69 | 209 | 6 | ||
| 2024-10-20T00:26 | 18992 | 65 | 199 | 11 | ||
| 2024-10-20T00:27 | 19362 | 62 | 205 | 18 | ||
| 2024-10-20T00:27 | 19466 | 61 | -62.0 | |||
| 2024-10-20T00:28 | 19505 | 60 | 216 | 21 | ||
| 2024-10-20T00:28 | 19694 | 58 | 231 | 24 | ||
| 2024-10-20T00:29 | 20022 | 55 | 242 | 21 | ||
| 2024-10-20T00:30 | 20359 | 53 | -60.7 | |||
| 2024-10-20T00:30 | 20392 | 52 | 252 | 24 | ||
| 2024-10-20T00:30 | 20563 | 51 | -60.5 | |||
| 2024-10-20T00:31 | 20623 | 50 | 253 | 27 | ||
| 2024-10-20T00:31 | 20671 | 50 | -58.8 | |||
| 2024-10-20T00:31 | 20955 | 48 | 266 | 19 | ||
| 2024-10-20T00:31 | 20991 | 47 | -58.7 | |||
| 2024-10-20T00:32 | 21295 | 45 | 231 | 15 | ||
| 2024-10-20T00:33 | 21557 | 43 | -61.2 | |||
| 2024-10-20T00:33 | 21705 | 42 | 216 | 20 | ||
| 2024-10-20T00:34 | 21914 | 41 | -61.3 | |||
| 2024-10-20T00:34 | 22004 | 40 | 240 | 22 | ||
| 2024-10-20T00:35 | 22243 | 39 | 258 | 18 | ||
| 2024-10-20T00:35 | 22426 | 38 | 259 | 14 | ||
| 2024-10-20T00:35 | 22461 | 38 | -54.5 | |||
| 2024-10-20T00:35 | 22582 | 37 | 253 | 9 | ||
| 2024-10-20T00:36 | 22706 | 36 | -53.7 | 234 | 8 | |
| 2024-10-20T00:37 | 23087 | 34 | 263 | 10 | ||
| 2024-10-20T00:38 | 23426 | 32 | -56.8 | 233 | 7 | |
| 2024-10-20T11:30 | 18 | 1030 | 7.3 | -0.2 | 250 | 3 |
| 2024-10-20T11:30 | 22 | 1030 | 7.3 | -0.7 | 0 | 0 |
| 2024-10-20T11:30 | 66 | 1024 | 260 | 3 | ||
| 2024-10-20T11:30 | 144 | 1015 | 285 | 3 | ||
| 2024-10-20T11:30 | 151 | 1014 | 7.3 | -2.4 | ||
| 2024-10-20T11:31 | 214 | 1006 | 306 | 5 | ||
| 2024-10-20T11:31 | 433 | 979 | 288 | 7 | ||
| 2024-10-20T11:32 | 728 | 945 | 278 | 5 | ||
| 2024-10-20T11:32 | 861 | 929 | 1.0 | -4.2 | ||
| 2024-10-20T11:33 | 1075 | 905 | 300 | 5 | ||
| 2024-10-20T11:34 | 1341 | 875 | 312 | 6 | ||
| 2024-10-20T11:34 | 1495 | 858 | 318 | 5 | ||
| 2024-10-20T11:34 | 1514 | 856 | -4.8 | -7.4 | ||
| 2024-10-20T11:34 | 1600 | 846 | -4.5 | -9.9 | ||
| 2024-10-20T11:35 | 1630 | 843 | -3.6 | -13.8 | ||
| 2024-10-20T11:35 | 1660 | 840 | -1.3 | -21.4 | ||
| 2024-10-20T11:35 | 1751 | 830 | 309 | 10 | ||
| 2024-10-20T11:35 | 1775 | 828 | -1.4 | -24.0 | ||
| 2024-10-20T11:35 | 1900 | 815 | -1.7 | -23.6 | ||
| 2024-10-20T11:35 | 1924 | 813 | 315 | 10 | ||
| 2024-10-20T11:36 | 2047 | 800 | -1.3 | -20.9 | ||
| 2024-10-20T11:36 | 2121 | 793 | 322 | 15 | ||
| 2024-10-20T11:36 | 2132 | 792 | 0.0 | -21.5 | ||
| 2024-10-20T11:36 | 2304 | 775 | -0.5 | -21.3 | ||
| 2024-10-20T11:36 | 2310 | 774 | 326 | 18 | ||
| 2024-10-20T11:37 | 2478 | 758 | -1.0 | -20.1 | ||
| 2024-10-20T11:37 | 2672 | 740 | 318 | 17 | ||
| 2024-10-20T11:38 | 2762 | 731 | -2.3 | -23.4 | ||
| 2024-10-20T11:38 | 2852 | 723 | 314 | 18 | ||
| 2024-10-20T11:38 | 2870 | 721 | -2.6 | -24.3 | ||
| 2024-10-20T11:39 | 3137 | 697 | -4.5 | -26.6 | ||
| 2024-10-20T11:39 | 3206 | 691 | 308 | 18 | ||
| 2024-10-20T11:39 | 3382 | 676 | 313 | 14 | ||
| 2024-10-20T11:40 | 3529 | 663 | -6.1 | -31.0 | ||
| 2024-10-20T11:40 | 3724 | 647 | 310 | 15 | ||
| 2024-10-20T11:41 | 4073 | 618 | -8.6 | -38.4 | 304 | 13 |
| 2024-10-20T11:42 | 4424 | 591 | 307 | 13 | ||
| 2024-10-20T11:43 | 4604 | 577 | -12.0 | -38.5 | ||
| 2024-10-20T11:43 | 4779 | 564 | 303 | 14 | ||
| 2024-10-20T11:44 | 5131 | 538 | 300 | 14 | ||
| 2024-10-20T11:45 | 5309 | 526 | 305 | 12 | ||
| 2024-10-20T11:45 | 5459 | 515 | -18.9 | -46.3 | ||
| 2024-10-20T11:46 | 5689 | 500 | 311 | 17 | ||
| 2024-10-20T11:46 | 5849 | 489 | -20.9 | -50.8 | ||
| 2024-10-20T11:47 | 6070 | 475 | 312 | 15 | ||
| 2024-10-20T11:48 | 6444 | 451 | 316 | 17 | ||
| 2024-10-20T11:48 | 6487 | 448 | -26.0 | -56.4 | ||
| 2024-10-20T11:49 | 6792 | 430 | 318 | 18 | ||
| 2024-10-20T11:50 | 7190 | 406 | 316 | 15 | ||
| 2024-10-20T11:51 | 7570 | 385 | 324 | 16 | ||
| 2024-10-20T11:51 | 7607 | 383 | -34.6 | -62.8 | ||
| 2024-10-20T11:51 | 7799 | 372 | 324 | 17 | ||
| 2024-10-20T11:52 | 8159 | 354 | 314 | 19 | ||
| 2024-10-20T11:53 | 8268 | 348 | -40.0 | -63.9 | ||
| 2024-10-20T11:53 | 8531 | 335 | 310 | 22 | ||
| 2024-10-20T11:54 | 8596 | 331 | -42.6 | |||
| 2024-10-20T11:54 | 8919 | 316 | 317 | 24 | ||
| 2024-10-20T11:55 | 9292 | 299 | 320 | 24 | ||
| 2024-10-20T11:56 | 9650 | 283 | -50.6 | |||
| 2024-10-20T11:56 | 9670 | 282 | 325 | 25 | ||
| 2024-10-20T11:57 | 9874 | 273 | 322 | 27 | ||
| 2024-10-20T11:57 | 10011 | 267 | -51.7 | |||
| 2024-10-20T11:58 | 10235 | 258 | 323 | 28 | ||
| 2024-10-20T11:58 | 10241 | 258 | -53.1 | |||
| 2024-10-20T11:59 | 10527 | 247 | 309 | 26 | ||
| 2024-10-20T12:00 | 10857 | 234 | 305 | 28 | ||
| 2024-10-20T12:00 | 10978 | 230 | -56.0 | |||
| 2024-10-20T12:01 | 11187 | 223 | 299 | 31 | ||
| 2024-10-20T12:01 | 11285 | 219 | -56.3 | |||
| 2024-10-20T12:02 | 11511 | 212 | 309 | 35 | ||
| 2024-10-20T12:02 | 11532 | 211 | -56.3 | |||
| 2024-10-20T12:02 | 11735 | 204 | -55.1 | |||
| 2024-10-20T12:03 | 11829 | 201 | 303 | 35 | ||
| 2024-10-20T12:04 | 12132 | 192 | -54.3 | |||
| 2024-10-20T12:04 | 12137 | 192 | 296 | 37 | ||
| 2024-10-20T12:04 | 12212 | 190 | -53.1 | |||
| 2024-10-20T12:05 | 12450 | 183 | 294 | 38 | ||
| 2024-10-20T12:05 | 12460 | 182 | -54.1 | |||
| 2024-10-20T12:05 | 12627 | 178 | 296 | 37 | ||
| 2024-10-20T12:05 | 12648 | 177 | -53.4 | |||
| 2024-10-20T12:06 | 12835 | 172 | 293 | 30 | ||
| 2024-10-20T12:07 | 13060 | 166 | -52.3 | |||
| 2024-10-20T12:07 | 13144 | 164 | 294 | 30 | ||
| 2024-10-20T12:07 | 13171 | 163 | -52.3 | |||
| 2024-10-20T12:08 | 13491 | 155 | 284 | 27 | ||
| 2024-10-20T12:09 | 13751 | 149 | -55.7 | |||
| 2024-10-20T12:09 | 13843 | 147 | 274 | 31 | ||
| 2024-10-20T12:10 | 14171 | 140 | 282 | 32 | ||
| 2024-10-20T12:11 | 14419 | 134 | -58.1 | |||
| 2024-10-20T12:11 | 14495 | 133 | 290 | 29 | ||
| 2024-10-20T12:12 | 14823 | 126 | 282 | 29 | ||
| 2024-10-20T12:12 | 14856 | 125 | -58.9 | |||
| 2024-10-20T12:13 | 15091 | 121 | -58.7 | |||
| 2024-10-20T12:13 | 15102 | 120 | 279 | 33 | ||
| 2024-10-20T12:13 | 15303 | 117 | 274 | 33 | ||
| 2024-10-20T12:13 | 15331 | 116 | -56.9 | |||
| 2024-10-20T12:14 | 15487 | 113 | -56.3 | |||
| 2024-10-20T12:14 | 15637 | 111 | 272 | 36 | ||
| 2024-10-20T12:15 | 15976 | 105 | 286 | 34 | ||
| 2024-10-20T12:16 | 16061 | 104 | -57.7 | |||
| 2024-10-20T12:16 | 16229 | 101 | -55.9 | |||
| 2024-10-20T12:16 | 16266 | 100 | 280 | 25 | ||
| 2024-10-20T12:17 | 16596 | 95 | 280 | 27 | ||
| 2024-10-20T12:18 | 16718 | 93 | -57.0 | |||
| 2024-10-20T12:18 | 16856 | 91 | 267 | 19 | ||
| 2024-10-20T12:18 | 16983 | 90 | -56.6 | |||
| 2024-10-20T12:19 | 17184 | 87 | 251 | 18 | ||
| 2024-10-20T12:20 | 17518 | 82 | 240 | 21 | ||
| 2024-10-20T12:21 | 17838 | 78 | -60.7 | |||
| 2024-10-20T12:21 | 17854 | 78 | 249 | 24 | ||
| 2024-10-20T12:22 | 18182 | 74 | 260 | 24 | ||
| 2024-10-20T12:23 | 18520 | 70 | 259 | 24 | ||
| 2024-10-20T12:23 | 18572 | 69 | -59.5 | |||
| 2024-10-20T12:24 | 18887 | 66 | 262 | 24 | ||
| 2024-10-20T12:25 | 19177 | 63 | 278 | 23 | ||
| 2024-10-20T12:26 | 19479 | 60 | -60.3 | |||
| 2024-10-20T12:26 | 19513 | 60 | 264 | 22 | ||
| 2024-10-20T12:27 | 19767 | 57 | -58.7 | |||
| 2024-10-20T12:27 | 19856 | 57 | 268 | 22 | ||
| 2024-10-20T12:28 | 20143 | 54 | 273 | 24 | ||
| 2024-10-20T12:29 | 20523 | 51 | -59.7 | |||
| 2024-10-20T12:29 | 20536 | 51 | 271 | 19 | ||
| 2024-10-20T12:29 | 20788 | 49 | 281 | 25 | ||
| 2024-10-20T12:30 | 20854 | 48 | -57.3 | |||
| 2024-10-20T12:30 | 21135 | 46 | 269 | 18 | ||
| 2024-10-20T12:31 | 21275 | 45 | -57.3 | |||
| 2024-10-20T12:31 | 21430 | 44 | 256 | 22 | ||
| 2024-10-20T12:31 | 21466 | 44 | -57.6 | 257 | 23 | |
| 2024-10-20T23:30 | 18 | 1031 | 9.0 | 2.6 | 140 | 4 |
| 2024-10-20T23:30 | 22 | 1030 | 9.0 | 2.3 | 138 | 1 |
| 2024-10-20T23:30 | 48 | 1027 | 145 | 3 | ||
| 2024-10-20T23:30 | 71 | 1024 | 8.0 | 0.9 | ||
| 2024-10-20T23:30 | 82 | 1023 | 124 | 4 | ||
| 2024-10-20T23:30 | 152 | 1014 | 7.5 | 0.9 | ||
| 2024-10-20T23:31 | 221 | 1005 | 158 | 8 | ||
| 2024-10-20T23:32 | 538 | 967 | 5.8 | -3.0 | ||
| 2024-10-20T23:32 | 549 | 966 | 160 | 9 | ||
| 2024-10-20T23:32 | 651 | 954 | 5.7 | -6.5 | ||
| 2024-10-20T23:32 | 814 | 935 | 131 | 6 | ||
| 2024-10-20T23:33 | 852 | 931 | 4.3 | -5.2 | ||
| 2024-10-20T23:33 | 895 | 926 | 150 | 5 | ||
| 2024-10-20T23:33 | 983 | 916 | 4.1 | -7.4 | ||
| 2024-10-20T23:33 | 1011 | 913 | 202 | 4 | ||
| 2024-10-20T23:33 | 1022 | 911 | 5.0 | -10.3 | ||
| 2024-10-20T23:33 | 1055 | 908 | 7.4 | -16.8 | ||
| 2024-10-20T23:33 | 1104 | 902 | 7.8 | -20.9 | ||
| 2024-10-20T23:33 | 1109 | 902 | 259 | 6 | ||
| 2024-10-20T23:33 | 1131 | 899 | 8.4 | -24.0 | ||
| 2024-10-20T23:34 | 1394 | 871 | 7.6 | -23.3 | ||
| 2024-10-20T23:34 | 1433 | 867 | 232 | 7 | ||
| 2024-10-20T23:35 | 1620 | 848 | 224 | 9 | ||
| 2024-10-20T23:36 | 1848 | 824 | 4.9 | -22.2 | ||
| 2024-10-20T23:36 | 1939 | 815 | 251 | 11 | ||
| 2024-10-20T23:37 | 2154 | 794 | 4.9 | -29.8 | ||
| 2024-10-20T23:37 | 2207 | 789 | 256 | 10 | ||
| 2024-10-20T23:38 | 2519 | 759 | 253 | 10 | ||
| 2024-10-20T23:38 | 2598 | 752 | 3.2 | -24.5 | ||
| 2024-10-20T23:38 | 2635 | 748 | 273 | 9 | ||
| 2024-10-20T23:38 | 2747 | 738 | 251 | 12 | ||
| 2024-10-20T23:39 | 2807 | 733 | 2.5 | -27.3 | ||
| 2024-10-20T23:39 | 2987 | 716 | 257 | 11 | ||
| 2024-10-20T23:40 | 3117 | 705 | 262 | 11 | ||
| 2024-10-20T23:40 | 3151 | 702 | 0.9 | -36.9 | ||
| 2024-10-20T23:40 | 3345 | 685 | -0.1 | -31.9 | ||
| 2024-10-20T23:41 | 3452 | 676 | -0.8 | -26.7 | ||
| 2024-10-20T23:41 | 3457 | 676 | 265 | 12 | ||
| 2024-10-20T23:41 | 3512 | 671 | -1.4 | -19.4 | ||
| 2024-10-20T23:42 | 3760 | 651 | 266 | 10 | ||
| 2024-10-20T23:42 | 3869 | 641 | 267 | 13 | ||
| 2024-10-20T23:42 | 4017 | 630 | 266 | 10 | ||
| 2024-10-20T23:43 | 4083 | 624 | -4.3 | -25.7 | ||
| 2024-10-20T23:43 | 4179 | 617 | 265 | 12 | ||
| 2024-10-20T23:44 | 4520 | 590 | 267 | 12 | ||
| 2024-10-20T23:45 | 4777 | 571 | -9.1 | -32.5 | ||
| 2024-10-20T23:45 | 4812 | 569 | 262 | 13 | ||
| 2024-10-20T23:45 | 4876 | 564 | -9.2 | -37.5 | ||
| 2024-10-20T23:45 | 5100 | 548 | -10.6 | -39.9 | ||
| 2024-10-20T23:46 | 5164 | 543 | 274 | 17 | ||
| 2024-10-20T23:46 | 5329 | 532 | -11.6 | -45.9 | ||
| 2024-10-20T23:47 | 5508 | 519 | -12.0 | -48.7 | ||
| 2024-10-20T23:47 | 5514 | 519 | 271 | 19 | ||
| 2024-10-20T23:47 | 5754 | 503 | -13.5 | -40.9 | ||
| 2024-10-20T23:48 | 5823 | 498 | -13.9 | -29.7 | ||
| 2024-10-20T23:48 | 5858 | 496 | 266 | 18 | ||
| 2024-10-20T23:48 | 5961 | 489 | -15.0 | -33.0 | ||
| 2024-10-20T23:48 | 6131 | 478 | -16.5 | -31.2 | ||
| 2024-10-20T23:49 | 6206 | 474 | 277 | 19 | ||
| 2024-10-20T23:49 | 6415 | 461 | -19.0 | -36.4 | ||
| 2024-10-20T23:50 | 6554 | 452 | 284 | 18 | ||
| 2024-10-20T23:50 | 6589 | 450 | -20.6 | -42.7 | ||
| 2024-10-20T23:50 | 6725 | 442 | 281 | 20 | ||
| 2024-10-20T23:50 | 6839 | 435 | -22.8 | -36.0 | ||
| 2024-10-20T23:51 | 6913 | 431 | -23.4 | -30.7 | ||
| 2024-10-20T23:51 | 7039 | 423 | -24.3 | -33.3 | ||
| 2024-10-20T23:51 | 7086 | 420 | 290 | 20 | ||
| 2024-10-20T23:51 | 7184 | 415 | -25.3 | -37.5 | ||
| 2024-10-20T23:52 | 7236 | 412 | -25.4 | -37.6 | ||
| 2024-10-20T23:52 | 7286 | 409 | -25.7 | -38.2 | ||
| 2024-10-20T23:52 | 7337 | 406 | -26.1 | -38.6 | ||
| 2024-10-20T23:52 | 7399 | 403 | -26.6 | -37.8 | ||
| 2024-10-20T23:52 | 7427 | 401 | 291 | 22 | ||
| 2024-10-20T23:52 | 7541 | 395 | -27.5 | -42.3 | ||
| 2024-10-20T23:53 | 7597 | 392 | -27.8 | -51.0 | ||
| 2024-10-20T23:53 | 7665 | 388 | 296 | 26 | ||
| 2024-10-20T23:53 | 7757 | 383 | -28.9 | -50.2 | ||
| 2024-10-20T23:53 | 7829 | 379 | -29.1 | -40.6 | ||
| 2024-10-20T23:53 | 7873 | 377 | -28.5 | -33.7 | ||
| 2024-10-20T23:54 | 7998 | 370 | 289 | 24 | ||
| 2024-10-20T23:54 | 8151 | 363 | -30.2 | -35.1 | ||
| 2024-10-20T23:55 | 8337 | 353 | 288 | 23 | ||
| 2024-10-20T23:55 | 8343 | 353 | -31.6 | -36.6 | ||
| 2024-10-20T23:56 | 8683 | 336 | 287 | 24 | ||
| 2024-10-20T23:56 | 8825 | 329 | -35.9 | -39.6 | ||
| 2024-10-20T23:57 | 9023 | 320 | 290 | 23 | ||
| 2024-10-20T23:58 | 9285 | 308 | -40.0 | -43.6 | ||
| 2024-10-20T23:58 | 9334 | 306 | 292 | 23 | ||
| 2024-10-20T23:59 | 9633 | 293 | 290 | 26 | ||
| 2024-10-21T00:00 | 9925 | 280 | 291 | 27 | ||
| 2024-10-21T00:01 | 10233 | 268 | 289 | 28 | ||
| 2024-10-21T00:02 | 10520 | 256 | -50.8 | |||
| 2024-10-21T00:02 | 10535 | 256 | 290 | 29 | ||
| 2024-10-21T00:03 | 10835 | 244 | 288 | 27 | ||
| 2024-10-21T00:04 | 11150 | 232 | 290 | 27 | ||
| 2024-10-21T00:05 | 11461 | 221 | 291 | 30 | ||
| 2024-10-21T00:05 | 11482 | 220 | -58.2 | |||
| 2024-10-21T00:06 | 11757 | 211 | 293 | 30 | ||
| 2024-10-21T00:07 | 12074 | 200 | 293 | 25 | ||
| 2024-10-21T00:08 | 12406 | 190 | 287 | 25 | ||
| 2024-10-21T00:08 | 12499 | 187 | -65.5 | |||
| 2024-10-21T00:08 | 12589 | 184 | 288 | 28 | ||
| 2024-10-21T00:09 | 12735 | 180 | -65.2 | |||
| 2024-10-21T00:09 | 12777 | 179 | 296 | 34 | ||
| 2024-10-21T00:09 | 12929 | 174 | -64.6 | |||
| 2024-10-21T00:10 | 13091 | 170 | 295 | 31 | ||
| 2024-10-21T00:10 | 13196 | 167 | -64.5 | |||
| 2024-10-21T00:11 | 13333 | 163 | 285 | 33 | ||
| 2024-10-21T00:11 | 13584 | 157 | -62.8 | |||
| 2024-10-21T00:12 | 13640 | 155 | 290 | 32 | ||
| 2024-10-21T00:12 | 13764 | 152 | -61.5 | |||
| 2024-10-21T00:13 | 13957 | 147 | 290 | 32 | ||
| 2024-10-21T00:13 | 14072 | 145 | -61.0 | |||
| 2024-10-21T00:13 | 14138 | 143 | 283 | 29 | ||
| 2024-10-21T00:13 | 14217 | 141 | -61.0 | |||
| 2024-10-21T00:14 | 14332 | 139 | -60.5 | |||
| 2024-10-21T00:14 | 14402 | 137 | 286 | 28 | ||
| 2024-10-21T00:15 | 14748 | 130 | 281 | 26 | ||
| 2024-10-21T00:15 | 14801 | 129 | -62.9 | |||
| 2024-10-21T00:16 | 14961 | 125 | 281 | 28 | ||
| 2024-10-21T00:16 | 14979 | 125 | -62.9 | |||
| 2024-10-21T00:16 | 15192 | 121 | 280 | 33 | ||
| 2024-10-21T00:17 | 15356 | 118 | 279 | 28 | ||
| 2024-10-21T00:17 | 15505 | 115 | -63.1 | |||
| 2024-10-21T00:18 | 15675 | 112 | 283 | 35 | ||
| 2024-10-21T00:18 | 15707 | 111 | -63.7 | |||
| 2024-10-21T00:18 | 15823 | 109 | -62.8 | |||
| 2024-10-21T00:18 | 15839 | 109 | 289 | 34 | ||
| 2024-10-21T00:18 | 15920 | 107 | -62.2 | |||
| 2024-10-21T00:19 | 16030 | 105 | -62.5 | |||
| 2024-10-21T00:19 | 16085 | 104 | 286 | 30 | ||
| 2024-10-21T00:20 | 16353 | 100 | 292 | 29 | ||
| 2024-10-21T00:20 | 16581 | 96 | 288 | 25 | ||
| 2024-10-21T00:21 | 16771 | 93 | 292 | 27 | ||
| 2024-10-21T00:21 | 16777 | 93 | -62.3 | |||
| 2024-10-21T00:22 | 17069 | 89 | 287 | 19 | ||
| 2024-10-21T00:22 | 17232 | 87 | -62.0 | |||
| 2024-10-21T00:23 | 17399 | 84 | 278 | 24 | ||
| 2024-10-21T00:24 | 17728 | 80 | -60.6 | |||
| 2024-10-21T00:24 | 17737 | 80 | 278 | 31 | ||
| 2024-10-21T00:25 | 18122 | 75 | 295 | 28 | ||
| 2024-10-21T00:26 | 18498 | 71 | 294 | 19 | ||
| 2024-10-21T00:26 | 18532 | 70 | -60.3 | |||
| 2024-10-21T00:26 | 18704 | 68 | 274 | 17 | ||
| 2024-10-21T00:27 | 19002 | 65 | 299 | 15 | ||
| 2024-10-21T00:27 | 19040 | 65 | -59.0 | |||
| 2024-10-21T00:28 | 19169 | 64 | 260 | 9 | ||
| 2024-10-21T00:28 | 19218 | 63 | -58.5 | |||
| 2024-10-21T00:28 | 19461 | 61 | 234 | 11 | ||
| 2024-10-21T00:29 | 19838 | 57 | 249 | 16 | ||
| 2024-10-21T00:30 | 20071 | 55 | -63.5 | |||
| 2024-10-21T00:31 | 20226 | 54 | 286 | 18 | ||
| 2024-10-21T00:31 | 20531 | 51 | 282 | 13 | ||
| 2024-10-21T00:31 | 20567 | 51 | -62.3 | |||
| 2024-10-21T00:32 | 20707 | 50 | 281 | 12 | ||
| 2024-10-21T00:33 | 21049 | 47 | 256 | 14 | ||
| 2024-10-21T00:33 | 21187 | 46 | -60.7 | |||
| 2024-10-21T00:33 | 21295 | 45 | 272 | 19 | ||
| 2024-10-21T00:34 | 21509 | 44 | -57.7 | |||
| 2024-10-21T00:34 | 21702 | 42 | 269 | 14 | ||
| 2024-10-21T00:35 | 22071 | 40 | 259 | 14 | ||
| 2024-10-21T00:36 | 22343 | 38 | -57.5 | |||
| 2024-10-21T00:36 | 22375 | 38 | 265 | 11 | ||
| 2024-10-21T00:37 | 22735 | 36 | -57.4 | |||
| 2024-10-21T00:37 | 22753 | 36 | 274 | 16 | ||
| 2024-10-21T00:38 | 22988 | 34 | -55.7 | 287 | 16 | |
| 2024-10-21T00:38 | 23215 | 33 | 286 | 16 | ||
| 2024-10-21T00:38 | 23236 | 33 | -55.0 | |||
| 2024-10-21T00:39 | 23512 | 32 | 319 | 11 | ||
| 2024-10-21T00:39 | 23614 | 31 | -55.3 | |||
| 2024-10-21T00:40 | 23811 | 30 | -56.9 | 14 | 4 | |
| 2024-10-21T11:30 | 18 | 1026 | 13.3 | 7.9 | 160 | 6 |
| 2024-10-21T11:30 | 21 | 1026 | 13.3 | 7.5 | 159 | 1 |
| 2024-10-21T11:30 | 44 | 1023 | 142 | 3 | ||
| 2024-10-21T11:30 | 72 | 1020 | 13.4 | 7.0 | ||
| 2024-10-21T11:30 | 104 | 1016 | 171 | 6 | ||
| 2024-10-21T11:31 | 264 | 997 | 174 | 15 | ||
| 2024-10-21T11:31 | 531 | 965 | 9.8 | 5.2 | ||
| 2024-10-21T11:32 | 662 | 950 | 9.0 | 4.0 | ||
| 2024-10-21T11:32 | 669 | 949 | 176 | 20 | ||
| 2024-10-21T11:32 | 704 | 945 | 8.9 | 3.1 | ||
| 2024-10-21T11:32 | 845 | 929 | 7.8 | 2.5 | ||
| 2024-10-21T11:32 | 901 | 923 | 8.2 | 0.9 | ||
| 2024-10-21T11:32 | 944 | 918 | 191 | 16 | ||
| 2024-10-21T11:32 | 951 | 917 | 7.8 | 0.3 | ||
| 2024-10-21T11:32 | 986 | 914 | 9.0 | -1.1 | ||
| 2024-10-21T11:33 | 1062 | 905 | 8.5 | -2.2 | ||
| 2024-10-21T11:33 | 1123 | 899 | 203 | 14 | ||
| 2024-10-21T11:33 | 1305 | 879 | 8.1 | -7.6 | ||
| 2024-10-21T11:33 | 1341 | 875 | 210 | 15 | ||
| 2024-10-21T11:33 | 1413 | 868 | 9.8 | -20.4 | ||
| 2024-10-21T11:34 | 1536 | 855 | 214 | 18 | ||
| 2024-10-21T11:34 | 1543 | 854 | 9.5 | -24.7 | ||
| 2024-10-21T11:35 | 1833 | 824 | 8.3 | -27.3 | ||
| 2024-10-21T11:35 | 1871 | 821 | 217 | 17 | ||
| 2024-10-21T11:35 | 2001 | 808 | 7.9 | -31.9 | ||
| 2024-10-21T11:35 | 2141 | 794 | 221 | 17 | ||
| 2024-10-21T11:36 | 2184 | 790 | 6.6 | -32.8 | ||
| 2024-10-21T11:36 | 2307 | 778 | 6.7 | -35.7 | ||
| 2024-10-21T11:36 | 2356 | 774 | 229 | 17 | ||
| 2024-10-21T11:36 | 2449 | 765 | 6.1 | -40.1 | ||
| 2024-10-21T11:36 | 2483 | 762 | 6.9 | -39.5 | ||
| 2024-10-21T11:37 | 2705 | 741 | 235 | 15 | ||
| 2024-10-21T11:37 | 2724 | 740 | 4.9 | -40.9 | ||
| 2024-10-21T11:38 | 2926 | 721 | 4.3 | -37.3 | ||
| 2024-10-21T11:38 | 3096 | 707 | 244 | 17 | ||
| 2024-10-21T11:39 | 3553 | 667 | 240 | 16 | ||
| 2024-10-21T11:40 | 3800 | 647 | -3.2 | -39.8 | ||
| 2024-10-21T11:40 | 3959 | 634 | 233 | 18 | ||
| 2024-10-21T11:40 | 4118 | 621 | -5.2 | -34.4 | ||
| 2024-10-21T11:41 | 4278 | 609 | -6.0 | -37.9 | ||
| 2024-10-21T11:41 | 4318 | 606 | 227 | 16 | ||
| 2024-10-21T11:41 | 4476 | 594 | -6.3 | -39.9 | ||
| 2024-10-21T11:42 | 4664 | 579 | 241 | 18 | ||
| 2024-10-21T11:43 | 4909 | 561 | 249 | 17 | ||
| 2024-10-21T11:43 | 4921 | 561 | -10.0 | -40.9 | ||
| 2024-10-21T11:44 | 5255 | 537 | 236 | 21 | ||
| 2024-10-21T11:44 | 5419 | 525 | 237 | 23 | ||
| 2024-10-21T11:44 | 5425 | 525 | -12.6 | -52.7 | ||
| 2024-10-21T11:45 | 5706 | 506 | 232 | 29 | ||
| 2024-10-21T11:46 | 6081 | 481 | 228 | 33 | ||
| 2024-10-21T11:46 | 6185 | 475 | -17.1 | -55.7 | ||
| 2024-10-21T11:47 | 6466 | 457 | 238 | 35 | ||
| 2024-10-21T11:48 | 6820 | 436 | 239 | 36 | ||
| 2024-10-21T11:48 | 6843 | 434 | -22.0 | -53.5 | ||
| 2024-10-21T11:48 | 6892 | 431 | -22.3 | -33.9 | ||
| 2024-10-21T11:48 | 6997 | 425 | -23.1 | -29.5 | ||
| 2024-10-21T11:49 | 7144 | 417 | 238 | 36 | ||
| 2024-10-21T11:49 | 7150 | 417 | -24.2 | -29.8 | ||
| 2024-10-21T11:49 | 7199 | 414 | -23.1 | -26.7 | ||
| 2024-10-21T11:50 | 7426 | 401 | -24.7 | -27.9 | ||
| 2024-10-21T11:50 | 7445 | 400 | 242 | 41 | ||
| 2024-10-21T11:51 | 7819 | 380 | 251 | 39 | ||
| 2024-10-21T11:51 | 7837 | 379 | -27.4 | -30.1 | ||
| 2024-10-21T11:52 | 8174 | 362 | 254 | 34 | ||
| 2024-10-21T11:52 | 8204 | 360 | -30.3 | -32.8 | ||
| 2024-10-21T11:53 | 8511 | 345 | 250 | 31 | ||
| 2024-10-21T11:53 | 8596 | 341 | -33.6 | -38.1 | ||
| 2024-10-21T11:54 | 8825 | 330 | 250 | 31 | ||
| 2024-10-21T11:55 | 9155 | 314 | 247 | 33 | ||
| 2024-10-21T11:55 | 9291 | 308 | -39.5 | -42.8 | ||
| 2024-10-21T11:55 | 9355 | 305 | -40.0 | -42.9 | ||
| 2024-10-21T11:56 | 9454 | 301 | 247 | 34 | ||
| 2024-10-21T11:57 | 9752 | 288 | 247 | 35 | ||
| 2024-10-21T11:57 | 10055 | 275 | 245 | 35 | ||
| 2024-10-21T11:58 | 10365 | 262 | 241 | 34 | ||
| 2024-10-21T12:00 | 10722 | 248 | 241 | 34 | ||
| 2024-10-21T12:00 | 10851 | 244 | -52.6 | |||
| 2024-10-21T12:01 | 11139 | 233 | 245 | 32 | ||
| 2024-10-21T12:02 | 11547 | 218 | 249 | 31 | ||
| 2024-10-21T12:02 | 11721 | 212 | -59.9 | |||
| 2024-10-21T12:03 | 11907 | 206 | 246 | 34 | ||
| 2024-10-21T12:04 | 12242 | 195 | 248 | 36 | ||
| 2024-10-21T12:05 | 12609 | 184 | 248 | 37 | ||
| 2024-10-21T12:05 | 12686 | 181 | -65.6 | |||
| 2024-10-21T12:06 | 12957 | 174 | 247 | 39 | ||
| 2024-10-21T12:06 | 13080 | 170 | -66.8 | |||
| 2024-10-21T12:06 | 13162 | 168 | 254 | 41 | ||
| 2024-10-21T12:07 | 13550 | 157 | 261 | 45 | ||
| 2024-10-21T12:07 | 13601 | 156 | -64.8 | |||
| 2024-10-21T12:08 | 13735 | 153 | -64.1 | |||
| 2024-10-21T12:08 | 13825 | 151 | 267 | 46 | ||
| 2024-10-21T12:09 | 13943 | 148 | -62.8 | |||
| 2024-10-21T12:09 | 13998 | 146 | 270 | 41 | ||
| 2024-10-21T12:09 | 14171 | 142 | 269 | 37 | ||
| 2024-10-21T12:10 | 14198 | 142 | -60.6 | |||
| 2024-10-21T12:10 | 14314 | 139 | -59.7 | |||
| 2024-10-21T12:10 | 14475 | 135 | 273 | 33 | ||
| 2024-10-21T12:11 | 14574 | 133 | -60.6 | |||
| 2024-10-21T12:11 | 14858 | 127 | 254 | 25 | ||
| 2024-10-21T12:12 | 14906 | 126 | -61.3 | |||
| 2024-10-21T12:13 | 15229 | 120 | 250 | 33 | ||
| 2024-10-21T12:13 | 15251 | 120 | -61.9 | |||
| 2024-10-21T12:13 | 15536 | 114 | 252 | 31 | ||
| 2024-10-21T12:14 | 15650 | 112 | -62.4 | |||
| 2024-10-21T12:14 | 15723 | 111 | 249 | 26 | ||
| 2024-10-21T12:14 | 15728 | 111 | -61.7 | |||
| 2024-10-21T12:15 | 15919 | 107 | -61.7 | |||
| 2024-10-21T12:15 | 16001 | 106 | 264 | 33 | ||
| 2024-10-21T12:15 | 16104 | 104 | -59.2 | |||
| 2024-10-21T12:15 | 16159 | 103 | 268 | 25 | ||
| 2024-10-21T12:16 | 16366 | 100 | 251 | 22 | ||
| 2024-10-21T12:16 | 16609 | 96 | -61.7 | |||
| 2024-10-21T12:16 | 16639 | 96 | 247 | 26 | ||
| 2024-10-21T12:17 | 16807 | 93 | 259 | 20 | ||
| 2024-10-21T12:17 | 16953 | 91 | -61.6 | |||
| 2024-10-21T12:18 | 17053 | 89 | 272 | 19 | ||
| 2024-10-21T12:18 | 17276 | 86 | 264 | 19 | ||
| 2024-10-21T12:19 | 17341 | 85 | -62.8 | |||
| 2024-10-21T12:19 | 17384 | 85 | 264 | 18 | ||
| 2024-10-21T12:19 | 17451 | 84 | -61.7 | |||
| 2024-10-21T12:19 | 17591 | 82 | -61.8 | 237 | 13 | |
| 2024-10-21T12:20 | 17699 | 81 | -60.1 | |||
| 2024-10-21T12:20 | 17738 | 80 | 222 | 14 | ||
| 2024-10-21T12:21 | 18080 | 76 | 227 | 22 | ||
| 2024-10-21T12:21 | 18169 | 75 | -61.4 | |||
| 2024-10-21T12:22 | 18382 | 72 | -59.8 | |||
| 2024-10-21T12:22 | 18425 | 72 | 240 | 23 | ||
| 2024-10-21T12:23 | 18646 | 69 | -60.7 | |||
| 2024-10-21T12:23 | 18764 | 68 | 246 | 27 | ||
| 2024-10-21T12:24 | 18961 | 66 | -60.6 | |||
| 2024-10-21T12:24 | 19077 | 65 | 262 | 25 | ||
| 2024-10-21T12:25 | 19403 | 61 | 267 | 25 | ||
| 2024-10-21T12:26 | 19612 | 59 | -59.5 | |||
| 2024-10-21T12:26 | 19685 | 59 | 273 | 20 | ||
| 2024-10-21T12:27 | 20086 | 55 | 281 | 20 | ||
| 2024-10-21T12:27 | 20366 | 53 | -59.1 | |||
| 2024-10-21T12:28 | 20459 | 52 | 288 | 16 | ||
| 2024-10-21T12:29 | 20760 | 49 | -60.2 | |||
| 2024-10-21T12:29 | 20795 | 49 | 298 | 18 | ||
| 2024-10-21T12:29 | 21054 | 47 | -57.5 | |||
| 2024-10-21T12:30 | 21111 | 47 | 283 | 11 | ||
| 2024-10-21T12:30 | 21262 | 46 | -56.5 | |||
| 2024-10-21T12:30 | 21385 | 45 | 271 | 11 | ||
| 2024-10-21T12:31 | 21707 | 42 | 298 | 13 | ||
| 2024-10-21T12:32 | 21964 | 41 | -59.7 | |||
| 2024-10-21T12:32 | 22103 | 40 | 304 | 13 | ||
| 2024-10-21T12:33 | 22262 | 39 | -60.2 | |||
| 2024-10-21T12:33 | 22344 | 38 | 288 | 14 | ||
| 2024-10-21T12:34 | 22614 | 37 | 308 | 12 | ||
| 2024-10-21T12:34 | 22734 | 36 | -54.8 | |||
| 2024-10-21T12:34 | 22934 | 35 | 294 | 9 | ||
| 2024-10-21T12:35 | 23101 | 34 | 267 | 7 | ||
| 2024-10-21T12:35 | 23122 | 34 | -53.6 | |||
| 2024-10-21T12:35 | 23311 | 33 | 292 | 6 | ||
| 2024-10-21T12:36 | 23611 | 31 | -55.8 | 263 | 6 | |
| 2024-10-21T12:37 | 23878 | 30 | 282 | 11 | ||
| 2024-10-21T12:37 | 24139 | 29 | 303 | 5 | ||
| 2024-10-21T12:38 | 24408 | 28 | -56.9 | 308 | 8 | |
| 2024-10-21T12:39 | 24569 | 27 | 308 | 10 | ||
| 2024-10-21T12:39 | 24782 | 26 | 290 | 7 | ||
| 2024-10-21T12:39 | 24835 | 26 | -54.1 | |||
| 2024-10-21T12:40 | 24987 | 25 | 268 | 6 | ||
| 2024-10-21T12:40 | 25038 | 25 | -52.0 | |||
| 2024-10-21T12:40 | 25140 | 25 | 232 | 5 | ||
| 2024-10-21T12:40 | 25160 | 25 | -53.1 | 232 | 5 | |
| 2024-10-21T23:30 | 18 | 1024 | 14.7 | 12.6 | 150 | 2 |
| 2024-10-21T23:30 | 22 | 1024 | 14.7 | 12.4 | 0 | 0 |
| 2024-10-21T23:30 | 71 | 1018 | 135 | 3 | ||
| 2024-10-21T23:31 | 186 | 1004 | 13.5 | 10.9 | ||
| 2024-10-21T23:31 | 340 | 986 | 13.7 | 7.9 | ||
| 2024-10-21T23:31 | 401 | 979 | 170 | 10 | ||
| 2024-10-21T23:32 | 674 | 948 | 12.0 | 6.7 | ||
| 2024-10-21T23:32 | 696 | 945 | 174 | 9 | ||
| 2024-10-21T23:32 | 818 | 932 | 176 | 6 | ||
| 2024-10-21T23:33 | 1136 | 897 | 215 | 6 | ||
| 2024-10-21T23:33 | 1166 | 893 | 8.3 | 7.1 | ||
| 2024-10-21T23:34 | 1346 | 874 | 223 | 12 | ||
| 2024-10-21T23:34 | 1409 | 867 | 6.9 | 6.2 | ||
| 2024-10-21T23:34 | 1518 | 856 | 6.7 | 5.3 | ||
| 2024-10-21T23:35 | 1690 | 838 | 240 | 14 | ||
| 2024-10-21T23:35 | 1732 | 834 | 5.0 | 4.1 | ||
| 2024-10-21T23:36 | 2068 | 800 | 2.7 | 1.7 | 249 | 15 |
| 2024-10-21T23:36 | 2121 | 795 | 2.8 | -1.7 | ||
| 2024-10-21T23:36 | 2182 | 789 | 5.3 | -2.5 | ||
| 2024-10-21T23:37 | 2271 | 780 | 6.7 | -9.3 | ||
| 2024-10-21T23:37 | 2426 | 766 | 253 | 8 | ||
| 2024-10-21T23:37 | 2471 | 762 | 6.3 | -27.1 | ||
| 2024-10-21T23:37 | 2596 | 750 | 6.0 | -46.6 | ||
| 2024-10-21T23:38 | 2751 | 736 | 237 | 10 | ||
| 2024-10-21T23:39 | 3063 | 708 | 227 | 14 | ||
| 2024-10-21T23:39 | 3115 | 704 | 2.3 | -48.9 | ||
| 2024-10-21T23:40 | 3290 | 689 | 234 | 12 | ||
| 2024-10-21T23:40 | 3444 | 676 | 1.1 | -39.5 | ||
| 2024-10-21T23:40 | 3517 | 669 | 244 | 14 | ||
| 2024-10-21T23:41 | 3679 | 656 | 231 | 15 | ||
| 2024-10-21T23:41 | 3766 | 649 | -1.0 | -41.0 | ||
| 2024-10-21T23:42 | 4007 | 629 | 228 | 18 | ||
| 2024-10-21T23:42 | 4136 | 619 | -4.0 | -36.4 | ||
| 2024-10-21T23:43 | 4326 | 604 | 244 | 18 | ||
| 2024-10-21T23:43 | 4357 | 602 | -5.8 | -37.8 | ||
| 2024-10-21T23:43 | 4519 | 590 | -7.0 | -32.6 | ||
| 2024-10-21T23:44 | 4607 | 583 | -7.9 | -23.7 | ||
| 2024-10-21T23:44 | 4627 | 581 | 239 | 18 | ||
| 2024-10-21T23:44 | 4786 | 570 | -9.6 | -22.2 | ||
| 2024-10-21T23:45 | 4831 | 566 | -10.1 | -20.3 | ||
| 2024-10-21T23:45 | 4897 | 561 | -10.8 | -15.0 | ||
| 2024-10-21T23:45 | 4927 | 559 | 242 | 20 | ||
| 2024-10-21T23:45 | 4969 | 556 | -11.0 | -15.1 | ||
| 2024-10-21T23:45 | 5038 | 551 | -9.6 | -16.7 | ||
| 2024-10-21T23:46 | 5148 | 543 | -10.2 | -18.4 | ||
| 2024-10-21T23:46 | 5258 | 536 | 239 | 16 | ||
| 2024-10-21T23:46 | 5387 | 527 | -10.9 | -36.6 | ||
| 2024-10-21T23:47 | 5565 | 515 | -11.8 | -40.8 | ||
| 2024-10-21T23:47 | 5606 | 512 | 232 | 14 | ||
| 2024-10-21T23:48 | 5951 | 489 | 249 | 10 | ||
| 2024-10-21T23:48 | 5967 | 488 | -14.6 | -44.4 | ||
| 2024-10-21T23:49 | 6307 | 467 | 250 | 13 | ||
| 2024-10-21T23:49 | 6501 | 455 | 254 | 13 | ||
| 2024-10-21T23:50 | 6584 | 450 | -20.1 | -48.6 | ||
| 2024-10-21T23:50 | 6661 | 445 | 255 | 16 | ||
| 2024-10-21T23:50 | 6858 | 433 | -22.2 | -48.8 | ||
| 2024-10-21T23:51 | 7006 | 425 | -23.4 | -42.9 | ||
| 2024-10-21T23:51 | 7018 | 424 | 251 | 12 | ||
| 2024-10-21T23:51 | 7149 | 416 | -24.7 | -39.5 | ||
| 2024-10-21T23:52 | 7372 | 404 | 243 | 12 | ||
| 2024-10-21T23:52 | 7411 | 402 | -26.9 | -37.5 | ||
| 2024-10-21T23:53 | 7704 | 385 | 244 | 14 | ||
| 2024-10-21T23:53 | 7856 | 377 | -30.6 | -37.5 | 256 | 13 |
| 2024-10-21T23:54 | 8181 | 360 | 257 | 16 | ||
| 2024-10-21T23:54 | 8226 | 358 | -33.4 | -36.7 | ||
| 2024-10-21T23:55 | 8390 | 350 | -34.5 | -38.8 | ||
| 2024-10-21T23:55 | 8477 | 346 | 269 | 23 | ||
| 2024-10-21T23:55 | 8482 | 345 | -34.7 | -43.4 | ||
| 2024-10-21T23:55 | 8599 | 340 | -35.7 | -44.7 | ||
| 2024-10-21T23:56 | 8746 | 332 | -36.6 | -47.9 | ||
| 2024-10-21T23:56 | 8792 | 330 | 266 | 23 | ||
| 2024-10-21T23:57 | 9000 | 320 | -38.8 | -50.5 | ||
| 2024-10-21T23:57 | 9095 | 316 | -39.6 | -51.8 | 261 | 24 |
| 2024-10-21T23:57 | 9140 | 314 | -40.0 | -52.5 | ||
| 2024-10-21T23:58 | 9397 | 302 | 257 | 24 | ||
| 2024-10-21T23:59 | 9709 | 289 | 252 | 23 | ||
| 2024-10-22T00:00 | 10020 | 275 | 250 | 23 | ||
| 2024-10-22T00:01 | 10293 | 264 | 250 | 25 | ||
| 2024-10-22T00:02 | 10538 | 254 | -52.2 | |||
| 2024-10-22T00:02 | 10544 | 254 | 264 | 27 | ||
| 2024-10-22T00:02 | 10706 | 248 | 269 | 30 | ||
| 2024-10-22T00:02 | 10733 | 247 | -53.1 | |||
| 2024-10-22T00:03 | 11021 | 236 | 266 | 31 | ||
| 2024-10-22T00:04 | 11321 | 225 | 268 | 32 | ||
| 2024-10-22T00:05 | 11594 | 216 | 273 | 33 | ||
| 2024-10-22T00:06 | 11761 | 210 | -60.2 | |||
| 2024-10-22T00:06 | 11786 | 209 | 279 | 38 | ||
| 2024-10-22T00:06 | 11987 | 202 | -60.9 | |||
| 2024-10-22T00:07 | 12087 | 199 | 274 | 36 | ||
| 2024-10-22T00:07 | 12205 | 195 | -60.8 | |||
| 2024-10-22T00:07 | 12362 | 191 | -60.3 | |||
| 2024-10-22T00:07 | 12375 | 190 | 271 | 40 | ||
| 2024-10-22T00:08 | 12498 | 186 | 271 | 46 | ||
| 2024-10-22T00:08 | 12541 | 185 | -60.5 | |||
| 2024-10-22T00:09 | 12759 | 179 | -59.7 | |||
| 2024-10-22T00:09 | 12829 | 177 | 275 | 47 | ||
| 2024-10-22T00:10 | 13093 | 169 | -59.8 | |||
| 2024-10-22T00:10 | 13145 | 168 | 277 | 52 | ||
| 2024-10-22T00:11 | 13443 | 160 | 278 | 47 | ||
| 2024-10-22T00:11 | 13526 | 158 | -59.8 | |||
| 2024-10-22T00:12 | 13681 | 154 | 278 | 43 | ||
| 2024-10-22T00:12 | 13819 | 151 | 277 | 43 | ||
| 2024-10-22T00:12 | 13901 | 149 | -59.1 | |||
| 2024-10-22T00:12 | 13953 | 148 | 278 | 42 | ||
| 2024-10-22T00:13 | 14228 | 141 | -59.9 | |||
| 2024-10-22T00:13 | 14267 | 140 | 274 | 32 | ||
| 2024-10-22T00:14 | 14519 | 135 | -60.8 | |||
| 2024-10-22T00:14 | 14584 | 133 | 266 | 33 | ||
| 2024-10-22T00:15 | 14696 | 131 | -60.2 | |||
| 2024-10-22T00:15 | 14903 | 127 | 266 | 34 | ||
| 2024-10-22T00:16 | 15013 | 125 | -60.2 | |||
| 2024-10-22T00:16 | 15097 | 123 | 265 | 34 | ||
| 2024-10-22T00:17 | 15403 | 117 | -60.4 | |||
| 2024-10-22T00:17 | 15408 | 117 | 256 | 41 | ||
| 2024-10-22T00:18 | 15738 | 111 | 266 | 43 | ||
| 2024-10-22T00:19 | 16067 | 105 | 276 | 33 | ||
| 2024-10-22T00:19 | 16179 | 103 | -61.3 | |||
| 2024-10-22T00:20 | 16417 | 99 | 283 | 27 | ||
| 2024-10-22T00:20 | 16457 | 99 | -62.2 | |||
| 2024-10-22T00:20 | 16586 | 97 | -61.9 | |||
| 2024-10-22T00:21 | 16745 | 94 | 281 | 25 | ||
| 2024-10-22T00:21 | 16865 | 92 | 280 | 22 | ||
| 2024-10-22T00:21 | 16912 | 92 | -60.5 | |||
| 2024-10-22T00:22 | 17219 | 87 | 257 | 27 | ||
| 2024-10-22T00:23 | 17401 | 85 | -60.4 | |||
| 2024-10-22T00:23 | 17585 | 82 | 260 | 31 | ||
| 2024-10-22T00:24 | 17728 | 80 | -60.6 | |||
| 2024-10-22T00:24 | 17840 | 79 | -58.7 | |||
| 2024-10-22T00:24 | 17941 | 78 | 274 | 25 | ||
| 2024-10-22T00:25 | 18138 | 75 | -59.1 | |||
| 2024-10-22T00:25 | 18198 | 75 | 282 | 19 | ||
| 2024-10-22T00:26 | 18500 | 71 | -59.1 | 261 | 18 | |
| 2024-10-22T00:27 | 18880 | 67 | 265 | 21 | ||
| 2024-10-22T00:27 | 19096 | 65 | -61.4 | 276 | 20 | |
| 2024-10-22T00:28 | 19313 | 62 | -60.6 | |||
| 2024-10-22T00:28 | 19323 | 62 | 265 | 11 | ||
| 2024-10-22T00:29 | 19609 | 60 | 238 | 13 | ||
| 2024-10-22T00:29 | 19618 | 59 | -62.1 | |||
| 2024-10-22T00:29 | 19866 | 57 | -60.3 | |||
| 2024-10-22T00:30 | 19972 | 56 | 238 | 18 | ||
| 2024-10-22T00:30 | 20019 | 56 | -60.0 | |||
| 2024-10-22T00:30 | 20178 | 54 | 249 | 14 | ||
| 2024-10-22T00:30 | 20284 | 53 | -58.7 | |||
| 2024-10-22T00:31 | 20524 | 51 | 237 | 18 | ||
| 2024-10-22T00:32 | 20737 | 50 | 249 | 19 | ||
| 2024-10-22T00:32 | 20749 | 50 | -57.8 | |||
| 2024-10-22T00:32 | 20994 | 48 | 264 | 22 | ||
| 2024-10-22T00:33 | 21180 | 46 | 279 | 15 | ||
| 2024-10-22T00:33 | 21306 | 45 | -55.7 | |||
| 2024-10-22T00:34 | 21493 | 44 | 298 | 8 | ||
| 2024-10-22T00:34 | 21710 | 43 | 334 | 7 | ||
| 2024-10-22T00:35 | 21967 | 41 | 293 | 7 | ||
| 2024-10-22T00:35 | 22172 | 40 | -58.4 | |||
| 2024-10-22T00:35 | 22219 | 39 | 289 | 10 | ||
| 2024-10-22T00:36 | 22450 | 38 | 303 | 11 | ||
| 2024-10-22T00:37 | 22790 | 36 | 333 | 14 | ||
| 2024-10-22T00:37 | 22949 | 35 | -57.8 | |||
| 2024-10-22T00:38 | 23060 | 34 | 346 | 9 | ||
| 2024-10-22T00:38 | 23284 | 33 | 336 | 12 | ||
| 2024-10-22T00:38 | 23320 | 33 | -57.9 | |||
| 2024-10-22T00:39 | 23593 | 32 | 298 | 7 | ||
| 2024-10-22T00:39 | 23816 | 31 | 302 | 6 | ||
| 2024-10-22T00:40 | 23986 | 30 | 319 | 8 | ||
| 2024-10-22T00:40 | 24164 | 29 | 340 | 8 | ||
| 2024-10-22T00:40 | 24203 | 29 | -54.3 | |||
| 2024-10-22T00:41 | 24528 | 27 | 89 | 5 | ||
| 2024-10-22T00:42 | 24886 | 26 | 50 | 1 | ||
| 2024-10-22T00:42 | 25036 | 25 | -57.0 | |||
| 2024-10-22T00:42 | 25060 | 25 | 7 | 1 | ||
| 2024-10-22T00:43 | 25264 | 24 | 360 | 5 | ||
| 2024-10-22T00:43 | 25449 | 24 | -55.2 | |||
| 2024-10-22T00:43 | 25533 | 23 | 2 | 8 | ||
| 2024-10-22T00:44 | 25726 | 23 | -53.8 | |||
| 2024-10-22T00:44 | 25755 | 23 | 47 | 3 | ||
| 2024-10-22T00:45 | 25958 | 22 | 30 | 2 | ||
| 2024-10-22T00:45 | 26018 | 22 | -54.8 | |||
| 2024-10-22T00:45 | 26047 | 22 | 53 | 6 | ||
| 2024-10-22T00:45 | 26167 | 21 | 46 | 10 | ||
| 2024-10-22T00:46 | 26414 | 20 | 87 | 5 | ||
| 2024-10-22T00:46 | 26607 | 20 | 94 | 4 | ||
| 2024-10-22T00:46 | 26650 | 20 | -54.6 | 104 | 3 | |
| 2024-10-22T11:30 | 18 | 1020 | 17.0 | 12.7 | 130 | 5 |
| 2024-10-22T11:30 | 22 | 1020 | 16.9 | 12.2 | 64 | 1 |
| 2024-10-22T11:30 | 58 | 1015 | 131 | 4 | ||
| 2024-10-22T11:31 | 319 | 985 | 160 | 11 | ||
| 2024-10-22T11:32 | 476 | 967 | 13.7 | 8.7 | ||
| 2024-10-22T11:32 | 609 | 952 | 165 | 13 | ||
| 2024-10-22T11:32 | 704 | 941 | 12.1 | 8.6 | ||
| 2024-10-22T11:33 | 882 | 921 | 167 | 11 | ||
| 2024-10-22T11:33 | 897 | 919 | 12.1 | 4.3 | ||
| 2024-10-22T11:33 | 986 | 910 | 12.2 | 2.4 | ||
| 2024-10-22T11:34 | 1042 | 904 | 12.3 | 4.5 | ||
| 2024-10-22T11:34 | 1122 | 895 | 172 | 11 | ||
| 2024-10-22T11:34 | 1165 | 890 | 11.6 | 7.5 | ||
| 2024-10-22T11:35 | 1371 | 869 | 184 | 7 | ||
| 2024-10-22T11:35 | 1443 | 861 | 9.6 | 6.7 | ||
| 2024-10-22T11:36 | 1709 | 834 | 188 | 6 | ||
| 2024-10-22T11:36 | 1763 | 828 | 7.3 | 5.4 | ||
| 2024-10-22T11:36 | 1988 | 806 | 190 | 4 | ||
| 2024-10-22T11:37 | 2153 | 790 | 197 | 2 | ||
| 2024-10-22T11:37 | 2364 | 770 | 3.4 | 2.4 | ||
| 2024-10-22T11:38 | 2466 | 760 | 233 | 5 | ||
| 2024-10-22T11:38 | 2587 | 749 | 232 | 7 | ||
| 2024-10-22T11:38 | 2592 | 748 | 2.2 | 0.9 | ||
| 2024-10-22T11:38 | 2627 | 745 | 2.3 | -2.0 | ||
| 2024-10-22T11:38 | 2652 | 743 | 3.2 | -5.5 | ||
| 2024-10-22T11:39 | 2691 | 739 | 4.5 | -23.5 | ||
| 2024-10-22T11:39 | 2721 | 737 | 5.3 | -31.4 | ||
| 2024-10-22T11:39 | 2760 | 733 | 175 | 8 | ||
| 2024-10-22T11:39 | 2842 | 726 | 4.7 | -18.3 | ||
| 2024-10-22T11:39 | 2978 | 714 | 3.7 | -8.7 | ||
| 2024-10-22T11:40 | 3062 | 706 | 192 | 7 | ||
| 2024-10-22T11:40 | 3149 | 699 | 2.2 | -5.9 | ||
| 2024-10-22T11:40 | 3253 | 690 | 1.5 | -8.1 | ||
| 2024-10-22T11:41 | 3393 | 678 | 1.0 | -20.7 | 191 | 7 |
| 2024-10-22T11:41 | 3512 | 668 | 0.2 | -19.0 | ||
| 2024-10-22T11:41 | 3568 | 663 | -0.1 | -14.5 | ||
| 2024-10-22T11:41 | 3580 | 662 | 213 | 7 | ||
| 2024-10-22T11:41 | 3615 | 660 | -0.4 | -13.0 | ||
| 2024-10-22T11:42 | 3672 | 655 | -0.8 | -6.2 | ||
| 2024-10-22T11:42 | 3909 | 636 | 222 | 9 | ||
| 2024-10-22T11:43 | 4154 | 617 | -3.8 | -6.7 | ||
| 2024-10-22T11:43 | 4251 | 609 | 230 | 8 | ||
| 2024-10-22T11:44 | 4395 | 598 | -5.1 | -6.6 | ||
| 2024-10-22T11:44 | 4556 | 586 | 212 | 11 | ||
| 2024-10-22T11:44 | 4650 | 579 | 223 | 12 | ||
| 2024-10-22T11:45 | 4773 | 570 | -7.2 | -8.7 | ||
| 2024-10-22T11:45 | 4919 | 559 | 228 | 14 | ||
| 2024-10-22T11:46 | 5248 | 536 | 226 | 15 | ||
| 2024-10-22T11:47 | 5560 | 514 | 221 | 16 | ||
| 2024-10-22T11:47 | 5603 | 512 | -12.3 | -13.9 | ||
| 2024-10-22T11:48 | 5827 | 497 | -14.2 | -16.2 | ||
| 2024-10-22T11:48 | 5865 | 494 | -14.6 | -18.5 | ||
| 2024-10-22T11:48 | 5903 | 492 | 221 | 18 | ||
| 2024-10-22T11:48 | 5919 | 491 | -15.0 | -18.4 | ||
| 2024-10-22T11:48 | 5981 | 487 | -15.6 | -21.8 | ||
| 2024-10-22T11:49 | 6138 | 477 | -16.5 | -22.8 | ||
| 2024-10-22T11:49 | 6231 | 471 | 223 | 21 | ||
| 2024-10-22T11:50 | 6536 | 452 | -18.7 | -23.8 | ||
| 2024-10-22T11:50 | 6612 | 447 | 215 | 21 | ||
| 2024-10-22T11:51 | 6977 | 426 | 217 | 19 | ||
| 2024-10-22T11:52 | 7292 | 408 | -24.6 | -27.6 | ||
| 2024-10-22T11:52 | 7348 | 405 | 213 | 20 | ||
| 2024-10-22T11:52 | 7465 | 398 | -24.6 | -27.9 | ||
| 2024-10-22T11:53 | 7583 | 392 | 236 | 20 | ||
| 2024-10-22T11:53 | 7633 | 389 | -24.5 | -27.8 | ||
| 2024-10-22T11:54 | 7961 | 372 | 257 | 25 | ||
| 2024-10-22T11:55 | 8268 | 356 | -28.8 | -32.1 | ||
| 2024-10-22T11:55 | 8343 | 353 | 243 | 28 | ||
| 2024-10-22T11:56 | 8731 | 334 | 239 | 34 | ||
| 2024-10-22T11:56 | 8945 | 324 | -34.2 | -38.3 | ||
| 2024-10-22T11:57 | 9107 | 316 | 249 | 30 | ||
| 2024-10-22T11:57 | 9251 | 310 | -36.8 | -40.1 | ||
| 2024-10-22T11:57 | 9395 | 303 | 257 | 28 | ||
| 2024-10-22T11:58 | 9567 | 296 | -40.0 | -42.4 | ||
| 2024-10-22T11:58 | 9840 | 284 | 255 | 31 | ||
| 2024-10-22T11:59 | 9997 | 278 | 257 | 35 | ||
| 2024-10-22T11:59 | 10248 | 267 | 261 | 37 | ||
| 2024-10-22T12:00 | 10459 | 259 | 260 | 43 | ||
| 2024-10-22T12:01 | 10708 | 249 | 263 | 45 | ||
| 2024-10-22T12:01 | 10763 | 247 | -49.7 | |||
| 2024-10-22T12:01 | 10868 | 243 | 263 | 52 | ||
| 2024-10-22T12:01 | 11119 | 234 | 265 | 56 | ||
| 2024-10-22T12:02 | 11515 | 220 | 264 | 58 | ||
| 2024-10-22T12:03 | 11598 | 217 | -56.9 | |||
| 2024-10-22T12:03 | 11786 | 211 | 264 | 60 | ||
| 2024-10-22T12:04 | 12157 | 199 | 268 | 62 | ||
| 2024-10-22T12:05 | 12305 | 194 | -62.9 | |||
| 2024-10-22T12:05 | 12398 | 191 | 270 | 68 | ||
| 2024-10-22T12:05 | 12504 | 188 | -61.7 | |||
| 2024-10-22T12:05 | 12551 | 186 | 272 | 60 | ||
| 2024-10-22T12:06 | 12613 | 185 | -60.0 | |||
| 2024-10-22T12:06 | 12845 | 178 | 275 | 59 | ||
| 2024-10-22T12:06 | 12865 | 177 | -60.2 | |||
| 2024-10-22T12:07 | 13161 | 169 | 277 | 57 | ||
| 2024-10-22T12:08 | 13475 | 161 | 278 | 56 | ||
| 2024-10-22T12:09 | 13778 | 153 | -62.0 | |||
| 2024-10-22T12:09 | 13801 | 152 | 278 | 54 | ||
| 2024-10-22T12:10 | 14108 | 145 | -61.9 | |||
| 2024-10-22T12:10 | 14119 | 145 | 283 | 51 | ||
| 2024-10-22T12:11 | 14427 | 138 | -63.4 | |||
| 2024-10-22T12:11 | 14443 | 137 | 278 | 44 | ||
| 2024-10-22T12:12 | 14678 | 132 | -63.4 | |||
| 2024-10-22T12:12 | 14704 | 132 | 271 | 43 | ||
| 2024-10-22T12:13 | 14833 | 129 | 270 | 40 | ||
| 2024-10-22T12:13 | 14907 | 127 | -63.4 | |||
| 2024-10-22T12:13 | 14986 | 126 | 270 | 38 | ||
| 2024-10-22T12:13 | 15012 | 125 | -63.0 | |||
| 2024-10-22T12:14 | 15155 | 122 | 267 | 36 | ||
| 2024-10-22T12:14 | 15325 | 119 | -63.6 | |||
| 2024-10-22T12:15 | 15465 | 116 | 273 | 35 | ||
| 2024-10-22T12:15 | 15737 | 111 | 274 | 35 | ||
| 2024-10-22T12:16 | 15818 | 110 | -63.8 | |||
| 2024-10-22T12:16 | 16062 | 105 | 275 | 35 | ||
| 2024-10-22T12:17 | 16144 | 104 | -62.6 | |||
| 2024-10-22T12:17 | 16347 | 101 | 275 | 28 | ||
| 2024-10-22T12:17 | 16379 | 100 | -62.1 | |||
| 2024-10-22T12:18 | 16521 | 98 | 264 | 23 | ||
| 2024-10-22T12:18 | 16565 | 97 | -60.8 | |||
| 2024-10-22T12:18 | 16692 | 95 | 242 | 21 | ||
| 2024-10-22T12:19 | 16926 | 92 | 243 | 30 | ||
| 2024-10-22T12:19 | 17116 | 89 | -61.7 | |||
| 2024-10-22T12:20 | 17230 | 87 | 255 | 28 | ||
| 2024-10-22T12:20 | 17416 | 85 | -60.4 | |||
| 2024-10-22T12:21 | 17544 | 83 | 260 | 26 | ||
| 2024-10-22T12:21 | 17648 | 82 | -61.3 | |||
| 2024-10-22T12:22 | 17832 | 79 | 266 | 26 | ||
| 2024-10-22T12:22 | 17849 | 79 | -59.7 | |||
| 2024-10-22T12:23 | 18183 | 75 | 263 | 19 | ||
| 2024-10-22T12:23 | 18488 | 71 | -61.8 | |||
| 2024-10-22T12:24 | 18531 | 71 | 269 | 20 | ||
| 2024-10-22T12:24 | 18772 | 68 | 276 | 19 | ||
| 2024-10-22T12:24 | 18792 | 68 | -60.0 | |||
| 2024-10-22T12:25 | 18886 | 67 | -58.2 | |||
| 2024-10-22T12:25 | 18941 | 66 | 264 | 15 | ||
| 2024-10-22T12:26 | 19270 | 63 | 258 | 21 | ||
| 2024-10-22T12:26 | 19470 | 61 | -61.0 | |||
| 2024-10-22T12:27 | 19583 | 60 | 275 | 21 | ||
| 2024-10-22T12:28 | 19901 | 57 | 294 | 15 | ||
| 2024-10-22T12:28 | 20083 | 55 | -59.3 | |||
| 2024-10-22T12:28 | 20139 | 55 | 294 | 15 | ||
| 2024-10-22T12:29 | 20385 | 53 | -57.2 | |||
| 2024-10-22T12:29 | 20410 | 52 | 315 | 7 | ||
| 2024-10-22T12:30 | 20595 | 51 | 268 | 4 | ||
| 2024-10-22T12:30 | 20644 | 51 | -57.8 | |||
| 2024-10-22T12:30 | 20780 | 49 | 290 | 5 | ||
| 2024-10-22T12:30 | 20860 | 49 | 247 | 3 | ||
| 2024-10-22T12:31 | 20948 | 48 | 197 | 4 | ||
| 2024-10-22T12:31 | 20993 | 48 | -56.7 | |||
| 2024-10-22T12:31 | 21261 | 46 | 178 | 11 | ||
| 2024-10-22T12:32 | 21510 | 44 | -59.7 | |||
| 2024-10-22T12:32 | 21611 | 43 | 214 | 13 | ||
| 2024-10-22T12:33 | 21969 | 41 | 267 | 13 | ||
| 2024-10-22T12:34 | 22076 | 40 | -59.8 | |||
| 2024-10-22T12:34 | 22203 | 39 | 279 | 14 | ||
| 2024-10-22T12:35 | 22514 | 38 | 299 | 11 | ||
| 2024-10-22T12:35 | 22634 | 37 | -56.1 | |||
| 2024-10-22T12:36 | 22773 | 36 | 302 | 11 | ||
| 2024-10-22T12:36 | 23009 | 35 | 318 | 8 | ||
| 2024-10-22T12:37 | 23065 | 34 | -55.7 | |||
| 2024-10-22T12:37 | 23210 | 34 | 305 | 5 | ||
| 2024-10-22T12:37 | 23326 | 33 | 301 | 2 | ||
| 2024-10-22T12:38 | 23424 | 33 | 305 | 4 | ||
| 2024-10-22T12:38 | 23520 | 32 | -56.4 | |||
| 2024-10-22T12:38 | 23564 | 32 | 301 | 4 | ||
| 2024-10-22T12:38 | 23683 | 31 | 339 | 3 | ||
| 2024-10-22T12:39 | 23806 | 31 | -55.0 | 327 | 1 | |
| 2024-10-22T12:39 | 23912 | 30 | 128 | 3 | ||
| 2024-10-22T12:39 | 24046 | 30 | -55.8 | 151 | 4 | |
| 2024-10-22T23:30 | 18 | 1010 | 17.8 | 16.5 | 160 | 9 |
| 2024-10-22T23:30 | 23 | 1009 | 17.8 | 16.1 | 155 | 1 |
| 2024-10-22T23:30 | 51 | 1006 | 129 | 4 | ||
| 2024-10-22T23:30 | 126 | 997 | 157 | 11 | ||
| 2024-10-22T23:31 | 234 | 985 | 16.2 | 14.7 | ||
| 2024-10-22T23:31 | 240 | 984 | 146 | 16 | ||
| 2024-10-22T23:31 | 549 | 949 | 158 | 19 | ||
| 2024-10-22T23:32 | 597 | 943 | 13.7 | 13.2 | ||
| 2024-10-22T23:32 | 731 | 929 | 161 | 27 | ||
| 2024-10-22T23:33 | 1096 | 889 | 172 | 27 | ||
| 2024-10-22T23:33 | 1195 | 879 | 10.8 | 10.0 | ||
| 2024-10-22T23:34 | 1471 | 850 | 176 | 24 | ||
| 2024-10-22T23:35 | 1849 | 812 | 180 | 23 | ||
| 2024-10-22T23:35 | 1861 | 811 | 6.9 | 6.0 | ||
| 2024-10-22T23:36 | 2105 | 787 | 5.8 | 4.8 | ||
| 2024-10-22T23:36 | 2209 | 777 | 190 | 23 | ||
| 2024-10-22T23:37 | 2539 | 747 | 4.2 | 3.0 | ||
| 2024-10-22T23:37 | 2568 | 744 | 199 | 22 | ||
| 2024-10-22T23:37 | 2614 | 740 | 4.5 | 3.3 | ||
| 2024-10-22T23:37 | 2689 | 733 | 5.2 | 3.5 | ||
| 2024-10-22T23:38 | 2802 | 723 | 6.0 | 2.6 | ||
| 2024-10-22T23:38 | 2911 | 713 | 198 | 17 | ||
| 2024-10-22T23:38 | 3027 | 703 | 5.9 | 1.6 | ||
| 2024-10-22T23:39 | 3274 | 683 | 204 | 14 | ||
| 2024-10-22T23:39 | 3319 | 679 | 4.2 | 0.3 | ||
| 2024-10-22T23:40 | 3670 | 650 | 207 | 14 | ||
| 2024-10-22T23:41 | 3957 | 627 | -1.5 | -2.1 | ||
| 2024-10-22T23:41 | 4050 | 620 | 220 | 13 | ||
| 2024-10-22T23:42 | 4403 | 593 | 216 | 14 | ||
| 2024-10-22T23:43 | 4725 | 569 | 214 | 17 | ||
| 2024-10-22T23:43 | 4872 | 558 | -6.3 | -7.1 | ||
| 2024-10-22T23:44 | 5071 | 544 | 211 | 20 | ||
| 2024-10-22T23:45 | 5397 | 522 | 214 | 23 | ||
| 2024-10-22T23:45 | 5599 | 509 | 221 | 24 | ||
| 2024-10-22T23:46 | 5940 | 487 | 227 | 28 | ||
| 2024-10-22T23:47 | 5986 | 484 | -11.2 | -12.9 | ||
| 2024-10-22T23:47 | 6293 | 465 | 236 | 27 | ||
| 2024-10-22T23:48 | 6651 | 443 | 239 | 27 | ||
| 2024-10-22T23:49 | 6975 | 425 | -17.7 | -19.5 | ||
| 2024-10-22T23:49 | 6998 | 423 | 238 | 27 | ||
| 2024-10-22T23:50 | 7343 | 404 | 240 | 28 | ||
| 2024-10-22T23:51 | 7677 | 386 | 238 | 30 | ||
| 2024-10-22T23:52 | 7761 | 382 | -23.1 | -25.3 | ||
| 2024-10-22T23:52 | 8014 | 369 | 236 | 31 | ||
| 2024-10-22T23:53 | 8360 | 352 | 242 | 34 | ||
| 2024-10-22T23:53 | 8383 | 351 | -27.3 | -30.7 | ||
| 2024-10-22T23:54 | 8544 | 343 | 246 | 40 | ||
| 2024-10-22T23:55 | 8924 | 325 | 247 | 40 | ||
| 2024-10-22T23:56 | 9298 | 308 | 245 | 40 | ||
| 2024-10-22T23:57 | 9662 | 292 | 238 | 42 | ||
| 2024-10-22T23:58 | 9970 | 279 | -40.0 | -43.1 | ||
| 2024-10-22T23:58 | 10038 | 277 | 240 | 42 | ||
| 2024-10-22T23:59 | 10427 | 261 | 236 | 43 | ||
| 2024-10-23T00:00 | 10787 | 247 | 234 | 43 | ||
| 2024-10-23T00:01 | 11172 | 233 | 236 | 44 | ||
| 2024-10-23T00:01 | 11288 | 229 | 239 | 44 | ||
| 2024-10-23T00:01 | 11399 | 225 | 240 | 41 | ||
| 2024-10-23T00:02 | 11571 | 219 | -54.5 | |||
| 2024-10-23T00:02 | 11707 | 215 | 242 | 48 | ||
| 2024-10-23T00:03 | 11910 | 208 | -56.4 | |||
| 2024-10-23T00:03 | 11987 | 205 | 247 | 53 | ||
| 2024-10-23T00:03 | 12090 | 202 | 246 | 49 | ||
| 2024-10-23T00:03 | 12129 | 201 | -56.6 | |||
| 2024-10-23T00:04 | 12192 | 199 | 248 | 54 | ||
| 2024-10-23T00:04 | 12462 | 191 | -58.4 | |||
| 2024-10-23T00:05 | 12544 | 188 | 250 | 54 | ||
| 2024-10-23T00:06 | 12852 | 179 | 252 | 56 | ||
| 2024-10-23T00:06 | 13151 | 171 | -61.6 | |||
| 2024-10-23T00:07 | 13167 | 170 | 253 | 55 | ||
| 2024-10-23T00:08 | 13457 | 163 | 259 | 61 | ||
| 2024-10-23T00:08 | 13527 | 161 | -62.2 | |||
| 2024-10-23T00:09 | 13746 | 155 | 261 | 54 | ||
| 2024-10-23T00:09 | 13770 | 154 | -61.9 | |||
| 2024-10-23T00:10 | 14044 | 148 | 264 | 50 | ||
| 2024-10-23T00:10 | 14112 | 146 | -62.1 | |||
| 2024-10-23T00:10 | 14315 | 141 | -59.6 | |||
| 2024-10-23T00:10 | 14329 | 141 | 263 | 40 | ||
| 2024-10-23T00:11 | 14616 | 135 | 259 | 38 | ||
| 2024-10-23T00:12 | 14718 | 133 | -60.5 | |||
| 2024-10-23T00:12 | 14932 | 128 | 255 | 39 | ||
| 2024-10-23T00:13 | 15129 | 124 | -62.0 | |||
| 2024-10-23T00:13 | 15285 | 121 | 256 | 33 | ||
| 2024-10-23T00:14 | 15499 | 117 | -63.6 | |||
| 2024-10-23T00:15 | 15651 | 114 | 252 | 30 | ||
| 2024-10-23T00:16 | 15996 | 108 | 252 | 30 | ||
| 2024-10-23T00:16 | 16058 | 107 | -66.7 | |||
| 2024-10-23T00:16 | 16212 | 104 | -66.9 | |||
| 2024-10-23T00:16 | 16327 | 102 | 263 | 31 | ||
| 2024-10-23T00:17 | 16569 | 98 | 269 | 30 | ||
| 2024-10-23T00:17 | 16620 | 97 | -68.7 | |||
| 2024-10-23T00:18 | 16890 | 93 | 269 | 22 | ||
| 2024-10-23T00:18 | 16919 | 92 | -65.2 | |||
| 2024-10-23T00:18 | 17105 | 90 | -65.8 | |||
| 2024-10-23T00:18 | 17120 | 89 | 263 | 28 | ||
| 2024-10-23T00:19 | 17258 | 87 | -65.3 | |||
| 2024-10-23T00:19 | 17422 | 85 | 260 | 20 | ||
| 2024-10-23T00:19 | 17499 | 84 | -65.0 | |||
| 2024-10-23T00:20 | 17648 | 82 | -64.4 | |||
| 2024-10-23T00:20 | 17706 | 81 | 237 | 23 | ||
| 2024-10-23T00:20 | 17885 | 79 | 243 | 26 | ||
| 2024-10-23T00:20 | 17939 | 78 | -64.1 | |||
| 2024-10-23T00:21 | 18179 | 75 | 271 | 20 | ||
| 2024-10-23T00:21 | 18207 | 75 | -61.9 | |||
| 2024-10-23T00:21 | 18328 | 73 | 266 | 16 | ||
| 2024-10-23T00:22 | 18519 | 71 | 267 | 15 | ||
| 2024-10-23T00:22 | 18703 | 69 | -61.8 | |||
| 2024-10-23T00:23 | 18913 | 67 | 234 | 16 | ||
| 2024-10-23T00:23 | 19008 | 66 | -58.4 | |||
| 2024-10-23T00:24 | 19314 | 63 | 242 | 18 | ||
| 2024-10-23T00:25 | 19601 | 60 | 238 | 16 | ||
| 2024-10-23T00:25 | 19611 | 60 | -58.3 | |||
| 2024-10-23T00:25 | 19858 | 58 | -58.7 | |||
| 2024-10-23T00:25 | 19912 | 57 | 266 | 19 | ||
| 2024-10-23T00:26 | 20102 | 55 | -58.0 | |||
| 2024-10-23T00:26 | 20288 | 54 | 264 | 8 | ||
| 2024-10-23T00:27 | 20646 | 51 | 255 | 13 | ||
| 2024-10-23T00:27 | 20733 | 50 | -58.9 | |||
| 2024-10-23T00:28 | 21018 | 48 | 268 | 9 | ||
| 2024-10-23T00:29 | 21271 | 46 | 294 | 9 | ||
| 2024-10-23T00:29 | 21425 | 45 | -59.7 | |||
| 2024-10-23T00:29 | 21450 | 45 | 250 | 10 | ||
| 2024-10-23T00:30 | 21652 | 43 | 248 | 8 | ||
| 2024-10-23T00:30 | 21700 | 43 | -56.3 | |||
| 2024-10-23T00:31 | 21985 | 41 | 207 | 7 | ||
| 2024-10-23T00:31 | 22223 | 40 | -57.0 | |||
| 2024-10-23T00:32 | 22349 | 39 | 263 | 7 | ||
| 2024-10-23T00:32 | 22449 | 38 | 258 | 2 | ||
| 2024-10-23T00:32 | 22702 | 37 | 141 | 3 | ||
| 2024-10-23T00:33 | 22857 | 36 | 161 | 5 | ||
| 2024-10-23T00:33 | 22894 | 36 | -57.6 | |||
| 2024-10-23T00:33 | 22969 | 35 | 180 | 1 | ||
| 2024-10-23T00:33 | 23050 | 35 | -57.3 | 219 | 1 | |
| 2024-10-23T11:30 | 18 | 1000 | 19.3 | 18.0 | 170 | 5 |
| 2024-10-23T11:30 | 22 | 999 | 19.3 | 17.8 | 205 | 2 |
| 2024-10-23T11:30 | 90 | 991 | 253 | 3 | ||
| 2024-10-23T11:30 | 120 | 988 | 19.3 | 16.7 | ||
| 2024-10-23T11:30 | 144 | 985 | 19.9 | 16.9 | ||
| 2024-10-23T11:31 | 186 | 981 | 171 | 5 | ||
| 2024-10-23T11:31 | 234 | 975 | 19.5 | 16.3 | ||
| 2024-10-23T11:31 | 294 | 968 | 19.5 | 16.0 | ||
| 2024-10-23T11:31 | 336 | 964 | 219 | 8 | ||
| 2024-10-23T11:31 | 367 | 960 | 19.5 | 15.4 | ||
| 2024-10-23T11:31 | 475 | 948 | 18.6 | 15.1 | ||
| 2024-10-23T11:31 | 481 | 948 | 212 | 12 | ||
| 2024-10-23T11:31 | 513 | 944 | 18.8 | 14.7 | ||
| 2024-10-23T11:32 | 615 | 933 | 218 | 16 | ||
| 2024-10-23T11:32 | 639 | 930 | 17.8 | 14.1 | ||
| 2024-10-23T11:32 | 780 | 915 | 226 | 17 | ||
| 2024-10-23T11:32 | 802 | 913 | 16.3 | 13.6 | ||
| 2024-10-23T11:33 | 1009 | 891 | 15.3 | 12.4 | ||
| 2024-10-23T11:33 | 1045 | 887 | 15.2 | 12.3 | ||
| 2024-10-23T11:33 | 1091 | 882 | 221 | 19 | ||
| 2024-10-23T11:34 | 1406 | 850 | 12.1 | 11.6 | ||
| 2024-10-23T11:34 | 1445 | 846 | 213 | 17 | ||
| 2024-10-23T11:35 | 1780 | 813 | 218 | 19 | ||
| 2024-10-23T11:36 | 1926 | 799 | 9.2 | 8.6 | ||
| 2024-10-23T11:36 | 2014 | 790 | 8.5 | 7.9 | ||
| 2024-10-23T11:36 | 2113 | 781 | 218 | 23 | ||
| 2024-10-23T11:37 | 2373 | 756 | 5.2 | 2.9 | ||
| 2024-10-23T11:37 | 2390 | 755 | 214 | 27 | ||
| 2024-10-23T11:38 | 2608 | 735 | 4.7 | 1.0 | ||
| 2024-10-23T11:38 | 2680 | 729 | 210 | 27 | ||
| 2024-10-23T11:38 | 2732 | 724 | 4.2 | -2.0 | ||
| 2024-10-23T11:39 | 2822 | 716 | 4.1 | -3.2 | ||
| 2024-10-23T11:39 | 2894 | 710 | 5.0 | -8.1 | ||
| 2024-10-23T11:39 | 2917 | 708 | 213 | 29 | ||
| 2024-10-23T11:40 | 3096 | 692 | 3.7 | -12.7 | ||
| 2024-10-23T11:40 | 3119 | 690 | 215 | 33 | ||
| 2024-10-23T11:40 | 3142 | 688 | 3.4 | -13.9 | ||
| 2024-10-23T11:40 | 3200 | 683 | 215 | 36 | ||
| 2024-10-23T11:40 | 3206 | 683 | 3.2 | -18.9 | ||
| 2024-10-23T11:40 | 3259 | 678 | 3.0 | -12.1 | ||
| 2024-10-23T11:40 | 3309 | 674 | 3.0 | -12.5 | ||
| 2024-10-23T11:40 | 3327 | 673 | 216 | 37 | ||
| 2024-10-23T11:41 | 3469 | 661 | 219 | 41 | ||
| 2024-10-23T11:41 | 3552 | 654 | 0.6 | -15.4 | ||
| 2024-10-23T11:42 | 3930 | 624 | 221 | 42 | ||
| 2024-10-23T11:42 | 4134 | 608 | -4.6 | -13.7 | ||
| 2024-10-23T11:42 | 4202 | 603 | -5.2 | -11.5 | ||
| 2024-10-23T11:42 | 4270 | 598 | -5.3 | -8.2 | ||
| 2024-10-23T11:43 | 4306 | 595 | -5.1 | -6.8 | ||
| 2024-10-23T11:43 | 4312 | 594 | 219 | 45 | ||
| 2024-10-23T11:43 | 4330 | 593 | -4.5 | -5.5 | ||
| 2024-10-23T11:43 | 4456 | 584 | 219 | 46 | ||
| 2024-10-23T11:43 | 4474 | 582 | -4.4 | -5.1 | ||
| 2024-10-23T11:44 | 4704 | 566 | -5.2 | -6.3 | ||
| 2024-10-23T11:44 | 4732 | 564 | 214 | 46 | ||
| 2024-10-23T11:44 | 4911 | 551 | -5.6 | -6.7 | ||
| 2024-10-23T11:45 | 4975 | 546 | 207 | 44 | ||
| 2024-10-23T11:45 | 5150 | 534 | -6.5 | -7.9 | ||
| 2024-10-23T11:45 | 5285 | 525 | 201 | 44 | ||
| 2024-10-23T11:46 | 5594 | 505 | 201 | 43 | ||
| 2024-10-23T11:47 | 5953 | 482 | 196 | 41 | ||
| 2024-10-23T11:48 | 6013 | 478 | -11.5 | -13.1 | ||
| 2024-10-23T11:48 | 6315 | 460 | -13.0 | -14.6 | ||
| 2024-10-23T11:48 | 6322 | 459 | 197 | 44 | ||
| 2024-10-23T11:49 | 6497 | 449 | -14.1 | -15.7 | ||
| 2024-10-23T11:49 | 6727 | 435 | 197 | 49 | ||
| 2024-10-23T11:49 | 6815 | 430 | -16.9 | -19.0 | ||
| 2024-10-23T11:50 | 6947 | 423 | -17.9 | -20.5 | ||
| 2024-10-23T11:50 | 7054 | 417 | 203 | 48 | ||
| 2024-10-23T11:51 | 7157 | 411 | -19.5 | -22.1 | ||
| 2024-10-23T11:51 | 7224 | 407 | 200 | 49 | ||
| 2024-10-23T11:51 | 7270 | 405 | -20.3 | -22.9 | ||
| 2024-10-23T11:52 | 7651 | 384 | 197 | 53 | ||
| 2024-10-23T11:53 | 8062 | 363 | 200 | 55 | ||
| 2024-10-23T11:53 | 8152 | 359 | -26.9 | -28.8 | ||
| 2024-10-23T11:54 | 8452 | 344 | -29.5 | -31.1 | ||
| 2024-10-23T11:54 | 8489 | 342 | 198 | 57 | ||
| 2024-10-23T11:54 | 8563 | 339 | -30.5 | -33.4 | ||
| 2024-10-23T11:54 | 8822 | 327 | -32.9 | -41.5 | ||
| 2024-10-23T11:55 | 8913 | 322 | 199 | 58 | ||
| 2024-10-23T11:55 | 9049 | 316 | 199 | 56 | ||
| 2024-10-23T11:55 | 9191 | 310 | 200 | 56 | ||
| 2024-10-23T11:56 | 9423 | 300 | -38.2 | -50.6 | ||
| 2024-10-23T11:56 | 9569 | 293 | 204 | 54 | ||
| 2024-10-23T11:57 | 9672 | 289 | -40.0 | -52.9 | ||
| 2024-10-23T11:57 | 9914 | 279 | 206 | 53 | ||
| 2024-10-23T11:58 | 10179 | 268 | 211 | 51 | ||
| 2024-10-23T11:59 | 10551 | 254 | 212 | 53 | ||
| 2024-10-23T12:00 | 10870 | 242 | -46.5 | |||
| 2024-10-23T12:00 | 10923 | 240 | 215 | 52 | ||
| 2024-10-23T12:01 | 11323 | 226 | 217 | 49 | ||
| 2024-10-23T12:02 | 11615 | 216 | -50.3 | |||
| 2024-10-23T12:02 | 11712 | 213 | 217 | 48 | ||
| 2024-10-23T12:03 | 12083 | 201 | 224 | 49 | ||
| 2024-10-23T12:03 | 12190 | 197 | -53.5 | |||
| 2024-10-23T12:04 | 12485 | 189 | 224 | 48 | ||
| 2024-10-23T12:05 | 12753 | 181 | -55.7 | |||
| 2024-10-23T12:05 | 12861 | 178 | 227 | 47 | ||
| 2024-10-23T12:06 | 13137 | 170 | 225 | 44 | ||
| 2024-10-23T12:06 | 13153 | 170 | -57.6 | |||
| 2024-10-23T12:06 | 13385 | 164 | -57.7 | |||
| 2024-10-23T12:07 | 13607 | 158 | 236 | 48 | ||
| 2024-10-23T12:07 | 13848 | 152 | -58.7 | |||
| 2024-10-23T12:08 | 13961 | 149 | 241 | 41 | ||
| 2024-10-23T12:08 | 14237 | 143 | 243 | 43 | ||
| 2024-10-23T12:08 | 14268 | 142 | -60.4 | |||
| 2024-10-23T12:08 | 14408 | 139 | 244 | 42 | ||
| 2024-10-23T12:09 | 14415 | 139 | -59.8 | |||
| 2024-10-23T12:09 | 14676 | 133 | -60.7 | |||
| 2024-10-23T12:09 | 14726 | 132 | 239 | 37 | ||
| 2024-10-23T12:10 | 14997 | 126 | 248 | 37 | ||
| 2024-10-23T12:11 | 15248 | 121 | 242 | 27 | ||
| 2024-10-23T12:11 | 15335 | 120 | -60.2 | |||
| 2024-10-23T12:12 | 15595 | 115 | 246 | 31 | ||
| 2024-10-23T12:12 | 15673 | 113 | -61.8 | |||
| 2024-10-23T12:13 | 15949 | 108 | -61.3 | |||
| 2024-10-23T12:13 | 15987 | 108 | 231 | 28 | ||
| 2024-10-23T12:14 | 16345 | 102 | 234 | 29 | ||
| 2024-10-23T12:14 | 16400 | 101 | -61.4 | |||
| 2024-10-23T12:15 | 16607 | 98 | 245 | 29 | ||
| 2024-10-23T12:16 | 16923 | 93 | 250 | 27 | ||
| 2024-10-23T12:16 | 16956 | 92 | -63.8 | |||
| 2024-10-23T12:17 | 17216 | 88 | 254 | 23 | ||
| 2024-10-23T12:17 | 17363 | 86 | 240 | 18 | ||
| 2024-10-23T12:17 | 17399 | 86 | -62.8 | |||
| 2024-10-23T12:17 | 17509 | 84 | -62.4 | |||
| 2024-10-23T12:18 | 17591 | 83 | -59.0 | |||
| 2024-10-23T12:18 | 17658 | 82 | 250 | 25 | ||
| 2024-10-23T12:18 | 17884 | 79 | -57.7 | |||
| 2024-10-23T12:19 | 17930 | 79 | 254 | 21 | ||
| 2024-10-23T12:19 | 18028 | 78 | -57.6 | |||
| 2024-10-23T12:19 | 18231 | 75 | 256 | 16 | ||
| 2024-10-23T12:19 | 18298 | 74 | -58.5 | |||
| 2024-10-23T12:20 | 18620 | 71 | -60.9 | |||
| 2024-10-23T12:20 | 18632 | 70 | 248 | 20 | ||
| 2024-10-23T12:21 | 18876 | 68 | -61.1 | |||
| 2024-10-23T12:21 | 18996 | 66 | -60.8 | 249 | 16 | |
| 2024-10-23T12:21 | 19147 | 65 | -60.3 | |||
| 2024-10-23T12:22 | 19167 | 65 | 264 | 18 | ||
| 2024-10-23T12:22 | 19255 | 64 | -58.8 | |||
| 2024-10-23T12:23 | 19505 | 61 | 274 | 7 | ||
| 2024-10-23T12:23 | 19630 | 60 | -59.2 | |||
| 2024-10-23T12:23 | 19726 | 59 | 220 | 6 | ||
| 2024-10-23T12:24 | 19906 | 57 | 210 | 8 | ||
| 2024-10-23T12:24 | 20049 | 56 | -59.8 | |||
| 2024-10-23T12:24 | 20253 | 54 | 213 | 13 | ||
| 2024-10-23T12:25 | 20416 | 53 | -61.4 | |||
| 2024-10-23T12:25 | 20512 | 52 | 241 | 12 | ||
| 2024-10-23T12:26 | 20682 | 51 | 259 | 9 | ||
| 2024-10-23T12:26 | 20804 | 50 | -59.9 | |||
| 2024-10-23T12:27 | 21062 | 48 | 221 | 12 | ||
| 2024-10-23T12:27 | 21219 | 47 | -60.8 | |||
| 2024-10-23T12:27 | 21314 | 46 | 230 | 13 | ||
| 2024-10-23T12:28 | 21523 | 44 | 263 | 4 | ||
| 2024-10-23T12:28 | 21580 | 44 | 217 | 2 | ||
| 2024-10-23T12:28 | 21636 | 44 | 175 | 4 | ||
| 2024-10-23T12:28 | 21738 | 43 | -58.1 | |||
| 2024-10-23T12:29 | 21857 | 42 | 193 | 11 | ||
| 2024-10-23T12:29 | 22056 | 41 | 212 | 10 | ||
| 2024-10-23T12:30 | 22182 | 40 | -58.4 | |||
| 2024-10-23T12:30 | 22375 | 39 | 207 | 10 | ||
| 2024-10-23T12:31 | 22654 | 37 | -59.0 | |||
| 2024-10-23T12:31 | 22790 | 36 | 260 | 9 | ||
| 2024-10-23T12:32 | 23023 | 35 | 280 | 7 | ||
| 2024-10-23T12:32 | 23150 | 34 | 276 | 4 | ||
| 2024-10-23T12:32 | 23241 | 34 | 295 | 1 | ||
| 2024-10-23T12:32 | 23356 | 33 | 116 | 3 | ||
| 2024-10-23T12:33 | 23467 | 33 | 170 | 3 | ||
| 2024-10-23T12:33 | 23507 | 32 | -58.4 | |||
| 2024-10-23T12:33 | 23627 | 32 | 254 | 3 | ||
| 2024-10-23T12:34 | 23847 | 31 | 249 | 4 | ||
| 2024-10-23T12:34 | 24016 | 30 | 268 | 2 | ||
| 2024-10-23T12:35 | 24142 | 29 | 293 | 5 | ||
| 2024-10-23T12:35 | 24340 | 28 | 287 | 2 | ||
| 2024-10-23T12:35 | 24476 | 28 | -57.3 | 57 | 3 | |
| 2024-10-23T12:36 | 24648 | 27 | -56.3 | 136 | 5 | |
| 2024-10-23T23:30 | 18 | 1010 | 17.4 | 9.3 | 260 | 3 |
| 2024-10-23T23:30 | 22 | 1010 | 17.9 | 9.3 | 0 | 0 |
| 2024-10-23T23:30 | 40 | 1008 | 17.6 | 8.2 | ||
| 2024-10-23T23:30 | 60 | 1005 | 16.7 | 7.6 | ||
| 2024-10-23T23:31 | 264 | 981 | 248 | 4 | ||
| 2024-10-23T23:31 | 521 | 952 | 11.8 | 6.1 | ||
| 2024-10-23T23:32 | 647 | 938 | 223 | 4 | ||
| 2024-10-23T23:32 | 884 | 911 | 258 | 3 | ||
| 2024-10-23T23:33 | 1084 | 890 | 6.8 | 4.8 | ||
| 2024-10-23T23:33 | 1110 | 887 | 228 | 3 | ||
| 2024-10-23T23:33 | 1207 | 876 | 193 | 3 | ||
| 2024-10-23T23:33 | 1238 | 873 | 5.9 | 4.2 | ||
| 2024-10-23T23:33 | 1293 | 867 | 6.3 | 3.5 | ||
| 2024-10-23T23:33 | 1404 | 856 | 242 | 4 | ||
| 2024-10-23T23:33 | 1421 | 854 | 5.5 | 2.7 | ||
| 2024-10-23T23:34 | 1547 | 841 | 304 | 3 | ||
| 2024-10-23T23:34 | 1675 | 828 | 3.9 | 1.3 | ||
| 2024-10-23T23:34 | 1757 | 819 | 286 | 10 | ||
| 2024-10-23T23:35 | 1792 | 816 | 3.0 | 0.6 | ||
| 2024-10-23T23:35 | 1833 | 812 | 4.3 | -0.3 | ||
| 2024-10-23T23:35 | 1986 | 797 | 289 | 17 | ||
| 2024-10-23T23:35 | 2005 | 795 | 2.8 | -1.7 | ||
| 2024-10-23T23:35 | 2037 | 792 | 3.7 | -2.3 | ||
| 2024-10-23T23:35 | 2127 | 783 | 292 | 22 | ||
| 2024-10-23T23:36 | 2196 | 776 | 2.7 | -3.2 | ||
| 2024-10-23T23:36 | 2273 | 769 | 3.2 | -3.8 | ||
| 2024-10-23T23:36 | 2444 | 753 | 3.8 | -5.9 | ||
| 2024-10-23T23:36 | 2470 | 750 | 265 | 21 | ||
| 2024-10-23T23:37 | 2587 | 740 | 3.6 | -7.8 | ||
| 2024-10-23T23:37 | 2639 | 735 | 272 | 22 | ||
| 2024-10-23T23:37 | 2730 | 727 | 3.4 | -16.3 | ||
| 2024-10-23T23:37 | 2781 | 722 | 3.8 | -24.0 | ||
| 2024-10-23T23:38 | 2816 | 719 | 274 | 25 | ||
| 2024-10-23T23:38 | 2827 | 718 | 4.5 | -34.3 | ||
| 2024-10-23T23:38 | 2925 | 710 | 3.9 | -23.0 | ||
| 2024-10-23T23:38 | 3036 | 700 | 3.5 | -17.4 | ||
| 2024-10-23T23:39 | 3206 | 686 | 264 | 27 | ||
| 2024-10-23T23:39 | 3301 | 678 | 2.1 | -20.5 | ||
| 2024-10-23T23:40 | 3602 | 653 | 263 | 26 | ||
| 2024-10-23T23:41 | 3965 | 623 | -2.9 | -23.9 | 260 | 28 |
| 2024-10-23T23:41 | 4331 | 595 | 260 | 27 | ||
| 2024-10-23T23:42 | 4602 | 575 | 260 | 26 | ||
| 2024-10-23T23:42 | 4713 | 566 | -9.0 | -29.0 | ||
| 2024-10-23T23:43 | 4990 | 546 | 257 | 27 | ||
| 2024-10-23T23:44 | 5339 | 522 | -14.1 | -36.6 | ||
| 2024-10-23T23:44 | 5364 | 520 | 259 | 29 | ||
| 2024-10-23T23:45 | 5638 | 502 | 255 | 29 | ||
| 2024-10-23T23:46 | 5998 | 478 | 253 | 31 | ||
| 2024-10-23T23:47 | 6232 | 463 | -21.5 | -43.4 | ||
| 2024-10-23T23:47 | 6339 | 456 | 255 | 32 | ||
| 2024-10-23T23:48 | 6665 | 437 | 251 | 32 | ||
| 2024-10-23T23:48 | 6731 | 433 | -25.1 | -46.3 | ||
| 2024-10-23T23:48 | 6820 | 427 | -25.2 | -50.0 | ||
| 2024-10-23T23:49 | 6965 | 419 | 249 | 35 | ||
| 2024-10-23T23:49 | 6991 | 417 | -25.9 | -54.5 | ||
| 2024-10-23T23:50 | 7182 | 407 | -25.9 | -61.8 | ||
| 2024-10-23T23:50 | 7275 | 401 | 247 | 35 | ||
| 2024-10-23T23:51 | 7601 | 384 | 248 | 37 | ||
| 2024-10-23T23:51 | 7700 | 378 | -29.0 | -64.0 | ||
| 2024-10-23T23:52 | 7942 | 366 | 250 | 39 | ||
| 2024-10-23T23:53 | 8283 | 348 | -32.6 | -66.5 | ||
| 2024-10-23T23:53 | 8314 | 347 | 250 | 40 | ||
| 2024-10-23T23:54 | 8693 | 329 | 250 | 40 | ||
| 2024-10-23T23:54 | 8706 | 328 | -35.4 | -68.5 | ||
| 2024-10-23T23:55 | 9072 | 311 | 248 | 39 | ||
| 2024-10-23T23:55 | 9084 | 311 | -37.2 | -69.8 | ||
| 2024-10-23T23:56 | 9447 | 295 | 243 | 42 | ||
| 2024-10-23T23:56 | 9541 | 291 | -40.0 | -68.9 | ||
| 2024-10-23T23:57 | 9824 | 279 | 243 | 41 | ||
| 2024-10-23T23:58 | 10084 | 268 | -43.6 | |||
| 2024-10-23T23:58 | 10117 | 267 | 244 | 43 | ||
| 2024-10-23T23:58 | 10316 | 259 | -43.3 | |||
| 2024-10-23T23:59 | 10469 | 253 | 250 | 49 | ||
| 2024-10-23T23:59 | 10592 | 249 | -43.5 | |||
| 2024-10-24T00:00 | 10769 | 242 | -43.0 | |||
| 2024-10-24T00:00 | 10802 | 241 | 248 | 45 | ||
| 2024-10-24T00:01 | 11120 | 230 | 243 | 44 | ||
| 2024-10-24T00:02 | 11450 | 219 | 238 | 45 | ||
| 2024-10-24T00:02 | 11529 | 216 | -44.3 | |||
| 2024-10-24T00:03 | 11806 | 208 | 236 | 44 | ||
| 2024-10-24T00:03 | 11971 | 203 | -47.0 | |||
| 2024-10-24T00:03 | 12061 | 200 | 237 | 41 | ||
| 2024-10-24T00:04 | 12464 | 188 | 238 | 41 | ||
| 2024-10-24T00:05 | 12824 | 178 | 238 | 42 | ||
| 2024-10-24T00:06 | 13144 | 169 | 234 | 41 | ||
| 2024-10-24T00:06 | 13179 | 168 | -54.6 | |||
| 2024-10-24T00:07 | 13451 | 161 | 237 | 44 | ||
| 2024-10-24T00:08 | 13516 | 160 | -55.0 | |||
| 2024-10-24T00:08 | 13797 | 153 | 238 | 43 | ||
| 2024-10-24T00:09 | 14178 | 144 | 237 | 39 | ||
| 2024-10-24T00:10 | 14476 | 137 | -58.5 | |||
| 2024-10-24T00:10 | 14564 | 135 | 237 | 39 | ||
| 2024-10-24T00:11 | 14910 | 128 | 239 | 36 | ||
| 2024-10-24T00:12 | 15039 | 125 | -59.7 | |||
| 2024-10-24T00:12 | 15191 | 122 | 243 | 35 | ||
| 2024-10-24T00:13 | 15310 | 120 | -60.6 | |||
| 2024-10-24T00:13 | 15442 | 117 | 242 | 34 | ||
| 2024-10-24T00:14 | 15549 | 115 | -60.2 | |||
| 2024-10-24T00:14 | 15714 | 112 | 246 | 33 | ||
| 2024-10-24T00:14 | 15725 | 112 | -60.5 | |||
| 2024-10-24T00:15 | 15876 | 110 | 239 | 29 | ||
| 2024-10-24T00:15 | 16028 | 107 | -58.8 | |||
| 2024-10-24T00:16 | 16160 | 105 | -58.0 | |||
| 2024-10-24T00:16 | 16232 | 103 | 249 | 29 | ||
| 2024-10-24T00:17 | 16579 | 98 | -57.2 | |||
| 2024-10-24T00:17 | 16587 | 98 | 247 | 17 | ||
| 2024-10-24T00:17 | 16745 | 95 | 226 | 14 | ||
| 2024-10-24T00:18 | 17071 | 91 | 221 | 17 | ||
| 2024-10-24T00:19 | 17446 | 85 | 223 | 23 | ||
| 2024-10-24T00:19 | 17493 | 85 | -63.9 | |||
| 2024-10-24T00:20 | 17687 | 82 | -61.6 | |||
| 2024-10-24T00:20 | 17710 | 82 | 226 | 25 | ||
| 2024-10-24T00:20 | 17880 | 79 | 227 | 23 | ||
| 2024-10-24T00:20 | 17892 | 79 | -61.3 | |||
| 2024-10-24T00:20 | 18048 | 77 | -58.7 | |||
| 2024-10-24T00:21 | 18244 | 75 | -58.1 | |||
| 2024-10-24T00:21 | 18316 | 74 | 235 | 23 | ||
| 2024-10-24T00:21 | 18333 | 74 | -57.3 | |||
| 2024-10-24T00:21 | 18428 | 73 | -56.9 | |||
| 2024-10-24T00:21 | 18545 | 71 | 213 | 12 | ||
| 2024-10-24T00:22 | 18642 | 70 | -57.1 | |||
| 2024-10-24T00:22 | 18987 | 67 | 174 | 9 | ||
| 2024-10-24T00:23 | 19014 | 66 | -59.5 | |||
| 2024-10-24T00:23 | 19303 | 63 | -60.5 | |||
| 2024-10-24T00:23 | 19331 | 63 | 208 | 9 | ||
| 2024-10-24T00:24 | 19685 | 60 | -62.6 | |||
| 2024-10-24T00:24 | 19695 | 59 | 220 | 9 | ||
| 2024-10-24T00:25 | 19844 | 58 | -60.1 | |||
| 2024-10-24T00:25 | 20095 | 56 | 195 | 8 | ||
| 2024-10-24T00:26 | 20265 | 54 | 211 | 9 | ||
| 2024-10-24T00:26 | 20287 | 54 | -62.0 | |||
| 2024-10-24T00:26 | 20415 | 53 | -59.7 | |||
| 2024-10-24T00:26 | 20424 | 53 | 228 | 11 | ||
| 2024-10-24T00:27 | 20595 | 51 | 240 | 7 | ||
| 2024-10-24T00:27 | 20656 | 51 | 279 | 2 | ||
| 2024-10-24T00:27 | 20692 | 51 | -58.3 | |||
| 2024-10-24T00:28 | 20947 | 49 | 105 | 2 | ||
| 2024-10-24T00:28 | 21104 | 47 | 148 | 3 | ||
| 2024-10-24T00:29 | 21253 | 46 | -59.3 | |||
| 2024-10-24T00:29 | 21486 | 45 | 160 | 7 | ||
| 2024-10-24T00:30 | 21701 | 43 | 165 | 12 | ||
| 2024-10-24T00:30 | 21845 | 42 | -60.2 | |||
| 2024-10-24T00:31 | 22058 | 41 | -58.8 | |||
| 2024-10-24T00:31 | 22103 | 40 | 199 | 9 | ||
| 2024-10-24T00:31 | 22310 | 39 | -59.1 | |||
| 2024-10-24T00:31 | 22342 | 39 | 218 | 9 | ||
| 2024-10-24T00:32 | 22590 | 37 | 209 | 5 | ||
| 2024-10-24T00:32 | 22740 | 37 | 188 | 7 | ||
| 2024-10-24T00:33 | 23043 | 35 | 155 | 7 | ||
| 2024-10-24T00:33 | 23166 | 34 | 194 | 2 | ||
| 2024-10-24T00:34 | 23357 | 33 | 82 | 3 | ||
| 2024-10-24T00:34 | 23433 | 33 | -58.1 | |||
| 2024-10-24T00:35 | 23568 | 32 | 142 | 7 | ||
| 2024-10-24T00:35 | 23728 | 31 | 143 | 7 | ||
| 2024-10-24T00:35 | 23831 | 31 | 133 | 6 | ||
| 2024-10-24T00:36 | 24104 | 29 | 153 | 6 | ||
| 2024-10-24T00:36 | 24124 | 29 | -56.8 | |||
| 2024-10-24T00:36 | 24222 | 29 | -55.5 | 126 | 4 | |
| 2024-10-24T11:30 | 18 | 1018 | 11.6 | 6.5 | 290 | 1 |
| 2024-10-24T11:30 | 22 | 1017 | 11.5 | 6.2 | 0 | 0 |
| 2024-10-24T11:30 | 41 | 1015 | 12.6 | 5.3 | ||
| 2024-10-24T11:30 | 56 | 1013 | 13.2 | 4.9 | ||
| 2024-10-24T11:30 | 167 | 1000 | 268 | 3 | ||
| 2024-10-24T11:31 | 211 | 995 | 12.3 | 3.8 | ||
| 2024-10-24T11:31 | 255 | 989 | 252 | 4 | ||
| 2024-10-24T11:31 | 444 | 967 | 259 | 7 | ||
| 2024-10-24T11:32 | 544 | 956 | 245 | 6 | ||
| 2024-10-24T11:32 | 581 | 952 | 9.4 | 2.0 | ||
| 2024-10-24T11:32 | 709 | 937 | 293 | 4 | ||
| 2024-10-24T11:33 | 870 | 919 | 282 | 1 | ||
| 2024-10-24T11:33 | 1009 | 903 | 6.3 | 0.0 | ||
| 2024-10-24T11:33 | 1130 | 890 | 259 | 2 | ||
| 2024-10-24T11:34 | 1268 | 875 | 236 | 5 | ||
| 2024-10-24T11:34 | 1339 | 868 | 4.9 | -6.3 | ||
| 2024-10-24T11:34 | 1362 | 865 | 248 | 5 | ||
| 2024-10-24T11:34 | 1368 | 865 | 5.4 | -8.8 | ||
| 2024-10-24T11:34 | 1402 | 861 | 6.3 | -13.3 | ||
| 2024-10-24T11:34 | 1498 | 851 | 6.7 | -19.8 | ||
| 2024-10-24T11:35 | 1531 | 847 | 281 | 10 | ||
| 2024-10-24T11:35 | 1580 | 842 | 6.3 | -22.1 | ||
| 2024-10-24T11:35 | 1777 | 822 | 5.9 | -33.3 | ||
| 2024-10-24T11:36 | 1876 | 812 | 5.7 | -18.2 | 267 | 11 |
| 2024-10-24T11:36 | 1947 | 805 | 5.4 | -10.0 | ||
| 2024-10-24T11:37 | 2261 | 775 | 264 | 12 | ||
| 2024-10-24T11:37 | 2406 | 761 | 3.1 | -14.1 | ||
| 2024-10-24T11:37 | 2492 | 753 | 2.9 | -15.2 | ||
| 2024-10-24T11:38 | 2631 | 740 | 256 | 16 | ||
| 2024-10-24T11:38 | 2947 | 711 | 255 | 17 | ||
| 2024-10-24T11:39 | 3044 | 703 | -0.8 | -17.9 | ||
| 2024-10-24T11:39 | 3280 | 682 | -1.8 | -20.7 | ||
| 2024-10-24T11:39 | 3319 | 679 | 250 | 17 | ||
| 2024-10-24T11:40 | 3421 | 670 | -2.2 | -18.3 | ||
| 2024-10-24T11:40 | 3503 | 663 | -2.9 | -15.2 | ||
| 2024-10-24T11:40 | 3509 | 663 | 248 | 21 | ||
| 2024-10-24T11:41 | 3879 | 632 | -5.2 | -19.3 | ||
| 2024-10-24T11:41 | 3886 | 632 | 243 | 24 | ||
| 2024-10-24T11:42 | 4211 | 606 | -7.2 | -20.4 | ||
| 2024-10-24T11:42 | 4230 | 605 | 248 | 26 | ||
| 2024-10-24T11:43 | 4495 | 584 | -9.6 | -23.2 | ||
| 2024-10-24T11:43 | 4610 | 576 | 242 | 26 | ||
| 2024-10-24T11:43 | 4679 | 570 | -10.9 | -29.5 | ||
| 2024-10-24T11:43 | 4762 | 564 | -11.1 | -34.2 | ||
| 2024-10-24T11:44 | 4970 | 549 | -13.0 | -28.1 | ||
| 2024-10-24T11:44 | 4989 | 548 | 239 | 30 | ||
| 2024-10-24T11:44 | 5131 | 538 | -14.4 | -29.7 | ||
| 2024-10-24T11:44 | 5189 | 534 | -14.7 | -31.3 | ||
| 2024-10-24T11:45 | 5306 | 525 | -15.7 | -29.3 | ||
| 2024-10-24T11:45 | 5377 | 520 | 235 | 32 | ||
| 2024-10-24T11:45 | 5489 | 513 | -17.2 | -31.4 | ||
| 2024-10-24T11:45 | 5563 | 508 | 242 | 33 | ||
| 2024-10-24T11:46 | 5670 | 500 | 239 | 32 | ||
| 2024-10-24T11:46 | 5786 | 493 | 241 | 32 | ||
| 2024-10-24T11:46 | 5945 | 482 | -21.3 | -32.2 | ||
| 2024-10-24T11:47 | 6169 | 468 | 237 | 35 | ||
| 2024-10-24T11:47 | 6275 | 461 | -24.0 | -37.0 | ||
| 2024-10-24T11:47 | 6300 | 459 | 236 | 31 | ||
| 2024-10-24T11:48 | 6433 | 451 | 235 | 36 | ||
| 2024-10-24T11:48 | 6491 | 448 | -25.4 | -39.0 | ||
| 2024-10-24T11:48 | 6695 | 435 | 235 | 36 | ||
| 2024-10-24T11:49 | 6958 | 419 | -29.1 | -40.9 | ||
| 2024-10-24T11:49 | 7058 | 414 | 230 | 36 | ||
| 2024-10-24T11:49 | 7104 | 411 | -29.8 | -47.6 | ||
| 2024-10-24T11:50 | 7201 | 405 | 232 | 39 | ||
| 2024-10-24T11:51 | 7476 | 390 | 237 | 41 | ||
| 2024-10-24T11:51 | 7768 | 374 | -34.6 | -52.8 | ||
| 2024-10-24T11:52 | 7836 | 370 | 235 | 43 | ||
| 2024-10-24T11:52 | 7909 | 367 | -35.8 | -56.6 | ||
| 2024-10-24T11:52 | 8080 | 358 | 236 | 43 | ||
| 2024-10-24T11:53 | 8322 | 345 | 234 | 46 | ||
| 2024-10-24T11:53 | 8407 | 341 | -36.1 | -66.1 | ||
| 2024-10-24T11:53 | 8438 | 340 | 231 | 44 | ||
| 2024-10-24T11:54 | 8710 | 327 | 230 | 47 | ||
| 2024-10-24T11:54 | 8816 | 322 | -37.5 | -67.1 | ||
| 2024-10-24T11:54 | 8856 | 320 | 231 | 50 | ||
| 2024-10-24T11:55 | 9003 | 313 | 233 | 52 | ||
| 2024-10-24T11:55 | 9102 | 309 | -39.0 | -68.2 | ||
| 2024-10-24T11:55 | 9256 | 302 | -40.0 | -68.9 | ||
| 2024-10-24T11:56 | 9396 | 296 | 234 | 57 | ||
| 2024-10-24T11:56 | 9627 | 286 | 240 | 61 | ||
| 2024-10-24T11:57 | 10048 | 269 | 244 | 61 | ||
| 2024-10-24T11:57 | 10077 | 267 | -41.4 | |||
| 2024-10-24T11:58 | 10404 | 255 | -43.9 | |||
| 2024-10-24T11:58 | 10496 | 251 | 241 | 66 | ||
| 2024-10-24T11:59 | 10693 | 244 | -45.1 | |||
| 2024-10-24T11:59 | 10860 | 238 | 245 | 69 | ||
| 2024-10-24T11:59 | 10957 | 234 | -45.4 | |||
| 2024-10-24T12:00 | 11113 | 229 | 244 | 67 | ||
| 2024-10-24T12:00 | 11231 | 225 | -45.8 | |||
| 2024-10-24T12:00 | 11252 | 224 | 243 | 65 | ||
| 2024-10-24T12:01 | 11355 | 221 | 243 | 65 | ||
| 2024-10-24T12:02 | 11670 | 211 | 242 | 64 | ||
| 2024-10-24T12:02 | 11708 | 209 | -48.3 | |||
| 2024-10-24T12:03 | 11996 | 200 | 243 | 67 | ||
| 2024-10-24T12:03 | 12098 | 197 | 244 | 62 | ||
| 2024-10-24T12:04 | 12324 | 191 | 245 | 62 | ||
| 2024-10-24T12:04 | 12364 | 189 | -51.4 | |||
| 2024-10-24T12:05 | 12640 | 181 | 242 | 60 | ||
| 2024-10-24T12:05 | 12741 | 179 | -52.5 | |||
| 2024-10-24T12:06 | 12967 | 173 | 246 | 56 | ||
| 2024-10-24T12:07 | 13308 | 164 | 248 | 53 | ||
| 2024-10-24T12:08 | 13667 | 155 | 253 | 46 | ||
| 2024-10-24T12:08 | 13737 | 153 | -54.9 | |||
| 2024-10-24T12:09 | 13973 | 148 | 249 | 44 | ||
| 2024-10-24T12:09 | 14300 | 140 | 249 | 36 | ||
| 2024-10-24T12:10 | 14466 | 136 | -58.6 | |||
| 2024-10-24T12:10 | 14491 | 136 | 248 | 40 | ||
| 2024-10-24T12:10 | 14582 | 134 | -57.2 | |||
| 2024-10-24T12:11 | 14696 | 132 | -56.1 | |||
| 2024-10-24T12:11 | 14723 | 131 | 254 | 42 | ||
| 2024-10-24T12:12 | 15030 | 125 | 254 | 32 | ||
| 2024-10-24T12:12 | 15175 | 122 | -57.3 | |||
| 2024-10-24T12:12 | 15192 | 122 | 251 | 29 | ||
| 2024-10-24T12:13 | 15467 | 117 | -57.6 | |||
| 2024-10-24T12:13 | 15509 | 116 | 250 | 31 | ||
| 2024-10-24T12:14 | 15700 | 112 | -58.2 | |||
| 2024-10-24T12:14 | 15883 | 109 | -58.8 | |||
| 2024-10-24T12:14 | 15900 | 109 | 230 | 32 | ||
| 2024-10-24T12:14 | 16010 | 107 | -57.3 | |||
| 2024-10-24T12:15 | 16093 | 106 | 227 | 37 | ||
| 2024-10-24T12:15 | 16278 | 102 | -58.7 | |||
| 2024-10-24T12:15 | 16285 | 102 | 231 | 38 | ||
| 2024-10-24T12:16 | 16460 | 100 | 238 | 38 | ||
| 2024-10-24T12:16 | 16492 | 99 | -57.5 | |||
| 2024-10-24T12:16 | 16611 | 97 | 246 | 34 | ||
| 2024-10-24T12:16 | 16808 | 94 | 251 | 33 | ||
| 2024-10-24T12:17 | 17231 | 88 | 254 | 22 | ||
| 2024-10-24T12:18 | 17540 | 84 | -62.0 | |||
| 2024-10-24T12:18 | 17599 | 83 | 242 | 23 | ||
| 2024-10-24T12:19 | 17999 | 78 | 235 | 24 | ||
| 2024-10-24T12:19 | 18005 | 78 | -61.4 | |||
| 2024-10-24T12:20 | 18187 | 75 | -59.5 | |||
| 2024-10-24T12:20 | 18202 | 75 | 243 | 27 | ||
| 2024-10-24T12:21 | 18592 | 71 | 247 | 27 | ||
| 2024-10-24T12:21 | 18788 | 69 | -57.1 | |||
| 2024-10-24T12:22 | 18903 | 67 | -54.1 | |||
| 2024-10-24T12:22 | 18920 | 67 | 250 | 18 | ||
| 2024-10-24T12:22 | 19124 | 65 | 257 | 11 | ||
| 2024-10-24T12:22 | 19284 | 63 | -55.5 | |||
| 2024-10-24T12:23 | 19344 | 63 | 243 | 6 | ||
| 2024-10-24T12:23 | 19520 | 61 | 190 | 9 | ||
| 2024-10-24T12:24 | 19923 | 57 | 196 | 13 | ||
| 2024-10-24T12:24 | 20099 | 56 | -60.9 | |||
| 2024-10-24T12:24 | 20120 | 56 | 217 | 13 | ||
| 2024-10-24T12:25 | 20176 | 55 | -59.0 | |||
| 2024-10-24T12:25 | 20408 | 53 | 246 | 11 | ||
| 2024-10-24T12:25 | 20466 | 53 | -59.9 | |||
| 2024-10-24T12:26 | 20563 | 52 | -58.2 | |||
| 2024-10-24T12:26 | 20798 | 50 | 239 | 12 | ||
| 2024-10-24T12:26 | 20851 | 49 | -59.0 | |||
| 2024-10-24T12:27 | 20963 | 49 | 260 | 11 | ||
| 2024-10-24T12:27 | 21073 | 48 | -57.7 | |||
| 2024-10-24T12:27 | 21088 | 48 | -57.8 | 256 | 6 | |
| 2024-10-24T23:30 | 18 | 1024 | 12.7 | 6.1 | 250 | 1 |
| 2024-10-24T23:30 | 22 | 1024 | 13.2 | 6.3 | 0 | 0 |
| 2024-10-24T23:30 | 40 | 1021 | 12.8 | 5.2 | ||
| 2024-10-24T23:30 | 80 | 1017 | 12.2 | 4.4 | ||
| 2024-10-24T23:31 | 227 | 999 | 327 | 4 | ||
| 2024-10-24T23:31 | 344 | 985 | 10.2 | 3.0 | ||
| 2024-10-24T23:31 | 391 | 979 | 339 | 7 | ||
| 2024-10-24T23:31 | 464 | 971 | 9.3 | 1.2 | ||
| 2024-10-24T23:32 | 566 | 959 | 8.9 | -1.0 | ||
| 2024-10-24T23:32 | 703 | 943 | 312 | 8 | ||
| 2024-10-24T23:33 | 1033 | 906 | 301 | 10 | ||
| 2024-10-24T23:33 | 1192 | 888 | 3.9 | -7.9 | ||
| 2024-10-24T23:34 | 1390 | 867 | 307 | 10 | ||
| 2024-10-24T23:35 | 1602 | 844 | 0.7 | -13.4 | ||
| 2024-10-24T23:35 | 1690 | 835 | 1.3 | -19.2 | ||
| 2024-10-24T23:35 | 1742 | 830 | 308 | 10 | ||
| 2024-10-24T23:35 | 1764 | 827 | 1.3 | -24.2 | ||
| 2024-10-24T23:35 | 1864 | 817 | 1.1 | -28.3 | ||
| 2024-10-24T23:36 | 1968 | 807 | 314 | 12 | ||
| 2024-10-24T23:36 | 2044 | 799 | 1.3 | -34.3 | ||
| 2024-10-24T23:36 | 2217 | 782 | 287 | 11 | ||
| 2024-10-24T23:37 | 2289 | 775 | 1.5 | -43.1 | ||
| 2024-10-24T23:37 | 2369 | 767 | 279 | 13 | ||
| 2024-10-24T23:37 | 2403 | 764 | 0.9 | -43.5 | ||
| 2024-10-24T23:37 | 2469 | 758 | 286 | 15 | ||
| 2024-10-24T23:37 | 2542 | 751 | 1.2 | -49.6 | ||
| 2024-10-24T23:37 | 2581 | 747 | 285 | 12 | ||
| 2024-10-24T23:38 | 2764 | 730 | 282 | 17 | ||
| 2024-10-24T23:38 | 2905 | 718 | -0.6 | -44.5 | ||
| 2024-10-24T23:39 | 2955 | 713 | 0.4 | -50.1 | ||
| 2024-10-24T23:39 | 3104 | 700 | 279 | 20 | ||
| 2024-10-24T23:39 | 3161 | 695 | -0.1 | -35.4 | ||
| 2024-10-24T23:40 | 3309 | 682 | -0.8 | -40.9 | ||
| 2024-10-24T23:40 | 3409 | 674 | 277 | 19 | ||
| 2024-10-24T23:40 | 3463 | 669 | -1.9 | -25.2 | ||
| 2024-10-24T23:41 | 3630 | 655 | 276 | 20 | ||
| 2024-10-24T23:41 | 3680 | 651 | -3.3 | -22.0 | ||
| 2024-10-24T23:41 | 3830 | 639 | -4.0 | -23.7 | ||
| 2024-10-24T23:42 | 3930 | 631 | 281 | 24 | ||
| 2024-10-24T23:43 | 4255 | 605 | 278 | 26 | ||
| 2024-10-24T23:43 | 4355 | 598 | -8.0 | -28.2 | ||
| 2024-10-24T23:43 | 4421 | 593 | -7.1 | -38.7 | ||
| 2024-10-24T23:43 | 4463 | 589 | 280 | 29 | ||
| 2024-10-24T23:44 | 4785 | 565 | 280 | 27 | ||
| 2024-10-24T23:44 | 4827 | 562 | -9.6 | -37.8 | ||
| 2024-10-24T23:45 | 5144 | 540 | 292 | 29 | ||
| 2024-10-24T23:46 | 5424 | 520 | 287 | 29 | ||
| 2024-10-24T23:47 | 5594 | 508 | -16.4 | -37.1 | ||
| 2024-10-24T23:47 | 5758 | 497 | 284 | 32 | ||
| 2024-10-24T23:48 | 6049 | 478 | 286 | 30 | ||
| 2024-10-24T23:49 | 6313 | 461 | 286 | 33 | ||
| 2024-10-24T23:49 | 6360 | 458 | -22.8 | -39.2 | ||
| 2024-10-24T23:49 | 6479 | 451 | 284 | 37 | ||
| 2024-10-24T23:50 | 6737 | 435 | -25.8 | -41.3 | ||
| 2024-10-24T23:50 | 6831 | 430 | 283 | 37 | ||
| 2024-10-24T23:51 | 7015 | 419 | -27.5 | -50.8 | ||
| 2024-10-24T23:51 | 7185 | 409 | 282 | 37 | ||
| 2024-10-24T23:52 | 7417 | 396 | -30.7 | -50.2 | ||
| 2024-10-24T23:52 | 7502 | 391 | 287 | 38 | ||
| 2024-10-24T23:53 | 7793 | 375 | 286 | 39 | ||
| 2024-10-24T23:53 | 7802 | 375 | -34.1 | -49.8 | ||
| 2024-10-24T23:54 | 8092 | 360 | 286 | 38 | ||
| 2024-10-24T23:55 | 8383 | 345 | 283 | 40 | ||
| 2024-10-24T23:55 | 8486 | 340 | -39.3 | -59.4 | ||
| 2024-10-24T23:56 | 8704 | 329 | 279 | 38 | ||
| 2024-10-24T23:56 | 8753 | 327 | -39.7 | -63.7 | ||
| 2024-10-24T23:56 | 8811 | 324 | -40.0 | -63.9 | ||
| 2024-10-24T23:57 | 8961 | 317 | -40.7 | |||
| 2024-10-24T23:57 | 9051 | 313 | 274 | 42 | ||
| 2024-10-24T23:57 | 9189 | 306 | -41.4 | |||
| 2024-10-24T23:58 | 9396 | 297 | 266 | 45 | ||
| 2024-10-24T23:59 | 9732 | 282 | 268 | 46 | ||
| 2024-10-25T00:00 | 10064 | 269 | 269 | 47 | ||
| 2024-10-25T00:01 | 10228 | 262 | -49.0 | |||
| 2024-10-25T00:01 | 10376 | 256 | 271 | 43 | ||
| 2024-10-25T00:02 | 10508 | 251 | -50.0 | |||
| 2024-10-25T00:02 | 10679 | 245 | 268 | 43 | ||
| 2024-10-25T00:03 | 10991 | 233 | 259 | 45 | ||
| 2024-10-25T00:03 | 11023 | 232 | -52.9 | |||
| 2024-10-25T00:04 | 11298 | 222 | 255 | 47 | ||
| 2024-10-25T00:04 | 11329 | 221 | -52.3 | |||
| 2024-10-25T00:05 | 11488 | 216 | -51.1 | |||
| 2024-10-25T00:05 | 11635 | 211 | 262 | 51 | ||
| 2024-10-25T00:05 | 11751 | 207 | -51.4 | |||
| 2024-10-25T00:06 | 11971 | 200 | 262 | 47 | ||
| 2024-10-25T00:06 | 11976 | 200 | -51.6 | |||
| 2024-10-25T00:07 | 12298 | 190 | 263 | 45 | ||
| 2024-10-25T00:08 | 12512 | 184 | 258 | 45 | ||
| 2024-10-25T00:08 | 12551 | 183 | -50.0 | |||
| 2024-10-25T00:09 | 12837 | 175 | 259 | 39 | ||
| 2024-10-25T00:10 | 13116 | 168 | -52.8 | |||
| 2024-10-25T00:10 | 13164 | 167 | 255 | 40 | ||
| 2024-10-25T00:11 | 13434 | 160 | 250 | 46 | ||
| 2024-10-25T00:12 | 13728 | 153 | 253 | 45 | ||
| 2024-10-25T00:12 | 14020 | 146 | 256 | 40 | ||
| 2024-10-25T00:13 | 14202 | 142 | -59.1 | |||
| 2024-10-25T00:13 | 14329 | 139 | 254 | 43 | ||
| 2024-10-25T00:14 | 14657 | 132 | 257 | 43 | ||
| 2024-10-25T00:15 | 14763 | 129 | -59.9 | |||
| 2024-10-25T00:15 | 14987 | 125 | 258 | 42 | ||
| 2024-10-25T00:16 | 15082 | 123 | -59.4 | |||
| 2024-10-25T00:16 | 15299 | 119 | 259 | 47 | ||
| 2024-10-25T00:17 | 15436 | 116 | -58.2 | |||
| 2024-10-25T00:17 | 15514 | 115 | 263 | 41 | ||
| 2024-10-25T00:17 | 15575 | 114 | -56.5 | |||
| 2024-10-25T00:18 | 15755 | 110 | 261 | 34 | ||
| 2024-10-25T00:19 | 16041 | 106 | -55.7 | |||
| 2024-10-25T00:19 | 16088 | 105 | 267 | 31 | ||
| 2024-10-25T00:20 | 16412 | 100 | 269 | 29 | ||
| 2024-10-25T00:20 | 16544 | 98 | -57.3 | |||
| 2024-10-25T00:21 | 16722 | 95 | 273 | 25 | ||
| 2024-10-25T00:21 | 16865 | 93 | 270 | 19 | ||
| 2024-10-25T00:22 | 17116 | 89 | 252 | 20 | ||
| 2024-10-25T00:22 | 17165 | 88 | -60.0 | |||
| 2024-10-25T00:22 | 17310 | 86 | 251 | 26 | ||
| 2024-10-25T00:23 | 17471 | 84 | -60.4 | |||
| 2024-10-25T00:23 | 17658 | 82 | 247 | 23 | ||
| 2024-10-25T00:23 | 17725 | 81 | -60.3 | |||
| 2024-10-25T00:24 | 17986 | 77 | 254 | 26 | ||
| 2024-10-25T00:25 | 18315 | 73 | 259 | 26 | ||
| 2024-10-25T00:25 | 18367 | 73 | -61.8 | |||
| 2024-10-25T00:26 | 18519 | 71 | 254 | 23 | ||
| 2024-10-25T00:26 | 18528 | 71 | -61.0 | |||
| 2024-10-25T00:26 | 18644 | 70 | -59.8 | |||
| 2024-10-25T00:26 | 18678 | 69 | 262 | 23 | ||
| 2024-10-25T00:26 | 18770 | 68 | -58.9 | |||
| 2024-10-25T00:27 | 18854 | 67 | 257 | 18 | ||
| 2024-10-25T00:27 | 19081 | 65 | -58.8 | |||
| 2024-10-25T00:28 | 19198 | 64 | 236 | 16 | ||
| 2024-10-25T00:28 | 19298 | 63 | -56.7 | |||
| 2024-10-25T00:29 | 19567 | 60 | 238 | 16 | ||
| 2024-10-25T00:29 | 19802 | 58 | 230 | 14 | ||
| 2024-10-25T00:30 | 20068 | 56 | -58.7 | |||
| 2024-10-25T00:30 | 20204 | 54 | 257 | 16 | ||
| 2024-10-25T00:30 | 20249 | 54 | -57.6 | |||
| 2024-10-25T00:31 | 20614 | 51 | 262 | 9 | ||
| 2024-10-25T00:32 | 20923 | 48 | -60.0 | 248 | 9 | |
| 2024-10-25T00:33 | 21231 | 46 | 249 | 12 | ||
| 2024-10-25T00:33 | 21461 | 44 | -61.4 | |||
| 2024-10-25T00:34 | 21631 | 43 | 276 | 9 | ||
| 2024-10-25T00:34 | 21795 | 42 | 248 | 6 | ||
| 2024-10-25T00:34 | 21914 | 41 | -59.0 | |||
| 2024-10-25T00:35 | 22020 | 41 | 249 | 5 | ||
| 2024-10-25T00:35 | 22131 | 40 | -58.0 | |||
| 2024-10-25T00:35 | 22145 | 40 | 213 | 2 | ||
| 2024-10-25T00:35 | 22227 | 39 | 165 | 3 | ||
| 2024-10-25T00:36 | 22542 | 37 | -58.7 | 212 | 6 | |
| 2024-10-25T11:30 | 18 | 1024 | 9.7 | 7.0 | 200 | 1 |
| 2024-10-25T11:30 | 22 | 1023 | 9.5 | 6.4 | 0 | 0 |
| 2024-10-25T11:30 | 37 | 1021 | 10.4 | 6.2 | ||
| 2024-10-25T11:30 | 55 | 1019 | 11.1 | 6.0 | ||
| 2024-10-25T11:30 | 107 | 1013 | 11.3 | 5.6 | ||
| 2024-10-25T11:31 | 165 | 1006 | 11.7 | 4.9 | ||
| 2024-10-25T11:31 | 283 | 992 | 156 | 3 | ||
| 2024-10-25T11:31 | 378 | 980 | 10.1 | 4.9 | ||
| 2024-10-25T11:31 | 491 | 967 | 9.9 | 1.8 | ||
| 2024-10-25T11:32 | 607 | 954 | 237 | 4 | ||
| 2024-10-25T11:32 | 720 | 941 | 9.3 | -3.6 | ||
| 2024-10-25T11:32 | 809 | 931 | 9.2 | -7.5 | ||
| 2024-10-25T11:32 | 820 | 930 | 245 | 5 | ||
| 2024-10-25T11:33 | 1071 | 902 | 248 | 9 | ||
| 2024-10-25T11:33 | 1112 | 897 | 7.7 | -16.6 | ||
| 2024-10-25T11:34 | 1278 | 879 | 7.8 | -27.7 | ||
| 2024-10-25T11:34 | 1424 | 864 | 254 | 10 | ||
| 2024-10-25T11:35 | 1547 | 851 | 6.6 | -26.9 | ||
| 2024-10-25T11:35 | 1759 | 829 | 5.2 | -27.9 | 256 | 7 |
| 2024-10-25T11:36 | 1885 | 816 | 4.7 | -28.3 | ||
| 2024-10-25T11:36 | 1909 | 814 | 249 | 8 | ||
| 2024-10-25T11:36 | 1968 | 808 | 5.0 | -25.3 | ||
| 2024-10-25T11:36 | 2049 | 800 | 248 | 11 | ||
| 2024-10-25T11:36 | 2144 | 791 | 5.2 | -21.0 | ||
| 2024-10-25T11:37 | 2208 | 785 | 5.4 | -13.6 | ||
| 2024-10-25T11:37 | 2285 | 777 | 257 | 11 | ||
| 2024-10-25T11:38 | 2508 | 756 | 284 | 12 | ||
| 2024-10-25T11:38 | 2533 | 754 | 4.1 | -13.2 | ||
| 2024-10-25T11:38 | 2705 | 738 | 2.9 | -11.8 | ||
| 2024-10-25T11:39 | 2829 | 727 | 272 | 13 | ||
| 2024-10-25T11:39 | 3042 | 708 | 1.0 | -12.8 | ||
| 2024-10-25T11:40 | 3185 | 696 | 271 | 14 | ||
| 2024-10-25T11:40 | 3215 | 693 | -0.5 | -11.0 | ||
| 2024-10-25T11:40 | 3395 | 678 | -1.1 | -10.0 | ||
| 2024-10-25T11:41 | 3536 | 666 | 273 | 17 | ||
| 2024-10-25T11:41 | 3691 | 653 | -2.6 | -11.4 | ||
| 2024-10-25T11:41 | 3808 | 643 | 283 | 19 | ||
| 2024-10-25T11:42 | 4111 | 619 | -5.0 | -14.6 | ||
| 2024-10-25T11:42 | 4151 | 616 | 281 | 23 | ||
| 2024-10-25T11:43 | 4488 | 590 | 277 | 22 | ||
| 2024-10-25T11:43 | 4527 | 587 | -7.8 | -18.8 | ||
| 2024-10-25T11:44 | 4653 | 578 | -8.2 | -21.0 | ||
| 2024-10-25T11:44 | 4828 | 565 | 272 | 23 | ||
| 2024-10-25T11:45 | 4955 | 555 | 273 | 25 | ||
| 2024-10-25T11:45 | 5103 | 545 | 271 | 22 | ||
| 2024-10-25T11:45 | 5198 | 538 | -12.0 | -23.8 | ||
| 2024-10-25T11:46 | 5414 | 523 | -13.6 | -27.1 | ||
| 2024-10-25T11:46 | 5429 | 522 | 275 | 25 | ||
| 2024-10-25T11:47 | 5531 | 515 | -14.0 | -30.7 | ||
| 2024-10-25T11:47 | 5722 | 502 | -14.6 | -32.1 | 274 | 27 |
| 2024-10-25T11:47 | 5840 | 494 | -15.3 | -29.4 | ||
| 2024-10-25T11:48 | 6041 | 481 | -16.7 | -28.6 | ||
| 2024-10-25T11:48 | 6047 | 481 | 271 | 26 | ||
| 2024-10-25T11:49 | 6374 | 460 | 267 | 25 | ||
| 2024-10-25T11:50 | 6703 | 440 | 270 | 26 | ||
| 2024-10-25T11:50 | 6748 | 437 | -22.5 | -34.1 | ||
| 2024-10-25T11:51 | 6850 | 431 | -23.1 | -36.6 | ||
| 2024-10-25T11:51 | 7050 | 420 | 273 | 29 | ||
| 2024-10-25T11:52 | 7397 | 400 | 274 | 30 | ||
| 2024-10-25T11:53 | 7561 | 391 | -28.8 | -42.3 | ||
| 2024-10-25T11:53 | 7738 | 381 | 272 | 31 | ||
| 2024-10-25T11:54 | 8033 | 366 | -32.6 | -46.8 | ||
| 2024-10-25T11:54 | 8073 | 364 | 270 | 31 | ||
| 2024-10-25T11:55 | 8410 | 347 | 273 | 31 | ||
| 2024-10-25T11:55 | 8448 | 345 | -36.3 | -48.0 | ||
| 2024-10-25T11:56 | 8743 | 330 | 270 | 32 | ||
| 2024-10-25T11:57 | 8903 | 323 | -40.0 | -50.4 | ||
| 2024-10-25T11:57 | 9082 | 314 | 273 | 32 | ||
| 2024-10-25T11:58 | 9417 | 299 | 277 | 31 | ||
| 2024-10-25T11:59 | 9644 | 289 | -46.2 | |||
| 2024-10-25T11:59 | 9746 | 285 | 276 | 30 | ||
| 2024-10-25T12:00 | 10062 | 271 | 274 | 32 | ||
| 2024-10-25T12:01 | 10340 | 260 | -50.9 | |||
| 2024-10-25T12:01 | 10360 | 259 | 280 | 32 | ||
| 2024-10-25T12:02 | 10670 | 247 | 282 | 31 | ||
| 2024-10-25T12:03 | 10975 | 236 | 278 | 31 | ||
| 2024-10-25T12:04 | 11278 | 225 | -56.2 | |||
| 2024-10-25T12:04 | 11307 | 224 | 274 | 33 | ||
| 2024-10-25T12:05 | 11583 | 214 | -57.1 | |||
| 2024-10-25T12:05 | 11653 | 212 | 262 | 37 | ||
| 2024-10-25T12:06 | 11931 | 203 | 267 | 41 | ||
| 2024-10-25T12:07 | 12259 | 192 | 269 | 41 | ||
| 2024-10-25T12:07 | 12295 | 191 | -57.6 | |||
| 2024-10-25T12:08 | 12564 | 183 | 262 | 44 | ||
| 2024-10-25T12:09 | 12819 | 176 | -55.4 | |||
| 2024-10-25T12:09 | 12859 | 175 | 262 | 44 | ||
| 2024-10-25T12:10 | 13061 | 169 | -55.1 | |||
| 2024-10-25T12:10 | 13172 | 167 | 262 | 43 | ||
| 2024-10-25T12:11 | 13492 | 158 | 264 | 43 | ||
| 2024-10-25T12:12 | 13808 | 151 | 263 | 41 | ||
| 2024-10-25T12:12 | 13992 | 146 | -56.1 | |||
| 2024-10-25T12:13 | 14104 | 144 | -54.6 | |||
| 2024-10-25T12:13 | 14149 | 143 | 256 | 42 | ||
| 2024-10-25T12:14 | 14458 | 136 | -56.8 | |||
| 2024-10-25T12:14 | 14507 | 135 | 257 | 49 | ||
| 2024-10-25T12:15 | 14759 | 130 | -57.1 | |||
| 2024-10-25T12:15 | 14829 | 128 | 268 | 49 | ||
| 2024-10-25T12:16 | 15156 | 122 | 272 | 40 | ||
| 2024-10-25T12:17 | 15427 | 117 | -57.2 | |||
| 2024-10-25T12:17 | 15512 | 115 | 261 | 33 | ||
| 2024-10-25T12:18 | 15778 | 111 | -58.8 | |||
| 2024-10-25T12:18 | 15824 | 110 | 269 | 35 | ||
| 2024-10-25T12:18 | 16018 | 106 | -58.8 | |||
| 2024-10-25T12:18 | 16041 | 106 | 262 | 29 | ||
| 2024-10-25T12:19 | 16388 | 100 | 259 | 31 | ||
| 2024-10-25T12:20 | 16471 | 99 | -59.1 | |||
| 2024-10-25T12:20 | 16718 | 95 | 267 | 30 | ||
| 2024-10-25T12:21 | 17044 | 90 | -60.9 | |||
| 2024-10-25T12:21 | 17079 | 90 | 255 | 27 | ||
| 2024-10-25T12:22 | 17426 | 85 | 259 | 29 | ||
| 2024-10-25T12:22 | 17469 | 84 | -62.3 | |||
| 2024-10-25T12:23 | 17643 | 82 | -60.5 | |||
| 2024-10-25T12:23 | 17665 | 82 | 270 | 23 | ||
| 2024-10-25T12:24 | 17820 | 80 | 280 | 22 | ||
| 2024-10-25T12:24 | 18053 | 77 | 268 | 15 | ||
| 2024-10-25T12:25 | 18233 | 75 | -59.7 | |||
| 2024-10-25T12:25 | 18336 | 73 | -57.6 | |||
| 2024-10-25T12:25 | 18405 | 73 | 256 | 15 | ||
| 2024-10-25T12:26 | 18761 | 69 | 257 | 20 | ||
| 2024-10-25T12:27 | 19050 | 65 | -60.1 | |||
| 2024-10-25T12:27 | 19127 | 65 | 253 | 20 | ||
| 2024-10-25T12:28 | 19343 | 62 | 258 | 24 | ||
| 2024-10-25T12:28 | 19517 | 61 | 276 | 19 | ||
| 2024-10-25T12:29 | 19770 | 58 | -59.9 | |||
| 2024-10-25T12:29 | 19876 | 57 | 274 | 15 | ||
| 2024-10-25T12:29 | 19953 | 57 | -60.3 | |||
| 2024-10-25T12:30 | 20166 | 55 | -59.9 | |||
| 2024-10-25T12:30 | 20213 | 54 | 269 | 14 | ||
| 2024-10-25T12:30 | 20340 | 53 | -57.8 | |||
| 2024-10-25T12:31 | 20623 | 51 | 223 | 11 | ||
| 2024-10-25T12:32 | 20921 | 49 | -60.6 | |||
| 2024-10-25T12:32 | 20956 | 48 | 233 | 19 | ||
| 2024-10-25T12:33 | 21250 | 46 | 219 | 16 | ||
| 2024-10-25T12:34 | 21571 | 44 | -58.3 | |||
| 2024-10-25T12:34 | 21643 | 43 | 224 | 16 | ||
| 2024-10-25T12:34 | 21777 | 42 | 235 | 11 | ||
| 2024-10-25T12:34 | 21867 | 42 | 238 | 6 | ||
| 2024-10-25T12:35 | 21989 | 41 | 210 | 5 | ||
| 2024-10-25T12:35 | 22035 | 41 | -58.5 | |||
| 2024-10-25T12:35 | 22240 | 39 | 217 | 8 | ||
| 2024-10-25T12:36 | 22391 | 38 | -59.0 | 248 | 7 | |
| 2024-10-25T23:30 | 18 | 1021 | 11.9 | 6.2 | 300 | 0 |
| 2024-10-25T23:30 | 22 | 1021 | 12.1 | 5.9 | 0 | 0 |
| 2024-10-25T23:30 | 52 | 1017 | 11.3 | 4.3 | ||
| 2024-10-25T23:30 | 146 | 1006 | 11.2 | 4.0 | ||
| 2024-10-25T23:31 | 172 | 1003 | 13.2 | 4.6 | ||
| 2024-10-25T23:31 | 203 | 999 | 123 | 3 | ||
| 2024-10-25T23:31 | 240 | 994 | 13.3 | 5.0 | ||
| 2024-10-25T23:31 | 322 | 985 | 12.8 | 5.2 | ||
| 2024-10-25T23:31 | 366 | 980 | 327 | 3 | ||
| 2024-10-25T23:32 | 573 | 956 | 11.5 | 6.0 | ||
| 2024-10-25T23:32 | 694 | 942 | 298 | 7 | ||
| 2024-10-25T23:33 | 1005 | 907 | 280 | 8 | ||
| 2024-10-25T23:34 | 1129 | 893 | 6.6 | 3.9 | ||
| 2024-10-25T23:34 | 1323 | 873 | 293 | 12 | ||
| 2024-10-25T23:34 | 1394 | 865 | 4.4 | 2.4 | ||
| 2024-10-25T23:35 | 1499 | 854 | 3.7 | 1.1 | ||
| 2024-10-25T23:35 | 1549 | 849 | 3.6 | 0.5 | ||
| 2024-10-25T23:35 | 1662 | 837 | 3.6 | -3.2 | ||
| 2024-10-25T23:35 | 1694 | 834 | 296 | 12 | ||
| 2024-10-25T23:36 | 1860 | 817 | 2.8 | -4.4 | ||
| 2024-10-25T23:36 | 1906 | 812 | 3.5 | -5.4 | ||
| 2024-10-25T23:36 | 2069 | 796 | 3.0 | -6.7 | ||
| 2024-10-25T23:36 | 2081 | 795 | 295 | 18 | ||
| 2024-10-25T23:37 | 2302 | 774 | 2.4 | -11.2 | ||
| 2024-10-25T23:37 | 2375 | 767 | 2.1 | -7.2 | ||
| 2024-10-25T23:37 | 2435 | 761 | 296 | 19 | ||
| 2024-10-25T23:37 | 2472 | 757 | 2.3 | -10.9 | ||
| 2024-10-25T23:38 | 2613 | 744 | 2.5 | -9.7 | ||
| 2024-10-25T23:38 | 2655 | 741 | 294 | 21 | ||
| 2024-10-25T23:38 | 2745 | 732 | 1.7 | -11.1 | ||
| 2024-10-25T23:39 | 2948 | 714 | 0.4 | -8.3 | ||
| 2024-10-25T23:39 | 2964 | 712 | 286 | 19 | ||
| 2024-10-25T23:40 | 3233 | 689 | -1.4 | -9.7 | ||
| 2024-10-25T23:40 | 3248 | 687 | 283 | 20 | ||
| 2024-10-25T23:40 | 3319 | 681 | -1.3 | -11.4 | ||
| 2024-10-25T23:40 | 3432 | 672 | -1.6 | -12.3 | ||
| 2024-10-25T23:41 | 3559 | 661 | 280 | 24 | ||
| 2024-10-25T23:41 | 3570 | 660 | -1.5 | -22.2 | ||
| 2024-10-25T23:41 | 3702 | 649 | 278 | 24 | ||
| 2024-10-25T23:42 | 4048 | 621 | 279 | 24 | ||
| 2024-10-25T23:42 | 4053 | 621 | -5.2 | -24.2 | ||
| 2024-10-25T23:43 | 4289 | 603 | -6.0 | -30.9 | ||
| 2024-10-25T23:43 | 4385 | 595 | 282 | 28 | ||
| 2024-10-25T23:43 | 4437 | 591 | -6.3 | -33.0 | ||
| 2024-10-25T23:43 | 4483 | 588 | -5.9 | -24.2 | ||
| 2024-10-25T23:44 | 4654 | 575 | -7.1 | -26.3 | ||
| 2024-10-25T23:44 | 4718 | 570 | 276 | 28 | ||
| 2024-10-25T23:45 | 5034 | 548 | 278 | 28 | ||
| 2024-10-25T23:46 | 5304 | 528 | -13.1 | -22.3 | ||
| 2024-10-25T23:46 | 5355 | 525 | 281 | 28 | ||
| 2024-10-25T23:47 | 5695 | 502 | 276 | 27 | ||
| 2024-10-25T23:48 | 5899 | 489 | -18.0 | -23.9 | ||
| 2024-10-25T23:48 | 5949 | 485 | 283 | 28 | ||
| 2024-10-25T23:48 | 6096 | 476 | -19.6 | -24.7 | ||
| 2024-10-25T23:49 | 6252 | 466 | -19.7 | -28.4 | ||
| 2024-10-25T23:49 | 6280 | 464 | 280 | 28 | ||
| 2024-10-25T23:50 | 6530 | 449 | -21.8 | -29.4 | ||
| 2024-10-25T23:50 | 6615 | 444 | 280 | 28 | ||
| 2024-10-25T23:50 | 6767 | 434 | 281 | 31 | ||
| 2024-10-25T23:51 | 6866 | 429 | -23.6 | -32.9 | ||
| 2024-10-25T23:51 | 7100 | 415 | 280 | 30 | ||
| 2024-10-25T23:52 | 7349 | 401 | -27.5 | -37.2 | ||
| 2024-10-25T23:52 | 7431 | 396 | 279 | 31 | ||
| 2024-10-25T23:53 | 7745 | 379 | 275 | 32 | ||
| 2024-10-25T23:54 | 7819 | 376 | -31.3 | -40.5 | ||
| 2024-10-25T23:54 | 8032 | 364 | 277 | 33 | ||
| 2024-10-25T23:55 | 8109 | 360 | -33.5 | -43.0 | ||
| 2024-10-25T23:55 | 8324 | 349 | 279 | 33 | ||
| 2024-10-25T23:56 | 8382 | 346 | -35.8 | -45.8 | ||
| 2024-10-25T23:56 | 8634 | 334 | 273 | 32 | ||
| 2024-10-25T23:56 | 8672 | 332 | -38.1 | -49.0 | ||
| 2024-10-25T23:57 | 8895 | 322 | -40.0 | -50.7 | ||
| 2024-10-25T23:57 | 8958 | 319 | 269 | 33 | ||
| 2024-10-25T23:58 | 9278 | 304 | 268 | 31 | ||
| 2024-10-25T23:59 | 9607 | 289 | 267 | 30 | ||
| 2024-10-26T00:00 | 9661 | 287 | -46.1 | |||
| 2024-10-26T00:00 | 9939 | 275 | 268 | 29 | ||
| 2024-10-26T00:01 | 10270 | 262 | 267 | 30 | ||
| 2024-10-26T00:02 | 10604 | 248 | 269 | 32 | ||
| 2024-10-26T00:03 | 10928 | 236 | 265 | 32 | ||
| 2024-10-26T00:04 | 11248 | 224 | 263 | 38 | ||
| 2024-10-26T00:05 | 11298 | 223 | -59.8 | |||
| 2024-10-26T00:05 | 11534 | 214 | 266 | 41 | ||
| 2024-10-26T00:06 | 11802 | 205 | 267 | 41 | ||
| 2024-10-26T00:07 | 11979 | 199 | -61.8 | |||
| 2024-10-26T00:07 | 12088 | 196 | 273 | 42 | ||
| 2024-10-26T00:07 | 12119 | 195 | -60.7 | |||
| 2024-10-26T00:08 | 12188 | 193 | -58.5 | |||
| 2024-10-26T00:08 | 12415 | 186 | 266 | 45 | ||
| 2024-10-26T00:09 | 12548 | 182 | -59.9 | |||
| 2024-10-26T00:09 | 12767 | 176 | 276 | 45 | ||
| 2024-10-26T00:09 | 12789 | 175 | -59.3 | |||
| 2024-10-26T00:10 | 12922 | 172 | -58.5 | |||
| 2024-10-26T00:10 | 13088 | 167 | 267 | 48 | ||
| 2024-10-26T00:11 | 13244 | 163 | -57.3 | |||
| 2024-10-26T00:11 | 13379 | 160 | 269 | 47 | ||
| 2024-10-26T00:12 | 13667 | 152 | 271 | 47 | ||
| 2024-10-26T00:13 | 13851 | 148 | -57.6 | |||
| 2024-10-26T00:13 | 13981 | 145 | 274 | 45 | ||
| 2024-10-26T00:14 | 14321 | 138 | 273 | 41 | ||
| 2024-10-26T00:14 | 14326 | 137 | -57.7 | |||
| 2024-10-26T00:15 | 14661 | 130 | 273 | 42 | ||
| 2024-10-26T00:16 | 14763 | 128 | -58.5 | |||
| 2024-10-26T00:16 | 14905 | 125 | 275 | 43 | ||
| 2024-10-26T00:17 | 15212 | 119 | 278 | 43 | ||
| 2024-10-26T00:18 | 15363 | 117 | -58.9 | |||
| 2024-10-26T00:18 | 15517 | 114 | 282 | 39 | ||
| 2024-10-26T00:19 | 15744 | 110 | -59.3 | |||
| 2024-10-26T00:19 | 15835 | 108 | 280 | 34 | ||
| 2024-10-26T00:20 | 16070 | 104 | -59.3 | |||
| 2024-10-26T00:20 | 16118 | 103 | 272 | 31 | ||
| 2024-10-26T00:21 | 16440 | 98 | 268 | 32 | ||
| 2024-10-26T00:22 | 16773 | 93 | 269 | 29 | ||
| 2024-10-26T00:23 | 17106 | 88 | 261 | 27 | ||
| 2024-10-26T00:23 | 17197 | 87 | -63.2 | |||
| 2024-10-26T00:24 | 17363 | 84 | 265 | 31 | ||
| 2024-10-26T00:25 | 17635 | 81 | 256 | 31 | ||
| 2024-10-26T00:25 | 17822 | 78 | -59.9 | |||
| 2024-10-26T00:26 | 17983 | 76 | 268 | 29 | ||
| 2024-10-26T00:26 | 18007 | 76 | -58.9 | |||
| 2024-10-26T00:27 | 18337 | 72 | 276 | 29 | ||
| 2024-10-26T00:27 | 18496 | 70 | -58.9 | |||
| 2024-10-26T00:28 | 18703 | 68 | 277 | 25 | ||
| 2024-10-26T00:28 | 18733 | 68 | -58.0 | |||
| 2024-10-26T00:28 | 18989 | 65 | 278 | 23 | ||
| 2024-10-26T00:29 | 19227 | 63 | 282 | 27 | ||
| 2024-10-26T00:30 | 19407 | 61 | -58.4 | |||
| 2024-10-26T00:30 | 19523 | 60 | 272 | 17 | ||
| 2024-10-26T00:30 | 19585 | 59 | -57.7 | |||
| 2024-10-26T00:31 | 19814 | 57 | -57.4 | |||
| 2024-10-26T00:31 | 19826 | 57 | 252 | 17 | ||
| 2024-10-26T00:32 | 20095 | 55 | 232 | 14 | ||
| 2024-10-26T00:32 | 20361 | 52 | -59.4 | 223 | 9 | |
| 2024-10-26T11:30 | 18 | 1021 | 10.1 | 6.3 | 250 | 1 |
| 2024-10-26T11:30 | 21 | 1020 | 10.2 | 5.4 | 0 | 0 |
| 2024-10-26T11:30 | 52 | 1017 | 11.5 | 4.7 | ||
| 2024-10-26T11:31 | 225 | 996 | 297 | 2 | ||
| 2024-10-26T11:31 | 248 | 993 | 10.2 | 3.7 | ||
| 2024-10-26T11:31 | 346 | 981 | 9.9 | 3.4 | ||
| 2024-10-26T11:31 | 414 | 973 | 338 | 5 | ||
| 2024-10-26T11:32 | 689 | 942 | 338 | 4 | ||
| 2024-10-26T11:33 | 861 | 922 | 332 | 5 | ||
| 2024-10-26T11:33 | 942 | 913 | 4.6 | 1.3 | ||
| 2024-10-26T11:33 | 1018 | 905 | 4.7 | -4.6 | ||
| 2024-10-26T11:33 | 1041 | 902 | 320 | 4 | ||
| 2024-10-26T11:33 | 1060 | 900 | 5.6 | -15.0 | ||
| 2024-10-26T11:33 | 1158 | 889 | 5 | 3 | ||
| 2024-10-26T11:33 | 1170 | 888 | 5.3 | -27.9 | ||
| 2024-10-26T11:34 | 1304 | 873 | 11 | 2 | ||
| 2024-10-26T11:34 | 1432 | 860 | 3.8 | -37.7 | ||
| 2024-10-26T11:34 | 1521 | 850 | 322 | 3 | ||
| 2024-10-26T11:35 | 1646 | 837 | 3.2 | -38.1 | ||
| 2024-10-26T11:35 | 1706 | 831 | 317 | 8 | ||
| 2024-10-26T11:36 | 1892 | 812 | 3.2 | -48.3 | ||
| 2024-10-26T11:36 | 1977 | 804 | 308 | 8 | ||
| 2024-10-26T11:36 | 2068 | 795 | 2.9 | -48.5 | ||
| 2024-10-26T11:36 | 2124 | 789 | 303 | 10 | ||
| 2024-10-26T11:37 | 2208 | 781 | 3.6 | -27.7 | ||
| 2024-10-26T11:37 | 2352 | 767 | 290 | 12 | ||
| 2024-10-26T11:38 | 2568 | 747 | 2.0 | -19.9 | ||
| 2024-10-26T11:38 | 2629 | 741 | 1.8 | -12.1 | ||
| 2024-10-26T11:38 | 2683 | 736 | 288 | 14 | ||
| 2024-10-26T11:38 | 2767 | 729 | 0.8 | -8.2 | ||
| 2024-10-26T11:39 | 2983 | 709 | -0.4 | -9.3 | ||
| 2024-10-26T11:39 | 2999 | 708 | 290 | 18 | ||
| 2024-10-26T11:40 | 3195 | 691 | -1.2 | -10.3 | ||
| 2024-10-26T11:40 | 3317 | 680 | 292 | 23 | ||
| 2024-10-26T11:40 | 3420 | 671 | -2.6 | -12.6 | ||
| 2024-10-26T11:41 | 3609 | 656 | 281 | 21 | ||
| 2024-10-26T11:41 | 3657 | 652 | -4.3 | -17.5 | ||
| 2024-10-26T11:42 | 3929 | 629 | 276 | 23 | ||
| 2024-10-26T11:42 | 3982 | 625 | -6.2 | -10.8 | ||
| 2024-10-26T11:42 | 4081 | 617 | -6.6 | -10.8 | ||
| 2024-10-26T11:43 | 4188 | 609 | 282 | 25 | ||
| 2024-10-26T11:43 | 4265 | 603 | -7.6 | -12.7 | ||
| 2024-10-26T11:43 | 4303 | 600 | 278 | 24 | ||
| 2024-10-26T11:44 | 4451 | 589 | -8.7 | -14.5 | ||
| 2024-10-26T11:44 | 4503 | 585 | -8.8 | -18.1 | ||
| 2024-10-26T11:44 | 4620 | 576 | 282 | 27 | ||
| 2024-10-26T11:44 | 4673 | 572 | -8.4 | -26.4 | ||
| 2024-10-26T11:45 | 4939 | 553 | 282 | 28 | ||
| 2024-10-26T11:45 | 4961 | 551 | -10.7 | -24.2 | ||
| 2024-10-26T11:46 | 5272 | 529 | 282 | 28 | ||
| 2024-10-26T11:46 | 5319 | 526 | -13.4 | -35.3 | ||
| 2024-10-26T11:47 | 5480 | 515 | -14.5 | -40.5 | ||
| 2024-10-26T11:47 | 5578 | 508 | 277 | 30 | ||
| 2024-10-26T11:48 | 5888 | 488 | 274 | 29 | ||
| 2024-10-26T11:49 | 6083 | 475 | -18.8 | -40.4 | ||
| 2024-10-26T11:49 | 6178 | 469 | -19.8 | -33.7 | ||
| 2024-10-26T11:49 | 6188 | 468 | 277 | 28 | ||
| 2024-10-26T11:50 | 6429 | 453 | -22.1 | -32.1 | ||
| 2024-10-26T11:50 | 6482 | 450 | 276 | 29 | ||
| 2024-10-26T11:51 | 6712 | 436 | -24.2 | -32.5 | ||
| 2024-10-26T11:51 | 6771 | 433 | 275 | 27 | ||
| 2024-10-26T11:51 | 6889 | 426 | -25.4 | -34.6 | ||
| 2024-10-26T11:52 | 6942 | 423 | -25.4 | -38.3 | ||
| 2024-10-26T11:52 | 7062 | 416 | 274 | 27 | ||
| 2024-10-26T11:53 | 7207 | 407 | -26.7 | -55.1 | ||
| 2024-10-26T11:53 | 7279 | 403 | -27.2 | -44.9 | ||
| 2024-10-26T11:53 | 7341 | 400 | -27.8 | -40.1 | ||
| 2024-10-26T11:53 | 7367 | 398 | 271 | 23 | ||
| 2024-10-26T11:53 | 7451 | 394 | -28.7 | -38.6 | ||
| 2024-10-26T11:54 | 7678 | 381 | 269 | 24 | ||
| 2024-10-26T11:54 | 7739 | 378 | -30.8 | -41.0 | ||
| 2024-10-26T11:55 | 7881 | 371 | -31.9 | -50.0 | ||
| 2024-10-26T11:55 | 7990 | 365 | 271 | 26 | ||
| 2024-10-26T11:55 | 8036 | 363 | -32.7 | -49.5 | ||
| 2024-10-26T11:56 | 8145 | 357 | -33.6 | -46.9 | ||
| 2024-10-26T11:56 | 8244 | 352 | -34.3 | -49.1 | ||
| 2024-10-26T11:56 | 8290 | 350 | 276 | 28 | ||
| 2024-10-26T11:57 | 8436 | 342 | -36.1 | -46.6 | ||
| 2024-10-26T11:57 | 8606 | 334 | 276 | 27 | ||
| 2024-10-26T11:57 | 8733 | 328 | -38.9 | -47.9 | ||
| 2024-10-26T11:58 | 8846 | 323 | -40.0 | -47.4 | ||
| 2024-10-26T11:58 | 8928 | 319 | 281 | 28 | ||
| 2024-10-26T11:59 | 9245 | 304 | 278 | 27 | ||
| 2024-10-26T12:00 | 9550 | 290 | 282 | 26 | ||
| 2024-10-26T12:01 | 9848 | 278 | 287 | 27 | ||
| 2024-10-26T12:02 | 10143 | 266 | 286 | 27 | ||
| 2024-10-26T12:03 | 10373 | 256 | -52.3 | |||
| 2024-10-26T12:03 | 10449 | 253 | 282 | 26 | ||
| 2024-10-26T12:04 | 10751 | 242 | 284 | 27 | ||
| 2024-10-26T12:05 | 11075 | 229 | 284 | 28 | ||
| 2024-10-26T12:06 | 11401 | 218 | 282 | 28 | ||
| 2024-10-26T12:07 | 11574 | 212 | 282 | 29 | ||
| 2024-10-26T12:07 | 11599 | 211 | -62.6 | |||
| 2024-10-26T12:07 | 11739 | 206 | 284 | 32 | ||
| 2024-10-26T12:08 | 12024 | 197 | -63.3 | |||
| 2024-10-26T12:08 | 12030 | 197 | 269 | 29 | ||
| 2024-10-26T12:08 | 12206 | 191 | 271 | 42 | ||
| 2024-10-26T12:08 | 12235 | 190 | -59.2 | |||
| 2024-10-26T12:09 | 12531 | 181 | 275 | 39 | ||
| 2024-10-26T12:10 | 12693 | 177 | -57.3 | |||
| 2024-10-26T12:10 | 12797 | 174 | 274 | 42 | ||
| 2024-10-26T12:11 | 12944 | 170 | -57.0 | |||
| 2024-10-26T12:11 | 13089 | 166 | 276 | 42 | ||
| 2024-10-26T12:12 | 13288 | 161 | -56.5 | |||
| 2024-10-26T12:12 | 13391 | 158 | 274 | 42 | ||
| 2024-10-26T12:13 | 13608 | 153 | -57.0 | |||
| 2024-10-26T12:13 | 13709 | 151 | 274 | 41 | ||
| 2024-10-26T12:14 | 13911 | 146 | 269 | 41 | ||
| 2024-10-26T12:14 | 13939 | 145 | -56.4 | |||
| 2024-10-26T12:14 | 14166 | 140 | -57.2 | |||
| 2024-10-26T12:15 | 14235 | 139 | 267 | 49 | ||
| 2024-10-26T12:15 | 14251 | 138 | -56.9 | |||
| 2024-10-26T12:15 | 14385 | 135 | -57.4 | |||
| 2024-10-26T12:15 | 14493 | 133 | 269 | 47 | ||
| 2024-10-26T12:16 | 14812 | 127 | 270 | 47 | ||
| 2024-10-26T12:17 | 14974 | 123 | -59.4 | |||
| 2024-10-26T12:17 | 15139 | 120 | 273 | 45 | ||
| 2024-10-26T12:18 | 15144 | 120 | -59.8 | |||
| 2024-10-26T12:18 | 15457 | 114 | -59.2 | |||
| 2024-10-26T12:18 | 15463 | 114 | 277 | 41 | ||
| 2024-10-26T12:19 | 15778 | 108 | 274 | 42 | ||
| 2024-10-26T12:20 | 15848 | 107 | -59.9 | |||
| 2024-10-26T12:20 | 15995 | 105 | -58.8 | |||
| 2024-10-26T12:20 | 16082 | 103 | -57.8 | |||
| 2024-10-26T12:20 | 16095 | 103 | 274 | 37 | ||
| 2024-10-26T12:22 | 16411 | 98 | 271 | 37 | ||
| 2024-10-26T12:22 | 16539 | 96 | -60.5 | |||
| 2024-10-26T12:22 | 16719 | 93 | 279 | 33 | ||
| 2024-10-26T12:23 | 16904 | 91 | 280 | 36 | ||
| 2024-10-26T12:24 | 17100 | 88 | 279 | 31 | ||
| 2024-10-26T12:24 | 17296 | 85 | -60.1 | |||
| 2024-10-26T12:25 | 17418 | 83 | 273 | 31 | ||
| 2024-10-26T12:25 | 17531 | 82 | -60.2 | |||
| 2024-10-26T12:26 | 17788 | 79 | 293 | 27 | ||
| 2024-10-26T12:26 | 17886 | 77 | -59.2 | |||
| 2024-10-26T12:26 | 17927 | 77 | 285 | 21 | ||
| 2024-10-26T12:27 | 18287 | 73 | 257 | 22 | ||
| 2024-10-26T12:27 | 18338 | 72 | -61.1 | |||
| 2024-10-26T12:28 | 18521 | 70 | -61.5 | |||
| 2024-10-26T12:28 | 18583 | 69 | 268 | 27 | ||
| 2024-10-26T12:28 | 18673 | 68 | -58.8 | |||
| 2024-10-26T12:28 | 18769 | 67 | -57.5 | |||
| 2024-10-26T12:28 | 18786 | 67 | 284 | 22 | ||
| 2024-10-26T12:29 | 19134 | 63 | 276 | 27 | ||
| 2024-10-26T12:30 | 19304 | 62 | -59.8 | |||
| 2024-10-26T12:30 | 19344 | 61 | 283 | 26 | ||
| 2024-10-26T12:31 | 19645 | 58 | -60.0 | |||
| 2024-10-26T12:31 | 19700 | 58 | 278 | 18 | ||
| 2024-10-26T12:32 | 20045 | 55 | 272 | 20 | ||
| 2024-10-26T12:32 | 20081 | 54 | -59.7 | |||
| 2024-10-26T12:33 | 20302 | 53 | 271 | 18 | ||
| 2024-10-26T12:33 | 20457 | 51 | -60.5 | |||
| 2024-10-26T12:34 | 20644 | 50 | 265 | 18 | ||
| 2024-10-26T12:34 | 20888 | 48 | 279 | 20 | ||
| 2024-10-26T12:35 | 21241 | 45 | 268 | 14 | ||
| 2024-10-26T12:35 | 21254 | 45 | -58.0 | |||
| 2024-10-26T12:36 | 21611 | 43 | 276 | 12 | ||
| 2024-10-26T12:37 | 21994 | 40 | -57.9 | 269 | 16 | |
| 2024-10-26T12:38 | 22367 | 38 | 277 | 13 | ||
| 2024-10-26T12:39 | 22439 | 37 | -54.1 | |||
| 2024-10-26T12:39 | 22679 | 36 | 237 | 7 | ||
| 2024-10-26T12:40 | 22862 | 35 | 214 | 9 | ||
| 2024-10-26T12:40 | 23155 | 33 | 203 | 11 | ||
| 2024-10-26T12:41 | 23194 | 33 | -58.7 | |||
| 2024-10-26T12:41 | 23425 | 32 | -56.7 | 274 | 12 | |
| 2024-10-26T12:42 | 23625 | 31 | 295 | 14 | ||
| 2024-10-26T12:42 | 23874 | 30 | -57.3 | |||
| 2024-10-26T12:43 | 24003 | 29 | 293 | 8 | ||
| 2024-10-26T12:43 | 24181 | 28 | 277 | 9 | ||
| 2024-10-26T12:44 | 24339 | 28 | 288 | 8 | ||
| 2024-10-26T12:44 | 24571 | 27 | -55.9 | |||
| 2024-10-26T12:44 | 24622 | 27 | 268 | 9 | ||
| 2024-10-26T12:45 | 24767 | 26 | 257 | 2 | ||
| 2024-10-26T12:45 | 24891 | 25 | -54.8 | |||
| 2024-10-26T12:45 | 24918 | 25 | 185 | 3 | ||
| 2024-10-26T12:46 | 25176 | 24 | 275 | 5 | ||
| 2024-10-26T12:46 | 25254 | 24 | -54.8 | |||
| 2024-10-26T12:46 | 25391 | 24 | 281 | 6 | ||
| 2024-10-26T12:46 | 25501 | 23 | 299 | 6 | ||
| 2024-10-26T12:47 | 25696 | 22 | 291 | 7 | ||
| 2024-10-26T12:47 | 25788 | 22 | -51.0 | |||
| 2024-10-26T12:47 | 25849 | 22 | -51.0 | 290 | 7 | |
| 2024-10-26T23:30 | 18 | 1016 | 7.8 | 3.5 | 100 | 3 |
| 2024-10-26T23:30 | 22 | 1015 | 8.1 | 3.0 | 0 | 0 |
| 2024-10-26T23:30 | 26 | 1015 | 8.4 | 3.0 | ||
| 2024-10-26T23:30 | 38 | 1013 | 7.1 | 1.8 | ||
| 2024-10-26T23:30 | 148 | 1000 | 6.4 | 1.3 | ||
| 2024-10-26T23:31 | 246 | 988 | 5.9 | 1.2 | ||
| 2024-10-26T23:31 | 268 | 985 | 5.8 | 0.8 | ||
| 2024-10-26T23:31 | 279 | 984 | 171 | 3 | ||
| 2024-10-26T23:31 | 318 | 979 | 9.8 | 2.6 | ||
| 2024-10-26T23:31 | 445 | 964 | 159 | 6 | ||
| 2024-10-26T23:31 | 472 | 961 | 9.9 | 4.5 | ||
| 2024-10-26T23:32 | 622 | 944 | 169 | 6 | ||
| 2024-10-26T23:32 | 759 | 928 | 7.9 | 3.6 | ||
| 2024-10-26T23:32 | 819 | 922 | 163 | 5 | ||
| 2024-10-26T23:33 | 1043 | 897 | 186 | 6 | ||
| 2024-10-26T23:34 | 1221 | 877 | 194 | 8 | ||
| 2024-10-26T23:34 | 1392 | 859 | 2.8 | 0.0 | ||
| 2024-10-26T23:34 | 1454 | 852 | 213 | 9 | ||
| 2024-10-26T23:35 | 1548 | 843 | 2.0 | -2.1 | ||
| 2024-10-26T23:35 | 1579 | 839 | 2.5 | -4.9 | ||
| 2024-10-26T23:35 | 1633 | 834 | 4.3 | -18.0 | ||
| 2024-10-26T23:35 | 1744 | 823 | 4.3 | -32.2 | ||
| 2024-10-26T23:35 | 1753 | 822 | 244 | 9 | ||
| 2024-10-26T23:36 | 1919 | 805 | 3.6 | -32.7 | 246 | 7 |
| 2024-10-26T23:36 | 1995 | 798 | 260 | 6 | ||
| 2024-10-26T23:36 | 2077 | 789 | 245 | 8 | ||
| 2024-10-26T23:37 | 2125 | 785 | 2.6 | -19.4 | ||
| 2024-10-26T23:37 | 2251 | 773 | 245 | 10 | ||
| 2024-10-26T23:38 | 2389 | 760 | 1.1 | -18.8 | ||
| 2024-10-26T23:38 | 2493 | 750 | 0.6 | -16.7 | ||
| 2024-10-26T23:38 | 2554 | 744 | 250 | 12 | ||
| 2024-10-26T23:38 | 2576 | 742 | -0.2 | -9.4 | ||
| 2024-10-26T23:39 | 2716 | 729 | -0.9 | -8.6 | ||
| 2024-10-26T23:39 | 2791 | 722 | -1.4 | -8.8 | ||
| 2024-10-26T23:39 | 2880 | 714 | 251 | 13 | ||
| 2024-10-26T23:39 | 2924 | 710 | -1.8 | -13.6 | ||
| 2024-10-26T23:40 | 3071 | 698 | -1.7 | -18.3 | ||
| 2024-10-26T23:40 | 3092 | 696 | 251 | 16 | ||
| 2024-10-26T23:40 | 3230 | 684 | -2.5 | -16.2 | ||
| 2024-10-26T23:40 | 3273 | 680 | -2.5 | -17.3 | ||
| 2024-10-26T23:40 | 3278 | 680 | 255 | 17 | ||
| 2024-10-26T23:40 | 3306 | 677 | -2.3 | -18.8 | ||
| 2024-10-26T23:41 | 3387 | 670 | -2.6 | -6.2 | ||
| 2024-10-26T23:41 | 3605 | 652 | 259 | 19 | ||
| 2024-10-26T23:42 | 3681 | 646 | -4.9 | -7.0 | ||
| 2024-10-26T23:42 | 3937 | 625 | 262 | 20 | ||
| 2024-10-26T23:43 | 4016 | 619 | -7.8 | -9.2 | ||
| 2024-10-26T23:43 | 4118 | 611 | -8.7 | -10.2 | ||
| 2024-10-26T23:43 | 4163 | 607 | -7.8 | -13.0 | ||
| 2024-10-26T23:43 | 4274 | 599 | 262 | 21 | ||
| 2024-10-26T23:44 | 4364 | 592 | -8.5 | -14.9 | ||
| 2024-10-26T23:44 | 4584 | 575 | 260 | 20 | ||
| 2024-10-26T23:44 | 4600 | 574 | -10.3 | -14.2 | ||
| 2024-10-26T23:45 | 4728 | 564 | -11.3 | -13.6 | ||
| 2024-10-26T23:45 | 4845 | 556 | -12.1 | -16.6 | ||
| 2024-10-26T23:45 | 4890 | 553 | 264 | 21 | ||
| 2024-10-26T23:45 | 4911 | 551 | -12.4 | -20.2 | ||
| 2024-10-26T23:46 | 5071 | 540 | -13.8 | -20.7 | ||
| 2024-10-26T23:46 | 5181 | 532 | 258 | 24 | ||
| 2024-10-26T23:47 | 5467 | 512 | -16.9 | -30.8 | ||
| 2024-10-26T23:47 | 5487 | 511 | 264 | 24 | ||
| 2024-10-26T23:47 | 5522 | 508 | -16.9 | -34.1 | ||
| 2024-10-26T23:48 | 5568 | 505 | -17.2 | -28.7 | ||
| 2024-10-26T23:48 | 5739 | 494 | 267 | 28 | ||
| 2024-10-26T23:48 | 5863 | 486 | 264 | 26 | ||
| 2024-10-26T23:49 | 6147 | 467 | -22.7 | -29.7 | ||
| 2024-10-26T23:49 | 6205 | 464 | 260 | 27 | ||
| 2024-10-26T23:50 | 6542 | 443 | -25.9 | -29.6 | ||
| 2024-10-26T23:50 | 6566 | 441 | 261 | 29 | ||
| 2024-10-26T23:51 | 6907 | 421 | 267 | 29 | ||
| 2024-10-26T23:51 | 6913 | 421 | -28.2 | -31.0 | ||
| 2024-10-26T23:52 | 7077 | 411 | -29.1 | -31.9 | ||
| 2024-10-26T23:52 | 7205 | 404 | -29.7 | -32.3 | ||
| 2024-10-26T23:52 | 7244 | 401 | 265 | 29 | ||
| 2024-10-26T23:53 | 7372 | 394 | -30.3 | -32.8 | ||
| 2024-10-26T23:53 | 7582 | 383 | 264 | 29 | ||
| 2024-10-26T23:54 | 7674 | 378 | -32.3 | -34.7 | ||
| 2024-10-26T23:54 | 7759 | 373 | -33.2 | -36.4 | ||
| 2024-10-26T23:54 | 7921 | 365 | 265 | 30 | ||
| 2024-10-26T23:55 | 8162 | 352 | -36.4 | -39.9 | ||
| 2024-10-26T23:55 | 8250 | 348 | 263 | 29 | ||
| 2024-10-26T23:56 | 8402 | 340 | -38.5 | -41.3 | ||
| 2024-10-26T23:56 | 8467 | 337 | -38.5 | -47.3 | ||
| 2024-10-26T23:56 | 8513 | 335 | -38.6 | -49.1 | ||
| 2024-10-26T23:56 | 8559 | 333 | 268 | 29 | ||
| 2024-10-26T23:57 | 8600 | 331 | -39.2 | -46.3 | ||
| 2024-10-26T23:57 | 8685 | 326 | -40.0 | -45.9 | ||
| 2024-10-26T23:57 | 8875 | 317 | 272 | 30 | ||
| 2024-10-26T23:58 | 9166 | 304 | 272 | 31 | ||
| 2024-10-26T23:59 | 9458 | 291 | 273 | 33 | ||
| 2024-10-27T00:00 | 9597 | 285 | -48.2 | |||
| 2024-10-27T00:00 | 9755 | 278 | 275 | 35 | ||
| 2024-10-27T00:01 | 10066 | 265 | 276 | 38 | ||
| 2024-10-27T00:02 | 10381 | 253 | 279 | 41 | ||
| 2024-10-27T00:03 | 10692 | 240 | 280 | 43 | ||
| 2024-10-27T00:04 | 10936 | 231 | -59.1 | |||
| 2024-10-27T00:04 | 10957 | 231 | 279 | 42 | ||
| 2024-10-27T00:05 | 11092 | 226 | 278 | 40 | ||
| 2024-10-27T00:05 | 11313 | 218 | 282 | 40 | ||
| 2024-10-27T00:06 | 11385 | 215 | -58.8 | |||
| 2024-10-27T00:06 | 11524 | 211 | -58.1 | |||
| 2024-10-27T00:06 | 11608 | 208 | 279 | 40 | ||
| 2024-10-27T00:07 | 11689 | 205 | -58.1 | |||
| 2024-10-27T00:07 | 11904 | 198 | -59.2 | |||
| 2024-10-27T00:07 | 11929 | 197 | 274 | 34 | ||
| 2024-10-27T00:08 | 12109 | 192 | -57.6 | |||
| 2024-10-27T00:08 | 12232 | 188 | 271 | 34 | ||
| 2024-10-27T00:09 | 12331 | 185 | -58.8 | |||
| 2024-10-27T00:09 | 12476 | 181 | -59.5 | |||
| 2024-10-27T00:09 | 12542 | 179 | 269 | 36 | ||
| 2024-10-27T00:10 | 12649 | 176 | -59.7 | |||
| 2024-10-27T00:10 | 12754 | 173 | 274 | 38 | ||
| 2024-10-27T00:11 | 12934 | 168 | 273 | 38 | ||
| 2024-10-27T00:11 | 12989 | 167 | -59.0 | |||
| 2024-10-27T00:12 | 13238 | 160 | 276 | 38 | ||
| 2024-10-27T00:12 | 13430 | 155 | -58.6 | |||
| 2024-10-27T00:13 | 13559 | 152 | 279 | 35 | ||
| 2024-10-27T00:13 | 13771 | 147 | -58.9 | |||
| 2024-10-27T00:14 | 13888 | 144 | 283 | 34 | ||
| 2024-10-27T00:14 | 14133 | 139 | -59.9 | |||
| 2024-10-27T00:15 | 14215 | 137 | 281 | 31 | ||
| 2024-10-27T00:15 | 14423 | 133 | -60.2 | |||
| 2024-10-27T00:16 | 14541 | 130 | 269 | 33 | ||
| 2024-10-27T00:16 | 14692 | 127 | -59.4 | |||
| 2024-10-27T00:17 | 14864 | 124 | 278 | 34 | ||
| 2024-10-27T00:17 | 15005 | 121 | -58.3 | |||
| 2024-10-27T00:17 | 15110 | 119 | 274 | 28 | ||
| 2024-10-27T00:18 | 15430 | 113 | 271 | 31 | ||
| 2024-10-27T00:19 | 15511 | 111 | -59.1 | |||
| 2024-10-27T00:19 | 15634 | 109 | 275 | 34 | ||
| 2024-10-27T00:19 | 15747 | 107 | -58.4 | |||
| 2024-10-27T00:19 | 15768 | 107 | 277 | 32 | ||
| 2024-10-27T00:20 | 15900 | 105 | -58.4 | |||
| 2024-10-27T00:20 | 16027 | 103 | 283 | 36 | ||
| 2024-10-27T00:20 | 16055 | 102 | -58.3 | |||
| 2024-10-27T00:21 | 16171 | 100 | -58.0 | |||
| 2024-10-27T00:21 | 16302 | 98 | 278 | 26 | ||
| 2024-10-27T00:21 | 16400 | 97 | -57.9 | |||
| 2024-10-27T00:22 | 16613 | 94 | 281 | 25 | ||
| 2024-10-27T00:22 | 16659 | 93 | -56.8 | |||
| 2024-10-27T00:23 | 16961 | 89 | 271 | 22 | ||
| 2024-10-27T00:24 | 17188 | 85 | -60.0 | |||
| 2024-10-27T00:24 | 17322 | 84 | 258 | 27 | ||
| 2024-10-27T00:25 | 17489 | 81 | -60.2 | |||
| 2024-10-27T00:25 | 17504 | 81 | 266 | 26 | ||
| 2024-10-27T00:25 | 17655 | 79 | -59.1 | |||
| 2024-10-27T00:26 | 17853 | 77 | 275 | 24 | ||
| 2024-10-27T00:26 | 18069 | 74 | 263 | 19 | ||
| 2024-10-27T00:26 | 18154 | 73 | -60.5 | |||
| 2024-10-27T00:27 | 18432 | 70 | 266 | 22 | ||
| 2024-10-27T00:28 | 18731 | 67 | -61.2 | 280 | 24 | |
| 2024-10-27T00:29 | 18913 | 65 | -60.7 | |||
| 2024-10-27T00:29 | 19020 | 64 | -60.2 | |||
| 2024-10-27T00:29 | 19028 | 64 | 293 | 21 | ||
| 2024-10-27T00:30 | 19369 | 60 | 286 | 17 | ||
| 2024-10-27T00:30 | 19578 | 58 | -60.8 | |||
| 2024-10-27T00:31 | 19713 | 57 | 278 | 19 | ||
| 2024-10-27T00:31 | 19722 | 57 | -58.3 | |||
| 2024-10-27T00:32 | 20027 | 54 | -57.8 | |||
| 2024-10-27T00:32 | 20087 | 54 | 281 | 22 | ||
| 2024-10-27T00:32 | 20294 | 52 | -56.1 | |||
| 2024-10-27T00:33 | 20451 | 51 | 284 | 16 | ||
| 2024-10-27T00:33 | 20590 | 50 | -56.3 | |||
| 2024-10-27T00:34 | 20823 | 48 | 255 | 16 | ||
| 2024-10-27T00:34 | 20863 | 47 | -57.3 | |||
| 2024-10-27T00:35 | 21153 | 45 | 277 | 12 | ||
| 2024-10-27T00:35 | 21407 | 44 | 268 | 10 | ||
| 2024-10-27T00:35 | 21508 | 43 | -59.5 | |||
| 2024-10-27T00:36 | 21804 | 41 | 268 | 14 | ||
| 2024-10-27T00:37 | 22085 | 39 | -61.5 | |||
| 2024-10-27T00:37 | 22213 | 38 | 273 | 13 | ||
| 2024-10-27T00:38 | 22463 | 37 | 282 | 15 | ||
| 2024-10-27T00:38 | 22580 | 36 | 291 | 19 | ||
| 2024-10-27T00:38 | 22633 | 36 | -59.7 | |||
| 2024-10-27T00:39 | 22759 | 35 | -56.8 | |||
| 2024-10-27T00:39 | 22833 | 35 | 288 | 15 | ||
| 2024-10-27T00:39 | 22962 | 34 | 281 | 19 | ||
| 2024-10-27T00:40 | 23075 | 33 | -54.3 | |||
| 2024-10-27T00:40 | 23233 | 33 | 294 | 11 | ||
| 2024-10-27T00:40 | 23393 | 32 | 279 | 4 | ||
| 2024-10-27T00:41 | 23456 | 31 | -52.3 | |||
| 2024-10-27T00:41 | 23534 | 31 | 236 | 4 | ||
| 2024-10-27T00:41 | 23641 | 31 | 226 | 4 | ||
| 2024-10-27T00:41 | 23750 | 30 | 187 | 5 | ||
| 2024-10-27T00:42 | 24165 | 28 | 249 | 7 | ||
| 2024-10-27T00:42 | 24279 | 28 | 278 | 9 | ||
| 2024-10-27T00:43 | 24302 | 28 | -56.7 | |||
| 2024-10-27T00:43 | 24392 | 27 | 261 | 7 | ||
| 2024-10-27T00:43 | 24535 | 27 | 212 | 5 | ||
| 2024-10-27T00:44 | 24685 | 26 | 240 | 8 | ||
| 2024-10-27T00:44 | 24910 | 25 | -55.3 | |||
| 2024-10-27T00:44 | 24983 | 25 | 273 | 12 | ||
| 2024-10-27T00:45 | 25168 | 24 | -55.1 | |||
| 2024-10-27T00:45 | 25195 | 24 | -54.8 | 264 | 15 | |
| 2024-10-27T11:30 | 18 | 1006 | 12.2 | 10.9 | 20 | 1 |
| 2024-10-27T11:30 | 22 | 1005 | 12.4 | 10.6 | 0 | 0 |
| 2024-10-27T11:30 | 71 | 999 | 12.9 | 10.1 | ||
| 2024-10-27T11:31 | 196 | 985 | 13.1 | 10.5 | ||
| 2024-10-27T11:31 | 339 | 968 | 99 | 2 | ||
| 2024-10-27T11:31 | 411 | 960 | 12.4 | 7.5 | ||
| 2024-10-27T11:32 | 606 | 938 | 11.0 | 6.3 | ||
| 2024-10-27T11:32 | 662 | 931 | 220 | 3 | ||
| 2024-10-27T11:32 | 825 | 913 | 205 | 5 | ||
| 2024-10-27T11:33 | 1148 | 878 | 206 | 8 | ||
| 2024-10-27T11:34 | 1277 | 865 | 5.7 | 3.4 | ||
| 2024-10-27T11:34 | 1496 | 842 | 216 | 7 | ||
| 2024-10-27T11:35 | 1607 | 830 | 2.8 | 2.1 | ||
| 2024-10-27T11:35 | 1910 | 800 | 220 | 13 | ||
| 2024-10-27T11:36 | 2006 | 790 | -0.4 | -1.8 | ||
| 2024-10-27T11:36 | 2073 | 784 | -0.8 | -3.0 | ||
| 2024-10-27T11:36 | 2085 | 782 | 235 | 11 | ||
| 2024-10-27T11:36 | 2115 | 779 | -1.1 | -9.7 | ||
| 2024-10-27T11:36 | 2158 | 775 | 1.2 | -6.6 | ||
| 2024-10-27T11:36 | 2222 | 769 | 2.2 | -4.5 | ||
| 2024-10-27T11:36 | 2302 | 762 | 250 | 11 | ||
| 2024-10-27T11:37 | 2365 | 756 | 1.6 | -3.3 | ||
| 2024-10-27T11:37 | 2537 | 740 | 0.2 | -4.6 | ||
| 2024-10-27T11:37 | 2663 | 728 | 258 | 14 | ||
| 2024-10-27T11:38 | 2863 | 710 | -2.8 | -5.1 | ||
| 2024-10-27T11:38 | 2895 | 707 | 263 | 14 | ||
| 2024-10-27T11:38 | 3093 | 690 | -4.3 | -7.4 | ||
| 2024-10-27T11:39 | 3229 | 678 | 241 | 16 | ||
| 2024-10-27T11:39 | 3280 | 674 | -4.4 | -11.6 | ||
| 2024-10-27T11:39 | 3384 | 665 | -5.1 | -13.4 | ||
| 2024-10-27T11:40 | 3574 | 649 | 255 | 19 | ||
| 2024-10-27T11:40 | 3653 | 642 | -7.0 | -11.5 | ||
| 2024-10-27T11:40 | 3733 | 636 | -7.6 | -12.7 | ||
| 2024-10-27T11:41 | 3911 | 621 | -7.8 | -21.3 | ||
| 2024-10-27T11:41 | 3959 | 617 | 248 | 20 | ||
| 2024-10-27T11:41 | 3979 | 616 | -8.1 | -19.9 | ||
| 2024-10-27T11:41 | 4099 | 606 | -9.0 | -18.5 | ||
| 2024-10-27T11:41 | 4206 | 598 | -9.5 | -30.7 | ||
| 2024-10-27T11:42 | 4330 | 589 | -10.3 | -32.8 | ||
| 2024-10-27T11:42 | 4342 | 588 | 249 | 25 | ||
| 2024-10-27T11:42 | 4435 | 581 | -11.2 | -26.9 | ||
| 2024-10-27T11:42 | 4514 | 575 | -11.8 | -25.9 | ||
| 2024-10-27T11:42 | 4626 | 566 | -12.5 | -31.4 | ||
| 2024-10-27T11:42 | 4644 | 565 | 254 | 28 | ||
| 2024-10-27T11:43 | 4736 | 558 | -13.3 | -28.8 | 251 | 29 |
| 2024-10-27T11:43 | 4852 | 550 | 249 | 32 | ||
| 2024-10-27T11:43 | 4870 | 548 | -14.4 | -24.0 | ||
| 2024-10-27T11:43 | 4998 | 539 | -15.6 | -22.8 | ||
| 2024-10-27T11:44 | 5085 | 533 | -16.5 | -23.2 | ||
| 2024-10-27T11:44 | 5144 | 529 | -17.1 | -23.4 | ||
| 2024-10-27T11:44 | 5208 | 524 | 248 | 33 | ||
| 2024-10-27T11:44 | 5242 | 522 | -18.0 | -22.1 | ||
| 2024-10-27T11:45 | 5506 | 504 | -19.4 | -22.3 | ||
| 2024-10-27T11:45 | 5554 | 501 | 250 | 31 | ||
| 2024-10-27T11:46 | 5740 | 488 | 251 | 33 | ||
| 2024-10-27T11:46 | 5940 | 475 | -23.2 | -25.4 | ||
| 2024-10-27T11:46 | 5975 | 473 | -23.4 | -29.9 | ||
| 2024-10-27T11:46 | 6020 | 470 | -22.8 | -47.1 | ||
| 2024-10-27T11:47 | 6087 | 466 | 251 | 33 | ||
| 2024-10-27T11:47 | 6198 | 459 | -23.7 | -54.7 | ||
| 2024-10-27T11:48 | 6420 | 445 | 254 | 33 | ||
| 2024-10-27T11:48 | 6526 | 438 | -24.3 | -57.5 | ||
| 2024-10-27T11:48 | 6713 | 427 | 255 | 33 | ||
| 2024-10-27T11:49 | 6890 | 417 | -26.2 | -54.8 | ||
| 2024-10-27T11:49 | 7010 | 410 | 253 | 38 | ||
| 2024-10-27T11:49 | 7040 | 408 | -26.9 | -55.3 | ||
| 2024-10-27T11:50 | 7168 | 401 | -27.4 | -57.5 | ||
| 2024-10-27T11:50 | 7378 | 389 | 254 | 36 | ||
| 2024-10-27T11:51 | 7500 | 383 | -29.7 | -57.4 | ||
| 2024-10-27T11:51 | 7639 | 375 | 256 | 37 | ||
| 2024-10-27T11:52 | 7912 | 361 | 256 | 41 | ||
| 2024-10-27T11:53 | 8275 | 343 | 263 | 42 | ||
| 2024-10-27T11:53 | 8324 | 341 | -35.6 | -57.3 | ||
| 2024-10-27T11:53 | 8436 | 335 | -35.1 | -52.6 | ||
| 2024-10-27T11:53 | 8503 | 332 | 265 | 48 | ||
| 2024-10-27T11:54 | 8552 | 330 | -36.0 | -48.0 | ||
| 2024-10-27T11:54 | 8843 | 316 | 265 | 46 | ||
| 2024-10-27T11:55 | 8878 | 314 | -39.1 | -47.0 | ||
| 2024-10-27T11:55 | 8942 | 311 | -39.7 | -44.4 | ||
| 2024-10-27T11:55 | 8983 | 310 | -40.0 | -44.8 | ||
| 2024-10-27T11:55 | 9084 | 305 | 264 | 48 | ||
| 2024-10-27T11:56 | 9431 | 290 | 268 | 53 | ||
| 2024-10-27T11:57 | 9765 | 276 | 264 | 53 | ||
| 2024-10-27T11:58 | 10008 | 266 | 261 | 55 | ||
| 2024-10-27T11:58 | 10229 | 257 | -49.6 | |||
| 2024-10-27T11:59 | 10367 | 251 | 261 | 57 | ||
| 2024-10-27T12:00 | 10737 | 237 | 263 | 57 | ||
| 2024-10-27T12:00 | 10974 | 229 | -56.3 | |||
| 2024-10-27T12:01 | 11081 | 225 | 260 | 53 | ||
| 2024-10-27T12:01 | 11204 | 221 | -55.3 | |||
| 2024-10-27T12:02 | 11334 | 216 | -54.5 | |||
| 2024-10-27T12:02 | 11413 | 214 | 267 | 51 | ||
| 2024-10-27T12:03 | 11741 | 203 | 271 | 46 | ||
| 2024-10-27T12:04 | 12005 | 195 | -55.0 | |||
| 2024-10-27T12:04 | 12079 | 192 | 273 | 45 | ||
| 2024-10-27T12:05 | 12414 | 183 | 271 | 44 | ||
| 2024-10-27T12:05 | 12634 | 176 | 273 | 43 | ||
| 2024-10-27T12:06 | 12953 | 168 | 268 | 40 | ||
| 2024-10-27T12:07 | 13039 | 165 | -58.1 | |||
| 2024-10-27T12:07 | 13274 | 159 | 270 | 38 | ||
| 2024-10-27T12:08 | 13324 | 158 | -58.6 | |||
| 2024-10-27T12:08 | 13615 | 151 | 269 | 40 | ||
| 2024-10-27T12:09 | 13773 | 147 | 268 | 38 | ||
| 2024-10-27T12:10 | 14030 | 141 | -59.8 | |||
| 2024-10-27T12:10 | 14036 | 141 | 267 | 38 | ||
| 2024-10-27T12:11 | 14333 | 134 | 271 | 40 | ||
| 2024-10-27T12:11 | 14458 | 132 | -60.0 | |||
| 2024-10-27T12:12 | 14648 | 128 | 275 | 37 | ||
| 2024-10-27T12:12 | 14658 | 128 | -59.5 | |||
| 2024-10-27T12:12 | 14933 | 122 | 270 | 39 | ||
| 2024-10-27T12:13 | 15259 | 116 | -60.3 | |||
| 2024-10-27T12:13 | 15283 | 116 | 284 | 36 | ||
| 2024-10-27T12:14 | 15602 | 110 | -61.0 | |||
| 2024-10-27T12:14 | 15612 | 110 | 279 | 35 | ||
| 2024-10-27T12:15 | 15803 | 106 | -61.2 | |||
| 2024-10-27T12:15 | 15908 | 104 | 271 | 29 | ||
| 2024-10-27T12:16 | 15939 | 104 | -60.0 | |||
| 2024-10-27T12:16 | 16134 | 101 | -59.8 | |||
| 2024-10-27T12:16 | 16152 | 100 | 271 | 32 | ||
| 2024-10-27T12:17 | 16419 | 96 | 270 | 27 | ||
| 2024-10-27T12:18 | 16820 | 90 | 264 | 28 | ||
| 2024-10-27T12:19 | 17108 | 86 | 262 | 29 | ||
| 2024-10-27T12:20 | 17463 | 81 | 264 | 31 | ||
| 2024-10-27T12:20 | 17628 | 79 | -59.0 | |||
| 2024-10-27T12:20 | 17676 | 79 | 274 | 27 | ||
| 2024-10-27T12:21 | 17959 | 75 | 276 | 32 | ||
| 2024-10-27T12:22 | 18274 | 72 | 283 | 23 | ||
| 2024-10-27T12:22 | 18300 | 71 | -60.4 | |||
| 2024-10-27T12:22 | 18434 | 70 | 274 | 23 | ||
| 2024-10-27T12:22 | 18451 | 70 | -59.2 | |||
| 2024-10-27T12:23 | 18552 | 68 | 270 | 19 | ||
| 2024-10-27T12:23 | 18681 | 67 | -59.4 | |||
| 2024-10-27T12:23 | 18841 | 65 | 261 | 22 | ||
| 2024-10-27T12:24 | 18989 | 64 | -59.0 | |||
| 2024-10-27T12:24 | 19048 | 63 | 260 | 22 | ||
| 2024-10-27T12:24 | 19167 | 62 | -57.2 | |||
| 2024-10-27T12:25 | 19374 | 60 | -57.7 | |||
| 2024-10-27T12:25 | 19383 | 60 | 275 | 24 | ||
| 2024-10-27T12:26 | 19708 | 57 | 284 | 20 | ||
| 2024-10-27T12:26 | 19865 | 56 | 285 | 19 | ||
| 2024-10-27T12:27 | 20070 | 54 | 272 | 15 | ||
| 2024-10-27T12:27 | 20107 | 53 | -59.6 | |||
| 2024-10-27T12:28 | 20444 | 51 | 259 | 19 | ||
| 2024-10-27T12:29 | 20647 | 49 | 244 | 20 | ||
| 2024-10-27T12:29 | 20662 | 49 | -58.5 | |||
| 2024-10-27T12:30 | 21005 | 46 | 266 | 26 | ||
| 2024-10-27T12:30 | 21296 | 44 | 291 | 24 | ||
| 2024-10-27T12:31 | 21592 | 42 | 273 | 15 | ||
| 2024-10-27T12:32 | 21824 | 41 | 286 | 14 | ||
| 2024-10-27T12:32 | 21922 | 40 | -53.9 | |||
| 2024-10-27T12:33 | 22148 | 39 | 279 | 8 | ||
| 2024-10-27T12:33 | 22367 | 37 | 291 | 6 | ||
| 2024-10-27T12:34 | 22752 | 35 | 264 | 9 | ||
| 2024-10-27T12:34 | 22895 | 34 | -58.2 | |||
| 2024-10-27T12:35 | 22911 | 34 | 250 | 10 | ||
| 2024-10-27T12:35 | 23157 | 33 | -55.8 | |||
| 2024-10-27T12:36 | 23332 | 32 | 283 | 12 | ||
| 2024-10-27T12:36 | 23597 | 31 | 263 | 11 | ||
| 2024-10-27T12:37 | 23804 | 30 | 256 | 13 | ||
| 2024-10-27T12:37 | 23976 | 29 | -57.5 | |||
| 2024-10-27T12:38 | 24175 | 28 | 256 | 13 | ||
| 2024-10-27T12:38 | 24404 | 27 | -58.1 | |||
| 2024-10-27T12:38 | 24475 | 27 | 281 | 13 | ||
| 2024-10-27T12:39 | 24523 | 27 | -54.1 | |||
| 2024-10-27T12:39 | 24695 | 26 | 297 | 5 | ||
| 2024-10-27T12:39 | 24846 | 25 | 275 | 4 | ||
| 2024-10-27T12:40 | 25002 | 25 | 284 | 5 | ||
| 2024-10-27T12:40 | 25103 | 24 | -53.5 | |||
| 2024-10-27T12:41 | 25321 | 24 | 247 | 8 | ||
| 2024-10-27T12:41 | 25514 | 23 | -51.8 | |||
| 2024-10-27T12:41 | 25572 | 23 | 263 | 8 | ||
| 2024-10-27T12:42 | 25716 | 22 | 247 | 8 | ||
| 2024-10-27T12:42 | 25958 | 21 | 277 | 2 | ||
| 2024-10-27T12:43 | 26083 | 21 | -50.9 | |||
| 2024-10-27T12:43 | 26240 | 20 | 237 | 4 | ||
| 2024-10-27T12:43 | 26397 | 20 | 264 | 5 | ||
| 2024-10-27T12:44 | 26526 | 20 | -52.4 | 279 | 7 | |
| 2024-10-27T23:30 | 18 | 1005 | 10.9 | 7.4 | 340 | 7 |
| 2024-10-27T23:30 | 24 | 1005 | 10.6 | 6.5 | 357 | 6 |
| 2024-10-27T23:30 | 58 | 1001 | 320 | 8 | ||
| 2024-10-27T23:30 | 114 | 994 | 9.8 | 7.1 | ||
| 2024-10-27T23:31 | 242 | 979 | 338 | 14 | ||
| 2024-10-27T23:32 | 533 | 945 | 339 | 15 | ||
| 2024-10-27T23:32 | 664 | 930 | 4.6 | 4.0 | ||
| 2024-10-27T23:33 | 855 | 908 | 334 | 18 | ||
| 2024-10-27T23:34 | 1223 | 868 | 327 | 15 | ||
| 2024-10-27T23:34 | 1275 | 862 | 0.9 | 0.5 | ||
| 2024-10-27T23:34 | 1469 | 841 | -0.2 | -0.9 | ||
| 2024-10-27T23:35 | 1550 | 833 | 326 | 16 | ||
| 2024-10-27T23:35 | 1615 | 826 | -0.9 | -1.5 | ||
| 2024-10-27T23:35 | 1702 | 817 | -1.4 | -1.7 | ||
| 2024-10-27T23:36 | 1788 | 809 | 316 | 17 | ||
| 2024-10-27T23:36 | 1988 | 788 | -2.7 | -2.8 | ||
| 2024-10-27T23:37 | 2078 | 779 | 308 | 17 | ||
| 2024-10-27T23:37 | 2102 | 777 | -4.0 | -4.3 | ||
| 2024-10-27T23:37 | 2318 | 756 | -5.0 | -5.4 | ||
| 2024-10-27T23:38 | 2371 | 751 | 306 | 15 | ||
| 2024-10-27T23:38 | 2424 | 746 | -5.5 | -6.7 | ||
| 2024-10-27T23:38 | 2489 | 740 | -6.1 | -12.2 | ||
| 2024-10-27T23:38 | 2550 | 734 | -6.7 | -16.7 | ||
| 2024-10-27T23:38 | 2581 | 731 | 271 | 15 | ||
| 2024-10-27T23:39 | 2647 | 725 | -7.4 | -19.0 | ||
| 2024-10-27T23:39 | 2784 | 712 | -6.4 | -22.8 | ||
| 2024-10-27T23:39 | 2829 | 708 | 266 | 18 | ||
| 2024-10-27T23:40 | 2930 | 699 | 270 | 20 | ||
| 2024-10-27T23:41 | 3085 | 685 | -5.4 | -20.7 | ||
| 2024-10-27T23:41 | 3183 | 677 | 260 | 21 | ||
| 2024-10-27T23:41 | 3313 | 666 | -5.5 | -21.6 | ||
| 2024-10-27T23:42 | 3452 | 654 | 266 | 23 | ||
| 2024-10-27T23:42 | 3566 | 644 | -6.8 | -24.5 | ||
| 2024-10-27T23:43 | 3699 | 634 | -7.8 | -26.4 | ||
| 2024-10-27T23:43 | 3744 | 630 | 263 | 24 | ||
| 2024-10-27T23:43 | 3830 | 623 | -8.5 | -24.2 | ||
| 2024-10-27T23:44 | 4012 | 609 | -9.4 | -25.0 | ||
| 2024-10-27T23:44 | 4054 | 605 | 261 | 25 | ||
| 2024-10-27T23:45 | 4368 | 581 | -11.4 | -26.3 | ||
| 2024-10-27T23:45 | 4374 | 581 | 262 | 26 | ||
| 2024-10-27T23:46 | 4686 | 557 | -13.8 | -26.6 | ||
| 2024-10-27T23:46 | 4703 | 556 | 259 | 27 | ||
| 2024-10-27T23:46 | 4874 | 544 | -15.5 | -24.8 | ||
| 2024-10-27T23:47 | 5066 | 530 | 258 | 26 | ||
| 2024-10-27T23:48 | 5416 | 506 | 258 | 28 | ||
| 2024-10-27T23:48 | 5633 | 491 | -22.0 | -30.7 | ||
| 2024-10-27T23:49 | 5793 | 481 | 260 | 30 | ||
| 2024-10-27T23:49 | 5986 | 468 | -24.9 | -34.1 | ||
| 2024-10-27T23:50 | 6194 | 455 | -26.2 | -38.7 | 256 | 33 |
| 2024-10-27T23:50 | 6334 | 446 | -26.7 | -41.6 | ||
| 2024-10-27T23:50 | 6454 | 439 | -27.1 | -43.3 | ||
| 2024-10-27T23:51 | 6591 | 430 | 257 | 35 | ||
| 2024-10-27T23:52 | 6909 | 412 | -30.0 | -46.7 | ||
| 2024-10-27T23:52 | 7001 | 406 | 256 | 37 | ||
| 2024-10-27T23:53 | 7400 | 384 | -33.0 | -50.3 | ||
| 2024-10-27T23:53 | 7421 | 383 | 259 | 37 | ||
| 2024-10-27T23:53 | 7644 | 371 | -34.3 | -52.6 | ||
| 2024-10-27T23:54 | 7848 | 360 | 262 | 39 | ||
| 2024-10-27T23:54 | 8044 | 350 | -37.8 | -53.9 | ||
| 2024-10-27T23:55 | 8260 | 339 | 262 | 42 | ||
| 2024-10-27T23:55 | 8380 | 333 | -40.0 | -56.8 | ||
| 2024-10-27T23:56 | 8649 | 320 | 260 | 44 | ||
| 2024-10-27T23:57 | 8981 | 305 | -44.5 | |||
| 2024-10-27T23:57 | 9006 | 304 | 257 | 45 | ||
| 2024-10-27T23:57 | 9215 | 294 | 256 | 48 | ||
| 2024-10-27T23:58 | 9418 | 286 | -46.7 | |||
| 2024-10-27T23:58 | 9611 | 277 | 257 | 49 | ||
| 2024-10-27T23:58 | 9631 | 277 | -45.4 | |||
| 2024-10-27T23:59 | 9766 | 271 | 257 | 52 | ||
| 2024-10-27T23:59 | 9874 | 267 | -45.3 | |||
| 2024-10-28T00:00 | 10151 | 256 | 258 | 47 | ||
| 2024-10-28T00:00 | 10253 | 252 | -47.2 | |||
| 2024-10-28T00:01 | 10534 | 241 | 255 | 45 | ||
| 2024-10-28T00:01 | 10547 | 241 | -47.6 | |||
| 2024-10-28T00:01 | 10714 | 235 | -48.2 | 260 | 49 | |
| 2024-10-28T00:02 | 10872 | 229 | 261 | 43 | ||
| 2024-10-28T00:02 | 10919 | 228 | -47.3 | |||
| 2024-10-28T00:02 | 11143 | 220 | 258 | 46 | ||
| 2024-10-28T00:02 | 11232 | 217 | -48.6 | |||
| 2024-10-28T00:03 | 11332 | 214 | 260 | 50 | ||
| 2024-10-28T00:04 | 11732 | 201 | 259 | 49 | ||
| 2024-10-28T00:04 | 11962 | 194 | 258 | 46 | ||
| 2024-10-28T00:05 | 12116 | 190 | -51.0 | |||
| 2024-10-28T00:05 | 12197 | 187 | 254 | 43 | ||
| 2024-10-28T00:06 | 12504 | 179 | 256 | 45 | ||
| 2024-10-28T00:06 | 12664 | 174 | -54.2 | |||
| 2024-10-28T00:06 | 12690 | 174 | 259 | 45 | ||
| 2024-10-28T00:07 | 12952 | 167 | -55.3 | |||
| 2024-10-28T00:07 | 13019 | 165 | 259 | 44 | ||
| 2024-10-28T00:08 | 13247 | 159 | 254 | 44 | ||
| 2024-10-28T00:09 | 13549 | 152 | 257 | 50 | ||
| 2024-10-28T00:09 | 13568 | 151 | -55.6 | |||
| 2024-10-28T00:09 | 13693 | 148 | -55.0 | |||
| 2024-10-28T00:10 | 13850 | 145 | -54.8 | |||
| 2024-10-28T00:10 | 13867 | 144 | 268 | 45 | ||
| 2024-10-28T00:10 | 14067 | 140 | -55.0 | |||
| 2024-10-28T00:11 | 14234 | 136 | 269 | 42 | ||
| 2024-10-28T00:11 | 14503 | 131 | 271 | 37 | ||
| 2024-10-28T00:12 | 14547 | 130 | -57.1 | |||
| 2024-10-28T00:12 | 14743 | 126 | -57.7 | |||
| 2024-10-28T00:12 | 14940 | 122 | 267 | 38 | ||
| 2024-10-28T00:13 | 15065 | 119 | -59.0 | |||
| 2024-10-28T00:13 | 15313 | 115 | 264 | 36 | ||
| 2024-10-28T00:14 | 15510 | 111 | -60.0 | |||
| 2024-10-28T00:14 | 15603 | 110 | 266 | 39 | ||
| 2024-10-28T00:15 | 15731 | 107 | -60.5 | |||
| 2024-10-28T00:15 | 15768 | 107 | 267 | 36 | ||
| 2024-10-28T00:15 | 15907 | 104 | 263 | 38 | ||
| 2024-10-28T00:15 | 15967 | 103 | -60.1 | |||
| 2024-10-28T00:16 | 16241 | 99 | 257 | 38 | ||
| 2024-10-28T00:17 | 16634 | 93 | 265 | 37 | ||
| 2024-10-28T00:17 | 16641 | 93 | -60.9 | |||
| 2024-10-28T00:18 | 17055 | 87 | 273 | 34 | ||
| 2024-10-28T00:19 | 17369 | 82 | -61.9 | |||
| 2024-10-28T00:19 | 17385 | 82 | 264 | 31 | ||
| 2024-10-28T00:20 | 17601 | 79 | 269 | 33 | ||
| 2024-10-28T00:21 | 17869 | 76 | -59.3 | |||
| 2024-10-28T00:21 | 17876 | 76 | 264 | 25 | ||
| 2024-10-28T00:22 | 18198 | 72 | 253 | 28 | ||
| 2024-10-28T00:23 | 18406 | 70 | -60.2 | 260 | 33 | |
| 2024-10-28T11:30 | 18 | 1014 | 7.2 | 5.3 | 10 | 2 |
| 2024-10-28T11:30 | 22 | 1014 | 7.1 | 4.6 | 69 | 1 |
| 2024-10-28T11:30 | 154 | 997 | 6.1 | 3.1 | ||
| 2024-10-28T11:31 | 174 | 995 | 360 | 3 | ||
| 2024-10-28T11:32 | 464 | 960 | 328 | 6 | ||
| 2024-10-28T11:32 | 614 | 943 | 2.8 | 1.2 | ||
| 2024-10-28T11:33 | 692 | 934 | 328 | 8 | ||
| 2024-10-28T11:33 | 894 | 911 | 332 | 11 | ||
| 2024-10-28T11:34 | 1110 | 886 | 331 | 13 | ||
| 2024-10-28T11:36 | 1380 | 857 | 320 | 13 | ||
| 2024-10-28T11:36 | 1440 | 850 | -2.7 | -3.5 | ||
| 2024-10-28T11:37 | 1672 | 826 | 321 | 14 | ||
| 2024-10-28T11:37 | 1820 | 810 | 326 | 12 | ||
| 2024-10-28T11:38 | 1980 | 794 | -6.0 | -7.2 | ||
| 2024-10-28T11:38 | 2012 | 791 | 323 | 13 | ||
| 2024-10-28T11:39 | 2307 | 762 | 327 | 10 | ||
| 2024-10-28T11:39 | 2435 | 749 | -9.5 | -12.5 | ||
| 2024-10-28T11:39 | 2602 | 733 | -11.2 | -18.3 | ||
| 2024-10-28T11:40 | 2633 | 730 | 335 | 11 | ||
| 2024-10-28T11:40 | 2736 | 720 | -11.2 | -19.8 | ||
| 2024-10-28T11:40 | 2761 | 718 | 329 | 14 | ||
| 2024-10-28T11:40 | 2888 | 706 | 333 | 14 | ||
| 2024-10-28T11:40 | 2898 | 705 | -10.9 | -20.0 | ||
| 2024-10-28T11:41 | 3046 | 692 | -11.1 | -22.6 | ||
| 2024-10-28T11:41 | 3195 | 678 | 322 | 20 | ||
| 2024-10-28T11:42 | 3435 | 657 | -13.1 | -29.9 | ||
| 2024-10-28T11:42 | 3516 | 650 | 316 | 20 | ||
| 2024-10-28T11:43 | 3750 | 631 | 309 | 20 | ||
| 2024-10-28T11:43 | 3861 | 621 | 310 | 21 | ||
| 2024-10-28T11:44 | 4034 | 607 | -16.5 | -37.8 | ||
| 2024-10-28T11:44 | 4196 | 595 | 308 | 25 | ||
| 2024-10-28T11:45 | 4279 | 588 | -17.2 | -41.6 | ||
| 2024-10-28T11:45 | 4413 | 578 | 306 | 29 | ||
| 2024-10-28T11:45 | 4463 | 574 | -17.1 | -41.6 | ||
| 2024-10-28T11:46 | 4652 | 560 | -14.4 | -41.6 | ||
| 2024-10-28T11:46 | 4715 | 555 | -14.0 | -41.2 | ||
| 2024-10-28T11:46 | 4727 | 554 | 295 | 42 | ||
| 2024-10-28T11:47 | 5076 | 529 | 293 | 43 | ||
| 2024-10-28T11:48 | 5394 | 507 | -18.1 | -43.3 | ||
| 2024-10-28T11:48 | 5430 | 505 | 291 | 43 | ||
| 2024-10-28T11:49 | 5649 | 490 | -19.6 | -43.6 | ||
| 2024-10-28T11:49 | 5799 | 481 | 284 | 44 | ||
| 2024-10-28T11:49 | 5888 | 475 | -21.1 | -43.9 | ||
| 2024-10-28T11:50 | 6186 | 456 | 281 | 45 | ||
| 2024-10-28T11:50 | 6193 | 455 | -23.2 | -44.8 | ||
| 2024-10-28T11:51 | 6580 | 432 | 279 | 45 | ||
| 2024-10-28T11:52 | 6912 | 412 | -28.3 | -48.9 | ||
| 2024-10-28T11:52 | 6989 | 408 | 279 | 44 | ||
| 2024-10-28T11:53 | 7407 | 385 | 279 | 46 | ||
| 2024-10-28T11:53 | 7567 | 376 | -32.6 | -51.1 | ||
| 2024-10-28T11:54 | 7720 | 368 | -33.5 | -51.3 | ||
| 2024-10-28T11:54 | 7824 | 363 | 278 | 43 | ||
| 2024-10-28T11:55 | 8238 | 342 | 277 | 47 | ||
| 2024-10-28T11:56 | 8561 | 326 | -40.0 | -56.2 | ||
| 2024-10-28T11:56 | 8644 | 322 | 277 | 49 | ||
| 2024-10-28T11:57 | 8987 | 306 | 274 | 49 | ||
| 2024-10-28T11:57 | 9024 | 304 | -43.2 | |||
| 2024-10-28T11:58 | 9144 | 299 | 274 | 51 | ||
| 2024-10-28T11:59 | 9435 | 286 | 271 | 53 | ||
| 2024-10-28T11:59 | 9493 | 284 | -46.6 | |||
| 2024-10-28T11:59 | 9663 | 276 | 274 | 56 | ||
| 2024-10-28T12:00 | 9955 | 265 | 273 | 59 | ||
| 2024-10-28T12:00 | 9985 | 263 | -48.1 | |||
| 2024-10-28T12:01 | 10112 | 258 | -48.1 | |||
| 2024-10-28T12:01 | 10220 | 254 | 275 | 60 | ||
| 2024-10-28T12:02 | 10318 | 250 | -48.0 | |||
| 2024-10-28T12:02 | 10499 | 243 | 274 | 59 | ||
| 2024-10-28T12:02 | 10542 | 242 | -48.5 | |||
| 2024-10-28T12:03 | 10785 | 233 | 273 | 59 | ||
| 2024-10-28T12:04 | 10904 | 229 | -48.5 | |||
| 2024-10-28T12:04 | 11077 | 223 | 269 | 58 | ||
| 2024-10-28T12:05 | 11408 | 212 | 268 | 60 | ||
| 2024-10-28T12:05 | 11431 | 211 | -50.2 | |||
| 2024-10-28T12:06 | 11755 | 201 | 272 | 62 | ||
| 2024-10-28T12:07 | 11831 | 199 | -49.8 | |||
| 2024-10-28T12:07 | 12081 | 191 | 271 | 62 | ||
| 2024-10-28T12:08 | 12225 | 187 | -49.1 | |||
| 2024-10-28T12:08 | 12350 | 183 | 269 | 63 | ||
| 2024-10-28T12:09 | 12658 | 175 | 273 | 63 | ||
| 2024-10-28T12:09 | 12754 | 172 | -51.6 | |||
| 2024-10-28T12:10 | 13058 | 165 | 273 | 57 | ||
| 2024-10-28T12:10 | 13249 | 160 | -52.7 | |||
| 2024-10-28T12:11 | 13287 | 159 | 275 | 57 | ||
| 2024-10-28T12:11 | 13620 | 151 | 277 | 55 | ||
| 2024-10-28T12:12 | 13818 | 146 | -54.4 | |||
| 2024-10-28T12:12 | 13986 | 142 | 279 | 50 | ||
| 2024-10-28T12:13 | 14328 | 135 | -57.8 | |||
| 2024-10-28T12:13 | 14371 | 134 | 279 | 53 | ||
| 2024-10-28T12:14 | 14590 | 129 | -58.4 | |||
| 2024-10-28T12:14 | 14624 | 129 | 274 | 53 | ||
| 2024-10-28T12:14 | 14770 | 126 | 275 | 48 | ||
| 2024-10-28T12:15 | 15005 | 121 | 273 | 46 | ||
| 2024-10-28T12:15 | 15139 | 119 | -60.8 | |||
| 2024-10-28T12:15 | 15182 | 118 | 270 | 46 | ||
| 2024-10-28T12:16 | 15360 | 114 | 273 | 49 | ||
| 2024-10-28T12:16 | 15452 | 113 | -60.3 | |||
| 2024-10-28T12:16 | 15614 | 110 | 272 | 46 | ||
| 2024-10-28T12:17 | 15897 | 105 | 276 | 46 | ||
| 2024-10-28T12:17 | 16026 | 103 | -59.6 | |||
| 2024-10-28T12:18 | 16294 | 98 | 272 | 40 | ||
| 2024-10-28T12:18 | 16307 | 98 | -59.5 | |||
| 2024-10-28T12:19 | 16668 | 93 | 263 | 39 | ||
| 2024-10-28T12:20 | 16937 | 89 | -61.0 | |||
| 2024-10-28T12:20 | 17037 | 87 | 263 | 41 | ||
| 2024-10-28T12:20 | 17227 | 85 | -61.9 | |||
| 2024-10-28T12:21 | 17324 | 83 | 265 | 47 | ||
| 2024-10-28T12:21 | 17429 | 82 | -60.8 | |||
| 2024-10-28T12:22 | 17670 | 79 | 274 | 44 | ||
| 2024-10-28T12:22 | 17831 | 77 | 270 | 37 | ||
| 2024-10-28T12:23 | 17969 | 75 | -57.2 | |||
| 2024-10-28T12:23 | 18082 | 74 | 272 | 37 | ||
| 2024-10-28T12:23 | 18186 | 73 | -55.7 | |||
| 2024-10-28T12:24 | 18462 | 70 | 282 | 31 | ||
| 2024-10-28T12:25 | 18854 | 65 | 276 | 32 | ||
| 2024-10-28T12:26 | 19078 | 63 | -58.4 | |||
| 2024-10-28T12:26 | 19119 | 63 | 274 | 28 | ||
| 2024-10-28T12:27 | 19460 | 59 | 278 | 24 | ||
| 2024-10-28T12:27 | 19644 | 58 | -58.8 | |||
| 2024-10-28T12:27 | 19773 | 57 | 282 | 19 | ||
| 2024-10-28T12:27 | 19853 | 56 | -57.2 | |||
| 2024-10-28T12:28 | 20003 | 55 | 263 | 14 | ||
| 2024-10-28T12:29 | 20369 | 51 | 236 | 17 | ||
| 2024-10-28T12:29 | 20391 | 51 | -59.3 | |||
| 2024-10-28T12:29 | 20628 | 49 | -60.0 | 243 | 21 | |
| 2024-10-28T23:30 | 18 | 1021 | 8.1 | 4.1 | 100 | 1 |
| 2024-10-28T23:30 | 22 | 1020 | 8.4 | 3.4 | 0 | 0 |
| 2024-10-28T23:30 | 30 | 1019 | 8.7 | 3.5 | ||
| 2024-10-28T23:30 | 61 | 1015 | 7.9 | 1.7 | ||
| 2024-10-28T23:30 | 161 | 1003 | 8.5 | -0.8 | ||
| 2024-10-28T23:31 | 191 | 1000 | 241 | 2 | ||
| 2024-10-28T23:31 | 197 | 999 | 8.9 | -1.5 | ||
| 2024-10-28T23:31 | 349 | 981 | 283 | 4 | ||
| 2024-10-28T23:31 | 484 | 965 | 272 | 4 | ||
| 2024-10-28T23:32 | 666 | 943 | 307 | 6 | ||
| 2024-10-28T23:32 | 756 | 933 | 3.9 | -1.7 | ||
| 2024-10-28T23:33 | 1057 | 899 | 305 | 7 | ||
| 2024-10-28T23:34 | 1396 | 862 | -2.1 | -4.0 | ||
| 2024-10-28T23:34 | 1455 | 855 | 293 | 10 | ||
| 2024-10-28T23:34 | 1641 | 836 | -3.9 | -5.9 | ||
| 2024-10-28T23:35 | 1782 | 821 | -4.9 | -6.9 | ||
| 2024-10-28T23:35 | 1830 | 816 | 312 | 8 | ||
| 2024-10-28T23:35 | 2051 | 793 | -7.2 | -8.6 | ||
| 2024-10-28T23:36 | 2117 | 786 | -7.3 | -10.5 | ||
| 2024-10-28T23:36 | 2165 | 782 | -6.0 | -16.0 | ||
| 2024-10-28T23:36 | 2183 | 780 | 304 | 12 | ||
| 2024-10-28T23:36 | 2201 | 778 | -5.3 | -19.4 | ||
| 2024-10-28T23:36 | 2337 | 765 | -5.4 | -22.4 | ||
| 2024-10-28T23:37 | 2494 | 750 | -5.8 | -28.3 | ||
| 2024-10-28T23:37 | 2535 | 746 | 305 | 13 | ||
| 2024-10-28T23:37 | 2700 | 730 | -5.6 | -37.6 | ||
| 2024-10-28T23:38 | 2899 | 712 | 292 | 13 | ||
| 2024-10-28T23:38 | 3126 | 691 | -6.8 | -42.4 | ||
| 2024-10-28T23:39 | 3255 | 680 | -7.2 | -45.4 | ||
| 2024-10-28T23:39 | 3302 | 676 | 294 | 14 | ||
| 2024-10-28T23:39 | 3439 | 664 | -7.5 | -49.2 | ||
| 2024-10-28T23:40 | 3656 | 646 | 289 | 16 | ||
| 2024-10-28T23:40 | 3743 | 638 | -9.0 | -50.2 | ||
| 2024-10-28T23:41 | 4058 | 613 | -10.7 | -57.1 | ||
| 2024-10-28T23:41 | 4087 | 610 | 281 | 16 | ||
| 2024-10-28T23:41 | 4414 | 585 | -12.7 | -58.4 | ||
| 2024-10-28T23:41 | 4426 | 584 | 281 | 19 | ||
| 2024-10-28T23:42 | 4725 | 561 | -14.8 | -54.2 | ||
| 2024-10-28T23:43 | 4791 | 557 | 288 | 19 | ||
| 2024-10-28T23:43 | 4959 | 544 | -16.1 | -41.8 | ||
| 2024-10-28T23:43 | 4971 | 543 | 287 | 23 | ||
| 2024-10-28T23:43 | 5019 | 540 | -16.5 | -34.3 | ||
| 2024-10-28T23:44 | 5302 | 520 | 293 | 24 | ||
| 2024-10-28T23:44 | 5443 | 510 | -19.1 | -37.0 | ||
| 2024-10-28T23:45 | 5610 | 499 | 294 | 24 | ||
| 2024-10-28T23:46 | 5882 | 481 | 297 | 26 | ||
| 2024-10-28T23:47 | 6233 | 458 | 289 | 29 | ||
| 2024-10-28T23:47 | 6275 | 456 | -24.9 | -39.7 | ||
| 2024-10-28T23:47 | 6450 | 445 | 291 | 31 | ||
| 2024-10-28T23:48 | 6596 | 436 | 291 | 31 | ||
| 2024-10-28T23:48 | 6815 | 423 | 293 | 33 | ||
| 2024-10-28T23:48 | 6906 | 417 | -27.7 | -42.9 | ||
| 2024-10-28T23:49 | 6993 | 412 | 288 | 34 | ||
| 2024-10-28T23:49 | 7140 | 404 | 290 | 37 | ||
| 2024-10-28T23:49 | 7146 | 404 | -29.2 | -45.6 | ||
| 2024-10-28T23:50 | 7503 | 384 | 290 | 34 | ||
| 2024-10-28T23:51 | 7708 | 373 | 286 | 37 | ||
| 2024-10-28T23:51 | 7775 | 369 | -34.0 | -47.2 | ||
| 2024-10-28T23:52 | 8075 | 354 | 285 | 36 | ||
| 2024-10-28T23:52 | 8081 | 353 | -35.9 | -50.9 | ||
| 2024-10-28T23:52 | 8281 | 343 | -37.0 | -55.4 | ||
| 2024-10-28T23:52 | 8422 | 336 | -37.6 | -58.0 | ||
| 2024-10-28T23:53 | 8464 | 334 | 275 | 35 | ||
| 2024-10-28T23:53 | 8685 | 324 | -39.6 | -54.5 | ||
| 2024-10-28T23:53 | 8748 | 321 | -40.0 | -55.3 | ||
| 2024-10-28T23:54 | 8889 | 314 | 274 | 37 | ||
| 2024-10-28T23:55 | 9275 | 297 | -45.0 | |||
| 2024-10-28T23:55 | 9294 | 296 | 272 | 36 | ||
| 2024-10-28T23:56 | 9664 | 280 | 272 | 35 | ||
| 2024-10-28T23:57 | 10042 | 264 | 269 | 38 | ||
| 2024-10-28T23:57 | 10207 | 257 | -52.7 | |||
| 2024-10-28T23:58 | 10368 | 251 | -52.1 | |||
| 2024-10-28T23:58 | 10374 | 251 | 273 | 40 | ||
| 2024-10-28T23:58 | 10517 | 245 | 268 | 47 | ||
| 2024-10-28T23:58 | 10529 | 245 | -49.8 | |||
| 2024-10-28T23:59 | 10847 | 233 | 269 | 52 | ||
| 2024-10-28T23:59 | 11013 | 228 | -50.4 | |||
| 2024-10-29T00:00 | 11060 | 226 | 264 | 58 | ||
| 2024-10-29T00:01 | 11432 | 213 | 268 | 61 | ||
| 2024-10-29T00:01 | 11480 | 212 | -50.3 | |||
| 2024-10-29T00:01 | 11723 | 204 | -50.4 | |||
| 2024-10-29T00:02 | 11786 | 202 | 266 | 60 | ||
| 2024-10-29T00:02 | 12090 | 193 | -52.1 | |||
| 2024-10-29T00:03 | 12110 | 192 | 265 | 60 | ||
| 2024-10-29T00:03 | 12332 | 186 | 266 | 62 | ||
| 2024-10-29T00:04 | 12496 | 181 | 266 | 63 | ||
| 2024-10-29T00:04 | 12586 | 179 | -53.4 | |||
| 2024-10-29T00:05 | 12784 | 173 | 267 | 63 | ||
| 2024-10-29T00:05 | 12927 | 169 | -54.4 | |||
| 2024-10-29T00:06 | 13018 | 167 | 269 | 64 | ||
| 2024-10-29T00:06 | 13128 | 164 | -53.8 | |||
| 2024-10-29T00:06 | 13218 | 162 | 268 | 64 | ||
| 2024-10-29T00:07 | 13534 | 154 | -56.0 | |||
| 2024-10-29T00:07 | 13546 | 154 | 265 | 61 | ||
| 2024-10-29T00:08 | 13690 | 150 | 266 | 63 | ||
| 2024-10-29T00:08 | 13915 | 145 | 265 | 64 | ||
| 2024-10-29T00:08 | 13971 | 144 | -56.3 | |||
| 2024-10-29T00:09 | 14097 | 141 | -55.9 | |||
| 2024-10-29T00:09 | 14193 | 139 | 270 | 64 | ||
| 2024-10-29T00:10 | 14361 | 135 | -56.5 | |||
| 2024-10-29T00:10 | 14376 | 135 | 273 | 56 | ||
| 2024-10-29T00:11 | 14635 | 129 | 276 | 48 | ||
| 2024-10-29T00:11 | 14810 | 126 | 270 | 45 | ||
| 2024-10-29T00:11 | 14858 | 125 | -56.5 | |||
| 2024-10-29T00:12 | 15163 | 119 | 260 | 49 | ||
| 2024-10-29T00:13 | 15353 | 116 | -58.1 | |||
| 2024-10-29T00:13 | 15449 | 114 | 271 | 49 | ||
| 2024-10-29T00:13 | 15513 | 113 | -56.4 | |||
| 2024-10-29T00:14 | 15614 | 111 | 266 | 42 | ||
| 2024-10-29T00:14 | 15710 | 109 | -55.4 | |||
| 2024-10-29T00:14 | 15907 | 106 | 257 | 44 | ||
| 2024-10-29T00:15 | 15999 | 104 | -57.1 | |||
| 2024-10-29T00:15 | 16205 | 101 | 261 | 42 | ||
| 2024-10-29T00:16 | 16433 | 97 | 265 | 37 | ||
| 2024-10-29T00:16 | 16566 | 95 | -57.6 | |||
| 2024-10-29T00:17 | 16773 | 92 | 270 | 40 | ||
| 2024-10-29T00:18 | 17115 | 87 | 269 | 35 | ||
| 2024-10-29T00:19 | 17363 | 84 | -61.2 | |||
| 2024-10-29T00:19 | 17371 | 84 | 269 | 32 | ||
| 2024-10-29T00:19 | 17635 | 80 | 274 | 30 | ||
| 2024-10-29T00:20 | 17878 | 77 | -64.7 | |||
| 2024-10-29T00:20 | 17964 | 76 | 270 | 33 | ||
| 2024-10-29T00:21 | 18270 | 73 | -64.6 | |||
| 2024-10-29T00:21 | 18278 | 72 | 275 | 36 | ||
| 2024-10-29T00:22 | 18562 | 69 | -63.5 | |||
| 2024-10-29T00:22 | 18636 | 68 | 288 | 27 | ||
| 2024-10-29T00:23 | 18973 | 65 | -65.3 | 268 | 21 | |
| 2024-10-29T00:24 | 19155 | 63 | -64.0 | |||
| 2024-10-29T00:24 | 19253 | 62 | 246 | 24 | ||
| 2024-10-29T00:25 | 19517 | 59 | 250 | 28 | ||
| 2024-10-29T00:25 | 19538 | 59 | -64.0 | |||
| 2024-10-29T00:26 | 19878 | 56 | 266 | 24 | ||
| 2024-10-29T00:26 | 20025 | 54 | -63.5 | |||
| 2024-10-29T00:26 | 20117 | 54 | -61.8 | |||
| 2024-10-29T00:27 | 20208 | 53 | 265 | 24 | ||
| 2024-10-29T00:27 | 20221 | 53 | -60.8 | |||
| 2024-10-29T00:28 | 20459 | 51 | 276 | 23 | ||
| 2024-10-29T00:28 | 20535 | 50 | -61.0 | |||
| 2024-10-29T00:29 | 20813 | 48 | 271 | 14 | ||
| 2024-10-29T00:29 | 20972 | 47 | 269 | 16 | ||
| 2024-10-29T00:29 | 21120 | 46 | -60.0 | |||
| 2024-10-29T00:29 | 21162 | 45 | 276 | 15 | ||
| 2024-10-29T00:30 | 21444 | 43 | 267 | 19 | ||
| 2024-10-29T00:31 | 21590 | 42 | 262 | 23 | ||
| 2024-10-29T00:31 | 21892 | 40 | -60.1 | 258 | 25 | |
| 2024-10-29T00:32 | 22034 | 39 | 260 | 27 | ||
| 2024-10-29T00:33 | 22275 | 38 | 262 | 20 | ||
| 2024-10-29T00:33 | 22362 | 37 | -57.8 | |||
| 2024-10-29T00:33 | 22410 | 37 | 263 | 23 | ||
| 2024-10-29T00:34 | 22674 | 36 | -53.9 | |||
| 2024-10-29T00:34 | 22692 | 36 | 235 | 16 | ||
| 2024-10-29T00:35 | 23083 | 33 | 225 | 16 | ||
| 2024-10-29T00:35 | 23294 | 32 | 220 | 18 | ||
| 2024-10-29T00:36 | 23446 | 32 | -59.3 | |||
| 2024-10-29T00:36 | 23552 | 31 | -57.5 | |||
| 2024-10-29T00:36 | 23571 | 31 | 233 | 21 | ||
| 2024-10-29T00:37 | 23971 | 29 | 274 | 19 | ||
| 2024-10-29T00:37 | 24236 | 28 | -57.3 | |||
| 2024-10-29T00:38 | 24398 | 27 | 262 | 19 | ||
| 2024-10-29T00:38 | 24422 | 27 | -56.9 | |||
| 2024-10-29T00:39 | 24762 | 26 | -55.5 | |||
| 2024-10-29T00:39 | 24810 | 25 | 250 | 16 | ||
| 2024-10-29T00:40 | 25067 | 24 | -55.5 | |||
| 2024-10-29T00:40 | 25120 | 24 | 262 | 17 | ||
| 2024-10-29T00:40 | 25365 | 23 | 281 | 11 | ||
| 2024-10-29T00:40 | 25393 | 23 | -51.3 | |||
| 2024-10-29T00:41 | 25615 | 22 | 281 | 5 | ||
| 2024-10-29T00:41 | 25762 | 22 | 241 | 5 | ||
| 2024-10-29T00:41 | 25823 | 22 | -52.5 | |||
| 2024-10-29T00:41 | 25884 | 22 | 221 | 6 | ||
| 2024-10-29T00:42 | 25973 | 21 | 151 | 4 | ||
| 2024-10-29T00:42 | 26034 | 21 | 148 | 5 | ||
| 2024-10-29T00:42 | 26249 | 20 | 225 | 9 | ||
| 2024-10-29T00:43 | 26507 | 20 | 255 | 11 | ||
| 2024-10-29T00:43 | 26539 | 19 | -54.6 | |||
| 2024-10-29T00:44 | 26812 | 19 | 254 | 8 | ||
| 2024-10-29T00:44 | 27061 | 18 | 209 | 9 | ||
| 2024-10-29T00:45 | 27271 | 17 | -50.3 | 257 | 8 | |
| 2024-10-29T11:30 | 18 | 1021 | 8.3 | 4.1 | 180 | 1 |
| 2024-10-29T11:30 | 22 | 1021 | 8.4 | 3.4 | 0 | 0 |
| 2024-10-29T11:30 | 43 | 1018 | 8.5 | 2.7 | ||
| 2024-10-29T11:30 | 66 | 1015 | 8.9 | 2.7 | ||
| 2024-10-29T11:30 | 127 | 1008 | 8.6 | 2.0 | ||
| 2024-10-29T11:30 | 157 | 1004 | 10.1 | 1.5 | ||
| 2024-10-29T11:31 | 353 | 981 | 244 | 4 | ||
| 2024-10-29T11:31 | 378 | 978 | 8.3 | 1.0 | ||
| 2024-10-29T11:32 | 595 | 952 | 244 | 3 | ||
| 2024-10-29T11:32 | 631 | 948 | 6.3 | -0.2 | ||
| 2024-10-29T11:33 | 966 | 910 | 208 | 1 | ||
| 2024-10-29T11:34 | 1349 | 868 | 197 | 2 | ||
| 2024-10-29T11:34 | 1368 | 866 | -0.3 | -3.5 | ||
| 2024-10-29T11:34 | 1508 | 851 | -1.4 | -4.6 | ||
| 2024-10-29T11:34 | 1610 | 840 | 260 | 4 | ||
| 2024-10-29T11:35 | 1777 | 822 | -2.6 | -10.6 | 267 | 5 |
| 2024-10-29T11:35 | 1901 | 810 | -1.9 | -21.4 | ||
| 2024-10-29T11:35 | 1937 | 806 | 285 | 7 | ||
| 2024-10-29T11:35 | 2028 | 797 | -2.1 | -24.6 | ||
| 2024-10-29T11:36 | 2158 | 784 | -1.2 | -31.4 | ||
| 2024-10-29T11:36 | 2170 | 783 | 280 | 7 | ||
| 2024-10-29T11:36 | 2293 | 771 | 281 | 8 | ||
| 2024-10-29T11:36 | 2346 | 766 | -0.2 | -30.6 | ||
| 2024-10-29T11:37 | 2428 | 758 | -0.6 | -19.2 | ||
| 2024-10-29T11:37 | 2445 | 756 | 287 | 9 | ||
| 2024-10-29T11:37 | 2616 | 740 | 277 | 10 | ||
| 2024-10-29T11:37 | 2723 | 730 | -1.7 | -21.2 | ||
| 2024-10-29T11:38 | 2845 | 719 | 277 | 11 | ||
| 2024-10-29T11:39 | 3210 | 687 | -3.8 | -21.0 | 271 | 15 |
| 2024-10-29T11:39 | 3454 | 666 | -5.1 | -21.2 | ||
| 2024-10-29T11:40 | 3501 | 662 | -5.2 | -26.5 | ||
| 2024-10-29T11:40 | 3552 | 658 | -5.5 | -28.1 | ||
| 2024-10-29T11:40 | 3564 | 657 | 265 | 18 | ||
| 2024-10-29T11:40 | 3704 | 645 | -6.7 | -24.9 | ||
| 2024-10-29T11:41 | 3844 | 634 | 267 | 17 | ||
| 2024-10-29T11:41 | 3999 | 621 | 268 | 18 | ||
| 2024-10-29T11:41 | 4065 | 616 | -8.9 | -24.5 | ||
| 2024-10-29T11:42 | 4233 | 603 | 272 | 19 | ||
| 2024-10-29T11:42 | 4334 | 595 | -10.4 | -23.6 | ||
| 2024-10-29T11:42 | 4517 | 581 | 271 | 19 | ||
| 2024-10-29T11:42 | 4541 | 579 | -12.0 | -24.7 | ||
| 2024-10-29T11:43 | 4864 | 555 | 274 | 21 | ||
| 2024-10-29T11:44 | 5014 | 544 | -15.7 | -27.1 | ||
| 2024-10-29T11:44 | 5136 | 536 | 266 | 19 | ||
| 2024-10-29T11:44 | 5246 | 528 | 268 | 22 | ||
| 2024-10-29T11:45 | 5352 | 520 | 268 | 23 | ||
| 2024-10-29T11:45 | 5535 | 508 | -19.5 | -32.0 | ||
| 2024-10-29T11:45 | 5599 | 503 | 269 | 23 | ||
| 2024-10-29T11:46 | 5763 | 492 | -21.3 | -34.0 | ||
| 2024-10-29T11:46 | 5960 | 479 | 265 | 23 | ||
| 2024-10-29T11:47 | 6233 | 462 | -23.4 | -41.1 | ||
| 2024-10-29T11:47 | 6339 | 455 | 261 | 25 | ||
| 2024-10-29T11:48 | 6566 | 441 | -26.5 | -37.4 | ||
| 2024-10-29T11:48 | 6705 | 433 | 259 | 24 | ||
| 2024-10-29T11:49 | 7065 | 411 | -31.0 | -38.4 | ||
| 2024-10-29T11:49 | 7072 | 411 | 258 | 24 | ||
| 2024-10-29T11:50 | 7204 | 403 | 261 | 28 | ||
| 2024-10-29T11:50 | 7262 | 400 | -32.4 | -39.7 | ||
| 2024-10-29T11:51 | 7571 | 383 | 260 | 31 | ||
| 2024-10-29T11:51 | 7686 | 377 | -36.0 | -39.1 | ||
| 2024-10-29T11:52 | 7854 | 368 | -37.5 | -41.5 | ||
| 2024-10-29T11:52 | 7935 | 363 | -37.1 | -48.4 | ||
| 2024-10-29T11:52 | 7941 | 363 | 261 | 33 | ||
| 2024-10-29T11:52 | 8042 | 358 | -35.8 | -56.6 | ||
| 2024-10-29T11:52 | 8101 | 355 | 261 | 41 | ||
| 2024-10-29T11:53 | 8304 | 344 | -36.8 | -55.9 | ||
| 2024-10-29T11:53 | 8451 | 337 | 258 | 39 | ||
| 2024-10-29T11:54 | 8607 | 330 | -39.3 | -55.6 | ||
| 2024-10-29T11:54 | 8697 | 325 | -40.0 | -56.8 | ||
| 2024-10-29T11:54 | 8790 | 321 | 257 | 42 | ||
| 2024-10-29T11:55 | 9127 | 305 | 260 | 44 | ||
| 2024-10-29T11:56 | 9304 | 297 | -44.1 | |||
| 2024-10-29T11:56 | 9462 | 290 | 259 | 51 | ||
| 2024-10-29T11:57 | 9789 | 277 | 258 | 56 | ||
| 2024-10-29T11:58 | 9928 | 271 | 257 | 54 | ||
| 2024-10-29T11:58 | 10113 | 263 | -47.9 | |||
| 2024-10-29T11:59 | 10210 | 259 | 258 | 57 | ||
| 2024-10-29T11:59 | 10410 | 252 | 257 | 59 | ||
| 2024-10-29T12:00 | 10517 | 248 | -48.1 | |||
| 2024-10-29T12:00 | 10752 | 239 | 260 | 65 | ||
| 2024-10-29T12:01 | 11022 | 229 | 259 | 70 | ||
| 2024-10-29T12:01 | 11173 | 224 | 260 | 68 | ||
| 2024-10-29T12:02 | 11228 | 222 | -49.4 | |||
| 2024-10-29T12:02 | 11480 | 214 | 259 | 71 | ||
| 2024-10-29T12:03 | 11685 | 207 | -52.2 | |||
| 2024-10-29T12:03 | 11789 | 204 | 260 | 70 | ||
| 2024-10-29T12:03 | 11847 | 202 | -51.3 | |||
| 2024-10-29T12:04 | 12066 | 195 | 262 | 66 | ||
| 2024-10-29T12:05 | 12362 | 187 | -52.1 | |||
| 2024-10-29T12:05 | 12389 | 186 | 261 | 70 | ||
| 2024-10-29T12:06 | 12722 | 176 | 260 | 75 | ||
| 2024-10-29T12:07 | 12950 | 170 | 263 | 71 | ||
| 2024-10-29T12:08 | 13194 | 164 | -55.9 | |||
| 2024-10-29T12:08 | 13262 | 162 | 266 | 70 | ||
| 2024-10-29T12:09 | 13555 | 155 | -57.5 | |||
| 2024-10-29T12:09 | 13606 | 154 | 270 | 70 | ||
| 2024-10-29T12:09 | 13818 | 148 | -57.6 | |||
| 2024-10-29T12:10 | 13980 | 145 | 267 | 56 | ||
| 2024-10-29T12:10 | 13992 | 144 | -58.1 | |||
| 2024-10-29T12:11 | 14313 | 137 | 264 | 61 | ||
| 2024-10-29T12:11 | 14324 | 137 | -59.8 | |||
| 2024-10-29T12:12 | 14650 | 130 | 267 | 61 | ||
| 2024-10-29T12:12 | 14897 | 125 | 268 | 56 | ||
| 2024-10-29T12:13 | 14921 | 124 | -62.2 | |||
| 2024-10-29T12:13 | 15134 | 120 | 269 | 52 | ||
| 2024-10-29T12:14 | 15477 | 114 | 268 | 48 | ||
| 2024-10-29T12:14 | 15512 | 113 | -62.4 | |||
| 2024-10-29T12:15 | 15820 | 107 | 265 | 46 | ||
| 2024-10-29T12:16 | 16004 | 104 | -62.6 | |||
| 2024-10-29T12:16 | 16092 | 103 | -61.0 | |||
| 2024-10-29T12:16 | 16152 | 102 | 259 | 45 | ||
| 2024-10-29T12:17 | 16478 | 97 | 266 | 47 | ||
| 2024-10-29T12:18 | 16651 | 94 | -61.5 | |||
| 2024-10-29T12:18 | 16802 | 92 | 266 | 40 | ||
| 2024-10-29T12:19 | 16937 | 90 | 260 | 38 | ||
| 2024-10-29T12:19 | 17057 | 88 | -60.4 | |||
| 2024-10-29T12:19 | 17143 | 87 | 264 | 43 | ||
| 2024-10-29T12:19 | 17220 | 86 | -59.4 | |||
| 2024-10-29T12:20 | 17382 | 84 | 265 | 39 | ||
| 2024-10-29T12:20 | 17603 | 81 | 272 | 38 | ||
| 2024-10-29T12:21 | 17642 | 80 | -58.6 | |||
| 2024-10-29T12:21 | 17777 | 78 | 269 | 31 | ||
| 2024-10-29T12:21 | 17974 | 76 | 269 | 32 | ||
| 2024-10-29T12:22 | 18304 | 72 | 267 | 31 | ||
| 2024-10-29T12:22 | 18357 | 72 | -57.8 | |||
| 2024-10-29T12:23 | 18672 | 68 | 261 | 25 | ||
| 2024-10-29T12:24 | 18957 | 65 | 267 | 22 | ||
| 2024-10-29T12:25 | 19140 | 63 | 262 | 17 | ||
| 2024-10-29T12:25 | 19239 | 62 | -59.9 | |||
| 2024-10-29T12:26 | 19476 | 60 | 245 | 15 | ||
| 2024-10-29T12:27 | 19815 | 57 | 243 | 22 | ||
| 2024-10-29T12:27 | 20074 | 54 | -60.5 | |||
| 2024-10-29T12:28 | 20167 | 54 | 261 | 28 | ||
| 2024-10-29T12:28 | 20334 | 52 | 272 | 24 | ||
| 2024-10-29T12:28 | 20419 | 51 | -60.0 | |||
| 2024-10-29T12:29 | 20729 | 49 | 265 | 18 | ||
| 2024-10-29T12:30 | 20961 | 47 | -61.5 | |||
| 2024-10-29T12:30 | 21094 | 46 | 233 | 19 | ||
| 2024-10-29T12:31 | 21424 | 44 | 258 | 24 | ||
| 2024-10-29T12:31 | 21455 | 44 | -60.1 | |||
| 2024-10-29T12:32 | 21779 | 41 | 262 | 21 | ||
| 2024-10-29T12:33 | 22045 | 40 | -57.2 | 257 | 22 | |
| 2024-10-29T12:34 | 22437 | 37 | 268 | 24 | ||
| 2024-10-29T12:34 | 22592 | 36 | -58.1 | |||
| 2024-10-29T12:34 | 22663 | 36 | 276 | 19 | ||
| 2024-10-29T12:34 | 22752 | 35 | -55.6 | |||
| 2024-10-29T12:35 | 23029 | 34 | 275 | 19 | ||
| 2024-10-29T12:36 | 23236 | 33 | 263 | 22 | ||
| 2024-10-29T12:36 | 23353 | 32 | -56.0 | |||
| 2024-10-29T12:36 | 23393 | 32 | 267 | 18 | ||
| 2024-10-29T12:36 | 23533 | 31 | 269 | 20 | ||
| 2024-10-29T12:37 | 23679 | 31 | 258 | 18 | ||
| 2024-10-29T12:37 | 23828 | 30 | 248 | 18 | ||
| 2024-10-29T12:38 | 24182 | 28 | 237 | 16 | ||
| 2024-10-29T12:39 | 24323 | 28 | -51.7 | |||
| 2024-10-29T12:39 | 24364 | 28 | -52.1 | 221 | 16 | |
| 2024-10-29T23:30 | 18 | 1018 | 8.1 | 3.6 | 140 | 2 |
| 2024-10-29T23:30 | 21 | 1018 | 8.1 | 2.8 | 0 | 0 |
| 2024-10-29T23:30 | 61 | 1013 | 144 | 3 | ||
| 2024-10-29T23:30 | 147 | 1002 | 6.5 | 1.2 | ||
| 2024-10-29T23:31 | 255 | 989 | 8.9 | 0.6 | ||
| 2024-10-29T23:31 | 260 | 989 | 143 | 4 | ||
| 2024-10-29T23:31 | 353 | 978 | 158 | 2 | ||
| 2024-10-29T23:31 | 451 | 966 | 138 | 4 | ||
| 2024-10-29T23:31 | 462 | 965 | 7.8 | 1.0 | ||
| 2024-10-29T23:32 | 576 | 952 | 6.8 | 1.7 | ||
| 2024-10-29T23:32 | 613 | 947 | 145 | 2 | ||
| 2024-10-29T23:33 | 943 | 910 | 202 | 4 | ||
| 2024-10-29T23:34 | 1122 | 890 | 231 | 6 | ||
| 2024-10-29T23:34 | 1274 | 873 | 1.4 | -3.7 | ||
| 2024-10-29T23:34 | 1323 | 868 | 220 | 3 | ||
| 2024-10-29T23:34 | 1422 | 857 | 0.7 | -8.3 | ||
| 2024-10-29T23:35 | 1449 | 854 | 228 | 4 | ||
| 2024-10-29T23:35 | 1507 | 848 | 2.0 | -19.2 | ||
| 2024-10-29T23:35 | 1657 | 833 | 290 | 5 | ||
| 2024-10-29T23:36 | 1766 | 821 | 0.5 | -25.7 | ||
| 2024-10-29T23:36 | 1881 | 810 | 0.0 | -29.2 | ||
| 2024-10-29T23:36 | 1898 | 808 | 295 | 5 | ||
| 2024-10-29T23:36 | 2012 | 797 | 247 | 6 | ||
| 2024-10-29T23:36 | 2055 | 792 | -0.3 | -25.4 | ||
| 2024-10-29T23:37 | 2222 | 776 | 237 | 7 | ||
| 2024-10-29T23:37 | 2266 | 772 | -1.3 | -30.2 | ||
| 2024-10-29T23:37 | 2351 | 764 | 247 | 8 | ||
| 2024-10-29T23:38 | 2498 | 750 | 243 | 10 | ||
| 2024-10-29T23:38 | 2622 | 738 | 259 | 9 | ||
| 2024-10-29T23:38 | 2645 | 736 | -2.4 | -31.1 | ||
| 2024-10-29T23:38 | 2759 | 725 | 256 | 12 | ||
| 2024-10-29T23:39 | 2949 | 708 | 254 | 11 | ||
| 2024-10-29T23:40 | 3129 | 692 | 252 | 13 | ||
| 2024-10-29T23:40 | 3302 | 677 | -6.8 | -25.5 | ||
| 2024-10-29T23:41 | 3462 | 663 | 251 | 12 | ||
| 2024-10-29T23:41 | 3495 | 660 | -8.2 | -23.5 | ||
| 2024-10-29T23:41 | 3545 | 656 | -8.5 | -19.4 | ||
| 2024-10-29T23:41 | 3715 | 642 | -9.5 | -21.8 | ||
| 2024-10-29T23:41 | 3732 | 640 | 243 | 13 | ||
| 2024-10-29T23:42 | 3868 | 629 | -10.4 | -24.0 | ||
| 2024-10-29T23:42 | 3940 | 623 | 244 | 13 | ||
| 2024-10-29T23:42 | 3962 | 622 | -10.6 | -36.4 | ||
| 2024-10-29T23:43 | 4099 | 611 | -11.6 | -31.2 | ||
| 2024-10-29T23:43 | 4159 | 606 | -12.1 | -27.3 | ||
| 2024-10-29T23:43 | 4272 | 597 | 258 | 16 | ||
| 2024-10-29T23:43 | 4412 | 586 | -13.4 | -36.8 | ||
| 2024-10-29T23:44 | 4522 | 578 | -14.2 | -35.9 | ||
| 2024-10-29T23:44 | 4612 | 571 | -14.7 | -28.8 | ||
| 2024-10-29T23:44 | 4630 | 570 | 251 | 15 | ||
| 2024-10-29T23:44 | 4795 | 557 | 254 | 15 | ||
| 2024-10-29T23:45 | 4832 | 555 | -16.4 | -26.9 | ||
| 2024-10-29T23:45 | 4962 | 545 | -17.4 | -27.5 | ||
| 2024-10-29T23:45 | 5164 | 531 | 251 | 18 | ||
| 2024-10-29T23:46 | 5363 | 516 | 257 | 18 | ||
| 2024-10-29T23:46 | 5381 | 515 | -20.7 | -28.6 | ||
| 2024-10-29T23:46 | 5492 | 508 | -21.7 | -27.8 | ||
| 2024-10-29T23:47 | 5614 | 499 | -22.6 | -30.4 | ||
| 2024-10-29T23:47 | 5700 | 493 | -23.2 | -33.6 | ||
| 2024-10-29T23:47 | 5725 | 492 | 248 | 18 | ||
| 2024-10-29T23:48 | 5920 | 479 | -24.6 | -37.6 | ||
| 2024-10-29T23:48 | 5943 | 477 | 242 | 19 | ||
| 2024-10-29T23:48 | 5998 | 474 | -25.0 | -34.5 | ||
| 2024-10-29T23:48 | 6095 | 467 | -25.8 | -31.5 | ||
| 2024-10-29T23:48 | 6168 | 463 | -26.5 | -29.2 | ||
| 2024-10-29T23:49 | 6310 | 454 | 260 | 24 | ||
| 2024-10-29T23:49 | 6522 | 440 | -29.2 | -29.9 | ||
| 2024-10-29T23:50 | 6676 | 431 | 256 | 22 | ||
| 2024-10-29T23:50 | 6744 | 427 | -30.9 | -33.6 | ||
| 2024-10-29T23:50 | 6972 | 413 | -32.5 | -35.0 | ||
| 2024-10-29T23:50 | 6990 | 412 | 258 | 24 | ||
| 2024-10-29T23:51 | 7089 | 407 | -33.3 | -35.3 | ||
| 2024-10-29T23:51 | 7279 | 396 | -34.7 | -37.3 | ||
| 2024-10-29T23:51 | 7350 | 392 | 256 | 25 | ||
| 2024-10-29T23:52 | 7427 | 387 | -35.9 | -37.1 | ||
| 2024-10-29T23:52 | 7468 | 385 | -36.2 | -38.0 | ||
| 2024-10-29T23:52 | 7521 | 382 | -36.0 | -46.3 | ||
| 2024-10-29T23:52 | 7570 | 379 | -36.2 | -49.5 | ||
| 2024-10-29T23:52 | 7708 | 372 | 252 | 31 | ||
| 2024-10-29T23:53 | 7787 | 368 | -37.9 | -49.4 | ||
| 2024-10-29T23:53 | 7817 | 366 | 249 | 34 | ||
| 2024-10-29T23:53 | 8021 | 355 | -40.0 | -52.5 | ||
| 2024-10-29T23:54 | 8170 | 348 | -40.9 | |||
| 2024-10-29T23:54 | 8182 | 347 | 251 | 34 | ||
| 2024-10-29T23:54 | 8268 | 343 | -40.3 | |||
| 2024-10-29T23:55 | 8441 | 334 | -40.4 | |||
| 2024-10-29T23:55 | 8505 | 331 | 249 | 45 | ||
| 2024-10-29T23:55 | 8774 | 318 | -41.6 | |||
| 2024-10-29T23:56 | 8807 | 316 | 245 | 50 | ||
| 2024-10-29T23:56 | 8969 | 309 | -42.4 | |||
| 2024-10-29T23:57 | 9172 | 300 | 243 | 54 | ||
| 2024-10-29T23:57 | 9245 | 297 | -43.4 | |||
| 2024-10-29T23:58 | 9534 | 284 | 247 | 59 | ||
| 2024-10-29T23:58 | 9595 | 281 | -43.9 | |||
| 2024-10-29T23:59 | 9896 | 269 | 244 | 59 | ||
| 2024-10-29T23:59 | 10079 | 262 | 245 | 62 | ||
| 2024-10-29T23:59 | 10209 | 257 | -46.4 | |||
| 2024-10-30T00:00 | 10423 | 249 | 243 | 60 | ||
| 2024-10-30T00:01 | 10666 | 240 | -49.1 | |||
| 2024-10-30T00:01 | 10804 | 235 | 248 | 65 | ||
| 2024-10-30T00:01 | 10856 | 233 | -49.1 | |||
| 2024-10-30T00:02 | 11171 | 222 | 251 | 59 | ||
| 2024-10-30T00:02 | 11285 | 218 | -50.5 | |||
| 2024-10-30T00:03 | 11486 | 211 | -50.5 | |||
| 2024-10-30T00:03 | 11502 | 211 | 254 | 58 | ||
| 2024-10-30T00:04 | 11834 | 200 | -50.9 | 251 | 60 | |
| 2024-10-30T00:05 | 12173 | 190 | -50.9 | |||
| 2024-10-30T00:05 | 12184 | 190 | 246 | 61 | ||
| 2024-10-30T00:06 | 12435 | 183 | 245 | 59 | ||
| 2024-10-30T00:07 | 12748 | 174 | 243 | 62 | ||
| 2024-10-30T00:07 | 12810 | 172 | -54.0 | |||
| 2024-10-30T00:08 | 13051 | 166 | 241 | 62 | ||
| 2024-10-30T00:09 | 13372 | 158 | 244 | 67 | ||
| 2024-10-30T00:09 | 13389 | 157 | -57.4 | |||
| 2024-10-30T00:09 | 13563 | 153 | -57.6 | |||
| 2024-10-30T00:10 | 13661 | 151 | 247 | 70 | ||
| 2024-10-30T00:10 | 13834 | 147 | -57.9 | |||
| 2024-10-30T00:11 | 13989 | 143 | 254 | 61 | ||
| 2024-10-30T00:11 | 14124 | 140 | 254 | 58 | ||
| 2024-10-30T00:12 | 14275 | 137 | -56.3 | |||
| 2024-10-30T00:12 | 14384 | 134 | -56.7 | |||
| 2024-10-30T00:12 | 14463 | 133 | 257 | 56 | ||
| 2024-10-30T00:12 | 14474 | 133 | -56.4 | |||
| 2024-10-30T00:13 | 14604 | 130 | -57.1 | |||
| 2024-10-30T00:13 | 14705 | 128 | -56.9 | |||
| 2024-10-30T00:13 | 14794 | 126 | 256 | 53 | ||
| 2024-10-30T00:14 | 15055 | 121 | -58.9 | |||
| 2024-10-30T00:14 | 15118 | 120 | 263 | 50 | ||
| 2024-10-30T00:15 | 15267 | 117 | -59.5 | |||
| 2024-10-30T00:15 | 15442 | 114 | 261 | 47 | ||
| 2024-10-30T00:16 | 15646 | 110 | -61.3 | |||
| 2024-10-30T00:16 | 15775 | 108 | 257 | 46 | ||
| 2024-10-30T00:16 | 15809 | 107 | -62.1 | |||
| 2024-10-30T00:16 | 15905 | 105 | -59.2 | |||
| 2024-10-30T00:17 | 15977 | 104 | 260 | 53 | ||
| 2024-10-30T00:18 | 16314 | 99 | 267 | 54 | ||
| 2024-10-30T00:18 | 16356 | 98 | -60.6 | |||
| 2024-10-30T00:19 | 16678 | 93 | 268 | 41 | ||
| 2024-10-30T00:19 | 16718 | 93 | -57.5 | |||
| 2024-10-30T00:20 | 17022 | 88 | 276 | 34 | ||
| 2024-10-30T00:20 | 17036 | 88 | -58.1 | |||
| 2024-10-30T00:21 | 17359 | 84 | 262 | 31 | ||
| 2024-10-30T00:21 | 17486 | 82 | -59.5 | |||
| 2024-10-30T00:22 | 17665 | 80 | 255 | 29 | ||
| 2024-10-30T00:22 | 17904 | 77 | -59.3 | |||
| 2024-10-30T00:23 | 18009 | 75 | 245 | 26 | ||
| 2024-10-30T00:23 | 18128 | 74 | -60.4 | |||
| 2024-10-30T00:23 | 18221 | 73 | -59.4 | |||
| 2024-10-30T00:23 | 18230 | 73 | 246 | 29 | ||
| 2024-10-30T00:24 | 18404 | 71 | -58.8 | |||
| 2024-10-30T00:24 | 18500 | 70 | 250 | 29 | ||
| 2024-10-30T00:25 | 18713 | 67 | -58.9 | |||
| 2024-10-30T00:25 | 18874 | 66 | 238 | 29 | ||
| 2024-10-30T00:26 | 19246 | 62 | 253 | 31 | ||
| 2024-10-30T00:26 | 19255 | 62 | -60.3 | |||
| 2024-10-30T00:27 | 19566 | 59 | -60.2 | |||
| 2024-10-30T00:27 | 19620 | 58 | 278 | 31 | ||
| 2024-10-30T00:27 | 19718 | 57 | -59.5 | |||
| 2024-10-30T00:28 | 19989 | 55 | 286 | 18 | ||
| 2024-10-30T00:29 | 20328 | 52 | -59.3 | |||
| 2024-10-30T00:29 | 20352 | 52 | 258 | 17 | ||
| 2024-10-30T00:30 | 20664 | 49 | -60.4 | |||
| 2024-10-30T00:30 | 20701 | 49 | 251 | 23 | ||
| 2024-10-30T00:31 | 21093 | 46 | 254 | 23 | ||
| 2024-10-30T00:32 | 21457 | 43 | 271 | 21 | ||
| 2024-10-30T00:32 | 21500 | 43 | -59.8 | |||
| 2024-10-30T00:33 | 21720 | 42 | -60.2 | |||
| 2024-10-30T00:33 | 21734 | 42 | 274 | 25 | ||
| 2024-10-30T00:33 | 21919 | 40 | 271 | 19 | ||
| 2024-10-30T00:34 | 22140 | 39 | -60.0 | |||
| 2024-10-30T00:34 | 22318 | 38 | 259 | 21 | ||
| 2024-10-30T00:35 | 22603 | 36 | -59.6 | 264 | 21 | |
| 2024-10-30T00:35 | 22780 | 35 | -57.8 | |||
| 2024-10-30T00:35 | 22799 | 35 | 260 | 21 | ||
| 2024-10-30T00:36 | 23057 | 34 | 262 | 27 | ||
| 2024-10-30T00:36 | 23077 | 34 | -56.9 | |||
| 2024-10-30T00:37 | 23308 | 32 | 266 | 22 | ||
| 2024-10-30T00:37 | 23470 | 32 | -55.5 | |||
| 2024-10-30T00:37 | 23652 | 31 | 265 | 19 | ||
| 2024-10-30T00:38 | 23769 | 30 | -55.4 | 267 | 17 | |
| 2024-10-30T11:30 | 18 | 1015 | 11.4 | 6.5 | 180 | 2 |
| 2024-10-30T11:30 | 22 | 1014 | 11.5 | 6.2 | 0 | 0 |
| 2024-10-30T11:30 | 82 | 1007 | 11.9 | 4.1 | ||
| 2024-10-30T11:30 | 109 | 1004 | 12.5 | 3.4 | ||
| 2024-10-30T11:30 | 126 | 1002 | 216 | 3 | ||
| 2024-10-30T11:31 | 215 | 991 | 202 | 2 | ||
| 2024-10-30T11:31 | 268 | 985 | 11.2 | 2.5 | ||
| 2024-10-30T11:31 | 289 | 982 | 234 | 4 | ||
| 2024-10-30T11:31 | 400 | 969 | 238 | 2 | ||
| 2024-10-30T11:32 | 698 | 935 | 7.5 | 0.7 | ||
| 2024-10-30T11:32 | 732 | 931 | 292 | 2 | ||
| 2024-10-30T11:33 | 900 | 912 | 303 | 4 | ||
| 2024-10-30T11:33 | 1060 | 894 | 277 | 5 | ||
| 2024-10-30T11:33 | 1119 | 888 | 3.6 | 1.3 | ||
| 2024-10-30T11:34 | 1188 | 880 | 287 | 5 | ||
| 2024-10-30T11:34 | 1303 | 868 | 267 | 6 | ||
| 2024-10-30T11:34 | 1475 | 850 | 1.1 | 0.4 | ||
| 2024-10-30T11:35 | 1634 | 833 | 281 | 9 | ||
| 2024-10-30T11:36 | 1944 | 802 | -1.3 | -2.1 | ||
| 2024-10-30T11:36 | 1955 | 801 | 280 | 11 | ||
| 2024-10-30T11:36 | 1967 | 799 | -0.9 | -2.5 | ||
| 2024-10-30T11:36 | 2058 | 790 | -1.8 | -2.8 | ||
| 2024-10-30T11:37 | 2294 | 767 | 287 | 15 | ||
| 2024-10-30T11:38 | 2553 | 742 | -5.0 | -6.2 | ||
| 2024-10-30T11:38 | 2618 | 736 | 279 | 16 | ||
| 2024-10-30T11:38 | 2814 | 718 | -6.7 | -8.6 | ||
| 2024-10-30T11:39 | 2943 | 706 | 287 | 17 | ||
| 2024-10-30T11:39 | 3119 | 690 | -9.1 | -13.2 | ||
| 2024-10-30T11:40 | 3163 | 686 | -9.5 | -15.2 | ||
| 2024-10-30T11:40 | 3270 | 677 | 280 | 16 | ||
| 2024-10-30T11:40 | 3333 | 672 | -10.0 | -15.0 | ||
| 2024-10-30T11:40 | 3404 | 665 | 287 | 19 | ||
| 2024-10-30T11:41 | 3759 | 635 | 288 | 17 | ||
| 2024-10-30T11:41 | 3765 | 635 | -12.8 | -19.3 | ||
| 2024-10-30T11:41 | 3861 | 627 | -13.5 | -21.5 | ||
| 2024-10-30T11:42 | 3903 | 624 | 290 | 19 | ||
| 2024-10-30T11:42 | 4232 | 597 | -15.8 | -23.0 | ||
| 2024-10-30T11:43 | 4275 | 594 | 283 | 18 | ||
| 2024-10-30T11:44 | 4632 | 566 | -19.1 | -25.9 | ||
| 2024-10-30T11:44 | 4651 | 564 | 283 | 19 | ||
| 2024-10-30T11:44 | 4697 | 561 | -19.5 | -29.7 | ||
| 2024-10-30T11:44 | 4830 | 551 | -20.5 | -34.3 | ||
| 2024-10-30T11:45 | 5030 | 536 | -21.7 | -40.8 | ||
| 2024-10-30T11:45 | 5050 | 535 | 290 | 22 | ||
| 2024-10-30T11:45 | 5243 | 521 | 292 | 23 | ||
| 2024-10-30T11:46 | 5432 | 507 | -24.1 | -44.8 | ||
| 2024-10-30T11:46 | 5438 | 507 | 299 | 27 | ||
| 2024-10-30T11:47 | 5827 | 480 | 298 | 28 | ||
| 2024-10-30T11:48 | 6222 | 455 | 296 | 29 | ||
| 2024-10-30T11:49 | 6607 | 430 | 300 | 32 | ||
| 2024-10-30T11:49 | 6700 | 425 | -33.5 | -53.2 | ||
| 2024-10-30T11:49 | 6921 | 412 | 303 | 32 | ||
| 2024-10-30T11:50 | 7289 | 390 | 303 | 35 | ||
| 2024-10-30T11:51 | 7529 | 377 | 301 | 36 | ||
| 2024-10-30T11:52 | 7693 | 368 | -40.0 | -57.9 | ||
| 2024-10-30T11:52 | 7864 | 359 | 303 | 38 | ||
| 2024-10-30T11:52 | 7936 | 355 | -41.5 | |||
| 2024-10-30T11:53 | 8143 | 344 | -42.2 | |||
| 2024-10-30T11:53 | 8179 | 343 | 298 | 40 | ||
| 2024-10-30T11:54 | 8355 | 334 | -41.1 | |||
| 2024-10-30T11:54 | 8443 | 329 | 299 | 45 | ||
| 2024-10-30T11:54 | 8577 | 323 | -41.7 | |||
| 2024-10-30T11:55 | 8688 | 318 | 296 | 44 | ||
| 2024-10-30T11:55 | 8768 | 314 | -41.7 | |||
| 2024-10-30T11:55 | 8854 | 310 | -41.3 | |||
| 2024-10-30T11:56 | 8993 | 304 | 293 | 43 | ||
| 2024-10-30T11:56 | 9082 | 300 | -42.1 | |||
| 2024-10-30T11:57 | 9314 | 290 | 288 | 42 | ||
| 2024-10-30T11:58 | 9669 | 275 | -44.0 | |||
| 2024-10-30T11:58 | 9675 | 274 | 280 | 41 | ||
| 2024-10-30T11:59 | 10011 | 261 | 277 | 45 | ||
| 2024-10-30T12:00 | 10308 | 250 | 279 | 47 | ||
| 2024-10-30T12:00 | 10313 | 250 | -44.7 | |||
| 2024-10-30T12:01 | 10553 | 241 | -43.8 | |||
| 2024-10-30T12:01 | 10586 | 240 | 275 | 45 | ||
| 2024-10-30T12:02 | 10874 | 229 | -43.5 | |||
| 2024-10-30T12:02 | 10879 | 229 | 269 | 46 | ||
| 2024-10-30T12:03 | 11138 | 221 | -44.6 | |||
| 2024-10-30T12:03 | 11179 | 219 | 272 | 50 | ||
| 2024-10-30T12:04 | 11440 | 211 | 275 | 47 | ||
| 2024-10-30T12:04 | 11485 | 209 | -46.0 | |||
| 2024-10-30T12:04 | 11669 | 204 | 272 | 44 | ||
| 2024-10-30T12:05 | 11830 | 199 | -47.4 | |||
| 2024-10-30T12:05 | 11953 | 195 | 276 | 47 | ||
| 2024-10-30T12:06 | 12183 | 188 | 279 | 45 | ||
| 2024-10-30T12:06 | 12197 | 188 | -48.1 | |||
| 2024-10-30T12:07 | 12461 | 181 | 280 | 44 | ||
| 2024-10-30T12:08 | 12753 | 173 | 273 | 42 | ||
| 2024-10-30T12:09 | 13077 | 164 | 266 | 41 | ||
| 2024-10-30T12:09 | 13112 | 164 | -50.4 | |||
| 2024-10-30T12:10 | 13430 | 156 | 261 | 44 | ||
| 2024-10-30T12:10 | 13526 | 153 | -53.6 | |||
| 2024-10-30T12:11 | 13693 | 150 | 265 | 47 | ||
| 2024-10-30T12:12 | 13897 | 145 | -55.6 | |||
| 2024-10-30T12:12 | 14035 | 142 | 265 | 41 | ||
| 2024-10-30T12:12 | 14218 | 138 | -57.8 | |||
| 2024-10-30T12:13 | 14303 | 136 | 259 | 41 | ||
| 2024-10-30T12:13 | 14409 | 134 | -58.2 | |||
| 2024-10-30T12:14 | 14687 | 128 | 259 | 49 | ||
| 2024-10-30T12:14 | 14899 | 124 | -59.6 | |||
| 2024-10-30T12:14 | 14997 | 122 | 265 | 49 | ||
| 2024-10-30T12:15 | 15024 | 121 | -59.3 | |||
| 2024-10-30T12:16 | 15339 | 115 | 277 | 45 | ||
| 2024-10-30T12:16 | 15397 | 114 | -60.3 | |||
| 2024-10-30T12:16 | 15611 | 110 | 278 | 42 | ||
| 2024-10-30T12:17 | 15661 | 109 | -58.3 | |||
| 2024-10-30T12:17 | 15793 | 107 | 265 | 43 | ||
| 2024-10-30T12:17 | 15945 | 105 | -57.5 | |||
| 2024-10-30T12:18 | 15973 | 104 | 263 | 47 | ||
| 2024-10-30T12:18 | 16029 | 103 | -56.4 | |||
| 2024-10-30T12:18 | 16141 | 101 | -55.2 | |||
| 2024-10-30T12:18 | 16240 | 100 | 268 | 42 | ||
| 2024-10-30T12:19 | 16631 | 94 | 266 | 36 | ||
| 2024-10-30T12:20 | 17014 | 88 | -61.1 | |||
| 2024-10-30T12:20 | 17049 | 88 | 264 | 38 | ||
| 2024-10-30T12:21 | 17402 | 83 | 267 | 43 | ||
| 2024-10-30T12:21 | 17431 | 82 | -62.9 | |||
| 2024-10-30T12:22 | 17600 | 80 | 278 | 42 | ||
| 2024-10-30T12:22 | 17700 | 79 | -60.8 | |||
| 2024-10-30T12:23 | 17854 | 77 | 278 | 33 | ||
| 2024-10-30T12:23 | 17970 | 76 | -58.9 | |||
| 2024-10-30T12:24 | 18191 | 73 | -58.4 | |||
| 2024-10-30T12:24 | 18257 | 72 | 267 | 33 | ||
| 2024-10-30T12:24 | 18407 | 71 | -59.2 | |||
| 2024-10-30T12:24 | 18452 | 70 | 264 | 37 | ||
| 2024-10-30T12:25 | 18735 | 67 | 271 | 34 | ||
| 2024-10-30T12:25 | 18763 | 67 | -57.6 | |||
| 2024-10-30T12:25 | 18899 | 65 | 275 | 26 | ||
| 2024-10-30T12:26 | 19029 | 64 | -56.1 | |||
| 2024-10-30T12:26 | 19148 | 63 | 276 | 25 | ||
| 2024-10-30T12:26 | 19331 | 61 | -56.0 | |||
| 2024-10-30T12:27 | 19427 | 60 | 272 | 24 | ||
| 2024-10-30T12:27 | 19554 | 59 | -55.0 | |||
| 2024-10-30T12:27 | 19588 | 59 | 267 | 19 | ||
| 2024-10-30T12:28 | 19900 | 56 | 265 | 19 | ||
| 2024-10-30T12:29 | 20226 | 53 | 262 | 20 | ||
| 2024-10-30T12:29 | 20283 | 52 | -59.1 | |||
| 2024-10-30T12:30 | 20601 | 50 | 251 | 19 | ||
| 2024-10-30T12:31 | 20819 | 48 | 236 | 18 | ||
| 2024-10-30T12:31 | 20842 | 48 | -61.8 | 234 | 17 | |
| 2024-10-30T23:30 | 18 | 1020 | 12.9 | 5.1 | 310 | 3 |
| 2024-10-30T23:30 | 23 | 1020 | 12.9 | 4.1 | 306 | 1 |
| 2024-10-30T23:30 | 57 | 1016 | 12.4 | 3.1 | ||
| 2024-10-30T23:30 | 68 | 1014 | 292 | 3 | ||
| 2024-10-30T23:30 | 187 | 1000 | 313 | 6 | ||
| 2024-10-30T23:31 | 344 | 981 | 9.7 | 1.8 | ||
| 2024-10-30T23:31 | 381 | 977 | 307 | 7 | ||
| 2024-10-30T23:32 | 609 | 951 | 329 | 9 | ||
| 2024-10-30T23:32 | 856 | 922 | 305 | 10 | ||
| 2024-10-30T23:33 | 1216 | 882 | 313 | 11 | ||
| 2024-10-30T23:34 | 1301 | 873 | 0.6 | -0.1 | ||
| 2024-10-30T23:34 | 1415 | 861 | -0.4 | -1.8 | ||
| 2024-10-30T23:34 | 1522 | 849 | 317 | 13 | ||
| 2024-10-30T23:35 | 1851 | 815 | -3.4 | -4.1 | ||
| 2024-10-30T23:35 | 1875 | 812 | 311 | 13 | ||
| 2024-10-30T23:36 | 1971 | 803 | -4.4 | -12.5 | ||
| 2024-10-30T23:36 | 2135 | 786 | -2.5 | -17.7 | ||
| 2024-10-30T23:36 | 2211 | 779 | 310 | 17 | ||
| 2024-10-30T23:37 | 2335 | 767 | -3.0 | -21.8 | ||
| 2024-10-30T23:37 | 2524 | 749 | -4.1 | -25.6 | ||
| 2024-10-30T23:37 | 2553 | 746 | 304 | 15 | ||
| 2024-10-30T23:38 | 2783 | 724 | 304 | 15 | ||
| 2024-10-30T23:38 | 2877 | 716 | -5.8 | -39.5 | ||
| 2024-10-30T23:39 | 2983 | 706 | 307 | 18 | ||
| 2024-10-30T23:39 | 2989 | 705 | -4.3 | -53.1 | ||
| 2024-10-30T23:39 | 3025 | 702 | -4.2 | -53.0 | ||
| 2024-10-30T23:39 | 3140 | 692 | -3.8 | -52.7 | ||
| 2024-10-30T23:40 | 3350 | 674 | 313 | 22 | ||
| 2024-10-30T23:41 | 3707 | 643 | -8.2 | -41.3 | ||
| 2024-10-30T23:41 | 3720 | 642 | 307 | 22 | ||
| 2024-10-30T23:41 | 3909 | 627 | 305 | 23 | ||
| 2024-10-30T23:42 | 4249 | 600 | 304 | 25 | ||
| 2024-10-30T23:43 | 4437 | 585 | -14.1 | -59.3 | ||
| 2024-10-30T23:43 | 4590 | 573 | 296 | 26 | ||
| 2024-10-30T23:43 | 4631 | 570 | -15.6 | -46.8 | ||
| 2024-10-30T23:43 | 4698 | 565 | -15.9 | -28.8 | ||
| 2024-10-30T23:44 | 4930 | 548 | 303 | 27 | ||
| 2024-10-30T23:44 | 5033 | 541 | -18.5 | -28.0 | ||
| 2024-10-30T23:45 | 5238 | 526 | -18.8 | -28.5 | ||
| 2024-10-30T23:45 | 5284 | 523 | 301 | 33 | ||
| 2024-10-30T23:46 | 5452 | 511 | -19.7 | -28.9 | ||
| 2024-10-30T23:46 | 5653 | 497 | 298 | 34 | ||
| 2024-10-30T23:47 | 6016 | 473 | -24.4 | -35.5 | ||
| 2024-10-30T23:47 | 6029 | 472 | 299 | 36 | ||
| 2024-10-30T23:48 | 6409 | 448 | 296 | 35 | ||
| 2024-10-30T23:48 | 6555 | 439 | -29.5 | -37.5 | ||
| 2024-10-30T23:49 | 6758 | 427 | -29.9 | -46.2 | ||
| 2024-10-30T23:49 | 6777 | 426 | 295 | 40 | ||
| 2024-10-30T23:50 | 7053 | 410 | 295 | 49 | ||
| 2024-10-30T23:50 | 7065 | 409 | -30.2 | -53.9 | ||
| 2024-10-30T23:50 | 7194 | 401 | -30.3 | -53.0 | ||
| 2024-10-30T23:51 | 7399 | 390 | 294 | 50 | ||
| 2024-10-30T23:51 | 7433 | 388 | -31.7 | -51.0 | ||
| 2024-10-30T23:52 | 7652 | 376 | -32.6 | -58.2 | ||
| 2024-10-30T23:52 | 7740 | 372 | 292 | 53 | ||
| 2024-10-30T23:53 | 8050 | 355 | -35.8 | -57.4 | ||
| 2024-10-30T23:53 | 8147 | 351 | 291 | 53 | ||
| 2024-10-30T23:53 | 8330 | 341 | 291 | 56 | ||
| 2024-10-30T23:53 | 8357 | 340 | -38.0 | -53.1 | ||
| 2024-10-30T23:54 | 8545 | 331 | 290 | 59 | ||
| 2024-10-30T23:54 | 8572 | 330 | -40.0 | -51.3 | ||
| 2024-10-30T23:54 | 8779 | 320 | -41.6 | |||
| 2024-10-30T23:55 | 8892 | 314 | 289 | 62 | ||
| 2024-10-30T23:55 | 9149 | 303 | -44.4 | |||
| 2024-10-30T23:55 | 9209 | 300 | 287 | 58 | ||
| 2024-10-30T23:56 | 9261 | 298 | -44.1 | |||
| 2024-10-30T23:56 | 9539 | 286 | 287 | 61 | ||
| 2024-10-30T23:57 | 9795 | 275 | 290 | 63 | ||
| 2024-10-30T23:58 | 9945 | 269 | -48.1 | |||
| 2024-10-30T23:58 | 10104 | 262 | 290 | 61 | ||
| 2024-10-30T23:59 | 10395 | 251 | 287 | 61 | ||
| 2024-10-31T00:00 | 10715 | 239 | 287 | 60 | ||
| 2024-10-31T00:00 | 10726 | 238 | -51.1 | |||
| 2024-10-31T00:01 | 11008 | 228 | -50.5 | |||
| 2024-10-31T00:01 | 11014 | 228 | 285 | 57 | ||
| 2024-10-31T00:01 | 11119 | 224 | -50.5 | |||
| 2024-10-31T00:02 | 11297 | 218 | 282 | 60 | ||
| 2024-10-31T00:02 | 11497 | 212 | -52.9 | |||
| 2024-10-31T00:03 | 11526 | 211 | 283 | 60 | ||
| 2024-10-31T00:03 | 11818 | 201 | 284 | 60 | ||
| 2024-10-31T00:04 | 11996 | 196 | -52.3 | |||
| 2024-10-31T00:04 | 12143 | 191 | 281 | 59 | ||
| 2024-10-31T00:05 | 12439 | 183 | 279 | 58 | ||
| 2024-10-31T00:06 | 12608 | 178 | -54.0 | |||
| 2024-10-31T00:06 | 12730 | 175 | 280 | 62 | ||
| 2024-10-31T00:07 | 12993 | 168 | 284 | 61 | ||
| 2024-10-31T00:08 | 13312 | 159 | 283 | 56 | ||
| 2024-10-31T00:09 | 13629 | 152 | 282 | 52 | ||
| 2024-10-31T00:10 | 13818 | 147 | -57.6 | |||
| 2024-10-31T00:10 | 13946 | 144 | 284 | 50 | ||
| 2024-10-31T00:11 | 14097 | 141 | -58.7 | |||
| 2024-10-31T00:11 | 14210 | 138 | 285 | 45 | ||
| 2024-10-31T00:12 | 14420 | 134 | 280 | 47 | ||
| 2024-10-31T00:12 | 14485 | 132 | -59.4 | |||
| 2024-10-31T00:13 | 14743 | 127 | 279 | 43 | ||
| 2024-10-31T00:13 | 14822 | 125 | -61.3 | |||
| 2024-10-31T00:13 | 14907 | 124 | 276 | 44 | ||
| 2024-10-31T00:14 | 15146 | 119 | 274 | 44 | ||
| 2024-10-31T00:14 | 15223 | 118 | -59.9 | |||
| 2024-10-31T00:15 | 15455 | 113 | 280 | 42 | ||
| 2024-10-31T00:16 | 15690 | 109 | -60.0 | |||
| 2024-10-31T00:16 | 15809 | 107 | 277 | 38 | ||
| 2024-10-31T00:16 | 15990 | 104 | -61.4 | |||
| 2024-10-31T00:17 | 16204 | 100 | 270 | 37 | ||
| 2024-10-31T00:18 | 16521 | 95 | 265 | 40 | ||
| 2024-10-31T00:18 | 16755 | 92 | 266 | 45 | ||
| 2024-10-31T00:19 | 16945 | 89 | -63.1 | |||
| 2024-10-31T00:19 | 17052 | 88 | 274 | 41 | ||
| 2024-10-31T00:20 | 17181 | 86 | -61.7 | |||
| 2024-10-31T00:20 | 17208 | 85 | 276 | 44 | ||
| 2024-10-31T00:21 | 17415 | 83 | -60.5 | |||
| 2024-10-31T00:21 | 17423 | 82 | 283 | 43 | ||
| 2024-10-31T00:21 | 17506 | 81 | -58.8 | |||
| 2024-10-31T00:21 | 17643 | 80 | 279 | 33 | ||
| 2024-10-31T00:22 | 17784 | 78 | -57.9 | |||
| 2024-10-31T00:22 | 17966 | 76 | 270 | 36 | ||
| 2024-10-31T00:22 | 17974 | 76 | -56.7 | |||
| 2024-10-31T00:23 | 18222 | 73 | 268 | 38 | ||
| 2024-10-31T00:24 | 18589 | 69 | 280 | 33 | ||
| 2024-10-31T00:25 | 18906 | 65 | -60.1 | |||
| 2024-10-31T00:25 | 19010 | 64 | 275 | 27 | ||
| 2024-10-31T00:25 | 19162 | 63 | -58.1 | |||
| 2024-10-31T00:26 | 19304 | 61 | 268 | 25 | ||
| 2024-10-31T00:27 | 19748 | 57 | 276 | 21 | ||
| 2024-10-31T00:27 | 19783 | 57 | -60.8 | |||
| 2024-10-31T00:28 | 20082 | 54 | 265 | 19 | ||
| 2024-10-31T00:29 | 20426 | 51 | -63.5 | |||
| 2024-10-31T00:29 | 20449 | 51 | 261 | 22 | ||
| 2024-10-31T00:29 | 20725 | 49 | -61.7 | |||
| 2024-10-31T00:30 | 20803 | 48 | 252 | 26 | ||
| 2024-10-31T00:31 | 21185 | 45 | 244 | 25 | ||
| 2024-10-31T00:31 | 21462 | 43 | 265 | 26 | ||
| 2024-10-31T00:32 | 21550 | 43 | -62.5 | |||
| 2024-10-31T00:32 | 21725 | 41 | 261 | 24 | ||
| 2024-10-31T00:33 | 22020 | 39 | 266 | 27 | ||
| 2024-10-31T00:33 | 22166 | 39 | -56.3 | |||
| 2024-10-31T00:33 | 22216 | 38 | 276 | 25 | ||
| 2024-10-31T00:34 | 22440 | 37 | 286 | 22 | ||
| 2024-10-31T00:34 | 22632 | 36 | 270 | 12 | ||
| 2024-10-31T00:35 | 22777 | 35 | -53.6 | |||
| 2024-10-31T00:35 | 22832 | 35 | 241 | 9 | ||
| 2024-10-31T00:36 | 23247 | 33 | 236 | 14 | ||
| 2024-10-31T00:37 | 23588 | 31 | -58.1 | |||
| 2024-10-31T00:37 | 23629 | 31 | 255 | 18 | ||
| 2024-10-31T00:38 | 23923 | 29 | 263 | 12 | ||
| 2024-10-31T00:39 | 24282 | 28 | 240 | 14 | ||
| 2024-10-31T00:39 | 24304 | 28 | -56.9 | |||
| 2024-10-31T00:40 | 24657 | 26 | 250 | 19 | ||
| 2024-10-31T00:40 | 24757 | 26 | -56.1 | |||
| 2024-10-31T00:41 | 25013 | 25 | 259 | 21 | ||
| 2024-10-31T00:42 | 25409 | 23 | 261 | 14 | ||
| 2024-10-31T00:43 | 25807 | 22 | 234 | 15 | ||
| 2024-10-31T00:44 | 26228 | 20 | 236 | 16 | ||
| 2024-10-31T00:44 | 26484 | 20 | -57.5 | |||
| 2024-10-31T00:45 | 26614 | 19 | 229 | 23 | ||
| 2024-10-31T00:45 | 26657 | 19 | -58.4 | 232 | 24 | |
| 2024-10-31T11:30 | 18 | 1021 | 8.6 | 3.6 | 130 | 1 |
| 2024-10-31T11:30 | 22 | 1021 | 9.0 | 3.4 | 0 | 0 |
| 2024-10-31T11:30 | 37 | 1019 | 10.0 | 2.8 | ||
| 2024-10-31T11:30 | 72 | 1014 | 10.5 | 2.1 | ||
| 2024-10-31T11:30 | 94 | 1012 | 10.8 | 1.1 | ||
| 2024-10-31T11:30 | 118 | 1009 | 12.1 | -0.1 | ||
| 2024-10-31T11:31 | 250 | 993 | 11.5 | -0.6 | ||
| 2024-10-31T11:31 | 361 | 980 | 112 | 1 | ||
| 2024-10-31T11:32 | 550 | 958 | 9.2 | -2.4 | ||
| 2024-10-31T11:32 | 595 | 953 | 291 | 3 | ||
| 2024-10-31T11:32 | 697 | 941 | 301 | 5 | ||
| 2024-10-31T11:33 | 950 | 913 | 6.2 | -5.2 | ||
| 2024-10-31T11:33 | 956 | 912 | 297 | 7 | ||
| 2024-10-31T11:33 | 1122 | 894 | 297 | 9 | ||
| 2024-10-31T11:34 | 1348 | 869 | 3.5 | -10.9 | ||
| 2024-10-31T11:34 | 1496 | 853 | 295 | 11 | ||
| 2024-10-31T11:34 | 1595 | 843 | 2.2 | -12.8 | ||
| 2024-10-31T11:35 | 1864 | 815 | 304 | 11 | ||
| 2024-10-31T11:35 | 1895 | 812 | 0.0 | -14.0 | ||
| 2024-10-31T11:35 | 1999 | 801 | 286 | 12 | ||
| 2024-10-31T11:35 | 2005 | 801 | 0.3 | -16.5 | ||
| 2024-10-31T11:36 | 2115 | 790 | 0.3 | -16.1 | ||
| 2024-10-31T11:36 | 2283 | 774 | 298 | 14 | ||
| 2024-10-31T11:36 | 2339 | 768 | -0.8 | -17.1 | ||
| 2024-10-31T11:37 | 2507 | 752 | -1.2 | -20.8 | ||
| 2024-10-31T11:37 | 2606 | 743 | -1.7 | -14.2 | ||
| 2024-10-31T11:37 | 2672 | 737 | 299 | 16 | ||
| 2024-10-31T11:37 | 2738 | 731 | -2.8 | -15.8 | ||
| 2024-10-31T11:37 | 2797 | 725 | -3.1 | -20.4 | ||
| 2024-10-31T11:38 | 2932 | 713 | -4.0 | -29.3 | ||
| 2024-10-31T11:38 | 3050 | 702 | -4.5 | -17.3 | ||
| 2024-10-31T11:38 | 3056 | 702 | 286 | 18 | ||
| 2024-10-31T11:38 | 3160 | 693 | 289 | 21 | ||
| 2024-10-31T11:39 | 3197 | 689 | -5.5 | -13.8 | ||
| 2024-10-31T11:39 | 3252 | 685 | -5.8 | -16.7 | ||
| 2024-10-31T11:39 | 3283 | 682 | 291 | 21 | ||
| 2024-10-31T11:39 | 3333 | 677 | -6.3 | -12.0 | ||
| 2024-10-31T11:39 | 3389 | 673 | 294 | 23 | ||
| 2024-10-31T11:40 | 3604 | 654 | -8.1 | -13.1 | ||
| 2024-10-31T11:40 | 3698 | 646 | -8.0 | -17.9 | ||
| 2024-10-31T11:40 | 3750 | 642 | 299 | 22 | ||
| 2024-10-31T11:41 | 3937 | 627 | -9.4 | -16.1 | ||
| 2024-10-31T11:41 | 4008 | 621 | 291 | 26 | ||
| 2024-10-31T11:41 | 4031 | 619 | -9.5 | -16.2 | ||
| 2024-10-31T11:41 | 4108 | 613 | -9.5 | -16.9 | ||
| 2024-10-31T11:42 | 4259 | 601 | -10.7 | -15.8 | ||
| 2024-10-31T11:42 | 4356 | 594 | 286 | 27 | ||
| 2024-10-31T11:42 | 4463 | 585 | -12.0 | -17.1 | ||
| 2024-10-31T11:43 | 4699 | 567 | 289 | 30 | ||
| 2024-10-31T11:43 | 4842 | 557 | -14.9 | -19.5 | ||
| 2024-10-31T11:43 | 4925 | 551 | -15.3 | -21.1 | ||
| 2024-10-31T11:44 | 5058 | 541 | 281 | 29 | ||
| 2024-10-31T11:44 | 5094 | 539 | -16.5 | -22.3 | ||
| 2024-10-31T11:45 | 5429 | 515 | 290 | 29 | ||
| 2024-10-31T11:45 | 5537 | 508 | -19.6 | -26.8 | ||
| 2024-10-31T11:46 | 5777 | 491 | -21.3 | -28.2 | ||
| 2024-10-31T11:46 | 5783 | 491 | 286 | 31 | ||
| 2024-10-31T11:46 | 5938 | 481 | -22.4 | -28.1 | ||
| 2024-10-31T11:47 | 6061 | 473 | 283 | 34 | ||
| 2024-10-31T11:47 | 6176 | 465 | -23.7 | -25.8 | ||
| 2024-10-31T11:47 | 6235 | 462 | -23.9 | -28.3 | ||
| 2024-10-31T11:47 | 6287 | 458 | -24.3 | -31.2 | ||
| 2024-10-31T11:47 | 6322 | 456 | 281 | 38 | ||
| 2024-10-31T11:47 | 6357 | 454 | -24.6 | -37.9 | ||
| 2024-10-31T11:48 | 6465 | 447 | -25.3 | -36.6 | ||
| 2024-10-31T11:48 | 6548 | 442 | -25.8 | -36.8 | ||
| 2024-10-31T11:48 | 6613 | 438 | 288 | 40 | ||
| 2024-10-31T11:48 | 6630 | 437 | -26.2 | -36.6 | ||
| 2024-10-31T11:48 | 6677 | 434 | -26.2 | -36.1 | ||
| 2024-10-31T11:48 | 6736 | 431 | -25.9 | -42.3 | ||
| 2024-10-31T11:49 | 6817 | 426 | -26.1 | -40.0 | ||
| 2024-10-31T11:49 | 6880 | 422 | -26.1 | -35.0 | ||
| 2024-10-31T11:49 | 6955 | 418 | 290 | 43 | ||
| 2024-10-31T11:50 | 7067 | 412 | -27.4 | -33.9 | ||
| 2024-10-31T11:50 | 7256 | 401 | 289 | 46 | ||
| 2024-10-31T11:51 | 7426 | 391 | -29.8 | -36.0 | ||
| 2024-10-31T11:51 | 7578 | 383 | 289 | 47 | ||
| 2024-10-31T11:51 | 7636 | 380 | -31.1 | -37.9 | ||
| 2024-10-31T11:52 | 7825 | 370 | 283 | 48 | ||
| 2024-10-31T11:52 | 7866 | 368 | -32.5 | -39.1 | ||
| 2024-10-31T11:53 | 8155 | 353 | 291 | 55 | ||
| 2024-10-31T11:53 | 8320 | 345 | -35.7 | -41.4 | ||
| 2024-10-31T11:54 | 8489 | 336 | 291 | 55 | ||
| 2024-10-31T11:55 | 8763 | 323 | -39.4 | -44.5 | ||
| 2024-10-31T11:55 | 8835 | 320 | -40.0 | -45.1 | ||
| 2024-10-31T11:55 | 8849 | 319 | 289 | 57 | ||
| 2024-10-31T11:55 | 9071 | 309 | 291 | 59 | ||
| 2024-10-31T11:56 | 9286 | 299 | 289 | 59 | ||
| 2024-10-31T11:57 | 9675 | 282 | 291 | 63 | ||
| 2024-10-31T11:58 | 10073 | 266 | 293 | 65 | ||
| 2024-10-31T11:59 | 10456 | 250 | -53.2 | |||
| 2024-10-31T11:59 | 10466 | 250 | 295 | 63 | ||
| 2024-10-31T11:59 | 10643 | 243 | 295 | 64 | ||
| 2024-10-31T12:00 | 10883 | 234 | 293 | 63 | ||
| 2024-10-31T12:00 | 10957 | 232 | -55.3 | |||
| 2024-10-31T12:01 | 11036 | 229 | 293 | 60 | ||
| 2024-10-31T12:01 | 11227 | 222 | -54.3 | |||
| 2024-10-31T12:01 | 11329 | 219 | 287 | 55 | ||
| 2024-10-31T12:01 | 11360 | 218 | -51.4 | |||
| 2024-10-31T12:02 | 11501 | 213 | -50.1 | |||
| 2024-10-31T12:02 | 11550 | 211 | 285 | 61 | ||
| 2024-10-31T12:02 | 11705 | 206 | -50.4 | |||
| 2024-10-31T12:03 | 11888 | 201 | 288 | 55 | ||
| 2024-10-31T12:04 | 12194 | 191 | -52.5 | |||
| 2024-10-31T12:04 | 12210 | 191 | 287 | 52 | ||
| 2024-10-31T12:05 | 12534 | 181 | 282 | 51 | ||
| 2024-10-31T12:05 | 12694 | 177 | 281 | 48 | ||
| 2024-10-31T12:06 | 13057 | 167 | 281 | 49 | ||
| 2024-10-31T12:07 | 13319 | 160 | -55.5 | |||
| 2024-10-31T12:07 | 13372 | 159 | 285 | 51 | ||
| 2024-10-31T12:08 | 13600 | 153 | -55.9 | |||
| 2024-10-31T12:08 | 13724 | 151 | 280 | 48 | ||
| 2024-10-31T12:09 | 14068 | 143 | 279 | 46 | ||
| 2024-10-31T12:10 | 14196 | 140 | -58.1 | |||
| 2024-10-31T12:10 | 14383 | 136 | 279 | 48 | ||
| 2024-10-31T12:11 | 14658 | 130 | -59.3 | |||
| 2024-10-31T12:11 | 14688 | 129 | 279 | 48 | ||
| 2024-10-31T12:12 | 14994 | 123 | 284 | 44 | ||
| 2024-10-31T12:12 | 15034 | 122 | -60.1 | |||
| 2024-10-31T12:13 | 15252 | 118 | 286 | 44 | ||
| 2024-10-31T12:13 | 15404 | 115 | -61.5 | |||
| 2024-10-31T12:14 | 15625 | 111 | 289 | 44 | ||
| 2024-10-31T12:14 | 15631 | 111 | -61.1 | |||
| 2024-10-31T12:15 | 16009 | 105 | 282 | 41 | ||
| 2024-10-31T12:15 | 16056 | 104 | -61.3 | |||
| 2024-10-31T12:15 | 16168 | 102 | -61.5 | |||
| 2024-10-31T12:16 | 16290 | 100 | 273 | 41 | ||
| 2024-10-31T12:17 | 16648 | 94 | 278 | 47 | ||
| 2024-10-31T12:17 | 16859 | 91 | -63.2 | |||
| 2024-10-31T12:18 | 16982 | 89 | 278 | 48 | ||
| 2024-10-31T12:18 | 17281 | 85 | -63.0 | |||
| 2024-10-31T12:19 | 17347 | 84 | 282 | 46 | ||
| 2024-10-31T12:19 | 17567 | 81 | -63.7 | |||
| 2024-10-31T12:20 | 17691 | 80 | 293 | 37 | ||
| 2024-10-31T12:20 | 17778 | 78 | -62.5 | |||
| 2024-10-31T12:21 | 18004 | 76 | 277 | 29 | ||
| 2024-10-31T12:21 | 18261 | 73 | -60.3 | |||
| 2024-10-31T12:22 | 18314 | 72 | 278 | 37 | ||
| 2024-10-31T12:22 | 18383 | 71 | -58.3 | |||
| 2024-10-31T12:23 | 18627 | 68 | 283 | 34 | ||
| 2024-10-31T12:23 | 18681 | 68 | -58.5 | |||
| 2024-10-31T12:24 | 18909 | 65 | 293 | 32 | ||
| 2024-10-31T12:25 | 19253 | 62 | 299 | 21 | ||
| 2024-10-31T12:25 | 19304 | 61 | -57.8 | |||
| 2024-10-31T12:26 | 19610 | 59 | 272 | 9 | ||
| 2024-10-31T12:26 | 19663 | 58 | -58.0 | |||
| 2024-10-31T12:27 | 19993 | 55 | 250 | 13 | ||
| 2024-10-31T12:28 | 20391 | 52 | 244 | 16 | ||
| 2024-10-31T12:28 | 20620 | 50 | -64.5 | |||
| 2024-10-31T12:29 | 20802 | 48 | 265 | 20 | ||
| 2024-10-31T12:30 | 21192 | 45 | 276 | 20 | ||
| 2024-10-31T12:30 | 21327 | 44 | -67.2 | |||
| 2024-10-31T12:30 | 21447 | 43 | 286 | 27 | ||
| 2024-10-31T12:31 | 21763 | 41 | -66.4 | |||
| 2024-10-31T12:31 | 21838 | 41 | 281 | 24 | ||
| 2024-10-31T12:31 | 21881 | 40 | -64.8 | |||
| 2024-10-31T12:32 | 22051 | 39 | -64.5 | |||
| 2024-10-31T12:32 | 22131 | 39 | 261 | 26 | ||
| 2024-10-31T12:32 | 22160 | 39 | -63.8 | |||
| 2024-10-31T12:33 | 22440 | 37 | 259 | 36 | ||
| 2024-10-31T12:33 | 22666 | 36 | 263 | 34 | ||
| 2024-10-31T12:34 | 22974 | 34 | -58.0 | |||
| 2024-10-31T12:34 | 23126 | 33 | 267 | 33 | ||
| 2024-10-31T12:35 | 23456 | 31 | 272 | 29 | ||
| 2024-10-31T12:36 | 23644 | 30 | 268 | 27 | ||
| 2024-10-31T12:36 | 23812 | 30 | 264 | 23 | ||
| 2024-10-31T12:36 | 23857 | 29 | -55.9 | |||
| 2024-10-31T12:37 | 24076 | 28 | -55.3 | |||
| 2024-10-31T12:37 | 24099 | 28 | 273 | 23 | ||
| 2024-10-31T12:37 | 24258 | 28 | 263 | 16 | ||
| 2024-10-31T12:37 | 24355 | 27 | -54.2 | |||
| 2024-10-31T12:38 | 24693 | 26 | 241 | 21 | ||
| 2024-10-31T12:39 | 24894 | 25 | 247 | 23 | ||
| 2024-10-31T12:39 | 25079 | 24 | 261 | 22 | ||
| 2024-10-31T12:40 | 25238 | 24 | -52.6 | 263 | 22 | |
| 2024-10-31T12:40 | 25376 | 23 | 264 | 23 | ||
| 2024-10-31T12:41 | 25665 | 22 | 279 | 12 | ||
| 2024-10-31T12:41 | 25694 | 22 | -48.8 | |||
| 2024-10-31T12:41 | 25756 | 22 | 268 | 6 | ||
| 2024-10-31T12:41 | 25843 | 22 | 223 | 3 | ||
| 2024-10-31T12:42 | 26063 | 21 | 184 | 1 | ||
| 2024-10-31T12:42 | 26151 | 21 | -51.5 | |||
| 2024-10-31T12:43 | 26282 | 20 | 247 | 4 | ||
| 2024-10-31T12:43 | 26301 | 20 | -52.6 | 250 | 4 | |
| 2024-10-31T23:30 | 18 | 1020 | 11.2 | 6.7 | 130 | 2 |
| 2024-10-31T23:30 | 21 | 1020 | 11.4 | 6.5 | 0 | 0 |
| 2024-10-31T23:30 | 53 | 1016 | 110 | 3 | ||
| 2024-10-31T23:30 | 127 | 1007 | 10.4 | 5.4 | ||
| 2024-10-31T23:30 | 142 | 1005 | 11.2 | 5.3 | ||
| 2024-10-31T23:31 | 163 | 1003 | 12.8 | 5.5 | ||
| 2024-10-31T23:31 | 189 | 1000 | 186 | 4 | ||
| 2024-10-31T23:31 | 315 | 984 | 12.3 | 6.1 | ||
| 2024-10-31T23:31 | 343 | 981 | 222 | 6 | ||
| 2024-10-31T23:31 | 469 | 967 | 227 | 3 | ||
| 2024-10-31T23:32 | 585 | 953 | 179 | 2 | ||
| 2024-10-31T23:32 | 758 | 933 | 8.8 | 5.0 | ||
| 2024-10-31T23:32 | 763 | 933 | 268 | 3 | ||
| 2024-10-31T23:33 | 1074 | 898 | 275 | 7 | ||
| 2024-10-31T23:34 | 1359 | 868 | 298 | 9 | ||
| 2024-10-31T23:35 | 1712 | 831 | 278 | 9 | ||
| 2024-10-31T23:36 | 1871 | 815 | 1.4 | 0.8 | ||
| 2024-10-31T23:36 | 2078 | 794 | 268 | 9 | ||
| 2024-10-31T23:37 | 2429 | 760 | 269 | 11 | ||
| 2024-10-31T23:38 | 2704 | 734 | -2.8 | -2.9 | ||
| 2024-10-31T23:38 | 2803 | 725 | 271 | 15 | ||
| 2024-10-31T23:38 | 2876 | 718 | -3.5 | -3.9 | ||
| 2024-10-31T23:38 | 2901 | 716 | -3.5 | -4.3 | ||
| 2024-10-31T23:39 | 2913 | 715 | -3.1 | -4.8 | ||
| 2024-10-31T23:39 | 2956 | 711 | -3.5 | -5.7 | ||
| 2024-10-31T23:39 | 3053 | 702 | -4.3 | -5.1 | ||
| 2024-10-31T23:39 | 3167 | 692 | 279 | 20 | ||
| 2024-10-31T23:40 | 3523 | 661 | 284 | 21 | ||
| 2024-10-31T23:41 | 3673 | 649 | -8.4 | -10.0 | ||
| 2024-10-31T23:41 | 3777 | 640 | 284 | 26 | ||
| 2024-10-31T23:42 | 4185 | 607 | 287 | 25 | ||
| 2024-10-31T23:42 | 4260 | 601 | -12.1 | -14.7 | ||
| 2024-10-31T23:43 | 4572 | 577 | -14.0 | -16.6 | ||
| 2024-10-31T23:43 | 4578 | 577 | 286 | 25 | ||
| 2024-10-31T23:43 | 4694 | 568 | -15.2 | -21.2 | ||
| 2024-10-31T23:43 | 4740 | 564 | -15.6 | -27.0 | ||
| 2024-10-31T23:44 | 4900 | 552 | -16.5 | -29.7 | ||
| 2024-10-31T23:44 | 4973 | 547 | 285 | 31 | ||
| 2024-10-31T23:44 | 5099 | 538 | -16.5 | -29.0 | ||
| 2024-10-31T23:44 | 5145 | 535 | -15.4 | -23.3 | ||
| 2024-10-31T23:45 | 5289 | 525 | -14.8 | -19.9 | ||
| 2024-10-31T23:45 | 5302 | 524 | 276 | 37 | ||
| 2024-10-31T23:45 | 5406 | 517 | -15.5 | -19.6 | ||
| 2024-10-31T23:45 | 5498 | 510 | -16.2 | -26.7 | ||
| 2024-10-31T23:46 | 5694 | 497 | 269 | 40 | ||
| 2024-10-31T23:46 | 5726 | 495 | -17.4 | -24.5 | ||
| 2024-10-31T23:46 | 5895 | 484 | -18.0 | -22.1 | ||
| 2024-10-31T23:47 | 6074 | 473 | -18.9 | -23.3 | ||
| 2024-10-31T23:47 | 6081 | 472 | 272 | 41 | ||
| 2024-10-31T23:47 | 6277 | 460 | -20.7 | -28.4 | ||
| 2024-10-31T23:47 | 6352 | 455 | -21.3 | -33.0 | ||
| 2024-10-31T23:48 | 6458 | 449 | 265 | 43 | ||
| 2024-10-31T23:49 | 6818 | 427 | -24.3 | -34.6 | ||
| 2024-10-31T23:49 | 6830 | 426 | 273 | 43 | ||
| 2024-10-31T23:49 | 6886 | 423 | -24.6 | -33.6 | ||
| 2024-10-31T23:49 | 6962 | 419 | -25.2 | -36.2 | ||
| 2024-10-31T23:49 | 7032 | 415 | -25.5 | -33.3 | ||
| 2024-10-31T23:49 | 7083 | 412 | -25.4 | -29.7 | ||
| 2024-10-31T23:50 | 7186 | 406 | -25.4 | -28.0 | ||
| 2024-10-31T23:50 | 7192 | 406 | 274 | 42 | ||
| 2024-10-31T23:51 | 7590 | 384 | -27.0 | -33.9 | 277 | 44 |
| 2024-10-31T23:51 | 7891 | 368 | -29.5 | -34.5 | ||
| 2024-10-31T23:52 | 7991 | 363 | 277 | 46 | ||
| 2024-10-31T23:52 | 8109 | 357 | -31.2 | -35.0 | ||
| 2024-10-31T23:52 | 8244 | 350 | -31.7 | -37.8 | ||
| 2024-10-31T23:53 | 8376 | 344 | 283 | 50 | ||
| 2024-10-31T23:53 | 8436 | 341 | -33.1 | -39.6 | ||
| 2024-10-31T23:53 | 8713 | 328 | -34.4 | -43.3 | ||
| 2024-10-31T23:54 | 8784 | 324 | 284 | 54 | ||
| 2024-10-31T23:54 | 9037 | 313 | -36.9 | -41.8 | ||
| 2024-10-31T23:55 | 9171 | 307 | 282 | 56 | ||
| 2024-10-31T23:55 | 9373 | 298 | -39.5 | -46.9 | ||
| 2024-10-31T23:55 | 9394 | 297 | 281 | 59 | ||
| 2024-10-31T23:55 | 9473 | 294 | -40.0 | -47.8 | ||
| 2024-10-31T23:56 | 9797 | 280 | 282 | 61 | ||
| 2024-10-31T23:57 | 10198 | 264 | 281 | 66 | ||
| 2024-10-31T23:58 | 10597 | 248 | 281 | 78 | ||
| 2024-10-31T23:59 | 11007 | 233 | 277 | 85 | ||
| 2024-10-31T23:59 | 11089 | 230 | -51.7 |
